<?xml version="1.0" encoding="UTF-8" standalone="no" ?>
<gpx xmlns="http://www.topografix.com/GPX/1/1" xmlns:xsi="http://www.w3.org/2001/XMLSchema-instance" xsi:schemaLocation="http://www.topografix.com/GPX/1/1 http://www.topografix.com/GPX/1/1/gpx.xsd" version="1.1" creator="VisuGPX - https://www.visugpx.com">
  <metadata>
    <name>jogging </name>
    <desc><![CDATA[st germain et mons]]></desc>
  </metadata>
  <trk>
    <name><![CDATA[RUNNING]]></name>
    <trkseg>
      <trkpt lat="44.84343" lon="0.5859">
        <ele>46</ele>
        <time>2014-07-21T08:59:46.000Z</time>
      </trkpt>
      <trkpt lat="44.84343" lon="0.58591">
        <ele>46</ele>
        <time>2014-07-21T08:59:47.000Z</time>
      </trkpt>
      <trkpt lat="44.84343" lon="0.58592">
        <ele>46</ele>
        <time>2014-07-21T08:59:48.000Z</time>
      </trkpt>
      <trkpt lat="44.84343" lon="0.58593">
        <ele>46</ele>
        <time>2014-07-21T08:59:49.000Z</time>
      </trkpt>
      <trkpt lat="44.84342" lon="0.58594">
        <ele>46</ele>
        <time>2014-07-21T08:59:50.000Z</time>
      </trkpt>
      <trkpt lat="44.84342" lon="0.58595">
        <ele>46</ele>
        <time>2014-07-21T08:59:51.000Z</time>
      </trkpt>
      <trkpt lat="44.84342" lon="0.58596">
        <ele>46</ele>
        <time>2014-07-21T08:59:52.000Z</time>
      </trkpt>
      <trkpt lat="44.84341" lon="0.58597">
        <ele>46</ele>
        <time>2014-07-21T08:59:53.000Z</time>
      </trkpt>
      <trkpt lat="44.84341" lon="0.58598">
        <ele>46</ele>
        <time>2014-07-21T08:59:54.000Z</time>
      </trkpt>
      <trkpt lat="44.8434" lon="0.58599">
        <ele>46</ele>
        <time>2014-07-21T08:59:55.000Z</time>
      </trkpt>
      <trkpt lat="44.84339" lon="0.586">
        <ele>46</ele>
        <time>2014-07-21T08:59:56.000Z</time>
      </trkpt>
      <trkpt lat="44.84337" lon="0.58601">
        <ele>46</ele>
        <time>2014-07-21T08:59:57.000Z</time>
      </trkpt>
      <trkpt lat="44.84335" lon="0.58602">
        <ele>45</ele>
        <time>2014-07-21T08:59:58.000Z</time>
      </trkpt>
      <trkpt lat="44.84333" lon="0.58603">
        <ele>45</ele>
        <time>2014-07-21T08:59:59.000Z</time>
      </trkpt>
      <trkpt lat="44.84331" lon="0.58604">
        <ele>45</ele>
        <time>2014-07-21T09:00:00.000Z</time>
      </trkpt>
      <trkpt lat="44.84328" lon="0.58605">
        <ele>45</ele>
        <time>2014-07-21T09:00:01.000Z</time>
      </trkpt>
      <trkpt lat="44.84325" lon="0.58606">
        <ele>45</ele>
        <time>2014-07-21T09:00:02.000Z</time>
      </trkpt>
      <trkpt lat="44.84322" lon="0.58607">
        <ele>45</ele>
        <time>2014-07-21T09:00:03.000Z</time>
      </trkpt>
      <trkpt lat="44.8432" lon="0.58608">
        <ele>45</ele>
        <time>2014-07-21T09:00:04.000Z</time>
      </trkpt>
      <trkpt lat="44.84317" lon="0.58609">
        <ele>45</ele>
        <time>2014-07-21T09:00:05.000Z</time>
      </trkpt>
      <trkpt lat="44.84314" lon="0.5861">
        <ele>45</ele>
        <time>2014-07-21T09:00:06.000Z</time>
      </trkpt>
      <trkpt lat="44.84312" lon="0.58611">
        <ele>45</ele>
        <time>2014-07-21T09:00:07.000Z</time>
      </trkpt>
      <trkpt lat="44.84309" lon="0.58612">
        <ele>45</ele>
        <time>2014-07-21T09:00:08.000Z</time>
      </trkpt>
      <trkpt lat="44.84306" lon="0.58611">
        <ele>45</ele>
        <time>2014-07-21T09:00:09.000Z</time>
      </trkpt>
      <trkpt lat="44.84303" lon="0.5861">
        <ele>45</ele>
        <time>2014-07-21T09:00:10.000Z</time>
      </trkpt>
      <trkpt lat="44.84301" lon="0.58607">
        <ele>45</ele>
        <time>2014-07-21T09:00:11.000Z</time>
      </trkpt>
      <trkpt lat="44.84299" lon="0.58605">
        <ele>45</ele>
        <time>2014-07-21T09:00:12.000Z</time>
      </trkpt>
      <trkpt lat="44.84296" lon="0.58603">
        <ele>45</ele>
        <time>2014-07-21T09:00:13.000Z</time>
      </trkpt>
      <trkpt lat="44.84293" lon="0.58601">
        <ele>45</ele>
        <time>2014-07-21T09:00:14.000Z</time>
      </trkpt>
      <trkpt lat="44.8429" lon="0.586">
        <ele>45</ele>
        <time>2014-07-21T09:00:15.000Z</time>
      </trkpt>
      <trkpt lat="44.84288" lon="0.58598">
        <ele>45</ele>
        <time>2014-07-21T09:00:16.000Z</time>
      </trkpt>
      <trkpt lat="44.84285" lon="0.58597">
        <ele>45</ele>
        <time>2014-07-21T09:00:17.000Z</time>
      </trkpt>
      <trkpt lat="44.84283" lon="0.58595">
        <ele>45</ele>
        <time>2014-07-21T09:00:18.000Z</time>
      </trkpt>
      <trkpt lat="44.8428" lon="0.58592">
        <ele>45</ele>
        <time>2014-07-21T09:00:19.000Z</time>
      </trkpt>
      <trkpt lat="44.84278" lon="0.5859">
        <ele>45</ele>
        <time>2014-07-21T09:00:20.000Z</time>
      </trkpt>
      <trkpt lat="44.84276" lon="0.58588">
        <ele>45</ele>
        <time>2014-07-21T09:00:21.000Z</time>
      </trkpt>
      <trkpt lat="44.84273" lon="0.58585">
        <ele>45</ele>
        <time>2014-07-21T09:00:22.000Z</time>
      </trkpt>
      <trkpt lat="44.84271" lon="0.58583">
        <ele>46</ele>
        <time>2014-07-21T09:00:23.000Z</time>
      </trkpt>
      <trkpt lat="44.84269" lon="0.5858">
        <ele>46</ele>
        <time>2014-07-21T09:00:24.000Z</time>
      </trkpt>
      <trkpt lat="44.84267" lon="0.58578">
        <ele>46</ele>
        <time>2014-07-21T09:00:25.000Z</time>
      </trkpt>
      <trkpt lat="44.84265" lon="0.58575">
        <ele>46</ele>
        <time>2014-07-21T09:00:26.000Z</time>
      </trkpt>
      <trkpt lat="44.84262" lon="0.58573">
        <ele>46</ele>
        <time>2014-07-21T09:00:27.000Z</time>
      </trkpt>
      <trkpt lat="44.8426" lon="0.5857">
        <ele>46</ele>
        <time>2014-07-21T09:00:28.000Z</time>
      </trkpt>
      <trkpt lat="44.84258" lon="0.58567">
        <ele>46</ele>
        <time>2014-07-21T09:00:29.000Z</time>
      </trkpt>
      <trkpt lat="44.84256" lon="0.58565">
        <ele>46</ele>
        <time>2014-07-21T09:00:30.000Z</time>
      </trkpt>
      <trkpt lat="44.84254" lon="0.58562">
        <ele>45</ele>
        <time>2014-07-21T09:00:31.000Z</time>
      </trkpt>
      <trkpt lat="44.84252" lon="0.58559">
        <ele>46</ele>
        <time>2014-07-21T09:00:32.000Z</time>
      </trkpt>
      <trkpt lat="44.8425" lon="0.58556">
        <ele>46</ele>
        <time>2014-07-21T09:00:33.000Z</time>
      </trkpt>
      <trkpt lat="44.84248" lon="0.58554">
        <ele>46</ele>
        <time>2014-07-21T09:00:34.000Z</time>
      </trkpt>
      <trkpt lat="44.84246" lon="0.58551">
        <ele>46</ele>
        <time>2014-07-21T09:00:35.000Z</time>
      </trkpt>
      <trkpt lat="44.84244" lon="0.58548">
        <ele>46</ele>
        <time>2014-07-21T09:00:36.000Z</time>
      </trkpt>
      <trkpt lat="44.84243" lon="0.58545">
        <ele>46</ele>
        <time>2014-07-21T09:00:37.000Z</time>
      </trkpt>
      <trkpt lat="44.84241" lon="0.58542">
        <ele>46</ele>
        <time>2014-07-21T09:00:38.000Z</time>
      </trkpt>
      <trkpt lat="44.84239" lon="0.58539">
        <ele>46</ele>
        <time>2014-07-21T09:00:39.000Z</time>
      </trkpt>
      <trkpt lat="44.84237" lon="0.58536">
        <ele>46</ele>
        <time>2014-07-21T09:00:40.000Z</time>
      </trkpt>
      <trkpt lat="44.84235" lon="0.58533">
        <ele>46</ele>
        <time>2014-07-21T09:00:41.000Z</time>
      </trkpt>
      <trkpt lat="44.84233" lon="0.58531">
        <ele>46</ele>
        <time>2014-07-21T09:00:42.000Z</time>
      </trkpt>
      <trkpt lat="44.84231" lon="0.58528">
        <ele>46</ele>
        <time>2014-07-21T09:00:43.000Z</time>
      </trkpt>
      <trkpt lat="44.84229" lon="0.58525">
        <ele>46</ele>
        <time>2014-07-21T09:00:44.000Z</time>
      </trkpt>
      <trkpt lat="44.84228" lon="0.58522">
        <ele>46</ele>
        <time>2014-07-21T09:00:45.000Z</time>
      </trkpt>
      <trkpt lat="44.84226" lon="0.58519">
        <ele>46</ele>
        <time>2014-07-21T09:00:46.000Z</time>
      </trkpt>
      <trkpt lat="44.84224" lon="0.58516">
        <ele>46</ele>
        <time>2014-07-21T09:00:47.000Z</time>
      </trkpt>
      <trkpt lat="44.84222" lon="0.58513">
        <ele>46</ele>
        <time>2014-07-21T09:00:48.000Z</time>
      </trkpt>
      <trkpt lat="44.8422" lon="0.5851">
        <ele>46</ele>
        <time>2014-07-21T09:00:49.000Z</time>
      </trkpt>
      <trkpt lat="44.84218" lon="0.58507">
        <ele>46</ele>
        <time>2014-07-21T09:00:50.000Z</time>
      </trkpt>
      <trkpt lat="44.84217" lon="0.58504">
        <ele>46</ele>
        <time>2014-07-21T09:00:51.000Z</time>
      </trkpt>
      <trkpt lat="44.84215" lon="0.58501">
        <ele>46</ele>
        <time>2014-07-21T09:00:52.000Z</time>
      </trkpt>
      <trkpt lat="44.84213" lon="0.58498">
        <ele>46</ele>
        <time>2014-07-21T09:00:53.000Z</time>
      </trkpt>
      <trkpt lat="44.84211" lon="0.58495">
        <ele>46</ele>
        <time>2014-07-21T09:00:54.000Z</time>
      </trkpt>
      <trkpt lat="44.8421" lon="0.58492">
        <ele>46</ele>
        <time>2014-07-21T09:00:55.000Z</time>
      </trkpt>
      <trkpt lat="44.84208" lon="0.58488">
        <ele>46</ele>
        <time>2014-07-21T09:00:56.000Z</time>
      </trkpt>
      <trkpt lat="44.84206" lon="0.58485">
        <ele>46</ele>
        <time>2014-07-21T09:00:57.000Z</time>
      </trkpt>
      <trkpt lat="44.84205" lon="0.58482">
        <ele>46</ele>
        <time>2014-07-21T09:00:58.000Z</time>
      </trkpt>
      <trkpt lat="44.84203" lon="0.58478">
        <ele>46</ele>
        <time>2014-07-21T09:00:59.000Z</time>
      </trkpt>
      <trkpt lat="44.84202" lon="0.58475">
        <ele>46</ele>
        <time>2014-07-21T09:01:00.000Z</time>
      </trkpt>
      <trkpt lat="44.842" lon="0.58471">
        <ele>46</ele>
        <time>2014-07-21T09:01:01.000Z</time>
      </trkpt>
      <trkpt lat="44.84199" lon="0.58468">
        <ele>46</ele>
        <time>2014-07-21T09:01:02.000Z</time>
      </trkpt>
      <trkpt lat="44.84198" lon="0.58464">
        <ele>46</ele>
        <time>2014-07-21T09:01:03.000Z</time>
      </trkpt>
      <trkpt lat="44.84196" lon="0.58461">
        <ele>46</ele>
        <time>2014-07-21T09:01:04.000Z</time>
      </trkpt>
      <trkpt lat="44.84195" lon="0.58457">
        <ele>46</ele>
        <time>2014-07-21T09:01:05.000Z</time>
      </trkpt>
      <trkpt lat="44.84194" lon="0.58454">
        <ele>46</ele>
        <time>2014-07-21T09:01:06.000Z</time>
      </trkpt>
      <trkpt lat="44.84193" lon="0.5845">
        <ele>47</ele>
        <time>2014-07-21T09:01:07.000Z</time>
      </trkpt>
      <trkpt lat="44.84192" lon="0.58446">
        <ele>47</ele>
        <time>2014-07-21T09:01:08.000Z</time>
      </trkpt>
      <trkpt lat="44.84191" lon="0.58443">
        <ele>47</ele>
        <time>2014-07-21T09:01:09.000Z</time>
      </trkpt>
      <trkpt lat="44.8419" lon="0.58439">
        <ele>47</ele>
        <time>2014-07-21T09:01:10.000Z</time>
      </trkpt>
      <trkpt lat="44.8419" lon="0.58435">
        <ele>47</ele>
        <time>2014-07-21T09:01:11.000Z</time>
      </trkpt>
      <trkpt lat="44.84189" lon="0.58432">
        <ele>47</ele>
        <time>2014-07-21T09:01:12.000Z</time>
      </trkpt>
      <trkpt lat="44.84188" lon="0.58428">
        <ele>47</ele>
        <time>2014-07-21T09:01:13.000Z</time>
      </trkpt>
      <trkpt lat="44.84187" lon="0.58424">
        <ele>47</ele>
        <time>2014-07-21T09:01:14.000Z</time>
      </trkpt>
      <trkpt lat="44.84187" lon="0.5842">
        <ele>47</ele>
        <time>2014-07-21T09:01:15.000Z</time>
      </trkpt>
      <trkpt lat="44.84186" lon="0.58417">
        <ele>47</ele>
        <time>2014-07-21T09:01:16.000Z</time>
      </trkpt>
      <trkpt lat="44.84185" lon="0.58413">
        <ele>47</ele>
        <time>2014-07-21T09:01:17.000Z</time>
      </trkpt>
      <trkpt lat="44.84185" lon="0.58409">
        <ele>47</ele>
        <time>2014-07-21T09:01:18.000Z</time>
      </trkpt>
      <trkpt lat="44.84184" lon="0.58405">
        <ele>47</ele>
        <time>2014-07-21T09:01:19.000Z</time>
      </trkpt>
      <trkpt lat="44.84184" lon="0.58401">
        <ele>47</ele>
        <time>2014-07-21T09:01:20.000Z</time>
      </trkpt>
      <trkpt lat="44.84183" lon="0.58397">
        <ele>47</ele>
        <time>2014-07-21T09:01:21.000Z</time>
      </trkpt>
      <trkpt lat="44.84182" lon="0.58393">
        <ele>47</ele>
        <time>2014-07-21T09:01:22.000Z</time>
      </trkpt>
      <trkpt lat="44.84182" lon="0.58389">
        <ele>47</ele>
        <time>2014-07-21T09:01:23.000Z</time>
      </trkpt>
      <trkpt lat="44.84181" lon="0.58385">
        <ele>47</ele>
        <time>2014-07-21T09:01:24.000Z</time>
      </trkpt>
      <trkpt lat="44.8418" lon="0.58381">
        <ele>47</ele>
        <time>2014-07-21T09:01:25.000Z</time>
      </trkpt>
      <trkpt lat="44.8418" lon="0.58377">
        <ele>47</ele>
        <time>2014-07-21T09:01:26.000Z</time>
      </trkpt>
      <trkpt lat="44.84179" lon="0.58373">
        <ele>47</ele>
        <time>2014-07-21T09:01:27.000Z</time>
      </trkpt>
      <trkpt lat="44.84178" lon="0.58369">
        <ele>47</ele>
        <time>2014-07-21T09:01:28.000Z</time>
      </trkpt>
      <trkpt lat="44.84177" lon="0.58365">
        <ele>47</ele>
        <time>2014-07-21T09:01:29.000Z</time>
      </trkpt>
      <trkpt lat="44.84177" lon="0.58361">
        <ele>47</ele>
        <time>2014-07-21T09:01:30.000Z</time>
      </trkpt>
      <trkpt lat="44.84176" lon="0.58357">
        <ele>47</ele>
        <time>2014-07-21T09:01:31.000Z</time>
      </trkpt>
      <trkpt lat="44.84175" lon="0.58354">
        <ele>47</ele>
        <time>2014-07-21T09:01:32.000Z</time>
      </trkpt>
      <trkpt lat="44.84174" lon="0.5835">
        <ele>47</ele>
        <time>2014-07-21T09:01:33.000Z</time>
      </trkpt>
      <trkpt lat="44.84173" lon="0.58346">
        <ele>47</ele>
        <time>2014-07-21T09:01:34.000Z</time>
      </trkpt>
      <trkpt lat="44.84173" lon="0.58342">
        <ele>47</ele>
        <time>2014-07-21T09:01:35.000Z</time>
      </trkpt>
      <trkpt lat="44.84172" lon="0.58338">
        <ele>47</ele>
        <time>2014-07-21T09:01:36.000Z</time>
      </trkpt>
      <trkpt lat="44.84171" lon="0.58334">
        <ele>47</ele>
        <time>2014-07-21T09:01:37.000Z</time>
      </trkpt>
      <trkpt lat="44.8417" lon="0.5833">
        <ele>47</ele>
        <time>2014-07-21T09:01:38.000Z</time>
      </trkpt>
      <trkpt lat="44.84169" lon="0.58326">
        <ele>46</ele>
        <time>2014-07-21T09:01:39.000Z</time>
      </trkpt>
      <trkpt lat="44.84169" lon="0.58322">
        <ele>46</ele>
        <time>2014-07-21T09:01:40.000Z</time>
      </trkpt>
      <trkpt lat="44.84168" lon="0.58319">
        <ele>46</ele>
        <time>2014-07-21T09:01:41.000Z</time>
      </trkpt>
      <trkpt lat="44.84167" lon="0.58315">
        <ele>46</ele>
        <time>2014-07-21T09:01:42.000Z</time>
      </trkpt>
      <trkpt lat="44.84167" lon="0.58311">
        <ele>46</ele>
        <time>2014-07-21T09:01:43.000Z</time>
      </trkpt>
      <trkpt lat="44.84166" lon="0.58307">
        <ele>46</ele>
        <time>2014-07-21T09:01:44.000Z</time>
      </trkpt>
      <trkpt lat="44.84165" lon="0.58303">
        <ele>46</ele>
        <time>2014-07-21T09:01:45.000Z</time>
      </trkpt>
      <trkpt lat="44.84164" lon="0.583">
        <ele>46</ele>
        <time>2014-07-21T09:01:46.000Z</time>
      </trkpt>
      <trkpt lat="44.84164" lon="0.58296">
        <ele>46</ele>
        <time>2014-07-21T09:01:47.000Z</time>
      </trkpt>
      <trkpt lat="44.84163" lon="0.58292">
        <ele>46</ele>
        <time>2014-07-21T09:01:48.000Z</time>
      </trkpt>
      <trkpt lat="44.84162" lon="0.58289">
        <ele>46</ele>
        <time>2014-07-21T09:01:49.000Z</time>
      </trkpt>
      <trkpt lat="44.84161" lon="0.58285">
        <ele>46</ele>
        <time>2014-07-21T09:01:50.000Z</time>
      </trkpt>
      <trkpt lat="44.8416" lon="0.58281">
        <ele>46</ele>
        <time>2014-07-21T09:01:51.000Z</time>
      </trkpt>
      <trkpt lat="44.84159" lon="0.58278">
        <ele>46</ele>
        <time>2014-07-21T09:01:52.000Z</time>
      </trkpt>
      <trkpt lat="44.84158" lon="0.58274">
        <ele>46</ele>
        <time>2014-07-21T09:01:53.000Z</time>
      </trkpt>
      <trkpt lat="44.84157" lon="0.58271">
        <ele>46</ele>
        <time>2014-07-21T09:01:54.000Z</time>
      </trkpt>
      <trkpt lat="44.84156" lon="0.58267">
        <ele>46</ele>
        <time>2014-07-21T09:01:55.000Z</time>
      </trkpt>
      <trkpt lat="44.84155" lon="0.58263">
        <ele>46</ele>
        <time>2014-07-21T09:01:56.000Z</time>
      </trkpt>
      <trkpt lat="44.84154" lon="0.5826">
        <ele>46</ele>
        <time>2014-07-21T09:01:57.000Z</time>
      </trkpt>
      <trkpt lat="44.84153" lon="0.58256">
        <ele>46</ele>
        <time>2014-07-21T09:01:58.000Z</time>
      </trkpt>
      <trkpt lat="44.84152" lon="0.58253">
        <ele>46</ele>
        <time>2014-07-21T09:01:59.000Z</time>
      </trkpt>
      <trkpt lat="44.8415" lon="0.5825">
        <ele>46</ele>
        <time>2014-07-21T09:02:00.000Z</time>
      </trkpt>
      <trkpt lat="44.84149" lon="0.58246">
        <ele>46</ele>
        <time>2014-07-21T09:02:01.000Z</time>
      </trkpt>
      <trkpt lat="44.84147" lon="0.58243">
        <ele>46</ele>
        <time>2014-07-21T09:02:02.000Z</time>
      </trkpt>
      <trkpt lat="44.84146" lon="0.58239">
        <ele>46</ele>
        <time>2014-07-21T09:02:03.000Z</time>
      </trkpt>
      <trkpt lat="44.84144" lon="0.58236">
        <ele>46</ele>
        <time>2014-07-21T09:02:04.000Z</time>
      </trkpt>
      <trkpt lat="44.84142" lon="0.58233">
        <ele>46</ele>
        <time>2014-07-21T09:02:05.000Z</time>
      </trkpt>
      <trkpt lat="44.84141" lon="0.58229">
        <ele>46</ele>
        <time>2014-07-21T09:02:06.000Z</time>
      </trkpt>
      <trkpt lat="44.84139" lon="0.58226">
        <ele>46</ele>
        <time>2014-07-21T09:02:07.000Z</time>
      </trkpt>
      <trkpt lat="44.84137" lon="0.58223">
        <ele>46</ele>
        <time>2014-07-21T09:02:08.000Z</time>
      </trkpt>
      <trkpt lat="44.84136" lon="0.5822">
        <ele>46</ele>
        <time>2014-07-21T09:02:09.000Z</time>
      </trkpt>
      <trkpt lat="44.84134" lon="0.58216">
        <ele>46</ele>
        <time>2014-07-21T09:02:10.000Z</time>
      </trkpt>
      <trkpt lat="44.84133" lon="0.58213">
        <ele>46</ele>
        <time>2014-07-21T09:02:11.000Z</time>
      </trkpt>
      <trkpt lat="44.84131" lon="0.5821">
        <ele>46</ele>
        <time>2014-07-21T09:02:12.000Z</time>
      </trkpt>
      <trkpt lat="44.84129" lon="0.58206">
        <ele>46</ele>
        <time>2014-07-21T09:02:13.000Z</time>
      </trkpt>
      <trkpt lat="44.84128" lon="0.58203">
        <ele>46</ele>
        <time>2014-07-21T09:02:14.000Z</time>
      </trkpt>
      <trkpt lat="44.84126" lon="0.582">
        <ele>46</ele>
        <time>2014-07-21T09:02:15.000Z</time>
      </trkpt>
      <trkpt lat="44.84124" lon="0.58197">
        <ele>46</ele>
        <time>2014-07-21T09:02:16.000Z</time>
      </trkpt>
      <trkpt lat="44.84123" lon="0.58193">
        <ele>46</ele>
        <time>2014-07-21T09:02:17.000Z</time>
      </trkpt>
      <trkpt lat="44.84121" lon="0.5819">
        <ele>46</ele>
        <time>2014-07-21T09:02:18.000Z</time>
      </trkpt>
      <trkpt lat="44.8412" lon="0.58187">
        <ele>46</ele>
        <time>2014-07-21T09:02:19.000Z</time>
      </trkpt>
      <trkpt lat="44.84118" lon="0.58183">
        <ele>46</ele>
        <time>2014-07-21T09:02:20.000Z</time>
      </trkpt>
      <trkpt lat="44.84116" lon="0.5818">
        <ele>46</ele>
        <time>2014-07-21T09:02:21.000Z</time>
      </trkpt>
      <trkpt lat="44.84115" lon="0.58177">
        <ele>46</ele>
        <time>2014-07-21T09:02:22.000Z</time>
      </trkpt>
      <trkpt lat="44.84113" lon="0.58174">
        <ele>46</ele>
        <time>2014-07-21T09:02:23.000Z</time>
      </trkpt>
      <trkpt lat="44.84112" lon="0.5817">
        <ele>46</ele>
        <time>2014-07-21T09:02:24.000Z</time>
      </trkpt>
      <trkpt lat="44.8411" lon="0.58167">
        <ele>46</ele>
        <time>2014-07-21T09:02:25.000Z</time>
      </trkpt>
      <trkpt lat="44.84108" lon="0.58164">
        <ele>47</ele>
        <time>2014-07-21T09:02:26.000Z</time>
      </trkpt>
      <trkpt lat="44.84107" lon="0.58161">
        <ele>47</ele>
        <time>2014-07-21T09:02:27.000Z</time>
      </trkpt>
      <trkpt lat="44.84105" lon="0.58157">
        <ele>47</ele>
        <time>2014-07-21T09:02:28.000Z</time>
      </trkpt>
      <trkpt lat="44.84104" lon="0.58154">
        <ele>47</ele>
        <time>2014-07-21T09:02:29.000Z</time>
      </trkpt>
      <trkpt lat="44.84102" lon="0.58151">
        <ele>47</ele>
        <time>2014-07-21T09:02:30.000Z</time>
      </trkpt>
      <trkpt lat="44.84101" lon="0.58147">
        <ele>47</ele>
        <time>2014-07-21T09:02:31.000Z</time>
      </trkpt>
      <trkpt lat="44.84099" lon="0.58144">
        <ele>47</ele>
        <time>2014-07-21T09:02:32.000Z</time>
      </trkpt>
      <trkpt lat="44.84097" lon="0.58141">
        <ele>47</ele>
        <time>2014-07-21T09:02:33.000Z</time>
      </trkpt>
      <trkpt lat="44.84096" lon="0.58138">
        <ele>47</ele>
        <time>2014-07-21T09:02:34.000Z</time>
      </trkpt>
      <trkpt lat="44.84094" lon="0.58134">
        <ele>47</ele>
        <time>2014-07-21T09:02:35.000Z</time>
      </trkpt>
      <trkpt lat="44.84093" lon="0.58131">
        <ele>47</ele>
        <time>2014-07-21T09:02:36.000Z</time>
      </trkpt>
      <trkpt lat="44.84091" lon="0.58128">
        <ele>47</ele>
        <time>2014-07-21T09:02:37.000Z</time>
      </trkpt>
      <trkpt lat="44.8409" lon="0.58125">
        <ele>47</ele>
        <time>2014-07-21T09:02:38.000Z</time>
      </trkpt>
      <trkpt lat="44.84088" lon="0.58121">
        <ele>47</ele>
        <time>2014-07-21T09:02:39.000Z</time>
      </trkpt>
      <trkpt lat="44.84087" lon="0.58118">
        <ele>47</ele>
        <time>2014-07-21T09:02:40.000Z</time>
      </trkpt>
      <trkpt lat="44.84085" lon="0.58115">
        <ele>47</ele>
        <time>2014-07-21T09:02:41.000Z</time>
      </trkpt>
      <trkpt lat="44.84084" lon="0.58112">
        <ele>47</ele>
        <time>2014-07-21T09:02:42.000Z</time>
      </trkpt>
      <trkpt lat="44.84082" lon="0.58108">
        <ele>47</ele>
        <time>2014-07-21T09:02:43.000Z</time>
      </trkpt>
      <trkpt lat="44.8408" lon="0.58105">
        <ele>47</ele>
        <time>2014-07-21T09:02:44.000Z</time>
      </trkpt>
      <trkpt lat="44.84079" lon="0.58102">
        <ele>47</ele>
        <time>2014-07-21T09:02:45.000Z</time>
      </trkpt>
      <trkpt lat="44.84077" lon="0.58099">
        <ele>47</ele>
        <time>2014-07-21T09:02:46.000Z</time>
      </trkpt>
      <trkpt lat="44.84076" lon="0.58095">
        <ele>47</ele>
        <time>2014-07-21T09:02:47.000Z</time>
      </trkpt>
      <trkpt lat="44.84074" lon="0.58092">
        <ele>47</ele>
        <time>2014-07-21T09:02:48.000Z</time>
      </trkpt>
      <trkpt lat="44.84073" lon="0.58089">
        <ele>47</ele>
        <time>2014-07-21T09:02:49.000Z</time>
      </trkpt>
      <trkpt lat="44.84071" lon="0.58085">
        <ele>47</ele>
        <time>2014-07-21T09:02:50.000Z</time>
      </trkpt>
      <trkpt lat="44.8407" lon="0.58082">
        <ele>47</ele>
        <time>2014-07-21T09:02:51.000Z</time>
      </trkpt>
      <trkpt lat="44.84069" lon="0.58078">
        <ele>47</ele>
        <time>2014-07-21T09:02:52.000Z</time>
      </trkpt>
      <trkpt lat="44.84067" lon="0.58075">
        <ele>47</ele>
        <time>2014-07-21T09:02:53.000Z</time>
      </trkpt>
      <trkpt lat="44.84066" lon="0.58071">
        <ele>47</ele>
        <time>2014-07-21T09:02:54.000Z</time>
      </trkpt>
      <trkpt lat="44.84065" lon="0.58068">
        <ele>47</ele>
        <time>2014-07-21T09:02:55.000Z</time>
      </trkpt>
      <trkpt lat="44.84064" lon="0.58064">
        <ele>47</ele>
        <time>2014-07-21T09:02:56.000Z</time>
      </trkpt>
      <trkpt lat="44.84063" lon="0.5806">
        <ele>47</ele>
        <time>2014-07-21T09:02:57.000Z</time>
      </trkpt>
      <trkpt lat="44.84062" lon="0.58057">
        <ele>47</ele>
        <time>2014-07-21T09:02:58.000Z</time>
      </trkpt>
      <trkpt lat="44.84062" lon="0.58053">
        <ele>47</ele>
        <time>2014-07-21T09:02:59.000Z</time>
      </trkpt>
      <trkpt lat="44.84061" lon="0.58049">
        <ele>47</ele>
        <time>2014-07-21T09:03:00.000Z</time>
      </trkpt>
      <trkpt lat="44.8406" lon="0.58045">
        <ele>47</ele>
        <time>2014-07-21T09:03:01.000Z</time>
      </trkpt>
      <trkpt lat="44.84059" lon="0.58042">
        <ele>47</ele>
        <time>2014-07-21T09:03:02.000Z</time>
      </trkpt>
      <trkpt lat="44.84059" lon="0.58038">
        <ele>47</ele>
        <time>2014-07-21T09:03:03.000Z</time>
      </trkpt>
      <trkpt lat="44.84058" lon="0.58034">
        <ele>47</ele>
        <time>2014-07-21T09:03:04.000Z</time>
      </trkpt>
      <trkpt lat="44.84057" lon="0.5803">
        <ele>47</ele>
        <time>2014-07-21T09:03:05.000Z</time>
      </trkpt>
      <trkpt lat="44.84057" lon="0.58027">
        <ele>47</ele>
        <time>2014-07-21T09:03:06.000Z</time>
      </trkpt>
      <trkpt lat="44.84056" lon="0.58023">
        <ele>47</ele>
        <time>2014-07-21T09:03:07.000Z</time>
      </trkpt>
      <trkpt lat="44.84056" lon="0.58019">
        <ele>47</ele>
        <time>2014-07-21T09:03:08.000Z</time>
      </trkpt>
      <trkpt lat="44.84055" lon="0.58016">
        <ele>47</ele>
        <time>2014-07-21T09:03:09.000Z</time>
      </trkpt>
      <trkpt lat="44.84054" lon="0.58012">
        <ele>47</ele>
        <time>2014-07-21T09:03:10.000Z</time>
      </trkpt>
      <trkpt lat="44.84054" lon="0.58009">
        <ele>47</ele>
        <time>2014-07-21T09:03:11.000Z</time>
      </trkpt>
      <trkpt lat="44.84053" lon="0.58005">
        <ele>47</ele>
        <time>2014-07-21T09:03:12.000Z</time>
      </trkpt>
      <trkpt lat="44.84053" lon="0.58001">
        <ele>47</ele>
        <time>2014-07-21T09:03:13.000Z</time>
      </trkpt>
      <trkpt lat="44.84052" lon="0.57998">
        <ele>47</ele>
        <time>2014-07-21T09:03:14.000Z</time>
      </trkpt>
      <trkpt lat="44.84052" lon="0.57994">
        <ele>47</ele>
        <time>2014-07-21T09:03:15.000Z</time>
      </trkpt>
      <trkpt lat="44.84051" lon="0.5799">
        <ele>47</ele>
        <time>2014-07-21T09:03:16.000Z</time>
      </trkpt>
      <trkpt lat="44.8405" lon="0.57987">
        <ele>47</ele>
        <time>2014-07-21T09:03:17.000Z</time>
      </trkpt>
      <trkpt lat="44.8405" lon="0.57983">
        <ele>47</ele>
        <time>2014-07-21T09:03:18.000Z</time>
      </trkpt>
      <trkpt lat="44.84049" lon="0.57979">
        <ele>47</ele>
        <time>2014-07-21T09:03:19.000Z</time>
      </trkpt>
      <trkpt lat="44.84049" lon="0.57975">
        <ele>47</ele>
        <time>2014-07-21T09:03:20.000Z</time>
      </trkpt>
      <trkpt lat="44.84048" lon="0.57971">
        <ele>47</ele>
        <time>2014-07-21T09:03:21.000Z</time>
      </trkpt>
      <trkpt lat="44.84048" lon="0.57968">
        <ele>48</ele>
        <time>2014-07-21T09:03:22.000Z</time>
      </trkpt>
      <trkpt lat="44.84047" lon="0.57964">
        <ele>48</ele>
        <time>2014-07-21T09:03:23.000Z</time>
      </trkpt>
      <trkpt lat="44.84046" lon="0.5796">
        <ele>48</ele>
        <time>2014-07-21T09:03:24.000Z</time>
      </trkpt>
      <trkpt lat="44.84046" lon="0.57956">
        <ele>48</ele>
        <time>2014-07-21T09:03:25.000Z</time>
      </trkpt>
      <trkpt lat="44.84045" lon="0.57952">
        <ele>48</ele>
        <time>2014-07-21T09:03:26.000Z</time>
      </trkpt>
      <trkpt lat="44.84045" lon="0.57948">
        <ele>48</ele>
        <time>2014-07-21T09:03:27.000Z</time>
      </trkpt>
      <trkpt lat="44.84044" lon="0.57944">
        <ele>48</ele>
        <time>2014-07-21T09:03:28.000Z</time>
      </trkpt>
      <trkpt lat="44.84043" lon="0.5794">
        <ele>48</ele>
        <time>2014-07-21T09:03:29.000Z</time>
      </trkpt>
      <trkpt lat="44.84043" lon="0.57936">
        <ele>48</ele>
        <time>2014-07-21T09:03:30.000Z</time>
      </trkpt>
      <trkpt lat="44.84042" lon="0.57932">
        <ele>48</ele>
        <time>2014-07-21T09:03:31.000Z</time>
      </trkpt>
      <trkpt lat="44.84041" lon="0.57928">
        <ele>48</ele>
        <time>2014-07-21T09:03:32.000Z</time>
      </trkpt>
      <trkpt lat="44.84041" lon="0.57924">
        <ele>48</ele>
        <time>2014-07-21T09:03:33.000Z</time>
      </trkpt>
      <trkpt lat="44.8404" lon="0.57921">
        <ele>48</ele>
        <time>2014-07-21T09:03:34.000Z</time>
      </trkpt>
      <trkpt lat="44.8404" lon="0.57917">
        <ele>48</ele>
        <time>2014-07-21T09:03:35.000Z</time>
      </trkpt>
      <trkpt lat="44.84039" lon="0.57913">
        <ele>48</ele>
        <time>2014-07-21T09:03:36.000Z</time>
      </trkpt>
      <trkpt lat="44.84038" lon="0.57909">
        <ele>48</ele>
        <time>2014-07-21T09:03:37.000Z</time>
      </trkpt>
      <trkpt lat="44.84038" lon="0.57905">
        <ele>48</ele>
        <time>2014-07-21T09:03:38.000Z</time>
      </trkpt>
      <trkpt lat="44.84037" lon="0.57901">
        <ele>48</ele>
        <time>2014-07-21T09:03:39.000Z</time>
      </trkpt>
      <trkpt lat="44.84037" lon="0.57897">
        <ele>48</ele>
        <time>2014-07-21T09:03:40.000Z</time>
      </trkpt>
      <trkpt lat="44.84036" lon="0.57893">
        <ele>48</ele>
        <time>2014-07-21T09:03:41.000Z</time>
      </trkpt>
      <trkpt lat="44.84036" lon="0.57889">
        <ele>48</ele>
        <time>2014-07-21T09:03:42.000Z</time>
      </trkpt>
      <trkpt lat="44.84035" lon="0.57885">
        <ele>48</ele>
        <time>2014-07-21T09:03:43.000Z</time>
      </trkpt>
      <trkpt lat="44.84035" lon="0.57881">
        <ele>48</ele>
        <time>2014-07-21T09:03:44.000Z</time>
      </trkpt>
      <trkpt lat="44.84034" lon="0.57877">
        <ele>48</ele>
        <time>2014-07-21T09:03:45.000Z</time>
      </trkpt>
      <trkpt lat="44.84034" lon="0.57873">
        <ele>48</ele>
        <time>2014-07-21T09:03:46.000Z</time>
      </trkpt>
      <trkpt lat="44.84033" lon="0.5787">
        <ele>48</ele>
        <time>2014-07-21T09:03:47.000Z</time>
      </trkpt>
      <trkpt lat="44.84033" lon="0.57866">
        <ele>48</ele>
        <time>2014-07-21T09:03:48.000Z</time>
      </trkpt>
      <trkpt lat="44.84032" lon="0.57862">
        <ele>48</ele>
        <time>2014-07-21T09:03:49.000Z</time>
      </trkpt>
      <trkpt lat="44.84032" lon="0.57858">
        <ele>48</ele>
        <time>2014-07-21T09:03:50.000Z</time>
      </trkpt>
      <trkpt lat="44.84031" lon="0.57854">
        <ele>48</ele>
        <time>2014-07-21T09:03:51.000Z</time>
      </trkpt>
      <trkpt lat="44.84031" lon="0.5785">
        <ele>48</ele>
        <time>2014-07-21T09:03:52.000Z</time>
      </trkpt>
      <trkpt lat="44.84031" lon="0.57846">
        <ele>48</ele>
        <time>2014-07-21T09:03:53.000Z</time>
      </trkpt>
      <trkpt lat="44.84031" lon="0.57842">
        <ele>48</ele>
        <time>2014-07-21T09:03:54.000Z</time>
      </trkpt>
      <trkpt lat="44.8403" lon="0.57838">
        <ele>48</ele>
        <time>2014-07-21T09:03:55.000Z</time>
      </trkpt>
      <trkpt lat="44.8403" lon="0.57834">
        <ele>48</ele>
        <time>2014-07-21T09:03:56.000Z</time>
      </trkpt>
      <trkpt lat="44.8403" lon="0.5783">
        <ele>48</ele>
        <time>2014-07-21T09:03:57.000Z</time>
      </trkpt>
      <trkpt lat="44.8403" lon="0.57826">
        <ele>48</ele>
        <time>2014-07-21T09:03:58.000Z</time>
      </trkpt>
      <trkpt lat="44.8403" lon="0.57822">
        <ele>48</ele>
        <time>2014-07-21T09:03:59.000Z</time>
      </trkpt>
      <trkpt lat="44.84029" lon="0.57818">
        <ele>48</ele>
        <time>2014-07-21T09:04:00.000Z</time>
      </trkpt>
      <trkpt lat="44.84029" lon="0.57814">
        <ele>48</ele>
        <time>2014-07-21T09:04:01.000Z</time>
      </trkpt>
      <trkpt lat="44.84029" lon="0.5781">
        <ele>48</ele>
        <time>2014-07-21T09:04:02.000Z</time>
      </trkpt>
      <trkpt lat="44.84029" lon="0.57807">
        <ele>48</ele>
        <time>2014-07-21T09:04:03.000Z</time>
      </trkpt>
      <trkpt lat="44.84029" lon="0.57803">
        <ele>48</ele>
        <time>2014-07-21T09:04:04.000Z</time>
      </trkpt>
      <trkpt lat="44.8403" lon="0.57799">
        <ele>48</ele>
        <time>2014-07-21T09:04:05.000Z</time>
      </trkpt>
      <trkpt lat="44.8403" lon="0.57795">
        <ele>48</ele>
        <time>2014-07-21T09:04:06.000Z</time>
      </trkpt>
      <trkpt lat="44.8403" lon="0.57791">
        <ele>48</ele>
        <time>2014-07-21T09:04:07.000Z</time>
      </trkpt>
      <trkpt lat="44.8403" lon="0.57787">
        <ele>48</ele>
        <time>2014-07-21T09:04:08.000Z</time>
      </trkpt>
      <trkpt lat="44.8403" lon="0.57783">
        <ele>48</ele>
        <time>2014-07-21T09:04:09.000Z</time>
      </trkpt>
      <trkpt lat="44.84031" lon="0.5778">
        <ele>48</ele>
        <time>2014-07-21T09:04:10.000Z</time>
      </trkpt>
      <trkpt lat="44.84031" lon="0.57776">
        <ele>48</ele>
        <time>2014-07-21T09:04:11.000Z</time>
      </trkpt>
      <trkpt lat="44.84032" lon="0.57772">
        <ele>48</ele>
        <time>2014-07-21T09:04:12.000Z</time>
      </trkpt>
      <trkpt lat="44.84032" lon="0.57768">
        <ele>48</ele>
        <time>2014-07-21T09:04:13.000Z</time>
      </trkpt>
      <trkpt lat="44.84033" lon="0.57765">
        <ele>48</ele>
        <time>2014-07-21T09:04:14.000Z</time>
      </trkpt>
      <trkpt lat="44.84033" lon="0.57761">
        <ele>48</ele>
        <time>2014-07-21T09:04:15.000Z</time>
      </trkpt>
      <trkpt lat="44.84034" lon="0.57757">
        <ele>48</ele>
        <time>2014-07-21T09:04:16.000Z</time>
      </trkpt>
      <trkpt lat="44.84034" lon="0.57753">
        <ele>48</ele>
        <time>2014-07-21T09:04:17.000Z</time>
      </trkpt>
      <trkpt lat="44.84034" lon="0.57749">
        <ele>48</ele>
        <time>2014-07-21T09:04:18.000Z</time>
      </trkpt>
      <trkpt lat="44.84035" lon="0.57745">
        <ele>48</ele>
        <time>2014-07-21T09:04:19.000Z</time>
      </trkpt>
      <trkpt lat="44.84035" lon="0.57741">
        <ele>48</ele>
        <time>2014-07-21T09:04:20.000Z</time>
      </trkpt>
      <trkpt lat="44.84036" lon="0.57737">
        <ele>49</ele>
        <time>2014-07-21T09:04:21.000Z</time>
      </trkpt>
      <trkpt lat="44.84036" lon="0.57733">
        <ele>49</ele>
        <time>2014-07-21T09:04:22.000Z</time>
      </trkpt>
      <trkpt lat="44.84036" lon="0.57729">
        <ele>49</ele>
        <time>2014-07-21T09:04:23.000Z</time>
      </trkpt>
      <trkpt lat="44.84037" lon="0.57725">
        <ele>49</ele>
        <time>2014-07-21T09:04:24.000Z</time>
      </trkpt>
      <trkpt lat="44.84038" lon="0.57721">
        <ele>49</ele>
        <time>2014-07-21T09:04:25.000Z</time>
      </trkpt>
      <trkpt lat="44.84038" lon="0.57717">
        <ele>49</ele>
        <time>2014-07-21T09:04:26.000Z</time>
      </trkpt>
      <trkpt lat="44.84039" lon="0.57713">
        <ele>49</ele>
        <time>2014-07-21T09:04:27.000Z</time>
      </trkpt>
      <trkpt lat="44.8404" lon="0.57709">
        <ele>49</ele>
        <time>2014-07-21T09:04:28.000Z</time>
      </trkpt>
      <trkpt lat="44.8404" lon="0.57705">
        <ele>50</ele>
        <time>2014-07-21T09:04:29.000Z</time>
      </trkpt>
      <trkpt lat="44.84041" lon="0.57702">
        <ele>50</ele>
        <time>2014-07-21T09:04:30.000Z</time>
      </trkpt>
      <trkpt lat="44.84042" lon="0.57698">
        <ele>50</ele>
        <time>2014-07-21T09:04:31.000Z</time>
      </trkpt>
      <trkpt lat="44.84043" lon="0.57694">
        <ele>50</ele>
        <time>2014-07-21T09:04:32.000Z</time>
      </trkpt>
      <trkpt lat="44.84043" lon="0.5769">
        <ele>50</ele>
        <time>2014-07-21T09:04:33.000Z</time>
      </trkpt>
      <trkpt lat="44.84044" lon="0.57686">
        <ele>50</ele>
        <time>2014-07-21T09:04:34.000Z</time>
      </trkpt>
      <trkpt lat="44.84045" lon="0.57682">
        <ele>50</ele>
        <time>2014-07-21T09:04:35.000Z</time>
      </trkpt>
      <trkpt lat="44.84045" lon="0.57678">
        <ele>50</ele>
        <time>2014-07-21T09:04:36.000Z</time>
      </trkpt>
      <trkpt lat="44.84046" lon="0.57674">
        <ele>50</ele>
        <time>2014-07-21T09:04:37.000Z</time>
      </trkpt>
      <trkpt lat="44.84046" lon="0.5767">
        <ele>50</ele>
        <time>2014-07-21T09:04:38.000Z</time>
      </trkpt>
      <trkpt lat="44.84047" lon="0.57666">
        <ele>50</ele>
        <time>2014-07-21T09:04:39.000Z</time>
      </trkpt>
      <trkpt lat="44.84047" lon="0.57662">
        <ele>50</ele>
        <time>2014-07-21T09:04:40.000Z</time>
      </trkpt>
      <trkpt lat="44.84048" lon="0.57658">
        <ele>50</ele>
        <time>2014-07-21T09:04:41.000Z</time>
      </trkpt>
      <trkpt lat="44.84048" lon="0.57654">
        <ele>50</ele>
        <time>2014-07-21T09:04:42.000Z</time>
      </trkpt>
      <trkpt lat="44.84048" lon="0.5765">
        <ele>50</ele>
        <time>2014-07-21T09:04:43.000Z</time>
      </trkpt>
      <trkpt lat="44.84048" lon="0.57647">
        <ele>50</ele>
        <time>2014-07-21T09:04:44.000Z</time>
      </trkpt>
      <trkpt lat="44.84049" lon="0.57643">
        <ele>50</ele>
        <time>2014-07-21T09:04:45.000Z</time>
      </trkpt>
      <trkpt lat="44.84049" lon="0.57639">
        <ele>50</ele>
        <time>2014-07-21T09:04:46.000Z</time>
      </trkpt>
      <trkpt lat="44.84049" lon="0.57636">
        <ele>50</ele>
        <time>2014-07-21T09:04:47.000Z</time>
      </trkpt>
      <trkpt lat="44.84049" lon="0.57632">
        <ele>50</ele>
        <time>2014-07-21T09:04:48.000Z</time>
      </trkpt>
      <trkpt lat="44.84049" lon="0.57628">
        <ele>50</ele>
        <time>2014-07-21T09:04:49.000Z</time>
      </trkpt>
      <trkpt lat="44.84049" lon="0.57624">
        <ele>50</ele>
        <time>2014-07-21T09:04:50.000Z</time>
      </trkpt>
      <trkpt lat="44.84049" lon="0.5762">
        <ele>50</ele>
        <time>2014-07-21T09:04:51.000Z</time>
      </trkpt>
      <trkpt lat="44.84048" lon="0.57616">
        <ele>50</ele>
        <time>2014-07-21T09:04:52.000Z</time>
      </trkpt>
      <trkpt lat="44.84048" lon="0.57612">
        <ele>49</ele>
        <time>2014-07-21T09:04:53.000Z</time>
      </trkpt>
      <trkpt lat="44.84048" lon="0.57608">
        <ele>49</ele>
        <time>2014-07-21T09:04:54.000Z</time>
      </trkpt>
      <trkpt lat="44.84048" lon="0.57604">
        <ele>49</ele>
        <time>2014-07-21T09:04:55.000Z</time>
      </trkpt>
      <trkpt lat="44.84047" lon="0.576">
        <ele>49</ele>
        <time>2014-07-21T09:04:56.000Z</time>
      </trkpt>
      <trkpt lat="44.84047" lon="0.57596">
        <ele>49</ele>
        <time>2014-07-21T09:04:57.000Z</time>
      </trkpt>
      <trkpt lat="44.84047" lon="0.57592">
        <ele>49</ele>
        <time>2014-07-21T09:04:58.000Z</time>
      </trkpt>
      <trkpt lat="44.84047" lon="0.57588">
        <ele>49</ele>
        <time>2014-07-21T09:04:59.000Z</time>
      </trkpt>
      <trkpt lat="44.84046" lon="0.57584">
        <ele>49</ele>
        <time>2014-07-21T09:05:00.000Z</time>
      </trkpt>
      <trkpt lat="44.84046" lon="0.5758">
        <ele>49</ele>
        <time>2014-07-21T09:05:01.000Z</time>
      </trkpt>
      <trkpt lat="44.84046" lon="0.57576">
        <ele>49</ele>
        <time>2014-07-21T09:05:02.000Z</time>
      </trkpt>
      <trkpt lat="44.84045" lon="0.57572">
        <ele>49</ele>
        <time>2014-07-21T09:05:03.000Z</time>
      </trkpt>
      <trkpt lat="44.84045" lon="0.57568">
        <ele>49</ele>
        <time>2014-07-21T09:05:04.000Z</time>
      </trkpt>
      <trkpt lat="44.84045" lon="0.57564">
        <ele>49</ele>
        <time>2014-07-21T09:05:05.000Z</time>
      </trkpt>
      <trkpt lat="44.84045" lon="0.5756">
        <ele>49</ele>
        <time>2014-07-21T09:05:06.000Z</time>
      </trkpt>
      <trkpt lat="44.84044" lon="0.57556">
        <ele>49</ele>
        <time>2014-07-21T09:05:07.000Z</time>
      </trkpt>
      <trkpt lat="44.84044" lon="0.57552">
        <ele>49</ele>
        <time>2014-07-21T09:05:08.000Z</time>
      </trkpt>
      <trkpt lat="44.84044" lon="0.57548">
        <ele>49</ele>
        <time>2014-07-21T09:05:09.000Z</time>
      </trkpt>
      <trkpt lat="44.84044" lon="0.57544">
        <ele>49</ele>
        <time>2014-07-21T09:05:10.000Z</time>
      </trkpt>
      <trkpt lat="44.84043" lon="0.5754">
        <ele>49</ele>
        <time>2014-07-21T09:05:11.000Z</time>
      </trkpt>
      <trkpt lat="44.84043" lon="0.57536">
        <ele>49</ele>
        <time>2014-07-21T09:05:12.000Z</time>
      </trkpt>
      <trkpt lat="44.84043" lon="0.57532">
        <ele>49</ele>
        <time>2014-07-21T09:05:13.000Z</time>
      </trkpt>
      <trkpt lat="44.84043" lon="0.57528">
        <ele>49</ele>
        <time>2014-07-21T09:05:14.000Z</time>
      </trkpt>
      <trkpt lat="44.84042" lon="0.57524">
        <ele>49</ele>
        <time>2014-07-21T09:05:15.000Z</time>
      </trkpt>
      <trkpt lat="44.84042" lon="0.5752">
        <ele>49</ele>
        <time>2014-07-21T09:05:16.000Z</time>
      </trkpt>
      <trkpt lat="44.84042" lon="0.57516">
        <ele>49</ele>
        <time>2014-07-21T09:05:17.000Z</time>
      </trkpt>
      <trkpt lat="44.84042" lon="0.57512">
        <ele>49</ele>
        <time>2014-07-21T09:05:18.000Z</time>
      </trkpt>
      <trkpt lat="44.84041" lon="0.57508">
        <ele>49</ele>
        <time>2014-07-21T09:05:19.000Z</time>
      </trkpt>
      <trkpt lat="44.84041" lon="0.57504">
        <ele>49</ele>
        <time>2014-07-21T09:05:20.000Z</time>
      </trkpt>
      <trkpt lat="44.84041" lon="0.575">
        <ele>49</ele>
        <time>2014-07-21T09:05:21.000Z</time>
      </trkpt>
      <trkpt lat="44.84041" lon="0.57497">
        <ele>49</ele>
        <time>2014-07-21T09:05:22.000Z</time>
      </trkpt>
      <trkpt lat="44.8404" lon="0.57493">
        <ele>49</ele>
        <time>2014-07-21T09:05:23.000Z</time>
      </trkpt>
      <trkpt lat="44.8404" lon="0.57489">
        <ele>49</ele>
        <time>2014-07-21T09:05:24.000Z</time>
      </trkpt>
      <trkpt lat="44.8404" lon="0.57485">
        <ele>49</ele>
        <time>2014-07-21T09:05:25.000Z</time>
      </trkpt>
      <trkpt lat="44.8404" lon="0.57481">
        <ele>49</ele>
        <time>2014-07-21T09:05:26.000Z</time>
      </trkpt>
      <trkpt lat="44.84039" lon="0.57477">
        <ele>49</ele>
        <time>2014-07-21T09:05:27.000Z</time>
      </trkpt>
      <trkpt lat="44.84039" lon="0.57473">
        <ele>49</ele>
        <time>2014-07-21T09:05:28.000Z</time>
      </trkpt>
      <trkpt lat="44.84039" lon="0.57469">
        <ele>49</ele>
        <time>2014-07-21T09:05:29.000Z</time>
      </trkpt>
      <trkpt lat="44.84039" lon="0.57465">
        <ele>49</ele>
        <time>2014-07-21T09:05:30.000Z</time>
      </trkpt>
      <trkpt lat="44.84039" lon="0.57462">
        <ele>49</ele>
        <time>2014-07-21T09:05:31.000Z</time>
      </trkpt>
      <trkpt lat="44.84038" lon="0.57458">
        <ele>49</ele>
        <time>2014-07-21T09:05:32.000Z</time>
      </trkpt>
      <trkpt lat="44.84038" lon="0.57454">
        <ele>49</ele>
        <time>2014-07-21T09:05:33.000Z</time>
      </trkpt>
      <trkpt lat="44.84038" lon="0.5745">
        <ele>49</ele>
        <time>2014-07-21T09:05:34.000Z</time>
      </trkpt>
      <trkpt lat="44.84038" lon="0.57446">
        <ele>49</ele>
        <time>2014-07-21T09:05:35.000Z</time>
      </trkpt>
      <trkpt lat="44.84038" lon="0.57443">
        <ele>49</ele>
        <time>2014-07-21T09:05:36.000Z</time>
      </trkpt>
      <trkpt lat="44.84037" lon="0.57439">
        <ele>49</ele>
        <time>2014-07-21T09:05:37.000Z</time>
      </trkpt>
      <trkpt lat="44.84037" lon="0.57435">
        <ele>49</ele>
        <time>2014-07-21T09:05:38.000Z</time>
      </trkpt>
      <trkpt lat="44.84037" lon="0.57431">
        <ele>49</ele>
        <time>2014-07-21T09:05:39.000Z</time>
      </trkpt>
      <trkpt lat="44.84036" lon="0.57427">
        <ele>49</ele>
        <time>2014-07-21T09:05:40.000Z</time>
      </trkpt>
      <trkpt lat="44.84036" lon="0.57423">
        <ele>49</ele>
        <time>2014-07-21T09:05:41.000Z</time>
      </trkpt>
      <trkpt lat="44.84036" lon="0.57419">
        <ele>49</ele>
        <time>2014-07-21T09:05:42.000Z</time>
      </trkpt>
      <trkpt lat="44.84035" lon="0.57415">
        <ele>49</ele>
        <time>2014-07-21T09:05:43.000Z</time>
      </trkpt>
      <trkpt lat="44.84035" lon="0.57411">
        <ele>49</ele>
        <time>2014-07-21T09:05:44.000Z</time>
      </trkpt>
      <trkpt lat="44.84035" lon="0.57407">
        <ele>49</ele>
        <time>2014-07-21T09:05:45.000Z</time>
      </trkpt>
      <trkpt lat="44.84034" lon="0.57403">
        <ele>49</ele>
        <time>2014-07-21T09:05:46.000Z</time>
      </trkpt>
      <trkpt lat="44.84034" lon="0.57399">
        <ele>49</ele>
        <time>2014-07-21T09:05:47.000Z</time>
      </trkpt>
      <trkpt lat="44.84033" lon="0.57395">
        <ele>49</ele>
        <time>2014-07-21T09:05:48.000Z</time>
      </trkpt>
      <trkpt lat="44.84033" lon="0.57391">
        <ele>49</ele>
        <time>2014-07-21T09:05:49.000Z</time>
      </trkpt>
      <trkpt lat="44.84033" lon="0.57387">
        <ele>49</ele>
        <time>2014-07-21T09:05:50.000Z</time>
      </trkpt>
      <trkpt lat="44.84032" lon="0.57383">
        <ele>48</ele>
        <time>2014-07-21T09:05:51.000Z</time>
      </trkpt>
      <trkpt lat="44.84032" lon="0.57379">
        <ele>48</ele>
        <time>2014-07-21T09:05:52.000Z</time>
      </trkpt>
      <trkpt lat="44.84032" lon="0.57375">
        <ele>48</ele>
        <time>2014-07-21T09:05:53.000Z</time>
      </trkpt>
      <trkpt lat="44.84032" lon="0.57371">
        <ele>48</ele>
        <time>2014-07-21T09:05:54.000Z</time>
      </trkpt>
      <trkpt lat="44.84031" lon="0.57367">
        <ele>48</ele>
        <time>2014-07-21T09:05:55.000Z</time>
      </trkpt>
      <trkpt lat="44.84031" lon="0.57363">
        <ele>48</ele>
        <time>2014-07-21T09:05:56.000Z</time>
      </trkpt>
      <trkpt lat="44.84031" lon="0.57359">
        <ele>48</ele>
        <time>2014-07-21T09:05:57.000Z</time>
      </trkpt>
      <trkpt lat="44.84031" lon="0.57354">
        <ele>48</ele>
        <time>2014-07-21T09:05:58.000Z</time>
      </trkpt>
      <trkpt lat="44.8403" lon="0.5735">
        <ele>48</ele>
        <time>2014-07-21T09:05:59.000Z</time>
      </trkpt>
      <trkpt lat="44.8403" lon="0.57346">
        <ele>48</ele>
        <time>2014-07-21T09:06:00.000Z</time>
      </trkpt>
      <trkpt lat="44.8403" lon="0.57342">
        <ele>48</ele>
        <time>2014-07-21T09:06:01.000Z</time>
      </trkpt>
      <trkpt lat="44.84029" lon="0.57338">
        <ele>48</ele>
        <time>2014-07-21T09:06:02.000Z</time>
      </trkpt>
      <trkpt lat="44.84029" lon="0.57334">
        <ele>48</ele>
        <time>2014-07-21T09:06:03.000Z</time>
      </trkpt>
      <trkpt lat="44.84028" lon="0.5733">
        <ele>48</ele>
        <time>2014-07-21T09:06:04.000Z</time>
      </trkpt>
      <trkpt lat="44.84027" lon="0.57325">
        <ele>48</ele>
        <time>2014-07-21T09:06:05.000Z</time>
      </trkpt>
      <trkpt lat="44.84027" lon="0.57321">
        <ele>48</ele>
        <time>2014-07-21T09:06:06.000Z</time>
      </trkpt>
      <trkpt lat="44.84026" lon="0.57317">
        <ele>48</ele>
        <time>2014-07-21T09:06:07.000Z</time>
      </trkpt>
      <trkpt lat="44.84025" lon="0.57313">
        <ele>48</ele>
        <time>2014-07-21T09:06:08.000Z</time>
      </trkpt>
      <trkpt lat="44.84024" lon="0.57309">
        <ele>48</ele>
        <time>2014-07-21T09:06:09.000Z</time>
      </trkpt>
      <trkpt lat="44.84023" lon="0.57305">
        <ele>48</ele>
        <time>2014-07-21T09:06:10.000Z</time>
      </trkpt>
      <trkpt lat="44.84023" lon="0.57301">
        <ele>48</ele>
        <time>2014-07-21T09:06:11.000Z</time>
      </trkpt>
      <trkpt lat="44.84022" lon="0.57297">
        <ele>48</ele>
        <time>2014-07-21T09:06:12.000Z</time>
      </trkpt>
      <trkpt lat="44.84021" lon="0.57293">
        <ele>48</ele>
        <time>2014-07-21T09:06:13.000Z</time>
      </trkpt>
      <trkpt lat="44.8402" lon="0.57289">
        <ele>48</ele>
        <time>2014-07-21T09:06:14.000Z</time>
      </trkpt>
      <trkpt lat="44.84019" lon="0.57285">
        <ele>48</ele>
        <time>2014-07-21T09:06:15.000Z</time>
      </trkpt>
      <trkpt lat="44.84018" lon="0.57281">
        <ele>48</ele>
        <time>2014-07-21T09:06:16.000Z</time>
      </trkpt>
      <trkpt lat="44.84018" lon="0.57277">
        <ele>48</ele>
        <time>2014-07-21T09:06:17.000Z</time>
      </trkpt>
      <trkpt lat="44.84017" lon="0.57273">
        <ele>48</ele>
        <time>2014-07-21T09:06:18.000Z</time>
      </trkpt>
      <trkpt lat="44.84016" lon="0.5727">
        <ele>48</ele>
        <time>2014-07-21T09:06:19.000Z</time>
      </trkpt>
      <trkpt lat="44.84015" lon="0.57266">
        <ele>48</ele>
        <time>2014-07-21T09:06:20.000Z</time>
      </trkpt>
      <trkpt lat="44.84014" lon="0.57262">
        <ele>47</ele>
        <time>2014-07-21T09:06:21.000Z</time>
      </trkpt>
      <trkpt lat="44.84014" lon="0.57258">
        <ele>47</ele>
        <time>2014-07-21T09:06:22.000Z</time>
      </trkpt>
      <trkpt lat="44.84013" lon="0.57254">
        <ele>47</ele>
        <time>2014-07-21T09:06:23.000Z</time>
      </trkpt>
      <trkpt lat="44.84012" lon="0.57251">
        <ele>47</ele>
        <time>2014-07-21T09:06:24.000Z</time>
      </trkpt>
      <trkpt lat="44.84011" lon="0.57247">
        <ele>47</ele>
        <time>2014-07-21T09:06:25.000Z</time>
      </trkpt>
      <trkpt lat="44.8401" lon="0.57243">
        <ele>47</ele>
        <time>2014-07-21T09:06:26.000Z</time>
      </trkpt>
      <trkpt lat="44.8401" lon="0.57239">
        <ele>48</ele>
        <time>2014-07-21T09:06:27.000Z</time>
      </trkpt>
      <trkpt lat="44.84009" lon="0.57235">
        <ele>48</ele>
        <time>2014-07-21T09:06:28.000Z</time>
      </trkpt>
      <trkpt lat="44.84008" lon="0.57232">
        <ele>48</ele>
        <time>2014-07-21T09:06:29.000Z</time>
      </trkpt>
      <trkpt lat="44.84007" lon="0.57228">
        <ele>48</ele>
        <time>2014-07-21T09:06:30.000Z</time>
      </trkpt>
      <trkpt lat="44.84007" lon="0.57224">
        <ele>48</ele>
        <time>2014-07-21T09:06:31.000Z</time>
      </trkpt>
      <trkpt lat="44.84006" lon="0.5722">
        <ele>48</ele>
        <time>2014-07-21T09:06:32.000Z</time>
      </trkpt>
      <trkpt lat="44.84005" lon="0.57216">
        <ele>48</ele>
        <time>2014-07-21T09:06:33.000Z</time>
      </trkpt>
      <trkpt lat="44.84004" lon="0.57212">
        <ele>48</ele>
        <time>2014-07-21T09:06:34.000Z</time>
      </trkpt>
      <trkpt lat="44.84003" lon="0.57209">
        <ele>48</ele>
        <time>2014-07-21T09:06:35.000Z</time>
      </trkpt>
      <trkpt lat="44.84003" lon="0.57205">
        <ele>48</ele>
        <time>2014-07-21T09:06:36.000Z</time>
      </trkpt>
      <trkpt lat="44.84002" lon="0.57201">
        <ele>48</ele>
        <time>2014-07-21T09:06:37.000Z</time>
      </trkpt>
      <trkpt lat="44.84001" lon="0.57197">
        <ele>48</ele>
        <time>2014-07-21T09:06:38.000Z</time>
      </trkpt>
      <trkpt lat="44.84" lon="0.57193">
        <ele>48</ele>
        <time>2014-07-21T09:06:39.000Z</time>
      </trkpt>
      <trkpt lat="44.83999" lon="0.5719">
        <ele>48</ele>
        <time>2014-07-21T09:06:40.000Z</time>
      </trkpt>
      <trkpt lat="44.83999" lon="0.57186">
        <ele>48</ele>
        <time>2014-07-21T09:06:41.000Z</time>
      </trkpt>
      <trkpt lat="44.83998" lon="0.57182">
        <ele>48</ele>
        <time>2014-07-21T09:06:42.000Z</time>
      </trkpt>
      <trkpt lat="44.83997" lon="0.57178">
        <ele>48</ele>
        <time>2014-07-21T09:06:43.000Z</time>
      </trkpt>
      <trkpt lat="44.83996" lon="0.57174">
        <ele>48</ele>
        <time>2014-07-21T09:06:44.000Z</time>
      </trkpt>
      <trkpt lat="44.83995" lon="0.57171">
        <ele>48</ele>
        <time>2014-07-21T09:06:45.000Z</time>
      </trkpt>
      <trkpt lat="44.83995" lon="0.57167">
        <ele>48</ele>
        <time>2014-07-21T09:06:46.000Z</time>
      </trkpt>
      <trkpt lat="44.83994" lon="0.57163">
        <ele>49</ele>
        <time>2014-07-21T09:06:47.000Z</time>
      </trkpt>
      <trkpt lat="44.83993" lon="0.57159">
        <ele>49</ele>
        <time>2014-07-21T09:06:48.000Z</time>
      </trkpt>
      <trkpt lat="44.83992" lon="0.57156">
        <ele>49</ele>
        <time>2014-07-21T09:06:49.000Z</time>
      </trkpt>
      <trkpt lat="44.83991" lon="0.57152">
        <ele>49</ele>
        <time>2014-07-21T09:06:50.000Z</time>
      </trkpt>
      <trkpt lat="44.8399" lon="0.57148">
        <ele>49</ele>
        <time>2014-07-21T09:06:51.000Z</time>
      </trkpt>
      <trkpt lat="44.8399" lon="0.57144">
        <ele>49</ele>
        <time>2014-07-21T09:06:52.000Z</time>
      </trkpt>
      <trkpt lat="44.83989" lon="0.57141">
        <ele>49</ele>
        <time>2014-07-21T09:06:53.000Z</time>
      </trkpt>
      <trkpt lat="44.83988" lon="0.57137">
        <ele>49</ele>
        <time>2014-07-21T09:06:54.000Z</time>
      </trkpt>
      <trkpt lat="44.83987" lon="0.57133">
        <ele>49</ele>
        <time>2014-07-21T09:06:55.000Z</time>
      </trkpt>
      <trkpt lat="44.83986" lon="0.57129">
        <ele>48</ele>
        <time>2014-07-21T09:06:56.000Z</time>
      </trkpt>
      <trkpt lat="44.83986" lon="0.57125">
        <ele>49</ele>
        <time>2014-07-21T09:06:57.000Z</time>
      </trkpt>
      <trkpt lat="44.83985" lon="0.57122">
        <ele>49</ele>
        <time>2014-07-21T09:06:58.000Z</time>
      </trkpt>
      <trkpt lat="44.83984" lon="0.57118">
        <ele>49</ele>
        <time>2014-07-21T09:06:59.000Z</time>
      </trkpt>
      <trkpt lat="44.83983" lon="0.57114">
        <ele>49</ele>
        <time>2014-07-21T09:07:00.000Z</time>
      </trkpt>
      <trkpt lat="44.83983" lon="0.5711">
        <ele>49</ele>
        <time>2014-07-21T09:07:01.000Z</time>
      </trkpt>
      <trkpt lat="44.83982" lon="0.57106">
        <ele>49</ele>
        <time>2014-07-21T09:07:02.000Z</time>
      </trkpt>
      <trkpt lat="44.83981" lon="0.57102">
        <ele>49</ele>
        <time>2014-07-21T09:07:03.000Z</time>
      </trkpt>
      <trkpt lat="44.8398" lon="0.57098">
        <ele>49</ele>
        <time>2014-07-21T09:07:04.000Z</time>
      </trkpt>
      <trkpt lat="44.8398" lon="0.57094">
        <ele>49</ele>
        <time>2014-07-21T09:07:05.000Z</time>
      </trkpt>
      <trkpt lat="44.83979" lon="0.5709">
        <ele>49</ele>
        <time>2014-07-21T09:07:06.000Z</time>
      </trkpt>
      <trkpt lat="44.83978" lon="0.57086">
        <ele>49</ele>
        <time>2014-07-21T09:07:07.000Z</time>
      </trkpt>
      <trkpt lat="44.83977" lon="0.57082">
        <ele>48</ele>
        <time>2014-07-21T09:07:08.000Z</time>
      </trkpt>
      <trkpt lat="44.83976" lon="0.57078">
        <ele>48</ele>
        <time>2014-07-21T09:07:09.000Z</time>
      </trkpt>
      <trkpt lat="44.83975" lon="0.57074">
        <ele>48</ele>
        <time>2014-07-21T09:07:10.000Z</time>
      </trkpt>
      <trkpt lat="44.83974" lon="0.57071">
        <ele>48</ele>
        <time>2014-07-21T09:07:11.000Z</time>
      </trkpt>
      <trkpt lat="44.83974" lon="0.57067">
        <ele>48</ele>
        <time>2014-07-21T09:07:12.000Z</time>
      </trkpt>
      <trkpt lat="44.83973" lon="0.57063">
        <ele>48</ele>
        <time>2014-07-21T09:07:13.000Z</time>
      </trkpt>
      <trkpt lat="44.83972" lon="0.57059">
        <ele>48</ele>
        <time>2014-07-21T09:07:14.000Z</time>
      </trkpt>
      <trkpt lat="44.83971" lon="0.57055">
        <ele>48</ele>
        <time>2014-07-21T09:07:15.000Z</time>
      </trkpt>
      <trkpt lat="44.8397" lon="0.57051">
        <ele>48</ele>
        <time>2014-07-21T09:07:16.000Z</time>
      </trkpt>
      <trkpt lat="44.83969" lon="0.57047">
        <ele>48</ele>
        <time>2014-07-21T09:07:17.000Z</time>
      </trkpt>
      <trkpt lat="44.83968" lon="0.57043">
        <ele>48</ele>
        <time>2014-07-21T09:07:18.000Z</time>
      </trkpt>
      <trkpt lat="44.83967" lon="0.57039">
        <ele>48</ele>
        <time>2014-07-21T09:07:19.000Z</time>
      </trkpt>
      <trkpt lat="44.83966" lon="0.57035">
        <ele>48</ele>
        <time>2014-07-21T09:07:20.000Z</time>
      </trkpt>
      <trkpt lat="44.83965" lon="0.57031">
        <ele>48</ele>
        <time>2014-07-21T09:07:21.000Z</time>
      </trkpt>
      <trkpt lat="44.83964" lon="0.57027">
        <ele>47</ele>
        <time>2014-07-21T09:07:22.000Z</time>
      </trkpt>
      <trkpt lat="44.83963" lon="0.57024">
        <ele>47</ele>
        <time>2014-07-21T09:07:23.000Z</time>
      </trkpt>
      <trkpt lat="44.83963" lon="0.5702">
        <ele>47</ele>
        <time>2014-07-21T09:07:24.000Z</time>
      </trkpt>
      <trkpt lat="44.83962" lon="0.57016">
        <ele>47</ele>
        <time>2014-07-21T09:07:25.000Z</time>
      </trkpt>
      <trkpt lat="44.83961" lon="0.57012">
        <ele>47</ele>
        <time>2014-07-21T09:07:26.000Z</time>
      </trkpt>
      <trkpt lat="44.8396" lon="0.57008">
        <ele>47</ele>
        <time>2014-07-21T09:07:27.000Z</time>
      </trkpt>
      <trkpt lat="44.8396" lon="0.57004">
        <ele>47</ele>
        <time>2014-07-21T09:07:28.000Z</time>
      </trkpt>
      <trkpt lat="44.83959" lon="0.57001">
        <ele>47</ele>
        <time>2014-07-21T09:07:29.000Z</time>
      </trkpt>
      <trkpt lat="44.83959" lon="0.56997">
        <ele>47</ele>
        <time>2014-07-21T09:07:30.000Z</time>
      </trkpt>
      <trkpt lat="44.83958" lon="0.56994">
        <ele>47</ele>
        <time>2014-07-21T09:07:31.000Z</time>
      </trkpt>
      <trkpt lat="44.83958" lon="0.5699">
        <ele>47</ele>
        <time>2014-07-21T09:07:32.000Z</time>
      </trkpt>
      <trkpt lat="44.83957" lon="0.56986">
        <ele>47</ele>
        <time>2014-07-21T09:07:33.000Z</time>
      </trkpt>
      <trkpt lat="44.83957" lon="0.56983">
        <ele>47</ele>
        <time>2014-07-21T09:07:34.000Z</time>
      </trkpt>
      <trkpt lat="44.83956" lon="0.56979">
        <ele>47</ele>
        <time>2014-07-21T09:07:35.000Z</time>
      </trkpt>
      <trkpt lat="44.83956" lon="0.56975">
        <ele>47</ele>
        <time>2014-07-21T09:07:36.000Z</time>
      </trkpt>
      <trkpt lat="44.83955" lon="0.56972">
        <ele>47</ele>
        <time>2014-07-21T09:07:37.000Z</time>
      </trkpt>
      <trkpt lat="44.83955" lon="0.56968">
        <ele>46</ele>
        <time>2014-07-21T09:07:38.000Z</time>
      </trkpt>
      <trkpt lat="44.83954" lon="0.56964">
        <ele>46</ele>
        <time>2014-07-21T09:07:39.000Z</time>
      </trkpt>
      <trkpt lat="44.83954" lon="0.5696">
        <ele>46</ele>
        <time>2014-07-21T09:07:40.000Z</time>
      </trkpt>
      <trkpt lat="44.83953" lon="0.56956">
        <ele>46</ele>
        <time>2014-07-21T09:07:41.000Z</time>
      </trkpt>
      <trkpt lat="44.83953" lon="0.56952">
        <ele>46</ele>
        <time>2014-07-21T09:07:42.000Z</time>
      </trkpt>
      <trkpt lat="44.83953" lon="0.56948">
        <ele>46</ele>
        <time>2014-07-21T09:07:43.000Z</time>
      </trkpt>
      <trkpt lat="44.83952" lon="0.56945">
        <ele>46</ele>
        <time>2014-07-21T09:07:44.000Z</time>
      </trkpt>
      <trkpt lat="44.83952" lon="0.56941">
        <ele>46</ele>
        <time>2014-07-21T09:07:45.000Z</time>
      </trkpt>
      <trkpt lat="44.83952" lon="0.56937">
        <ele>46</ele>
        <time>2014-07-21T09:07:46.000Z</time>
      </trkpt>
      <trkpt lat="44.83951" lon="0.56933">
        <ele>46</ele>
        <time>2014-07-21T09:07:47.000Z</time>
      </trkpt>
      <trkpt lat="44.83951" lon="0.56929">
        <ele>46</ele>
        <time>2014-07-21T09:07:48.000Z</time>
      </trkpt>
      <trkpt lat="44.83951" lon="0.56925">
        <ele>46</ele>
        <time>2014-07-21T09:07:49.000Z</time>
      </trkpt>
      <trkpt lat="44.8395" lon="0.56921">
        <ele>46</ele>
        <time>2014-07-21T09:07:50.000Z</time>
      </trkpt>
      <trkpt lat="44.8395" lon="0.56917">
        <ele>46</ele>
        <time>2014-07-21T09:07:51.000Z</time>
      </trkpt>
      <trkpt lat="44.8395" lon="0.56913">
        <ele>46</ele>
        <time>2014-07-21T09:07:52.000Z</time>
      </trkpt>
      <trkpt lat="44.83949" lon="0.56909">
        <ele>46</ele>
        <time>2014-07-21T09:07:53.000Z</time>
      </trkpt>
      <trkpt lat="44.83949" lon="0.56905">
        <ele>46</ele>
        <time>2014-07-21T09:07:54.000Z</time>
      </trkpt>
      <trkpt lat="44.83949" lon="0.56901">
        <ele>46</ele>
        <time>2014-07-21T09:07:55.000Z</time>
      </trkpt>
      <trkpt lat="44.83948" lon="0.56897">
        <ele>46</ele>
        <time>2014-07-21T09:07:56.000Z</time>
      </trkpt>
      <trkpt lat="44.83948" lon="0.56893">
        <ele>46</ele>
        <time>2014-07-21T09:07:57.000Z</time>
      </trkpt>
      <trkpt lat="44.83947" lon="0.56889">
        <ele>46</ele>
        <time>2014-07-21T09:07:58.000Z</time>
      </trkpt>
      <trkpt lat="44.83947" lon="0.56885">
        <ele>46</ele>
        <time>2014-07-21T09:07:59.000Z</time>
      </trkpt>
      <trkpt lat="44.83947" lon="0.56881">
        <ele>46</ele>
        <time>2014-07-21T09:08:00.000Z</time>
      </trkpt>
      <trkpt lat="44.83946" lon="0.56877">
        <ele>46</ele>
        <time>2014-07-21T09:08:01.000Z</time>
      </trkpt>
      <trkpt lat="44.83946" lon="0.56873">
        <ele>46</ele>
        <time>2014-07-21T09:08:02.000Z</time>
      </trkpt>
      <trkpt lat="44.83945" lon="0.56869">
        <ele>46</ele>
        <time>2014-07-21T09:08:03.000Z</time>
      </trkpt>
      <trkpt lat="44.83945" lon="0.56865">
        <ele>46</ele>
        <time>2014-07-21T09:08:04.000Z</time>
      </trkpt>
      <trkpt lat="44.83944" lon="0.56861">
        <ele>46</ele>
        <time>2014-07-21T09:08:05.000Z</time>
      </trkpt>
      <trkpt lat="44.83944" lon="0.56857">
        <ele>46</ele>
        <time>2014-07-21T09:08:06.000Z</time>
      </trkpt>
      <trkpt lat="44.83943" lon="0.56853">
        <ele>46</ele>
        <time>2014-07-21T09:08:07.000Z</time>
      </trkpt>
      <trkpt lat="44.83943" lon="0.56849">
        <ele>46</ele>
        <time>2014-07-21T09:08:08.000Z</time>
      </trkpt>
      <trkpt lat="44.83942" lon="0.56845">
        <ele>46</ele>
        <time>2014-07-21T09:08:09.000Z</time>
      </trkpt>
      <trkpt lat="44.83942" lon="0.56841">
        <ele>46</ele>
        <time>2014-07-21T09:08:10.000Z</time>
      </trkpt>
      <trkpt lat="44.83941" lon="0.56837">
        <ele>46</ele>
        <time>2014-07-21T09:08:11.000Z</time>
      </trkpt>
      <trkpt lat="44.83941" lon="0.56833">
        <ele>46</ele>
        <time>2014-07-21T09:08:12.000Z</time>
      </trkpt>
      <trkpt lat="44.8394" lon="0.5683">
        <ele>46</ele>
        <time>2014-07-21T09:08:13.000Z</time>
      </trkpt>
      <trkpt lat="44.83939" lon="0.56826">
        <ele>46</ele>
        <time>2014-07-21T09:08:14.000Z</time>
      </trkpt>
      <trkpt lat="44.83939" lon="0.56822">
        <ele>46</ele>
        <time>2014-07-21T09:08:15.000Z</time>
      </trkpt>
      <trkpt lat="44.83938" lon="0.56818">
        <ele>46</ele>
        <time>2014-07-21T09:08:16.000Z</time>
      </trkpt>
      <trkpt lat="44.83938" lon="0.56814">
        <ele>46</ele>
        <time>2014-07-21T09:08:17.000Z</time>
      </trkpt>
      <trkpt lat="44.83937" lon="0.5681">
        <ele>46</ele>
        <time>2014-07-21T09:08:18.000Z</time>
      </trkpt>
      <trkpt lat="44.83936" lon="0.56807">
        <ele>47</ele>
        <time>2014-07-21T09:08:19.000Z</time>
      </trkpt>
      <trkpt lat="44.83936" lon="0.56803">
        <ele>47</ele>
        <time>2014-07-21T09:08:20.000Z</time>
      </trkpt>
      <trkpt lat="44.83935" lon="0.56799">
        <ele>47</ele>
        <time>2014-07-21T09:08:21.000Z</time>
      </trkpt>
      <trkpt lat="44.83934" lon="0.56795">
        <ele>47</ele>
        <time>2014-07-21T09:08:22.000Z</time>
      </trkpt>
      <trkpt lat="44.83933" lon="0.56792">
        <ele>47</ele>
        <time>2014-07-21T09:08:23.000Z</time>
      </trkpt>
      <trkpt lat="44.83933" lon="0.56788">
        <ele>47</ele>
        <time>2014-07-21T09:08:24.000Z</time>
      </trkpt>
      <trkpt lat="44.83932" lon="0.56784">
        <ele>48</ele>
        <time>2014-07-21T09:08:25.000Z</time>
      </trkpt>
      <trkpt lat="44.83931" lon="0.5678">
        <ele>48</ele>
        <time>2014-07-21T09:08:26.000Z</time>
      </trkpt>
      <trkpt lat="44.8393" lon="0.56777">
        <ele>48</ele>
        <time>2014-07-21T09:08:27.000Z</time>
      </trkpt>
      <trkpt lat="44.8393" lon="0.56773">
        <ele>48</ele>
        <time>2014-07-21T09:08:28.000Z</time>
      </trkpt>
      <trkpt lat="44.83929" lon="0.56769">
        <ele>48</ele>
        <time>2014-07-21T09:08:29.000Z</time>
      </trkpt>
      <trkpt lat="44.83928" lon="0.56766">
        <ele>48</ele>
        <time>2014-07-21T09:08:30.000Z</time>
      </trkpt>
      <trkpt lat="44.83927" lon="0.56762">
        <ele>49</ele>
        <time>2014-07-21T09:08:31.000Z</time>
      </trkpt>
      <trkpt lat="44.83926" lon="0.56758">
        <ele>49</ele>
        <time>2014-07-21T09:08:32.000Z</time>
      </trkpt>
      <trkpt lat="44.83925" lon="0.56754">
        <ele>49</ele>
        <time>2014-07-21T09:08:33.000Z</time>
      </trkpt>
      <trkpt lat="44.83924" lon="0.56751">
        <ele>49</ele>
        <time>2014-07-21T09:08:34.000Z</time>
      </trkpt>
      <trkpt lat="44.83923" lon="0.56747">
        <ele>49</ele>
        <time>2014-07-21T09:08:35.000Z</time>
      </trkpt>
      <trkpt lat="44.83922" lon="0.56743">
        <ele>49</ele>
        <time>2014-07-21T09:08:36.000Z</time>
      </trkpt>
      <trkpt lat="44.83921" lon="0.56739">
        <ele>49</ele>
        <time>2014-07-21T09:08:37.000Z</time>
      </trkpt>
      <trkpt lat="44.8392" lon="0.56736">
        <ele>49</ele>
        <time>2014-07-21T09:08:38.000Z</time>
      </trkpt>
      <trkpt lat="44.83919" lon="0.56732">
        <ele>49</ele>
        <time>2014-07-21T09:08:39.000Z</time>
      </trkpt>
      <trkpt lat="44.83918" lon="0.56728">
        <ele>49</ele>
        <time>2014-07-21T09:08:40.000Z</time>
      </trkpt>
      <trkpt lat="44.83917" lon="0.56724">
        <ele>49</ele>
        <time>2014-07-21T09:08:41.000Z</time>
      </trkpt>
      <trkpt lat="44.83916" lon="0.5672">
        <ele>48</ele>
        <time>2014-07-21T09:08:42.000Z</time>
      </trkpt>
      <trkpt lat="44.83915" lon="0.56716">
        <ele>48</ele>
        <time>2014-07-21T09:08:43.000Z</time>
      </trkpt>
      <trkpt lat="44.83914" lon="0.56713">
        <ele>48</ele>
        <time>2014-07-21T09:08:44.000Z</time>
      </trkpt>
      <trkpt lat="44.83913" lon="0.56709">
        <ele>48</ele>
        <time>2014-07-21T09:08:45.000Z</time>
      </trkpt>
      <trkpt lat="44.83912" lon="0.56705">
        <ele>48</ele>
        <time>2014-07-21T09:08:46.000Z</time>
      </trkpt>
      <trkpt lat="44.83911" lon="0.56701">
        <ele>48</ele>
        <time>2014-07-21T09:08:47.000Z</time>
      </trkpt>
      <trkpt lat="44.8391" lon="0.56697">
        <ele>47</ele>
        <time>2014-07-21T09:08:48.000Z</time>
      </trkpt>
      <trkpt lat="44.83909" lon="0.56693">
        <ele>47</ele>
        <time>2014-07-21T09:08:49.000Z</time>
      </trkpt>
      <trkpt lat="44.83908" lon="0.56689">
        <ele>47</ele>
        <time>2014-07-21T09:08:50.000Z</time>
      </trkpt>
      <trkpt lat="44.83907" lon="0.56685">
        <ele>47</ele>
        <time>2014-07-21T09:08:51.000Z</time>
      </trkpt>
      <trkpt lat="44.83906" lon="0.56681">
        <ele>47</ele>
        <time>2014-07-21T09:08:52.000Z</time>
      </trkpt>
      <trkpt lat="44.83905" lon="0.56678">
        <ele>47</ele>
        <time>2014-07-21T09:08:53.000Z</time>
      </trkpt>
      <trkpt lat="44.83904" lon="0.56674">
        <ele>47</ele>
        <time>2014-07-21T09:08:54.000Z</time>
      </trkpt>
      <trkpt lat="44.83903" lon="0.5667">
        <ele>46</ele>
        <time>2014-07-21T09:08:55.000Z</time>
      </trkpt>
      <trkpt lat="44.83902" lon="0.56666">
        <ele>46</ele>
        <time>2014-07-21T09:08:56.000Z</time>
      </trkpt>
      <trkpt lat="44.83901" lon="0.56662">
        <ele>46</ele>
        <time>2014-07-21T09:08:57.000Z</time>
      </trkpt>
      <trkpt lat="44.839" lon="0.56658">
        <ele>46</ele>
        <time>2014-07-21T09:08:58.000Z</time>
      </trkpt>
      <trkpt lat="44.839" lon="0.56654">
        <ele>46</ele>
        <time>2014-07-21T09:08:59.000Z</time>
      </trkpt>
      <trkpt lat="44.83899" lon="0.5665">
        <ele>46</ele>
        <time>2014-07-21T09:09:00.000Z</time>
      </trkpt>
      <trkpt lat="44.83898" lon="0.56647">
        <ele>46</ele>
        <time>2014-07-21T09:09:01.000Z</time>
      </trkpt>
      <trkpt lat="44.83897" lon="0.56643">
        <ele>46</ele>
        <time>2014-07-21T09:09:02.000Z</time>
      </trkpt>
      <trkpt lat="44.83897" lon="0.56639">
        <ele>45</ele>
        <time>2014-07-21T09:09:03.000Z</time>
      </trkpt>
      <trkpt lat="44.83896" lon="0.56635">
        <ele>45</ele>
        <time>2014-07-21T09:09:04.000Z</time>
      </trkpt>
      <trkpt lat="44.83896" lon="0.56631">
        <ele>45</ele>
        <time>2014-07-21T09:09:05.000Z</time>
      </trkpt>
      <trkpt lat="44.83895" lon="0.56628">
        <ele>45</ele>
        <time>2014-07-21T09:09:06.000Z</time>
      </trkpt>
      <trkpt lat="44.83895" lon="0.56624">
        <ele>45</ele>
        <time>2014-07-21T09:09:07.000Z</time>
      </trkpt>
      <trkpt lat="44.83894" lon="0.5662">
        <ele>45</ele>
        <time>2014-07-21T09:09:08.000Z</time>
      </trkpt>
      <trkpt lat="44.83894" lon="0.56616">
        <ele>45</ele>
        <time>2014-07-21T09:09:09.000Z</time>
      </trkpt>
      <trkpt lat="44.83894" lon="0.56613">
        <ele>45</ele>
        <time>2014-07-21T09:09:10.000Z</time>
      </trkpt>
      <trkpt lat="44.83893" lon="0.56609">
        <ele>45</ele>
        <time>2014-07-21T09:09:11.000Z</time>
      </trkpt>
      <trkpt lat="44.83893" lon="0.56605">
        <ele>44</ele>
        <time>2014-07-21T09:09:12.000Z</time>
      </trkpt>
      <trkpt lat="44.83893" lon="0.56601">
        <ele>44</ele>
        <time>2014-07-21T09:09:13.000Z</time>
      </trkpt>
      <trkpt lat="44.83893" lon="0.56597">
        <ele>44</ele>
        <time>2014-07-21T09:09:14.000Z</time>
      </trkpt>
      <trkpt lat="44.83893" lon="0.56594">
        <ele>44</ele>
        <time>2014-07-21T09:09:15.000Z</time>
      </trkpt>
      <trkpt lat="44.83893" lon="0.5659">
        <ele>44</ele>
        <time>2014-07-21T09:09:16.000Z</time>
      </trkpt>
      <trkpt lat="44.83893" lon="0.56586">
        <ele>44</ele>
        <time>2014-07-21T09:09:17.000Z</time>
      </trkpt>
      <trkpt lat="44.83893" lon="0.56582">
        <ele>44</ele>
        <time>2014-07-21T09:09:18.000Z</time>
      </trkpt>
      <trkpt lat="44.83893" lon="0.56578">
        <ele>44</ele>
        <time>2014-07-21T09:09:19.000Z</time>
      </trkpt>
      <trkpt lat="44.83893" lon="0.56574">
        <ele>44</ele>
        <time>2014-07-21T09:09:20.000Z</time>
      </trkpt>
      <trkpt lat="44.83893" lon="0.56571">
        <ele>44</ele>
        <time>2014-07-21T09:09:21.000Z</time>
      </trkpt>
      <trkpt lat="44.83893" lon="0.56567">
        <ele>44</ele>
        <time>2014-07-21T09:09:22.000Z</time>
      </trkpt>
      <trkpt lat="44.83893" lon="0.56563">
        <ele>44</ele>
        <time>2014-07-21T09:09:23.000Z</time>
      </trkpt>
      <trkpt lat="44.83893" lon="0.56559">
        <ele>44</ele>
        <time>2014-07-21T09:09:24.000Z</time>
      </trkpt>
      <trkpt lat="44.83893" lon="0.56555">
        <ele>44</ele>
        <time>2014-07-21T09:09:25.000Z</time>
      </trkpt>
      <trkpt lat="44.83893" lon="0.56551">
        <ele>44</ele>
        <time>2014-07-21T09:09:26.000Z</time>
      </trkpt>
      <trkpt lat="44.83894" lon="0.56547">
        <ele>44</ele>
        <time>2014-07-21T09:09:27.000Z</time>
      </trkpt>
      <trkpt lat="44.83894" lon="0.56543">
        <ele>44</ele>
        <time>2014-07-21T09:09:28.000Z</time>
      </trkpt>
      <trkpt lat="44.83894" lon="0.56539">
        <ele>44</ele>
        <time>2014-07-21T09:09:29.000Z</time>
      </trkpt>
      <trkpt lat="44.83894" lon="0.56535">
        <ele>44</ele>
        <time>2014-07-21T09:09:30.000Z</time>
      </trkpt>
      <trkpt lat="44.83894" lon="0.56531">
        <ele>44</ele>
        <time>2014-07-21T09:09:31.000Z</time>
      </trkpt>
      <trkpt lat="44.83894" lon="0.56528">
        <ele>44</ele>
        <time>2014-07-21T09:09:32.000Z</time>
      </trkpt>
      <trkpt lat="44.83894" lon="0.56524">
        <ele>44</ele>
        <time>2014-07-21T09:09:33.000Z</time>
      </trkpt>
      <trkpt lat="44.83894" lon="0.5652">
        <ele>45</ele>
        <time>2014-07-21T09:09:34.000Z</time>
      </trkpt>
      <trkpt lat="44.83894" lon="0.56516">
        <ele>45</ele>
        <time>2014-07-21T09:09:35.000Z</time>
      </trkpt>
      <trkpt lat="44.83894" lon="0.56512">
        <ele>45</ele>
        <time>2014-07-21T09:09:36.000Z</time>
      </trkpt>
      <trkpt lat="44.83894" lon="0.56508">
        <ele>45</ele>
        <time>2014-07-21T09:09:37.000Z</time>
      </trkpt>
      <trkpt lat="44.83894" lon="0.56504">
        <ele>45</ele>
        <time>2014-07-21T09:09:38.000Z</time>
      </trkpt>
      <trkpt lat="44.83894" lon="0.565">
        <ele>45</ele>
        <time>2014-07-21T09:09:39.000Z</time>
      </trkpt>
      <trkpt lat="44.83894" lon="0.56497">
        <ele>45</ele>
        <time>2014-07-21T09:09:40.000Z</time>
      </trkpt>
      <trkpt lat="44.83894" lon="0.56493">
        <ele>45</ele>
        <time>2014-07-21T09:09:41.000Z</time>
      </trkpt>
      <trkpt lat="44.83893" lon="0.56489">
        <ele>45</ele>
        <time>2014-07-21T09:09:42.000Z</time>
      </trkpt>
      <trkpt lat="44.83893" lon="0.56485">
        <ele>45</ele>
        <time>2014-07-21T09:09:43.000Z</time>
      </trkpt>
      <trkpt lat="44.83893" lon="0.56481">
        <ele>45</ele>
        <time>2014-07-21T09:09:44.000Z</time>
      </trkpt>
      <trkpt lat="44.83893" lon="0.56477">
        <ele>45</ele>
        <time>2014-07-21T09:09:45.000Z</time>
      </trkpt>
      <trkpt lat="44.83893" lon="0.56473">
        <ele>45</ele>
        <time>2014-07-21T09:09:46.000Z</time>
      </trkpt>
      <trkpt lat="44.83893" lon="0.56469">
        <ele>45</ele>
        <time>2014-07-21T09:09:47.000Z</time>
      </trkpt>
      <trkpt lat="44.83893" lon="0.56465">
        <ele>45</ele>
        <time>2014-07-21T09:09:48.000Z</time>
      </trkpt>
      <trkpt lat="44.83893" lon="0.56461">
        <ele>45</ele>
        <time>2014-07-21T09:09:49.000Z</time>
      </trkpt>
      <trkpt lat="44.83893" lon="0.56457">
        <ele>45</ele>
        <time>2014-07-21T09:09:50.000Z</time>
      </trkpt>
      <trkpt lat="44.83893" lon="0.56453">
        <ele>45</ele>
        <time>2014-07-21T09:09:51.000Z</time>
      </trkpt>
      <trkpt lat="44.83893" lon="0.56449">
        <ele>45</ele>
        <time>2014-07-21T09:09:52.000Z</time>
      </trkpt>
      <trkpt lat="44.83893" lon="0.56445">
        <ele>45</ele>
        <time>2014-07-21T09:09:53.000Z</time>
      </trkpt>
      <trkpt lat="44.83893" lon="0.56441">
        <ele>45</ele>
        <time>2014-07-21T09:09:54.000Z</time>
      </trkpt>
      <trkpt lat="44.83893" lon="0.56437">
        <ele>46</ele>
        <time>2014-07-21T09:09:55.000Z</time>
      </trkpt>
      <trkpt lat="44.83893" lon="0.56433">
        <ele>46</ele>
        <time>2014-07-21T09:09:56.000Z</time>
      </trkpt>
      <trkpt lat="44.83893" lon="0.56429">
        <ele>46</ele>
        <time>2014-07-21T09:09:57.000Z</time>
      </trkpt>
      <trkpt lat="44.83893" lon="0.56425">
        <ele>46</ele>
        <time>2014-07-21T09:09:58.000Z</time>
      </trkpt>
      <trkpt lat="44.83893" lon="0.56421">
        <ele>46</ele>
        <time>2014-07-21T09:09:59.000Z</time>
      </trkpt>
      <trkpt lat="44.83893" lon="0.56417">
        <ele>46</ele>
        <time>2014-07-21T09:10:00.000Z</time>
      </trkpt>
      <trkpt lat="44.83893" lon="0.56413">
        <ele>46</ele>
        <time>2014-07-21T09:10:01.000Z</time>
      </trkpt>
      <trkpt lat="44.83893" lon="0.56409">
        <ele>46</ele>
        <time>2014-07-21T09:10:02.000Z</time>
      </trkpt>
      <trkpt lat="44.83894" lon="0.56405">
        <ele>46</ele>
        <time>2014-07-21T09:10:03.000Z</time>
      </trkpt>
      <trkpt lat="44.83894" lon="0.56401">
        <ele>46</ele>
        <time>2014-07-21T09:10:04.000Z</time>
      </trkpt>
      <trkpt lat="44.83894" lon="0.56397">
        <ele>46</ele>
        <time>2014-07-21T09:10:05.000Z</time>
      </trkpt>
      <trkpt lat="44.83894" lon="0.56393">
        <ele>45</ele>
        <time>2014-07-21T09:10:06.000Z</time>
      </trkpt>
      <trkpt lat="44.83894" lon="0.56388">
        <ele>45</ele>
        <time>2014-07-21T09:10:07.000Z</time>
      </trkpt>
      <trkpt lat="44.83894" lon="0.56384">
        <ele>45</ele>
        <time>2014-07-21T09:10:08.000Z</time>
      </trkpt>
      <trkpt lat="44.83894" lon="0.5638">
        <ele>45</ele>
        <time>2014-07-21T09:10:09.000Z</time>
      </trkpt>
      <trkpt lat="44.83894" lon="0.56376">
        <ele>45</ele>
        <time>2014-07-21T09:10:10.000Z</time>
      </trkpt>
      <trkpt lat="44.83894" lon="0.56372">
        <ele>45</ele>
        <time>2014-07-21T09:10:11.000Z</time>
      </trkpt>
      <trkpt lat="44.83894" lon="0.56368">
        <ele>45</ele>
        <time>2014-07-21T09:10:12.000Z</time>
      </trkpt>
      <trkpt lat="44.83895" lon="0.56364">
        <ele>45</ele>
        <time>2014-07-21T09:10:13.000Z</time>
      </trkpt>
      <trkpt lat="44.83895" lon="0.5636">
        <ele>45</ele>
        <time>2014-07-21T09:10:14.000Z</time>
      </trkpt>
      <trkpt lat="44.83895" lon="0.56356">
        <ele>45</ele>
        <time>2014-07-21T09:10:15.000Z</time>
      </trkpt>
      <trkpt lat="44.83895" lon="0.56352">
        <ele>45</ele>
        <time>2014-07-21T09:10:16.000Z</time>
      </trkpt>
      <trkpt lat="44.83895" lon="0.56348">
        <ele>45</ele>
        <time>2014-07-21T09:10:17.000Z</time>
      </trkpt>
      <trkpt lat="44.83895" lon="0.56344">
        <ele>45</ele>
        <time>2014-07-21T09:10:18.000Z</time>
      </trkpt>
      <trkpt lat="44.83895" lon="0.5634">
        <ele>45</ele>
        <time>2014-07-21T09:10:19.000Z</time>
      </trkpt>
      <trkpt lat="44.83895" lon="0.56336">
        <ele>45</ele>
        <time>2014-07-21T09:10:20.000Z</time>
      </trkpt>
      <trkpt lat="44.83896" lon="0.56333">
        <ele>45</ele>
        <time>2014-07-21T09:10:21.000Z</time>
      </trkpt>
      <trkpt lat="44.83896" lon="0.56329">
        <ele>45</ele>
        <time>2014-07-21T09:10:22.000Z</time>
      </trkpt>
      <trkpt lat="44.83896" lon="0.56325">
        <ele>45</ele>
        <time>2014-07-21T09:10:23.000Z</time>
      </trkpt>
      <trkpt lat="44.83896" lon="0.56321">
        <ele>45</ele>
        <time>2014-07-21T09:10:24.000Z</time>
      </trkpt>
      <trkpt lat="44.83896" lon="0.56317">
        <ele>45</ele>
        <time>2014-07-21T09:10:25.000Z</time>
      </trkpt>
      <trkpt lat="44.83896" lon="0.56313">
        <ele>44</ele>
        <time>2014-07-21T09:10:26.000Z</time>
      </trkpt>
      <trkpt lat="44.83897" lon="0.56309">
        <ele>44</ele>
        <time>2014-07-21T09:10:27.000Z</time>
      </trkpt>
      <trkpt lat="44.83897" lon="0.56305">
        <ele>44</ele>
        <time>2014-07-21T09:10:28.000Z</time>
      </trkpt>
      <trkpt lat="44.83897" lon="0.56301">
        <ele>44</ele>
        <time>2014-07-21T09:10:29.000Z</time>
      </trkpt>
      <trkpt lat="44.83897" lon="0.56297">
        <ele>44</ele>
        <time>2014-07-21T09:10:30.000Z</time>
      </trkpt>
      <trkpt lat="44.83897" lon="0.56293">
        <ele>44</ele>
        <time>2014-07-21T09:10:31.000Z</time>
      </trkpt>
      <trkpt lat="44.83897" lon="0.56289">
        <ele>44</ele>
        <time>2014-07-21T09:10:32.000Z</time>
      </trkpt>
      <trkpt lat="44.83897" lon="0.56286">
        <ele>44</ele>
        <time>2014-07-21T09:10:33.000Z</time>
      </trkpt>
      <trkpt lat="44.83898" lon="0.56282">
        <ele>44</ele>
        <time>2014-07-21T09:10:34.000Z</time>
      </trkpt>
      <trkpt lat="44.83898" lon="0.56278">
        <ele>44</ele>
        <time>2014-07-21T09:10:35.000Z</time>
      </trkpt>
      <trkpt lat="44.83898" lon="0.56274">
        <ele>44</ele>
        <time>2014-07-21T09:10:36.000Z</time>
      </trkpt>
      <trkpt lat="44.83898" lon="0.5627">
        <ele>44</ele>
        <time>2014-07-21T09:10:37.000Z</time>
      </trkpt>
      <trkpt lat="44.83898" lon="0.56266">
        <ele>44</ele>
        <time>2014-07-21T09:10:38.000Z</time>
      </trkpt>
      <trkpt lat="44.83898" lon="0.56262">
        <ele>44</ele>
        <time>2014-07-21T09:10:39.000Z</time>
      </trkpt>
      <trkpt lat="44.83898" lon="0.56258">
        <ele>44</ele>
        <time>2014-07-21T09:10:40.000Z</time>
      </trkpt>
      <trkpt lat="44.83899" lon="0.56254">
        <ele>44</ele>
        <time>2014-07-21T09:10:41.000Z</time>
      </trkpt>
      <trkpt lat="44.83899" lon="0.5625">
        <ele>44</ele>
        <time>2014-07-21T09:10:42.000Z</time>
      </trkpt>
      <trkpt lat="44.83899" lon="0.56246">
        <ele>44</ele>
        <time>2014-07-21T09:10:43.000Z</time>
      </trkpt>
      <trkpt lat="44.83899" lon="0.56242">
        <ele>44</ele>
        <time>2014-07-21T09:10:44.000Z</time>
      </trkpt>
      <trkpt lat="44.83899" lon="0.56238">
        <ele>44</ele>
        <time>2014-07-21T09:10:45.000Z</time>
      </trkpt>
      <trkpt lat="44.83899" lon="0.56234">
        <ele>44</ele>
        <time>2014-07-21T09:10:46.000Z</time>
      </trkpt>
      <trkpt lat="44.83899" lon="0.5623">
        <ele>44</ele>
        <time>2014-07-21T09:10:47.000Z</time>
      </trkpt>
      <trkpt lat="44.83899" lon="0.56226">
        <ele>44</ele>
        <time>2014-07-21T09:10:48.000Z</time>
      </trkpt>
      <trkpt lat="44.839" lon="0.56222">
        <ele>44</ele>
        <time>2014-07-21T09:10:49.000Z</time>
      </trkpt>
      <trkpt lat="44.839" lon="0.56218">
        <ele>44</ele>
        <time>2014-07-21T09:10:50.000Z</time>
      </trkpt>
      <trkpt lat="44.839" lon="0.56214">
        <ele>44</ele>
        <time>2014-07-21T09:10:51.000Z</time>
      </trkpt>
      <trkpt lat="44.839" lon="0.5621">
        <ele>44</ele>
        <time>2014-07-21T09:10:52.000Z</time>
      </trkpt>
      <trkpt lat="44.839" lon="0.56206">
        <ele>44</ele>
        <time>2014-07-21T09:10:53.000Z</time>
      </trkpt>
      <trkpt lat="44.839" lon="0.56202">
        <ele>44</ele>
        <time>2014-07-21T09:10:54.000Z</time>
      </trkpt>
      <trkpt lat="44.83901" lon="0.56198">
        <ele>44</ele>
        <time>2014-07-21T09:10:55.000Z</time>
      </trkpt>
      <trkpt lat="44.83901" lon="0.56194">
        <ele>44</ele>
        <time>2014-07-21T09:10:56.000Z</time>
      </trkpt>
      <trkpt lat="44.83901" lon="0.5619">
        <ele>45</ele>
        <time>2014-07-21T09:10:57.000Z</time>
      </trkpt>
      <trkpt lat="44.83901" lon="0.56186">
        <ele>45</ele>
        <time>2014-07-21T09:10:58.000Z</time>
      </trkpt>
      <trkpt lat="44.83901" lon="0.56182">
        <ele>45</ele>
        <time>2014-07-21T09:10:59.000Z</time>
      </trkpt>
      <trkpt lat="44.83902" lon="0.56178">
        <ele>45</ele>
        <time>2014-07-21T09:11:00.000Z</time>
      </trkpt>
      <trkpt lat="44.83902" lon="0.56174">
        <ele>45</ele>
        <time>2014-07-21T09:11:01.000Z</time>
      </trkpt>
      <trkpt lat="44.83902" lon="0.5617">
        <ele>45</ele>
        <time>2014-07-21T09:11:02.000Z</time>
      </trkpt>
      <trkpt lat="44.83902" lon="0.56166">
        <ele>45</ele>
        <time>2014-07-21T09:11:03.000Z</time>
      </trkpt>
      <trkpt lat="44.83903" lon="0.56162">
        <ele>45</ele>
        <time>2014-07-21T09:11:04.000Z</time>
      </trkpt>
      <trkpt lat="44.83903" lon="0.56158">
        <ele>45</ele>
        <time>2014-07-21T09:11:05.000Z</time>
      </trkpt>
      <trkpt lat="44.83903" lon="0.56154">
        <ele>45</ele>
        <time>2014-07-21T09:11:06.000Z</time>
      </trkpt>
      <trkpt lat="44.83904" lon="0.5615">
        <ele>45</ele>
        <time>2014-07-21T09:11:07.000Z</time>
      </trkpt>
      <trkpt lat="44.83904" lon="0.56146">
        <ele>45</ele>
        <time>2014-07-21T09:11:08.000Z</time>
      </trkpt>
      <trkpt lat="44.83905" lon="0.56142">
        <ele>45</ele>
        <time>2014-07-21T09:11:09.000Z</time>
      </trkpt>
      <trkpt lat="44.83905" lon="0.56138">
        <ele>45</ele>
        <time>2014-07-21T09:11:10.000Z</time>
      </trkpt>
      <trkpt lat="44.83906" lon="0.56134">
        <ele>45</ele>
        <time>2014-07-21T09:11:11.000Z</time>
      </trkpt>
      <trkpt lat="44.83906" lon="0.5613">
        <ele>45</ele>
        <time>2014-07-21T09:11:12.000Z</time>
      </trkpt>
      <trkpt lat="44.83907" lon="0.56127">
        <ele>45</ele>
        <time>2014-07-21T09:11:13.000Z</time>
      </trkpt>
      <trkpt lat="44.83907" lon="0.56123">
        <ele>45</ele>
        <time>2014-07-21T09:11:14.000Z</time>
      </trkpt>
      <trkpt lat="44.83908" lon="0.56119">
        <ele>45</ele>
        <time>2014-07-21T09:11:15.000Z</time>
      </trkpt>
      <trkpt lat="44.83908" lon="0.56115">
        <ele>45</ele>
        <time>2014-07-21T09:11:16.000Z</time>
      </trkpt>
      <trkpt lat="44.83909" lon="0.56111">
        <ele>45</ele>
        <time>2014-07-21T09:11:17.000Z</time>
      </trkpt>
      <trkpt lat="44.83909" lon="0.56107">
        <ele>45</ele>
        <time>2014-07-21T09:11:18.000Z</time>
      </trkpt>
      <trkpt lat="44.8391" lon="0.56103">
        <ele>45</ele>
        <time>2014-07-21T09:11:19.000Z</time>
      </trkpt>
      <trkpt lat="44.8391" lon="0.56099">
        <ele>45</ele>
        <time>2014-07-21T09:11:20.000Z</time>
      </trkpt>
      <trkpt lat="44.83911" lon="0.56095">
        <ele>45</ele>
        <time>2014-07-21T09:11:21.000Z</time>
      </trkpt>
      <trkpt lat="44.83911" lon="0.56091">
        <ele>45</ele>
        <time>2014-07-21T09:11:22.000Z</time>
      </trkpt>
      <trkpt lat="44.83912" lon="0.56087">
        <ele>45</ele>
        <time>2014-07-21T09:11:23.000Z</time>
      </trkpt>
      <trkpt lat="44.83913" lon="0.56083">
        <ele>45</ele>
        <time>2014-07-21T09:11:24.000Z</time>
      </trkpt>
      <trkpt lat="44.83913" lon="0.56079">
        <ele>45</ele>
        <time>2014-07-21T09:11:25.000Z</time>
      </trkpt>
      <trkpt lat="44.83914" lon="0.56076">
        <ele>45</ele>
        <time>2014-07-21T09:11:26.000Z</time>
      </trkpt>
      <trkpt lat="44.83914" lon="0.56072">
        <ele>45</ele>
        <time>2014-07-21T09:11:27.000Z</time>
      </trkpt>
      <trkpt lat="44.83915" lon="0.56068">
        <ele>45</ele>
        <time>2014-07-21T09:11:28.000Z</time>
      </trkpt>
      <trkpt lat="44.83915" lon="0.56064">
        <ele>45</ele>
        <time>2014-07-21T09:11:29.000Z</time>
      </trkpt>
      <trkpt lat="44.83915" lon="0.5606">
        <ele>45</ele>
        <time>2014-07-21T09:11:30.000Z</time>
      </trkpt>
      <trkpt lat="44.83916" lon="0.56056">
        <ele>45</ele>
        <time>2014-07-21T09:11:31.000Z</time>
      </trkpt>
      <trkpt lat="44.83916" lon="0.56052">
        <ele>45</ele>
        <time>2014-07-21T09:11:32.000Z</time>
      </trkpt>
      <trkpt lat="44.83917" lon="0.56048">
        <ele>45</ele>
        <time>2014-07-21T09:11:33.000Z</time>
      </trkpt>
      <trkpt lat="44.83917" lon="0.56044">
        <ele>44</ele>
        <time>2014-07-21T09:11:34.000Z</time>
      </trkpt>
      <trkpt lat="44.83917" lon="0.56041">
        <ele>44</ele>
        <time>2014-07-21T09:11:35.000Z</time>
      </trkpt>
      <trkpt lat="44.83918" lon="0.56037">
        <ele>44</ele>
        <time>2014-07-21T09:11:36.000Z</time>
      </trkpt>
      <trkpt lat="44.83918" lon="0.56033">
        <ele>44</ele>
        <time>2014-07-21T09:11:37.000Z</time>
      </trkpt>
      <trkpt lat="44.83918" lon="0.56029">
        <ele>44</ele>
        <time>2014-07-21T09:11:38.000Z</time>
      </trkpt>
      <trkpt lat="44.83918" lon="0.56025">
        <ele>44</ele>
        <time>2014-07-21T09:11:39.000Z</time>
      </trkpt>
      <trkpt lat="44.83919" lon="0.56021">
        <ele>44</ele>
        <time>2014-07-21T09:11:40.000Z</time>
      </trkpt>
      <trkpt lat="44.83919" lon="0.56017">
        <ele>44</ele>
        <time>2014-07-21T09:11:41.000Z</time>
      </trkpt>
      <trkpt lat="44.83919" lon="0.56013">
        <ele>44</ele>
        <time>2014-07-21T09:11:42.000Z</time>
      </trkpt>
      <trkpt lat="44.83919" lon="0.56009">
        <ele>44</ele>
        <time>2014-07-21T09:11:43.000Z</time>
      </trkpt>
      <trkpt lat="44.83919" lon="0.56006">
        <ele>44</ele>
        <time>2014-07-21T09:11:44.000Z</time>
      </trkpt>
      <trkpt lat="44.83919" lon="0.56002">
        <ele>44</ele>
        <time>2014-07-21T09:11:45.000Z</time>
      </trkpt>
      <trkpt lat="44.83919" lon="0.55998">
        <ele>44</ele>
        <time>2014-07-21T09:11:46.000Z</time>
      </trkpt>
      <trkpt lat="44.83919" lon="0.55994">
        <ele>44</ele>
        <time>2014-07-21T09:11:47.000Z</time>
      </trkpt>
      <trkpt lat="44.83919" lon="0.5599">
        <ele>44</ele>
        <time>2014-07-21T09:11:48.000Z</time>
      </trkpt>
      <trkpt lat="44.83919" lon="0.55986">
        <ele>44</ele>
        <time>2014-07-21T09:11:49.000Z</time>
      </trkpt>
      <trkpt lat="44.8392" lon="0.55982">
        <ele>44</ele>
        <time>2014-07-21T09:11:50.000Z</time>
      </trkpt>
      <trkpt lat="44.8392" lon="0.55978">
        <ele>44</ele>
        <time>2014-07-21T09:11:51.000Z</time>
      </trkpt>
      <trkpt lat="44.8392" lon="0.55974">
        <ele>44</ele>
        <time>2014-07-21T09:11:52.000Z</time>
      </trkpt>
      <trkpt lat="44.8392" lon="0.5597">
        <ele>44</ele>
        <time>2014-07-21T09:11:53.000Z</time>
      </trkpt>
      <trkpt lat="44.83919" lon="0.55966">
        <ele>44</ele>
        <time>2014-07-21T09:11:54.000Z</time>
      </trkpt>
      <trkpt lat="44.83919" lon="0.55962">
        <ele>44</ele>
        <time>2014-07-21T09:11:55.000Z</time>
      </trkpt>
      <trkpt lat="44.83919" lon="0.55958">
        <ele>44</ele>
        <time>2014-07-21T09:11:56.000Z</time>
      </trkpt>
      <trkpt lat="44.83919" lon="0.55954">
        <ele>44</ele>
        <time>2014-07-21T09:11:57.000Z</time>
      </trkpt>
      <trkpt lat="44.83919" lon="0.5595">
        <ele>44</ele>
        <time>2014-07-21T09:11:58.000Z</time>
      </trkpt>
      <trkpt lat="44.83919" lon="0.55946">
        <ele>44</ele>
        <time>2014-07-21T09:11:59.000Z</time>
      </trkpt>
      <trkpt lat="44.83919" lon="0.55942">
        <ele>44</ele>
        <time>2014-07-21T09:12:00.000Z</time>
      </trkpt>
      <trkpt lat="44.83919" lon="0.55938">
        <ele>44</ele>
        <time>2014-07-21T09:12:01.000Z</time>
      </trkpt>
      <trkpt lat="44.8392" lon="0.55934">
        <ele>44</ele>
        <time>2014-07-21T09:12:02.000Z</time>
      </trkpt>
      <trkpt lat="44.8392" lon="0.5593">
        <ele>44</ele>
        <time>2014-07-21T09:12:03.000Z</time>
      </trkpt>
      <trkpt lat="44.8392" lon="0.55926">
        <ele>44</ele>
        <time>2014-07-21T09:12:04.000Z</time>
      </trkpt>
      <trkpt lat="44.8392" lon="0.55923">
        <ele>44</ele>
        <time>2014-07-21T09:12:05.000Z</time>
      </trkpt>
      <trkpt lat="44.83921" lon="0.55919">
        <ele>44</ele>
        <time>2014-07-21T09:12:06.000Z</time>
      </trkpt>
      <trkpt lat="44.83921" lon="0.55915">
        <ele>44</ele>
        <time>2014-07-21T09:12:07.000Z</time>
      </trkpt>
      <trkpt lat="44.83922" lon="0.55912">
        <ele>44</ele>
        <time>2014-07-21T09:12:08.000Z</time>
      </trkpt>
      <trkpt lat="44.83922" lon="0.55908">
        <ele>44</ele>
        <time>2014-07-21T09:12:09.000Z</time>
      </trkpt>
      <trkpt lat="44.83922" lon="0.55904">
        <ele>44</ele>
        <time>2014-07-21T09:12:10.000Z</time>
      </trkpt>
      <trkpt lat="44.83923" lon="0.559">
        <ele>44</ele>
        <time>2014-07-21T09:12:11.000Z</time>
      </trkpt>
      <trkpt lat="44.83923" lon="0.55897">
        <ele>44</ele>
        <time>2014-07-21T09:12:12.000Z</time>
      </trkpt>
      <trkpt lat="44.83924" lon="0.55893">
        <ele>44</ele>
        <time>2014-07-21T09:12:13.000Z</time>
      </trkpt>
      <trkpt lat="44.83924" lon="0.55889">
        <ele>44</ele>
        <time>2014-07-21T09:12:14.000Z</time>
      </trkpt>
      <trkpt lat="44.83925" lon="0.55885">
        <ele>44</ele>
        <time>2014-07-21T09:12:15.000Z</time>
      </trkpt>
      <trkpt lat="44.83926" lon="0.55881">
        <ele>44</ele>
        <time>2014-07-21T09:12:16.000Z</time>
      </trkpt>
      <trkpt lat="44.83927" lon="0.55877">
        <ele>44</ele>
        <time>2014-07-21T09:12:17.000Z</time>
      </trkpt>
      <trkpt lat="44.83927" lon="0.55873">
        <ele>44</ele>
        <time>2014-07-21T09:12:18.000Z</time>
      </trkpt>
      <trkpt lat="44.83928" lon="0.55869">
        <ele>44</ele>
        <time>2014-07-21T09:12:19.000Z</time>
      </trkpt>
      <trkpt lat="44.83929" lon="0.55865">
        <ele>44</ele>
        <time>2014-07-21T09:12:20.000Z</time>
      </trkpt>
      <trkpt lat="44.8393" lon="0.55861">
        <ele>44</ele>
        <time>2014-07-21T09:12:21.000Z</time>
      </trkpt>
      <trkpt lat="44.8393" lon="0.55857">
        <ele>44</ele>
        <time>2014-07-21T09:12:22.000Z</time>
      </trkpt>
      <trkpt lat="44.83931" lon="0.55853">
        <ele>44</ele>
        <time>2014-07-21T09:12:23.000Z</time>
      </trkpt>
      <trkpt lat="44.83932" lon="0.55849">
        <ele>44</ele>
        <time>2014-07-21T09:12:24.000Z</time>
      </trkpt>
      <trkpt lat="44.83933" lon="0.55846">
        <ele>44</ele>
        <time>2014-07-21T09:12:25.000Z</time>
      </trkpt>
      <trkpt lat="44.83934" lon="0.55842">
        <ele>44</ele>
        <time>2014-07-21T09:12:26.000Z</time>
      </trkpt>
      <trkpt lat="44.83935" lon="0.55838">
        <ele>44</ele>
        <time>2014-07-21T09:12:27.000Z</time>
      </trkpt>
      <trkpt lat="44.83936" lon="0.55834">
        <ele>44</ele>
        <time>2014-07-21T09:12:28.000Z</time>
      </trkpt>
      <trkpt lat="44.83937" lon="0.5583">
        <ele>44</ele>
        <time>2014-07-21T09:12:29.000Z</time>
      </trkpt>
      <trkpt lat="44.83937" lon="0.55827">
        <ele>44</ele>
        <time>2014-07-21T09:12:30.000Z</time>
      </trkpt>
      <trkpt lat="44.83938" lon="0.55823">
        <ele>44</ele>
        <time>2014-07-21T09:12:31.000Z</time>
      </trkpt>
      <trkpt lat="44.83939" lon="0.55819">
        <ele>44</ele>
        <time>2014-07-21T09:12:32.000Z</time>
      </trkpt>
      <trkpt lat="44.8394" lon="0.55815">
        <ele>44</ele>
        <time>2014-07-21T09:12:33.000Z</time>
      </trkpt>
      <trkpt lat="44.83941" lon="0.55811">
        <ele>44</ele>
        <time>2014-07-21T09:12:34.000Z</time>
      </trkpt>
      <trkpt lat="44.83942" lon="0.55808">
        <ele>44</ele>
        <time>2014-07-21T09:12:35.000Z</time>
      </trkpt>
      <trkpt lat="44.83943" lon="0.55804">
        <ele>44</ele>
        <time>2014-07-21T09:12:36.000Z</time>
      </trkpt>
      <trkpt lat="44.83944" lon="0.558">
        <ele>44</ele>
        <time>2014-07-21T09:12:37.000Z</time>
      </trkpt>
      <trkpt lat="44.83945" lon="0.55796">
        <ele>44</ele>
        <time>2014-07-21T09:12:38.000Z</time>
      </trkpt>
      <trkpt lat="44.83946" lon="0.55793">
        <ele>44</ele>
        <time>2014-07-21T09:12:39.000Z</time>
      </trkpt>
      <trkpt lat="44.83946" lon="0.55789">
        <ele>44</ele>
        <time>2014-07-21T09:12:40.000Z</time>
      </trkpt>
      <trkpt lat="44.83947" lon="0.55785">
        <ele>44</ele>
        <time>2014-07-21T09:12:41.000Z</time>
      </trkpt>
      <trkpt lat="44.83948" lon="0.55781">
        <ele>44</ele>
        <time>2014-07-21T09:12:42.000Z</time>
      </trkpt>
      <trkpt lat="44.83949" lon="0.55778">
        <ele>44</ele>
        <time>2014-07-21T09:12:43.000Z</time>
      </trkpt>
      <trkpt lat="44.8395" lon="0.55774">
        <ele>44</ele>
        <time>2014-07-21T09:12:44.000Z</time>
      </trkpt>
      <trkpt lat="44.83951" lon="0.5577">
        <ele>44</ele>
        <time>2014-07-21T09:12:45.000Z</time>
      </trkpt>
      <trkpt lat="44.83952" lon="0.55766">
        <ele>44</ele>
        <time>2014-07-21T09:12:46.000Z</time>
      </trkpt>
      <trkpt lat="44.83953" lon="0.55763">
        <ele>44</ele>
        <time>2014-07-21T09:12:47.000Z</time>
      </trkpt>
      <trkpt lat="44.83954" lon="0.55759">
        <ele>44</ele>
        <time>2014-07-21T09:12:48.000Z</time>
      </trkpt>
      <trkpt lat="44.83955" lon="0.55755">
        <ele>44</ele>
        <time>2014-07-21T09:12:49.000Z</time>
      </trkpt>
      <trkpt lat="44.83955" lon="0.55751">
        <ele>44</ele>
        <time>2014-07-21T09:12:50.000Z</time>
      </trkpt>
      <trkpt lat="44.83956" lon="0.55747">
        <ele>44</ele>
        <time>2014-07-21T09:12:51.000Z</time>
      </trkpt>
      <trkpt lat="44.83957" lon="0.55744">
        <ele>44</ele>
        <time>2014-07-21T09:12:52.000Z</time>
      </trkpt>
      <trkpt lat="44.83958" lon="0.5574">
        <ele>44</ele>
        <time>2014-07-21T09:12:53.000Z</time>
      </trkpt>
      <trkpt lat="44.83959" lon="0.55736">
        <ele>44</ele>
        <time>2014-07-21T09:12:54.000Z</time>
      </trkpt>
      <trkpt lat="44.8396" lon="0.55732">
        <ele>44</ele>
        <time>2014-07-21T09:12:55.000Z</time>
      </trkpt>
      <trkpt lat="44.83961" lon="0.55729">
        <ele>44</ele>
        <time>2014-07-21T09:12:56.000Z</time>
      </trkpt>
      <trkpt lat="44.83962" lon="0.55725">
        <ele>44</ele>
        <time>2014-07-21T09:12:57.000Z</time>
      </trkpt>
      <trkpt lat="44.83963" lon="0.55721">
        <ele>44</ele>
        <time>2014-07-21T09:12:58.000Z</time>
      </trkpt>
      <trkpt lat="44.83964" lon="0.55717">
        <ele>44</ele>
        <time>2014-07-21T09:12:59.000Z</time>
      </trkpt>
      <trkpt lat="44.83965" lon="0.55713">
        <ele>44</ele>
        <time>2014-07-21T09:13:00.000Z</time>
      </trkpt>
      <trkpt lat="44.83966" lon="0.5571">
        <ele>44</ele>
        <time>2014-07-21T09:13:01.000Z</time>
      </trkpt>
      <trkpt lat="44.83966" lon="0.55706">
        <ele>44</ele>
        <time>2014-07-21T09:13:02.000Z</time>
      </trkpt>
      <trkpt lat="44.83967" lon="0.55702">
        <ele>44</ele>
        <time>2014-07-21T09:13:03.000Z</time>
      </trkpt>
      <trkpt lat="44.83968" lon="0.55698">
        <ele>43</ele>
        <time>2014-07-21T09:13:04.000Z</time>
      </trkpt>
      <trkpt lat="44.83969" lon="0.55694">
        <ele>43</ele>
        <time>2014-07-21T09:13:05.000Z</time>
      </trkpt>
      <trkpt lat="44.8397" lon="0.55691">
        <ele>43</ele>
        <time>2014-07-21T09:13:06.000Z</time>
      </trkpt>
      <trkpt lat="44.83971" lon="0.55687">
        <ele>43</ele>
        <time>2014-07-21T09:13:07.000Z</time>
      </trkpt>
      <trkpt lat="44.83972" lon="0.55683">
        <ele>43</ele>
        <time>2014-07-21T09:13:08.000Z</time>
      </trkpt>
      <trkpt lat="44.83973" lon="0.55679">
        <ele>43</ele>
        <time>2014-07-21T09:13:09.000Z</time>
      </trkpt>
      <trkpt lat="44.83974" lon="0.55676">
        <ele>43</ele>
        <time>2014-07-21T09:13:10.000Z</time>
      </trkpt>
      <trkpt lat="44.83975" lon="0.55672">
        <ele>43</ele>
        <time>2014-07-21T09:13:11.000Z</time>
      </trkpt>
      <trkpt lat="44.83975" lon="0.55668">
        <ele>43</ele>
        <time>2014-07-21T09:13:12.000Z</time>
      </trkpt>
      <trkpt lat="44.83976" lon="0.55664">
        <ele>43</ele>
        <time>2014-07-21T09:13:13.000Z</time>
      </trkpt>
      <trkpt lat="44.83977" lon="0.55661">
        <ele>43</ele>
        <time>2014-07-21T09:13:14.000Z</time>
      </trkpt>
      <trkpt lat="44.83978" lon="0.55657">
        <ele>43</ele>
        <time>2014-07-21T09:13:15.000Z</time>
      </trkpt>
      <trkpt lat="44.83979" lon="0.55653">
        <ele>43</ele>
        <time>2014-07-21T09:13:16.000Z</time>
      </trkpt>
      <trkpt lat="44.8398" lon="0.5565">
        <ele>43</ele>
        <time>2014-07-21T09:13:17.000Z</time>
      </trkpt>
      <trkpt lat="44.83981" lon="0.55646">
        <ele>43</ele>
        <time>2014-07-21T09:13:18.000Z</time>
      </trkpt>
      <trkpt lat="44.83982" lon="0.55642">
        <ele>43</ele>
        <time>2014-07-21T09:13:19.000Z</time>
      </trkpt>
      <trkpt lat="44.83983" lon="0.55639">
        <ele>43</ele>
        <time>2014-07-21T09:13:20.000Z</time>
      </trkpt>
      <trkpt lat="44.83984" lon="0.55635">
        <ele>43</ele>
        <time>2014-07-21T09:13:21.000Z</time>
      </trkpt>
      <trkpt lat="44.83985" lon="0.55632">
        <ele>43</ele>
        <time>2014-07-21T09:13:22.000Z</time>
      </trkpt>
      <trkpt lat="44.83986" lon="0.55628">
        <ele>43</ele>
        <time>2014-07-21T09:13:23.000Z</time>
      </trkpt>
      <trkpt lat="44.83987" lon="0.55624">
        <ele>43</ele>
        <time>2014-07-21T09:13:24.000Z</time>
      </trkpt>
      <trkpt lat="44.83988" lon="0.55621">
        <ele>43</ele>
        <time>2014-07-21T09:13:25.000Z</time>
      </trkpt>
      <trkpt lat="44.8399" lon="0.55617">
        <ele>43</ele>
        <time>2014-07-21T09:13:26.000Z</time>
      </trkpt>
      <trkpt lat="44.83991" lon="0.55614">
        <ele>43</ele>
        <time>2014-07-21T09:13:27.000Z</time>
      </trkpt>
      <trkpt lat="44.83993" lon="0.5561">
        <ele>43</ele>
        <time>2014-07-21T09:13:28.000Z</time>
      </trkpt>
      <trkpt lat="44.83994" lon="0.55607">
        <ele>43</ele>
        <time>2014-07-21T09:13:29.000Z</time>
      </trkpt>
      <trkpt lat="44.83995" lon="0.55604">
        <ele>43</ele>
        <time>2014-07-21T09:13:30.000Z</time>
      </trkpt>
      <trkpt lat="44.83997" lon="0.556">
        <ele>43</ele>
        <time>2014-07-21T09:13:31.000Z</time>
      </trkpt>
      <trkpt lat="44.83999" lon="0.55597">
        <ele>43</ele>
        <time>2014-07-21T09:13:32.000Z</time>
      </trkpt>
      <trkpt lat="44.84" lon="0.55594">
        <ele>43</ele>
        <time>2014-07-21T09:13:33.000Z</time>
      </trkpt>
      <trkpt lat="44.84002" lon="0.55591">
        <ele>43</ele>
        <time>2014-07-21T09:13:34.000Z</time>
      </trkpt>
      <trkpt lat="44.84004" lon="0.55587">
        <ele>43</ele>
        <time>2014-07-21T09:13:35.000Z</time>
      </trkpt>
      <trkpt lat="44.84006" lon="0.55584">
        <ele>43</ele>
        <time>2014-07-21T09:13:36.000Z</time>
      </trkpt>
      <trkpt lat="44.84008" lon="0.55581">
        <ele>43</ele>
        <time>2014-07-21T09:13:37.000Z</time>
      </trkpt>
      <trkpt lat="44.84009" lon="0.55578">
        <ele>43</ele>
        <time>2014-07-21T09:13:38.000Z</time>
      </trkpt>
      <trkpt lat="44.84011" lon="0.55575">
        <ele>43</ele>
        <time>2014-07-21T09:13:39.000Z</time>
      </trkpt>
      <trkpt lat="44.84013" lon="0.55572">
        <ele>43</ele>
        <time>2014-07-21T09:13:40.000Z</time>
      </trkpt>
      <trkpt lat="44.84015" lon="0.55569">
        <ele>43</ele>
        <time>2014-07-21T09:13:41.000Z</time>
      </trkpt>
      <trkpt lat="44.84017" lon="0.55566">
        <ele>43</ele>
        <time>2014-07-21T09:13:42.000Z</time>
      </trkpt>
      <trkpt lat="44.84019" lon="0.55563">
        <ele>43</ele>
        <time>2014-07-21T09:13:43.000Z</time>
      </trkpt>
      <trkpt lat="44.84021" lon="0.5556">
        <ele>43</ele>
        <time>2014-07-21T09:13:44.000Z</time>
      </trkpt>
      <trkpt lat="44.84023" lon="0.55557">
        <ele>43</ele>
        <time>2014-07-21T09:13:45.000Z</time>
      </trkpt>
      <trkpt lat="44.84025" lon="0.55555">
        <ele>43</ele>
        <time>2014-07-21T09:13:46.000Z</time>
      </trkpt>
      <trkpt lat="44.84027" lon="0.55552">
        <ele>43</ele>
        <time>2014-07-21T09:13:47.000Z</time>
      </trkpt>
      <trkpt lat="44.84028" lon="0.55549">
        <ele>43</ele>
        <time>2014-07-21T09:13:48.000Z</time>
      </trkpt>
      <trkpt lat="44.8403" lon="0.55546">
        <ele>43</ele>
        <time>2014-07-21T09:13:49.000Z</time>
      </trkpt>
      <trkpt lat="44.84032" lon="0.55543">
        <ele>43</ele>
        <time>2014-07-21T09:13:50.000Z</time>
      </trkpt>
      <trkpt lat="44.84034" lon="0.5554">
        <ele>42</ele>
        <time>2014-07-21T09:13:51.000Z</time>
      </trkpt>
      <trkpt lat="44.84035" lon="0.55537">
        <ele>42</ele>
        <time>2014-07-21T09:13:52.000Z</time>
      </trkpt>
      <trkpt lat="44.84037" lon="0.55534">
        <ele>42</ele>
        <time>2014-07-21T09:13:53.000Z</time>
      </trkpt>
      <trkpt lat="44.84039" lon="0.55531">
        <ele>42</ele>
        <time>2014-07-21T09:13:54.000Z</time>
      </trkpt>
      <trkpt lat="44.8404" lon="0.55528">
        <ele>42</ele>
        <time>2014-07-21T09:13:55.000Z</time>
      </trkpt>
      <trkpt lat="44.84042" lon="0.55525">
        <ele>42</ele>
        <time>2014-07-21T09:13:56.000Z</time>
      </trkpt>
      <trkpt lat="44.84043" lon="0.55522">
        <ele>42</ele>
        <time>2014-07-21T09:13:57.000Z</time>
      </trkpt>
      <trkpt lat="44.84045" lon="0.55519">
        <ele>42</ele>
        <time>2014-07-21T09:13:58.000Z</time>
      </trkpt>
      <trkpt lat="44.84046" lon="0.55516">
        <ele>42</ele>
        <time>2014-07-21T09:13:59.000Z</time>
      </trkpt>
      <trkpt lat="44.84048" lon="0.55513">
        <ele>42</ele>
        <time>2014-07-21T09:14:00.000Z</time>
      </trkpt>
      <trkpt lat="44.84049" lon="0.55509">
        <ele>42</ele>
        <time>2014-07-21T09:14:01.000Z</time>
      </trkpt>
      <trkpt lat="44.84051" lon="0.55506">
        <ele>42</ele>
        <time>2014-07-21T09:14:02.000Z</time>
      </trkpt>
      <trkpt lat="44.84052" lon="0.55503">
        <ele>42</ele>
        <time>2014-07-21T09:14:03.000Z</time>
      </trkpt>
      <trkpt lat="44.84054" lon="0.555">
        <ele>42</ele>
        <time>2014-07-21T09:14:04.000Z</time>
      </trkpt>
      <trkpt lat="44.84055" lon="0.55497">
        <ele>42</ele>
        <time>2014-07-21T09:14:05.000Z</time>
      </trkpt>
      <trkpt lat="44.84056" lon="0.55493">
        <ele>42</ele>
        <time>2014-07-21T09:14:06.000Z</time>
      </trkpt>
      <trkpt lat="44.84058" lon="0.5549">
        <ele>42</ele>
        <time>2014-07-21T09:14:07.000Z</time>
      </trkpt>
      <trkpt lat="44.84059" lon="0.55487">
        <ele>41</ele>
        <time>2014-07-21T09:14:08.000Z</time>
      </trkpt>
      <trkpt lat="44.84061" lon="0.55484">
        <ele>41</ele>
        <time>2014-07-21T09:14:09.000Z</time>
      </trkpt>
      <trkpt lat="44.84062" lon="0.55481">
        <ele>41</ele>
        <time>2014-07-21T09:14:10.000Z</time>
      </trkpt>
      <trkpt lat="44.84064" lon="0.55478">
        <ele>41</ele>
        <time>2014-07-21T09:14:11.000Z</time>
      </trkpt>
      <trkpt lat="44.84065" lon="0.55474">
        <ele>41</ele>
        <time>2014-07-21T09:14:12.000Z</time>
      </trkpt>
      <trkpt lat="44.84067" lon="0.55471">
        <ele>41</ele>
        <time>2014-07-21T09:14:13.000Z</time>
      </trkpt>
      <trkpt lat="44.84068" lon="0.55468">
        <ele>41</ele>
        <time>2014-07-21T09:14:14.000Z</time>
      </trkpt>
      <trkpt lat="44.84069" lon="0.55465">
        <ele>41</ele>
        <time>2014-07-21T09:14:15.000Z</time>
      </trkpt>
      <trkpt lat="44.84071" lon="0.55462">
        <ele>41</ele>
        <time>2014-07-21T09:14:16.000Z</time>
      </trkpt>
      <trkpt lat="44.84072" lon="0.55458">
        <ele>41</ele>
        <time>2014-07-21T09:14:17.000Z</time>
      </trkpt>
      <trkpt lat="44.84074" lon="0.55455">
        <ele>41</ele>
        <time>2014-07-21T09:14:18.000Z</time>
      </trkpt>
      <trkpt lat="44.84075" lon="0.55452">
        <ele>41</ele>
        <time>2014-07-21T09:14:19.000Z</time>
      </trkpt>
      <trkpt lat="44.84076" lon="0.55448">
        <ele>41</ele>
        <time>2014-07-21T09:14:20.000Z</time>
      </trkpt>
      <trkpt lat="44.84078" lon="0.55445">
        <ele>41</ele>
        <time>2014-07-21T09:14:21.000Z</time>
      </trkpt>
      <trkpt lat="44.84079" lon="0.55442">
        <ele>41</ele>
        <time>2014-07-21T09:14:22.000Z</time>
      </trkpt>
      <trkpt lat="44.8408" lon="0.55438">
        <ele>41</ele>
        <time>2014-07-21T09:14:23.000Z</time>
      </trkpt>
      <trkpt lat="44.84081" lon="0.55435">
        <ele>41</ele>
        <time>2014-07-21T09:14:24.000Z</time>
      </trkpt>
      <trkpt lat="44.84083" lon="0.55431">
        <ele>41</ele>
        <time>2014-07-21T09:14:25.000Z</time>
      </trkpt>
      <trkpt lat="44.84084" lon="0.55428">
        <ele>41</ele>
        <time>2014-07-21T09:14:26.000Z</time>
      </trkpt>
      <trkpt lat="44.84085" lon="0.55424">
        <ele>41</ele>
        <time>2014-07-21T09:14:27.000Z</time>
      </trkpt>
      <trkpt lat="44.84087" lon="0.55421">
        <ele>41</ele>
        <time>2014-07-21T09:14:28.000Z</time>
      </trkpt>
      <trkpt lat="44.84088" lon="0.55417">
        <ele>41</ele>
        <time>2014-07-21T09:14:29.000Z</time>
      </trkpt>
      <trkpt lat="44.84089" lon="0.55414">
        <ele>41</ele>
        <time>2014-07-21T09:14:30.000Z</time>
      </trkpt>
      <trkpt lat="44.8409" lon="0.5541">
        <ele>41</ele>
        <time>2014-07-21T09:14:31.000Z</time>
      </trkpt>
      <trkpt lat="44.84092" lon="0.55407">
        <ele>41</ele>
        <time>2014-07-21T09:14:32.000Z</time>
      </trkpt>
      <trkpt lat="44.84093" lon="0.55403">
        <ele>41</ele>
        <time>2014-07-21T09:14:33.000Z</time>
      </trkpt>
      <trkpt lat="44.84094" lon="0.554">
        <ele>41</ele>
        <time>2014-07-21T09:14:34.000Z</time>
      </trkpt>
      <trkpt lat="44.84095" lon="0.55396">
        <ele>41</ele>
        <time>2014-07-21T09:14:35.000Z</time>
      </trkpt>
      <trkpt lat="44.84096" lon="0.55392">
        <ele>41</ele>
        <time>2014-07-21T09:14:36.000Z</time>
      </trkpt>
      <trkpt lat="44.84097" lon="0.55389">
        <ele>41</ele>
        <time>2014-07-21T09:14:37.000Z</time>
      </trkpt>
      <trkpt lat="44.84098" lon="0.55385">
        <ele>41</ele>
        <time>2014-07-21T09:14:38.000Z</time>
      </trkpt>
      <trkpt lat="44.84099" lon="0.55382">
        <ele>41</ele>
        <time>2014-07-21T09:14:39.000Z</time>
      </trkpt>
      <trkpt lat="44.841" lon="0.55378">
        <ele>41</ele>
        <time>2014-07-21T09:14:40.000Z</time>
      </trkpt>
      <trkpt lat="44.84101" lon="0.55375">
        <ele>41</ele>
        <time>2014-07-21T09:14:41.000Z</time>
      </trkpt>
      <trkpt lat="44.84102" lon="0.55371">
        <ele>41</ele>
        <time>2014-07-21T09:14:42.000Z</time>
      </trkpt>
      <trkpt lat="44.84102" lon="0.55367">
        <ele>41</ele>
        <time>2014-07-21T09:14:43.000Z</time>
      </trkpt>
      <trkpt lat="44.84103" lon="0.55364">
        <ele>41</ele>
        <time>2014-07-21T09:14:44.000Z</time>
      </trkpt>
      <trkpt lat="44.84104" lon="0.5536">
        <ele>41</ele>
        <time>2014-07-21T09:14:45.000Z</time>
      </trkpt>
      <trkpt lat="44.84104" lon="0.55357">
        <ele>41</ele>
        <time>2014-07-21T09:14:46.000Z</time>
      </trkpt>
      <trkpt lat="44.84105" lon="0.55353">
        <ele>41</ele>
        <time>2014-07-21T09:14:47.000Z</time>
      </trkpt>
      <trkpt lat="44.84106" lon="0.55349">
        <ele>41</ele>
        <time>2014-07-21T09:14:48.000Z</time>
      </trkpt>
      <trkpt lat="44.84106" lon="0.55346">
        <ele>41</ele>
        <time>2014-07-21T09:14:49.000Z</time>
      </trkpt>
      <trkpt lat="44.84107" lon="0.55342">
        <ele>41</ele>
        <time>2014-07-21T09:14:50.000Z</time>
      </trkpt>
      <trkpt lat="44.84108" lon="0.55339">
        <ele>41</ele>
        <time>2014-07-21T09:14:51.000Z</time>
      </trkpt>
      <trkpt lat="44.84108" lon="0.55335">
        <ele>41</ele>
        <time>2014-07-21T09:14:52.000Z</time>
      </trkpt>
      <trkpt lat="44.84109" lon="0.55331">
        <ele>41</ele>
        <time>2014-07-21T09:14:53.000Z</time>
      </trkpt>
      <trkpt lat="44.84109" lon="0.55327">
        <ele>41</ele>
        <time>2014-07-21T09:14:54.000Z</time>
      </trkpt>
      <trkpt lat="44.8411" lon="0.55324">
        <ele>41</ele>
        <time>2014-07-21T09:14:55.000Z</time>
      </trkpt>
      <trkpt lat="44.84111" lon="0.5532">
        <ele>41</ele>
        <time>2014-07-21T09:14:56.000Z</time>
      </trkpt>
      <trkpt lat="44.84111" lon="0.55316">
        <ele>41</ele>
        <time>2014-07-21T09:14:57.000Z</time>
      </trkpt>
      <trkpt lat="44.84112" lon="0.55313">
        <ele>41</ele>
        <time>2014-07-21T09:14:58.000Z</time>
      </trkpt>
      <trkpt lat="44.84112" lon="0.55309">
        <ele>41</ele>
        <time>2014-07-21T09:14:59.000Z</time>
      </trkpt>
      <trkpt lat="44.84113" lon="0.55305">
        <ele>41</ele>
        <time>2014-07-21T09:15:00.000Z</time>
      </trkpt>
      <trkpt lat="44.84113" lon="0.55302">
        <ele>41</ele>
        <time>2014-07-21T09:15:01.000Z</time>
      </trkpt>
      <trkpt lat="44.84114" lon="0.55298">
        <ele>41</ele>
        <time>2014-07-21T09:15:02.000Z</time>
      </trkpt>
      <trkpt lat="44.84115" lon="0.55294">
        <ele>41</ele>
        <time>2014-07-21T09:15:03.000Z</time>
      </trkpt>
      <trkpt lat="44.84115" lon="0.55291">
        <ele>41</ele>
        <time>2014-07-21T09:15:04.000Z</time>
      </trkpt>
      <trkpt lat="44.84116" lon="0.55287">
        <ele>41</ele>
        <time>2014-07-21T09:15:05.000Z</time>
      </trkpt>
      <trkpt lat="44.84117" lon="0.55283">
        <ele>41</ele>
        <time>2014-07-21T09:15:06.000Z</time>
      </trkpt>
      <trkpt lat="44.84117" lon="0.5528">
        <ele>41</ele>
        <time>2014-07-21T09:15:07.000Z</time>
      </trkpt>
      <trkpt lat="44.84118" lon="0.55276">
        <ele>41</ele>
        <time>2014-07-21T09:15:08.000Z</time>
      </trkpt>
      <trkpt lat="44.84118" lon="0.55272">
        <ele>41</ele>
        <time>2014-07-21T09:15:09.000Z</time>
      </trkpt>
      <trkpt lat="44.84119" lon="0.55269">
        <ele>41</ele>
        <time>2014-07-21T09:15:10.000Z</time>
      </trkpt>
      <trkpt lat="44.8412" lon="0.55265">
        <ele>41</ele>
        <time>2014-07-21T09:15:11.000Z</time>
      </trkpt>
      <trkpt lat="44.8412" lon="0.55261">
        <ele>41</ele>
        <time>2014-07-21T09:15:12.000Z</time>
      </trkpt>
      <trkpt lat="44.84121" lon="0.55258">
        <ele>41</ele>
        <time>2014-07-21T09:15:13.000Z</time>
      </trkpt>
      <trkpt lat="44.84121" lon="0.55254">
        <ele>41</ele>
        <time>2014-07-21T09:15:14.000Z</time>
      </trkpt>
      <trkpt lat="44.84122" lon="0.5525">
        <ele>41</ele>
        <time>2014-07-21T09:15:15.000Z</time>
      </trkpt>
      <trkpt lat="44.84122" lon="0.55246">
        <ele>41</ele>
        <time>2014-07-21T09:15:16.000Z</time>
      </trkpt>
      <trkpt lat="44.84123" lon="0.55243">
        <ele>41</ele>
        <time>2014-07-21T09:15:17.000Z</time>
      </trkpt>
      <trkpt lat="44.84124" lon="0.55239">
        <ele>41</ele>
        <time>2014-07-21T09:15:18.000Z</time>
      </trkpt>
      <trkpt lat="44.84124" lon="0.55235">
        <ele>41</ele>
        <time>2014-07-21T09:15:19.000Z</time>
      </trkpt>
      <trkpt lat="44.84125" lon="0.55232">
        <ele>41</ele>
        <time>2014-07-21T09:15:20.000Z</time>
      </trkpt>
      <trkpt lat="44.84125" lon="0.55228">
        <ele>41</ele>
        <time>2014-07-21T09:15:21.000Z</time>
      </trkpt>
      <trkpt lat="44.84126" lon="0.55224">
        <ele>41</ele>
        <time>2014-07-21T09:15:22.000Z</time>
      </trkpt>
      <trkpt lat="44.84126" lon="0.5522">
        <ele>41</ele>
        <time>2014-07-21T09:15:23.000Z</time>
      </trkpt>
      <trkpt lat="44.84127" lon="0.55217">
        <ele>41</ele>
        <time>2014-07-21T09:15:24.000Z</time>
      </trkpt>
      <trkpt lat="44.84128" lon="0.55213">
        <ele>41</ele>
        <time>2014-07-21T09:15:25.000Z</time>
      </trkpt>
      <trkpt lat="44.84128" lon="0.55209">
        <ele>41</ele>
        <time>2014-07-21T09:15:26.000Z</time>
      </trkpt>
      <trkpt lat="44.84129" lon="0.55205">
        <ele>41</ele>
        <time>2014-07-21T09:15:27.000Z</time>
      </trkpt>
      <trkpt lat="44.84129" lon="0.55201">
        <ele>41</ele>
        <time>2014-07-21T09:15:28.000Z</time>
      </trkpt>
      <trkpt lat="44.8413" lon="0.55198">
        <ele>41</ele>
        <time>2014-07-21T09:15:29.000Z</time>
      </trkpt>
      <trkpt lat="44.84131" lon="0.55194">
        <ele>42</ele>
        <time>2014-07-21T09:15:30.000Z</time>
      </trkpt>
      <trkpt lat="44.84131" lon="0.5519">
        <ele>42</ele>
        <time>2014-07-21T09:15:31.000Z</time>
      </trkpt>
      <trkpt lat="44.84132" lon="0.55186">
        <ele>42</ele>
        <time>2014-07-21T09:15:32.000Z</time>
      </trkpt>
      <trkpt lat="44.84132" lon="0.55183">
        <ele>42</ele>
        <time>2014-07-21T09:15:33.000Z</time>
      </trkpt>
      <trkpt lat="44.84133" lon="0.55179">
        <ele>42</ele>
        <time>2014-07-21T09:15:34.000Z</time>
      </trkpt>
      <trkpt lat="44.84134" lon="0.55175">
        <ele>42</ele>
        <time>2014-07-21T09:15:35.000Z</time>
      </trkpt>
      <trkpt lat="44.84134" lon="0.55171">
        <ele>42</ele>
        <time>2014-07-21T09:15:36.000Z</time>
      </trkpt>
      <trkpt lat="44.84135" lon="0.55168">
        <ele>42</ele>
        <time>2014-07-21T09:15:37.000Z</time>
      </trkpt>
      <trkpt lat="44.84135" lon="0.55164">
        <ele>42</ele>
        <time>2014-07-21T09:15:38.000Z</time>
      </trkpt>
      <trkpt lat="44.84136" lon="0.5516">
        <ele>42</ele>
        <time>2014-07-21T09:15:39.000Z</time>
      </trkpt>
      <trkpt lat="44.84137" lon="0.55157">
        <ele>42</ele>
        <time>2014-07-21T09:15:40.000Z</time>
      </trkpt>
      <trkpt lat="44.84137" lon="0.55153">
        <ele>42</ele>
        <time>2014-07-21T09:15:41.000Z</time>
      </trkpt>
      <trkpt lat="44.84138" lon="0.55149">
        <ele>42</ele>
        <time>2014-07-21T09:15:42.000Z</time>
      </trkpt>
      <trkpt lat="44.84139" lon="0.55146">
        <ele>42</ele>
        <time>2014-07-21T09:15:43.000Z</time>
      </trkpt>
      <trkpt lat="44.84139" lon="0.55142">
        <ele>42</ele>
        <time>2014-07-21T09:15:44.000Z</time>
      </trkpt>
      <trkpt lat="44.8414" lon="0.55138">
        <ele>42</ele>
        <time>2014-07-21T09:15:45.000Z</time>
      </trkpt>
      <trkpt lat="44.8414" lon="0.55135">
        <ele>42</ele>
        <time>2014-07-21T09:15:46.000Z</time>
      </trkpt>
      <trkpt lat="44.84141" lon="0.55131">
        <ele>42</ele>
        <time>2014-07-21T09:15:47.000Z</time>
      </trkpt>
      <trkpt lat="44.84142" lon="0.55127">
        <ele>42</ele>
        <time>2014-07-21T09:15:48.000Z</time>
      </trkpt>
      <trkpt lat="44.84142" lon="0.55124">
        <ele>42</ele>
        <time>2014-07-21T09:15:49.000Z</time>
      </trkpt>
      <trkpt lat="44.84143" lon="0.5512">
        <ele>42</ele>
        <time>2014-07-21T09:15:50.000Z</time>
      </trkpt>
      <trkpt lat="44.84143" lon="0.55117">
        <ele>42</ele>
        <time>2014-07-21T09:15:51.000Z</time>
      </trkpt>
      <trkpt lat="44.84144" lon="0.55113">
        <ele>42</ele>
        <time>2014-07-21T09:15:52.000Z</time>
      </trkpt>
      <trkpt lat="44.84145" lon="0.5511">
        <ele>42</ele>
        <time>2014-07-21T09:15:53.000Z</time>
      </trkpt>
      <trkpt lat="44.84145" lon="0.55106">
        <ele>42</ele>
        <time>2014-07-21T09:15:54.000Z</time>
      </trkpt>
      <trkpt lat="44.84146" lon="0.55102">
        <ele>42</ele>
        <time>2014-07-21T09:15:55.000Z</time>
      </trkpt>
      <trkpt lat="44.84146" lon="0.55099">
        <ele>42</ele>
        <time>2014-07-21T09:15:56.000Z</time>
      </trkpt>
      <trkpt lat="44.84147" lon="0.55095">
        <ele>42</ele>
        <time>2014-07-21T09:15:57.000Z</time>
      </trkpt>
      <trkpt lat="44.84148" lon="0.55091">
        <ele>42</ele>
        <time>2014-07-21T09:15:58.000Z</time>
      </trkpt>
      <trkpt lat="44.84148" lon="0.55087">
        <ele>42</ele>
        <time>2014-07-21T09:15:59.000Z</time>
      </trkpt>
      <trkpt lat="44.84149" lon="0.55084">
        <ele>42</ele>
        <time>2014-07-21T09:16:00.000Z</time>
      </trkpt>
      <trkpt lat="44.84149" lon="0.5508">
        <ele>42</ele>
        <time>2014-07-21T09:16:01.000Z</time>
      </trkpt>
      <trkpt lat="44.8415" lon="0.55076">
        <ele>42</ele>
        <time>2014-07-21T09:16:02.000Z</time>
      </trkpt>
      <trkpt lat="44.8415" lon="0.55073">
        <ele>42</ele>
        <time>2014-07-21T09:16:03.000Z</time>
      </trkpt>
      <trkpt lat="44.84151" lon="0.55069">
        <ele>42</ele>
        <time>2014-07-21T09:16:04.000Z</time>
      </trkpt>
      <trkpt lat="44.84152" lon="0.55065">
        <ele>42</ele>
        <time>2014-07-21T09:16:05.000Z</time>
      </trkpt>
      <trkpt lat="44.84152" lon="0.55061">
        <ele>42</ele>
        <time>2014-07-21T09:16:06.000Z</time>
      </trkpt>
      <trkpt lat="44.84153" lon="0.55058">
        <ele>42</ele>
        <time>2014-07-21T09:16:07.000Z</time>
      </trkpt>
      <trkpt lat="44.84153" lon="0.55054">
        <ele>42</ele>
        <time>2014-07-21T09:16:08.000Z</time>
      </trkpt>
      <trkpt lat="44.84154" lon="0.5505">
        <ele>42</ele>
        <time>2014-07-21T09:16:09.000Z</time>
      </trkpt>
      <trkpt lat="44.84155" lon="0.55047">
        <ele>42</ele>
        <time>2014-07-21T09:16:10.000Z</time>
      </trkpt>
      <trkpt lat="44.84155" lon="0.55043">
        <ele>42</ele>
        <time>2014-07-21T09:16:11.000Z</time>
      </trkpt>
      <trkpt lat="44.84156" lon="0.55039">
        <ele>42</ele>
        <time>2014-07-21T09:16:12.000Z</time>
      </trkpt>
      <trkpt lat="44.84156" lon="0.55035">
        <ele>42</ele>
        <time>2014-07-21T09:16:13.000Z</time>
      </trkpt>
      <trkpt lat="44.84157" lon="0.55032">
        <ele>42</ele>
        <time>2014-07-21T09:16:14.000Z</time>
      </trkpt>
      <trkpt lat="44.84158" lon="0.55028">
        <ele>42</ele>
        <time>2014-07-21T09:16:15.000Z</time>
      </trkpt>
      <trkpt lat="44.84158" lon="0.55024">
        <ele>42</ele>
        <time>2014-07-21T09:16:16.000Z</time>
      </trkpt>
      <trkpt lat="44.84159" lon="0.55021">
        <ele>42</ele>
        <time>2014-07-21T09:16:17.000Z</time>
      </trkpt>
      <trkpt lat="44.8416" lon="0.55017">
        <ele>42</ele>
        <time>2014-07-21T09:16:18.000Z</time>
      </trkpt>
      <trkpt lat="44.8416" lon="0.55013">
        <ele>42</ele>
        <time>2014-07-21T09:16:19.000Z</time>
      </trkpt>
      <trkpt lat="44.84161" lon="0.55009">
        <ele>42</ele>
        <time>2014-07-21T09:16:20.000Z</time>
      </trkpt>
      <trkpt lat="44.84161" lon="0.55006">
        <ele>42</ele>
        <time>2014-07-21T09:16:21.000Z</time>
      </trkpt>
      <trkpt lat="44.84162" lon="0.55002">
        <ele>42</ele>
        <time>2014-07-21T09:16:22.000Z</time>
      </trkpt>
      <trkpt lat="44.84163" lon="0.54998">
        <ele>42</ele>
        <time>2014-07-21T09:16:23.000Z</time>
      </trkpt>
      <trkpt lat="44.84163" lon="0.54994">
        <ele>42</ele>
        <time>2014-07-21T09:16:24.000Z</time>
      </trkpt>
      <trkpt lat="44.84164" lon="0.54991">
        <ele>42</ele>
        <time>2014-07-21T09:16:25.000Z</time>
      </trkpt>
      <trkpt lat="44.84164" lon="0.54987">
        <ele>42</ele>
        <time>2014-07-21T09:16:26.000Z</time>
      </trkpt>
      <trkpt lat="44.84165" lon="0.54983">
        <ele>42</ele>
        <time>2014-07-21T09:16:27.000Z</time>
      </trkpt>
      <trkpt lat="44.84166" lon="0.5498">
        <ele>42</ele>
        <time>2014-07-21T09:16:28.000Z</time>
      </trkpt>
      <trkpt lat="44.84166" lon="0.54976">
        <ele>42</ele>
        <time>2014-07-21T09:16:29.000Z</time>
      </trkpt>
      <trkpt lat="44.84167" lon="0.54972">
        <ele>42</ele>
        <time>2014-07-21T09:16:30.000Z</time>
      </trkpt>
      <trkpt lat="44.84167" lon="0.54968">
        <ele>42</ele>
        <time>2014-07-21T09:16:31.000Z</time>
      </trkpt>
      <trkpt lat="44.84168" lon="0.54965">
        <ele>42</ele>
        <time>2014-07-21T09:16:32.000Z</time>
      </trkpt>
      <trkpt lat="44.84169" lon="0.54961">
        <ele>42</ele>
        <time>2014-07-21T09:16:33.000Z</time>
      </trkpt>
      <trkpt lat="44.84169" lon="0.54957">
        <ele>42</ele>
        <time>2014-07-21T09:16:34.000Z</time>
      </trkpt>
      <trkpt lat="44.8417" lon="0.54954">
        <ele>43</ele>
        <time>2014-07-21T09:16:35.000Z</time>
      </trkpt>
      <trkpt lat="44.8417" lon="0.5495">
        <ele>43</ele>
        <time>2014-07-21T09:16:36.000Z</time>
      </trkpt>
      <trkpt lat="44.84171" lon="0.54947">
        <ele>43</ele>
        <time>2014-07-21T09:16:37.000Z</time>
      </trkpt>
      <trkpt lat="44.84171" lon="0.54943">
        <ele>43</ele>
        <time>2014-07-21T09:16:38.000Z</time>
      </trkpt>
      <trkpt lat="44.84172" lon="0.54939">
        <ele>43</ele>
        <time>2014-07-21T09:16:39.000Z</time>
      </trkpt>
      <trkpt lat="44.84172" lon="0.54936">
        <ele>43</ele>
        <time>2014-07-21T09:16:40.000Z</time>
      </trkpt>
      <trkpt lat="44.84173" lon="0.54932">
        <ele>43</ele>
        <time>2014-07-21T09:16:41.000Z</time>
      </trkpt>
      <trkpt lat="44.84173" lon="0.54929">
        <ele>43</ele>
        <time>2014-07-21T09:16:42.000Z</time>
      </trkpt>
      <trkpt lat="44.84174" lon="0.54925">
        <ele>43</ele>
        <time>2014-07-21T09:16:43.000Z</time>
      </trkpt>
      <trkpt lat="44.84174" lon="0.54921">
        <ele>43</ele>
        <time>2014-07-21T09:16:44.000Z</time>
      </trkpt>
      <trkpt lat="44.84174" lon="0.54918">
        <ele>43</ele>
        <time>2014-07-21T09:16:45.000Z</time>
      </trkpt>
      <trkpt lat="44.84174" lon="0.54914">
        <ele>43</ele>
        <time>2014-07-21T09:16:46.000Z</time>
      </trkpt>
      <trkpt lat="44.84174" lon="0.5491">
        <ele>43</ele>
        <time>2014-07-21T09:16:47.000Z</time>
      </trkpt>
      <trkpt lat="44.84174" lon="0.54906">
        <ele>43</ele>
        <time>2014-07-21T09:16:48.000Z</time>
      </trkpt>
      <trkpt lat="44.84175" lon="0.54903">
        <ele>43</ele>
        <time>2014-07-21T09:16:49.000Z</time>
      </trkpt>
      <trkpt lat="44.84176" lon="0.549">
        <ele>43</ele>
        <time>2014-07-21T09:16:50.000Z</time>
      </trkpt>
      <trkpt lat="44.84177" lon="0.54898">
        <ele>43</ele>
        <time>2014-07-21T09:16:51.000Z</time>
      </trkpt>
      <trkpt lat="44.84179" lon="0.54897">
        <ele>43</ele>
        <time>2014-07-21T09:16:52.000Z</time>
      </trkpt>
      <trkpt lat="44.84181" lon="0.54896">
        <ele>43</ele>
        <time>2014-07-21T09:16:53.000Z</time>
      </trkpt>
      <trkpt lat="44.84184" lon="0.54896">
        <ele>43</ele>
        <time>2014-07-21T09:16:54.000Z</time>
      </trkpt>
      <trkpt lat="44.84186" lon="0.54896">
        <ele>42</ele>
        <time>2014-07-21T09:16:55.000Z</time>
      </trkpt>
      <trkpt lat="44.84189" lon="0.54896">
        <ele>42</ele>
        <time>2014-07-21T09:16:56.000Z</time>
      </trkpt>
      <trkpt lat="44.84192" lon="0.54895">
        <ele>42</ele>
        <time>2014-07-21T09:16:57.000Z</time>
      </trkpt>
      <trkpt lat="44.84195" lon="0.54895">
        <ele>42</ele>
        <time>2014-07-21T09:16:58.000Z</time>
      </trkpt>
      <trkpt lat="44.84197" lon="0.54894">
        <ele>42</ele>
        <time>2014-07-21T09:16:59.000Z</time>
      </trkpt>
      <trkpt lat="44.842" lon="0.54894">
        <ele>42</ele>
        <time>2014-07-21T09:17:00.000Z</time>
      </trkpt>
      <trkpt lat="44.84202" lon="0.54893">
        <ele>42</ele>
        <time>2014-07-21T09:17:01.000Z</time>
      </trkpt>
      <trkpt lat="44.84205" lon="0.54893">
        <ele>42</ele>
        <time>2014-07-21T09:17:02.000Z</time>
      </trkpt>
      <trkpt lat="44.84208" lon="0.54892">
        <ele>41</ele>
        <time>2014-07-21T09:17:03.000Z</time>
      </trkpt>
      <trkpt lat="44.8421" lon="0.54892">
        <ele>41</ele>
        <time>2014-07-21T09:17:04.000Z</time>
      </trkpt>
      <trkpt lat="44.84213" lon="0.54891">
        <ele>41</ele>
        <time>2014-07-21T09:17:05.000Z</time>
      </trkpt>
      <trkpt lat="44.84216" lon="0.5489">
        <ele>41</ele>
        <time>2014-07-21T09:17:06.000Z</time>
      </trkpt>
      <trkpt lat="44.84218" lon="0.5489">
        <ele>41</ele>
        <time>2014-07-21T09:17:07.000Z</time>
      </trkpt>
      <trkpt lat="44.84221" lon="0.54889">
        <ele>41</ele>
        <time>2014-07-21T09:17:08.000Z</time>
      </trkpt>
      <trkpt lat="44.84224" lon="0.54889">
        <ele>41</ele>
        <time>2014-07-21T09:17:09.000Z</time>
      </trkpt>
      <trkpt lat="44.84227" lon="0.54889">
        <ele>40</ele>
        <time>2014-07-21T09:17:10.000Z</time>
      </trkpt>
      <trkpt lat="44.84229" lon="0.54888">
        <ele>40</ele>
        <time>2014-07-21T09:17:11.000Z</time>
      </trkpt>
      <trkpt lat="44.84232" lon="0.54888">
        <ele>40</ele>
        <time>2014-07-21T09:17:12.000Z</time>
      </trkpt>
      <trkpt lat="44.84235" lon="0.54887">
        <ele>40</ele>
        <time>2014-07-21T09:17:13.000Z</time>
      </trkpt>
      <trkpt lat="44.84238" lon="0.54887">
        <ele>40</ele>
        <time>2014-07-21T09:17:14.000Z</time>
      </trkpt>
      <trkpt lat="44.84241" lon="0.54886">
        <ele>40</ele>
        <time>2014-07-21T09:17:15.000Z</time>
      </trkpt>
      <trkpt lat="44.84243" lon="0.54886">
        <ele>39</ele>
        <time>2014-07-21T09:17:16.000Z</time>
      </trkpt>
      <trkpt lat="44.84246" lon="0.54885">
        <ele>39</ele>
        <time>2014-07-21T09:17:17.000Z</time>
      </trkpt>
      <trkpt lat="44.84249" lon="0.54885">
        <ele>39</ele>
        <time>2014-07-21T09:17:18.000Z</time>
      </trkpt>
      <trkpt lat="44.84252" lon="0.54884">
        <ele>39</ele>
        <time>2014-07-21T09:17:19.000Z</time>
      </trkpt>
      <trkpt lat="44.84254" lon="0.54884">
        <ele>39</ele>
        <time>2014-07-21T09:17:20.000Z</time>
      </trkpt>
      <trkpt lat="44.84257" lon="0.54884">
        <ele>39</ele>
        <time>2014-07-21T09:17:21.000Z</time>
      </trkpt>
      <trkpt lat="44.8426" lon="0.54883">
        <ele>38</ele>
        <time>2014-07-21T09:17:22.000Z</time>
      </trkpt>
      <trkpt lat="44.84263" lon="0.54883">
        <ele>38</ele>
        <time>2014-07-21T09:17:23.000Z</time>
      </trkpt>
      <trkpt lat="44.84265" lon="0.54882">
        <ele>38</ele>
        <time>2014-07-21T09:17:24.000Z</time>
      </trkpt>
      <trkpt lat="44.84268" lon="0.54882">
        <ele>38</ele>
        <time>2014-07-21T09:17:25.000Z</time>
      </trkpt>
      <trkpt lat="44.84271" lon="0.54881">
        <ele>38</ele>
        <time>2014-07-21T09:17:26.000Z</time>
      </trkpt>
      <trkpt lat="44.84274" lon="0.54881">
        <ele>38</ele>
        <time>2014-07-21T09:17:27.000Z</time>
      </trkpt>
      <trkpt lat="44.84276" lon="0.5488">
        <ele>37</ele>
        <time>2014-07-21T09:17:28.000Z</time>
      </trkpt>
      <trkpt lat="44.84279" lon="0.5488">
        <ele>37</ele>
        <time>2014-07-21T09:17:29.000Z</time>
      </trkpt>
      <trkpt lat="44.84282" lon="0.54879">
        <ele>37</ele>
        <time>2014-07-21T09:17:30.000Z</time>
      </trkpt>
      <trkpt lat="44.84284" lon="0.54879">
        <ele>37</ele>
        <time>2014-07-21T09:17:31.000Z</time>
      </trkpt>
      <trkpt lat="44.84287" lon="0.54878">
        <ele>37</ele>
        <time>2014-07-21T09:17:32.000Z</time>
      </trkpt>
      <trkpt lat="44.8429" lon="0.54877">
        <ele>36</ele>
        <time>2014-07-21T09:17:33.000Z</time>
      </trkpt>
      <trkpt lat="44.84292" lon="0.54877">
        <ele>36</ele>
        <time>2014-07-21T09:17:34.000Z</time>
      </trkpt>
      <trkpt lat="44.84295" lon="0.54876">
        <ele>36</ele>
        <time>2014-07-21T09:17:35.000Z</time>
      </trkpt>
      <trkpt lat="44.84298" lon="0.54876">
        <ele>36</ele>
        <time>2014-07-21T09:17:36.000Z</time>
      </trkpt>
      <trkpt lat="44.843" lon="0.54875">
        <ele>36</ele>
        <time>2014-07-21T09:17:37.000Z</time>
      </trkpt>
      <trkpt lat="44.84303" lon="0.54875">
        <ele>36</ele>
        <time>2014-07-21T09:17:38.000Z</time>
      </trkpt>
      <trkpt lat="44.84306" lon="0.54874">
        <ele>35</ele>
        <time>2014-07-21T09:17:39.000Z</time>
      </trkpt>
      <trkpt lat="44.84308" lon="0.54874">
        <ele>35</ele>
        <time>2014-07-21T09:17:40.000Z</time>
      </trkpt>
      <trkpt lat="44.84311" lon="0.54873">
        <ele>35</ele>
        <time>2014-07-21T09:17:41.000Z</time>
      </trkpt>
      <trkpt lat="44.84314" lon="0.54873">
        <ele>35</ele>
        <time>2014-07-21T09:17:42.000Z</time>
      </trkpt>
      <trkpt lat="44.84317" lon="0.54872">
        <ele>35</ele>
        <time>2014-07-21T09:17:43.000Z</time>
      </trkpt>
      <trkpt lat="44.84319" lon="0.54872">
        <ele>34</ele>
        <time>2014-07-21T09:17:44.000Z</time>
      </trkpt>
      <trkpt lat="44.84322" lon="0.54871">
        <ele>34</ele>
        <time>2014-07-21T09:17:45.000Z</time>
      </trkpt>
      <trkpt lat="44.84325" lon="0.54871">
        <ele>34</ele>
        <time>2014-07-21T09:17:46.000Z</time>
      </trkpt>
      <trkpt lat="44.84328" lon="0.5487">
        <ele>34</ele>
        <time>2014-07-21T09:17:47.000Z</time>
      </trkpt>
      <trkpt lat="44.84331" lon="0.5487">
        <ele>34</ele>
        <time>2014-07-21T09:17:48.000Z</time>
      </trkpt>
      <trkpt lat="44.84334" lon="0.54869">
        <ele>33</ele>
        <time>2014-07-21T09:17:49.000Z</time>
      </trkpt>
      <trkpt lat="44.84337" lon="0.54869">
        <ele>33</ele>
        <time>2014-07-21T09:17:50.000Z</time>
      </trkpt>
      <trkpt lat="44.8434" lon="0.54869">
        <ele>33</ele>
        <time>2014-07-21T09:17:51.000Z</time>
      </trkpt>
      <trkpt lat="44.84343" lon="0.54869">
        <ele>33</ele>
        <time>2014-07-21T09:17:52.000Z</time>
      </trkpt>
      <trkpt lat="44.84346" lon="0.54869">
        <ele>33</ele>
        <time>2014-07-21T09:17:53.000Z</time>
      </trkpt>
      <trkpt lat="44.84348" lon="0.5487">
        <ele>33</ele>
        <time>2014-07-21T09:17:54.000Z</time>
      </trkpt>
      <trkpt lat="44.84351" lon="0.54871">
        <ele>33</ele>
        <time>2014-07-21T09:17:55.000Z</time>
      </trkpt>
      <trkpt lat="44.84354" lon="0.54873">
        <ele>33</ele>
        <time>2014-07-21T09:17:56.000Z</time>
      </trkpt>
      <trkpt lat="44.84356" lon="0.54875">
        <ele>33</ele>
        <time>2014-07-21T09:17:57.000Z</time>
      </trkpt>
      <trkpt lat="44.84359" lon="0.54877">
        <ele>33</ele>
        <time>2014-07-21T09:17:58.000Z</time>
      </trkpt>
      <trkpt lat="44.84361" lon="0.5488">
        <ele>33</ele>
        <time>2014-07-21T09:17:59.000Z</time>
      </trkpt>
      <trkpt lat="44.84363" lon="0.54884">
        <ele>33</ele>
        <time>2014-07-21T09:18:00.000Z</time>
      </trkpt>
      <trkpt lat="44.84364" lon="0.54887">
        <ele>33</ele>
        <time>2014-07-21T09:18:01.000Z</time>
      </trkpt>
      <trkpt lat="44.84366" lon="0.54891">
        <ele>33</ele>
        <time>2014-07-21T09:18:02.000Z</time>
      </trkpt>
      <trkpt lat="44.84367" lon="0.54895">
        <ele>33</ele>
        <time>2014-07-21T09:18:03.000Z</time>
      </trkpt>
      <trkpt lat="44.84368" lon="0.54899">
        <ele>33</ele>
        <time>2014-07-21T09:18:04.000Z</time>
      </trkpt>
      <trkpt lat="44.84369" lon="0.54902">
        <ele>33</ele>
        <time>2014-07-21T09:18:05.000Z</time>
      </trkpt>
      <trkpt lat="44.8437" lon="0.54906">
        <ele>33</ele>
        <time>2014-07-21T09:18:06.000Z</time>
      </trkpt>
      <trkpt lat="44.84371" lon="0.5491">
        <ele>33</ele>
        <time>2014-07-21T09:18:07.000Z</time>
      </trkpt>
      <trkpt lat="44.84371" lon="0.54914">
        <ele>33</ele>
        <time>2014-07-21T09:18:08.000Z</time>
      </trkpt>
      <trkpt lat="44.84372" lon="0.54918">
        <ele>33</ele>
        <time>2014-07-21T09:18:09.000Z</time>
      </trkpt>
      <trkpt lat="44.84373" lon="0.54921">
        <ele>33</ele>
        <time>2014-07-21T09:18:10.000Z</time>
      </trkpt>
      <trkpt lat="44.84374" lon="0.54925">
        <ele>33</ele>
        <time>2014-07-21T09:18:11.000Z</time>
      </trkpt>
      <trkpt lat="44.84375" lon="0.54929">
        <ele>33</ele>
        <time>2014-07-21T09:18:12.000Z</time>
      </trkpt>
      <trkpt lat="44.84376" lon="0.54933">
        <ele>33</ele>
        <time>2014-07-21T09:18:13.000Z</time>
      </trkpt>
      <trkpt lat="44.84377" lon="0.54936">
        <ele>33</ele>
        <time>2014-07-21T09:18:14.000Z</time>
      </trkpt>
      <trkpt lat="44.84378" lon="0.5494">
        <ele>33</ele>
        <time>2014-07-21T09:18:15.000Z</time>
      </trkpt>
      <trkpt lat="44.84379" lon="0.54944">
        <ele>33</ele>
        <time>2014-07-21T09:18:16.000Z</time>
      </trkpt>
      <trkpt lat="44.8438" lon="0.54947">
        <ele>33</ele>
        <time>2014-07-21T09:18:17.000Z</time>
      </trkpt>
      <trkpt lat="44.84381" lon="0.54951">
        <ele>33</ele>
        <time>2014-07-21T09:18:18.000Z</time>
      </trkpt>
      <trkpt lat="44.84382" lon="0.54955">
        <ele>33</ele>
        <time>2014-07-21T09:18:19.000Z</time>
      </trkpt>
      <trkpt lat="44.84383" lon="0.54958">
        <ele>33</ele>
        <time>2014-07-21T09:18:20.000Z</time>
      </trkpt>
      <trkpt lat="44.84384" lon="0.54962">
        <ele>33</ele>
        <time>2014-07-21T09:18:21.000Z</time>
      </trkpt>
      <trkpt lat="44.84385" lon="0.54966">
        <ele>33</ele>
        <time>2014-07-21T09:18:22.000Z</time>
      </trkpt>
      <trkpt lat="44.84386" lon="0.54969">
        <ele>33</ele>
        <time>2014-07-21T09:18:23.000Z</time>
      </trkpt>
      <trkpt lat="44.84387" lon="0.54973">
        <ele>33</ele>
        <time>2014-07-21T09:18:24.000Z</time>
      </trkpt>
      <trkpt lat="44.84387" lon="0.54977">
        <ele>33</ele>
        <time>2014-07-21T09:18:25.000Z</time>
      </trkpt>
      <trkpt lat="44.84388" lon="0.5498">
        <ele>33</ele>
        <time>2014-07-21T09:18:26.000Z</time>
      </trkpt>
      <trkpt lat="44.84389" lon="0.54984">
        <ele>33</ele>
        <time>2014-07-21T09:18:27.000Z</time>
      </trkpt>
      <trkpt lat="44.8439" lon="0.54988">
        <ele>33</ele>
        <time>2014-07-21T09:18:28.000Z</time>
      </trkpt>
      <trkpt lat="44.84391" lon="0.54991">
        <ele>33</ele>
        <time>2014-07-21T09:18:29.000Z</time>
      </trkpt>
      <trkpt lat="44.84392" lon="0.54995">
        <ele>33</ele>
        <time>2014-07-21T09:18:30.000Z</time>
      </trkpt>
      <trkpt lat="44.84393" lon="0.54999">
        <ele>33</ele>
        <time>2014-07-21T09:18:31.000Z</time>
      </trkpt>
      <trkpt lat="44.84394" lon="0.55002">
        <ele>33</ele>
        <time>2014-07-21T09:18:32.000Z</time>
      </trkpt>
      <trkpt lat="44.84395" lon="0.55006">
        <ele>33</ele>
        <time>2014-07-21T09:18:33.000Z</time>
      </trkpt>
      <trkpt lat="44.84396" lon="0.55009">
        <ele>33</ele>
        <time>2014-07-21T09:18:34.000Z</time>
      </trkpt>
      <trkpt lat="44.84397" lon="0.55013">
        <ele>33</ele>
        <time>2014-07-21T09:18:35.000Z</time>
      </trkpt>
      <trkpt lat="44.84398" lon="0.55016">
        <ele>33</ele>
        <time>2014-07-21T09:18:36.000Z</time>
      </trkpt>
      <trkpt lat="44.84399" lon="0.5502">
        <ele>33</ele>
        <time>2014-07-21T09:18:37.000Z</time>
      </trkpt>
      <trkpt lat="44.844" lon="0.55024">
        <ele>33</ele>
        <time>2014-07-21T09:18:38.000Z</time>
      </trkpt>
      <trkpt lat="44.844" lon="0.55027">
        <ele>33</ele>
        <time>2014-07-21T09:18:39.000Z</time>
      </trkpt>
      <trkpt lat="44.84401" lon="0.55031">
        <ele>33</ele>
        <time>2014-07-21T09:18:40.000Z</time>
      </trkpt>
      <trkpt lat="44.84402" lon="0.55034">
        <ele>33</ele>
        <time>2014-07-21T09:18:41.000Z</time>
      </trkpt>
      <trkpt lat="44.84403" lon="0.55038">
        <ele>33</ele>
        <time>2014-07-21T09:18:42.000Z</time>
      </trkpt>
      <trkpt lat="44.84404" lon="0.55041">
        <ele>33</ele>
        <time>2014-07-21T09:18:43.000Z</time>
      </trkpt>
      <trkpt lat="44.84405" lon="0.55045">
        <ele>33</ele>
        <time>2014-07-21T09:18:44.000Z</time>
      </trkpt>
      <trkpt lat="44.84406" lon="0.55048">
        <ele>33</ele>
        <time>2014-07-21T09:18:45.000Z</time>
      </trkpt>
      <trkpt lat="44.84407" lon="0.55052">
        <ele>33</ele>
        <time>2014-07-21T09:18:46.000Z</time>
      </trkpt>
      <trkpt lat="44.84408" lon="0.55055">
        <ele>33</ele>
        <time>2014-07-21T09:18:47.000Z</time>
      </trkpt>
      <trkpt lat="44.84409" lon="0.55059">
        <ele>33</ele>
        <time>2014-07-21T09:18:48.000Z</time>
      </trkpt>
      <trkpt lat="44.8441" lon="0.55062">
        <ele>33</ele>
        <time>2014-07-21T09:18:49.000Z</time>
      </trkpt>
      <trkpt lat="44.84411" lon="0.55066">
        <ele>33</ele>
        <time>2014-07-21T09:18:50.000Z</time>
      </trkpt>
      <trkpt lat="44.84412" lon="0.5507">
        <ele>33</ele>
        <time>2014-07-21T09:18:51.000Z</time>
      </trkpt>
      <trkpt lat="44.84413" lon="0.55073">
        <ele>33</ele>
        <time>2014-07-21T09:18:52.000Z</time>
      </trkpt>
      <trkpt lat="44.84414" lon="0.55077">
        <ele>33</ele>
        <time>2014-07-21T09:18:53.000Z</time>
      </trkpt>
      <trkpt lat="44.84415" lon="0.5508">
        <ele>33</ele>
        <time>2014-07-21T09:18:54.000Z</time>
      </trkpt>
      <trkpt lat="44.84416" lon="0.55084">
        <ele>33</ele>
        <time>2014-07-21T09:18:55.000Z</time>
      </trkpt>
      <trkpt lat="44.84417" lon="0.55087">
        <ele>32</ele>
        <time>2014-07-21T09:18:56.000Z</time>
      </trkpt>
      <trkpt lat="44.84418" lon="0.55091">
        <ele>32</ele>
        <time>2014-07-21T09:18:57.000Z</time>
      </trkpt>
      <trkpt lat="44.84419" lon="0.55095">
        <ele>32</ele>
        <time>2014-07-21T09:18:58.000Z</time>
      </trkpt>
      <trkpt lat="44.84419" lon="0.55098">
        <ele>32</ele>
        <time>2014-07-21T09:18:59.000Z</time>
      </trkpt>
      <trkpt lat="44.8442" lon="0.55102">
        <ele>32</ele>
        <time>2014-07-21T09:19:00.000Z</time>
      </trkpt>
      <trkpt lat="44.84421" lon="0.55105">
        <ele>32</ele>
        <time>2014-07-21T09:19:01.000Z</time>
      </trkpt>
      <trkpt lat="44.84422" lon="0.55109">
        <ele>32</ele>
        <time>2014-07-21T09:19:02.000Z</time>
      </trkpt>
      <trkpt lat="44.84423" lon="0.55113">
        <ele>32</ele>
        <time>2014-07-21T09:19:03.000Z</time>
      </trkpt>
      <trkpt lat="44.84424" lon="0.55116">
        <ele>32</ele>
        <time>2014-07-21T09:19:04.000Z</time>
      </trkpt>
      <trkpt lat="44.84425" lon="0.5512">
        <ele>32</ele>
        <time>2014-07-21T09:19:05.000Z</time>
      </trkpt>
      <trkpt lat="44.84426" lon="0.55123">
        <ele>32</ele>
        <time>2014-07-21T09:19:06.000Z</time>
      </trkpt>
      <trkpt lat="44.84427" lon="0.55127">
        <ele>32</ele>
        <time>2014-07-21T09:19:07.000Z</time>
      </trkpt>
      <trkpt lat="44.84428" lon="0.55131">
        <ele>32</ele>
        <time>2014-07-21T09:19:08.000Z</time>
      </trkpt>
      <trkpt lat="44.84429" lon="0.55134">
        <ele>32</ele>
        <time>2014-07-21T09:19:09.000Z</time>
      </trkpt>
      <trkpt lat="44.84429" lon="0.55138">
        <ele>32</ele>
        <time>2014-07-21T09:19:10.000Z</time>
      </trkpt>
      <trkpt lat="44.8443" lon="0.55142">
        <ele>32</ele>
        <time>2014-07-21T09:19:11.000Z</time>
      </trkpt>
      <trkpt lat="44.84431" lon="0.55145">
        <ele>32</ele>
        <time>2014-07-21T09:19:12.000Z</time>
      </trkpt>
      <trkpt lat="44.84432" lon="0.55149">
        <ele>32</ele>
        <time>2014-07-21T09:19:13.000Z</time>
      </trkpt>
      <trkpt lat="44.84433" lon="0.55152">
        <ele>32</ele>
        <time>2014-07-21T09:19:14.000Z</time>
      </trkpt>
      <trkpt lat="44.84434" lon="0.55156">
        <ele>32</ele>
        <time>2014-07-21T09:19:15.000Z</time>
      </trkpt>
      <trkpt lat="44.84435" lon="0.5516">
        <ele>32</ele>
        <time>2014-07-21T09:19:16.000Z</time>
      </trkpt>
      <trkpt lat="44.84436" lon="0.55163">
        <ele>32</ele>
        <time>2014-07-21T09:19:17.000Z</time>
      </trkpt>
      <trkpt lat="44.84437" lon="0.55167">
        <ele>32</ele>
        <time>2014-07-21T09:19:18.000Z</time>
      </trkpt>
      <trkpt lat="44.84438" lon="0.5517">
        <ele>32</ele>
        <time>2014-07-21T09:19:19.000Z</time>
      </trkpt>
      <trkpt lat="44.84439" lon="0.55174">
        <ele>32</ele>
        <time>2014-07-21T09:19:20.000Z</time>
      </trkpt>
      <trkpt lat="44.8444" lon="0.55178">
        <ele>32</ele>
        <time>2014-07-21T09:19:21.000Z</time>
      </trkpt>
      <trkpt lat="44.84441" lon="0.55181">
        <ele>32</ele>
        <time>2014-07-21T09:19:22.000Z</time>
      </trkpt>
      <trkpt lat="44.84442" lon="0.55185">
        <ele>32</ele>
        <time>2014-07-21T09:19:23.000Z</time>
      </trkpt>
      <trkpt lat="44.84443" lon="0.55189">
        <ele>32</ele>
        <time>2014-07-21T09:19:24.000Z</time>
      </trkpt>
      <trkpt lat="44.84444" lon="0.55192">
        <ele>32</ele>
        <time>2014-07-21T09:19:25.000Z</time>
      </trkpt>
      <trkpt lat="44.84445" lon="0.55196">
        <ele>32</ele>
        <time>2014-07-21T09:19:26.000Z</time>
      </trkpt>
      <trkpt lat="44.84446" lon="0.55199">
        <ele>32</ele>
        <time>2014-07-21T09:19:27.000Z</time>
      </trkpt>
      <trkpt lat="44.84447" lon="0.55203">
        <ele>32</ele>
        <time>2014-07-21T09:19:28.000Z</time>
      </trkpt>
      <trkpt lat="44.84447" lon="0.55206">
        <ele>32</ele>
        <time>2014-07-21T09:19:29.000Z</time>
      </trkpt>
      <trkpt lat="44.84448" lon="0.5521">
        <ele>32</ele>
        <time>2014-07-21T09:19:30.000Z</time>
      </trkpt>
      <trkpt lat="44.84449" lon="0.55214">
        <ele>32</ele>
        <time>2014-07-21T09:19:31.000Z</time>
      </trkpt>
      <trkpt lat="44.8445" lon="0.55217">
        <ele>32</ele>
        <time>2014-07-21T09:19:32.000Z</time>
      </trkpt>
      <trkpt lat="44.84451" lon="0.55221">
        <ele>32</ele>
        <time>2014-07-21T09:19:33.000Z</time>
      </trkpt>
      <trkpt lat="44.84452" lon="0.55224">
        <ele>32</ele>
        <time>2014-07-21T09:19:34.000Z</time>
      </trkpt>
      <trkpt lat="44.84453" lon="0.55228">
        <ele>32</ele>
        <time>2014-07-21T09:19:35.000Z</time>
      </trkpt>
      <trkpt lat="44.84454" lon="0.55231">
        <ele>32</ele>
        <time>2014-07-21T09:19:36.000Z</time>
      </trkpt>
      <trkpt lat="44.84455" lon="0.55235">
        <ele>32</ele>
        <time>2014-07-21T09:19:37.000Z</time>
      </trkpt>
      <trkpt lat="44.84456" lon="0.55238">
        <ele>32</ele>
        <time>2014-07-21T09:19:38.000Z</time>
      </trkpt>
      <trkpt lat="44.84457" lon="0.55242">
        <ele>32</ele>
        <time>2014-07-21T09:19:39.000Z</time>
      </trkpt>
      <trkpt lat="44.84458" lon="0.55246">
        <ele>32</ele>
        <time>2014-07-21T09:19:40.000Z</time>
      </trkpt>
      <trkpt lat="44.84459" lon="0.55249">
        <ele>32</ele>
        <time>2014-07-21T09:19:41.000Z</time>
      </trkpt>
      <trkpt lat="44.8446" lon="0.55253">
        <ele>32</ele>
        <time>2014-07-21T09:19:42.000Z</time>
      </trkpt>
      <trkpt lat="44.84461" lon="0.55256">
        <ele>32</ele>
        <time>2014-07-21T09:19:43.000Z</time>
      </trkpt>
      <trkpt lat="44.84462" lon="0.5526">
        <ele>32</ele>
        <time>2014-07-21T09:19:44.000Z</time>
      </trkpt>
      <trkpt lat="44.84463" lon="0.55263">
        <ele>32</ele>
        <time>2014-07-21T09:19:45.000Z</time>
      </trkpt>
      <trkpt lat="44.84464" lon="0.55267">
        <ele>32</ele>
        <time>2014-07-21T09:19:46.000Z</time>
      </trkpt>
      <trkpt lat="44.84465" lon="0.5527">
        <ele>32</ele>
        <time>2014-07-21T09:19:47.000Z</time>
      </trkpt>
      <trkpt lat="44.84466" lon="0.55274">
        <ele>32</ele>
        <time>2014-07-21T09:19:48.000Z</time>
      </trkpt>
      <trkpt lat="44.84467" lon="0.55277">
        <ele>32</ele>
        <time>2014-07-21T09:19:49.000Z</time>
      </trkpt>
      <trkpt lat="44.84468" lon="0.55281">
        <ele>32</ele>
        <time>2014-07-21T09:19:50.000Z</time>
      </trkpt>
      <trkpt lat="44.84469" lon="0.55284">
        <ele>32</ele>
        <time>2014-07-21T09:19:51.000Z</time>
      </trkpt>
      <trkpt lat="44.84471" lon="0.55288">
        <ele>32</ele>
        <time>2014-07-21T09:19:52.000Z</time>
      </trkpt>
      <trkpt lat="44.84472" lon="0.55291">
        <ele>32</ele>
        <time>2014-07-21T09:19:53.000Z</time>
      </trkpt>
      <trkpt lat="44.84473" lon="0.55294">
        <ele>32</ele>
        <time>2014-07-21T09:19:54.000Z</time>
      </trkpt>
      <trkpt lat="44.84474" lon="0.55297">
        <ele>32</ele>
        <time>2014-07-21T09:19:55.000Z</time>
      </trkpt>
      <trkpt lat="44.84476" lon="0.55301">
        <ele>32</ele>
        <time>2014-07-21T09:19:56.000Z</time>
      </trkpt>
      <trkpt lat="44.84477" lon="0.55304">
        <ele>32</ele>
        <time>2014-07-21T09:19:57.000Z</time>
      </trkpt>
      <trkpt lat="44.84479" lon="0.55307">
        <ele>32</ele>
        <time>2014-07-21T09:19:58.000Z</time>
      </trkpt>
      <trkpt lat="44.8448" lon="0.5531">
        <ele>32</ele>
        <time>2014-07-21T09:19:59.000Z</time>
      </trkpt>
      <trkpt lat="44.84482" lon="0.55312">
        <ele>32</ele>
        <time>2014-07-21T09:20:00.000Z</time>
      </trkpt>
      <trkpt lat="44.84484" lon="0.55315">
        <ele>32</ele>
        <time>2014-07-21T09:20:01.000Z</time>
      </trkpt>
      <trkpt lat="44.84485" lon="0.55318">
        <ele>32</ele>
        <time>2014-07-21T09:20:02.000Z</time>
      </trkpt>
      <trkpt lat="44.84487" lon="0.55321">
        <ele>32</ele>
        <time>2014-07-21T09:20:03.000Z</time>
      </trkpt>
      <trkpt lat="44.84489" lon="0.55323">
        <ele>32</ele>
        <time>2014-07-21T09:20:04.000Z</time>
      </trkpt>
      <trkpt lat="44.84491" lon="0.55326">
        <ele>32</ele>
        <time>2014-07-21T09:20:05.000Z</time>
      </trkpt>
      <trkpt lat="44.84493" lon="0.55328">
        <ele>32</ele>
        <time>2014-07-21T09:20:06.000Z</time>
      </trkpt>
      <trkpt lat="44.84495" lon="0.55331">
        <ele>32</ele>
        <time>2014-07-21T09:20:07.000Z</time>
      </trkpt>
      <trkpt lat="44.84497" lon="0.55333">
        <ele>32</ele>
        <time>2014-07-21T09:20:08.000Z</time>
      </trkpt>
      <trkpt lat="44.84499" lon="0.55336">
        <ele>32</ele>
        <time>2014-07-21T09:20:09.000Z</time>
      </trkpt>
      <trkpt lat="44.84501" lon="0.55338">
        <ele>32</ele>
        <time>2014-07-21T09:20:10.000Z</time>
      </trkpt>
      <trkpt lat="44.84503" lon="0.55341">
        <ele>32</ele>
        <time>2014-07-21T09:20:11.000Z</time>
      </trkpt>
      <trkpt lat="44.84505" lon="0.55343">
        <ele>32</ele>
        <time>2014-07-21T09:20:12.000Z</time>
      </trkpt>
      <trkpt lat="44.84507" lon="0.55346">
        <ele>32</ele>
        <time>2014-07-21T09:20:13.000Z</time>
      </trkpt>
      <trkpt lat="44.84509" lon="0.55348">
        <ele>32</ele>
        <time>2014-07-21T09:20:14.000Z</time>
      </trkpt>
      <trkpt lat="44.84511" lon="0.55351">
        <ele>32</ele>
        <time>2014-07-21T09:20:15.000Z</time>
      </trkpt>
      <trkpt lat="44.84513" lon="0.55353">
        <ele>32</ele>
        <time>2014-07-21T09:20:16.000Z</time>
      </trkpt>
      <trkpt lat="44.84516" lon="0.55356">
        <ele>32</ele>
        <time>2014-07-21T09:20:17.000Z</time>
      </trkpt>
      <trkpt lat="44.84518" lon="0.55358">
        <ele>32</ele>
        <time>2014-07-21T09:20:18.000Z</time>
      </trkpt>
      <trkpt lat="44.8452" lon="0.55361">
        <ele>32</ele>
        <time>2014-07-21T09:20:19.000Z</time>
      </trkpt>
      <trkpt lat="44.84522" lon="0.55363">
        <ele>32</ele>
        <time>2014-07-21T09:20:20.000Z</time>
      </trkpt>
      <trkpt lat="44.84524" lon="0.55366">
        <ele>32</ele>
        <time>2014-07-21T09:20:21.000Z</time>
      </trkpt>
      <trkpt lat="44.84526" lon="0.55368">
        <ele>32</ele>
        <time>2014-07-21T09:20:22.000Z</time>
      </trkpt>
      <trkpt lat="44.84528" lon="0.55371">
        <ele>32</ele>
        <time>2014-07-21T09:20:23.000Z</time>
      </trkpt>
      <trkpt lat="44.84531" lon="0.55373">
        <ele>32</ele>
        <time>2014-07-21T09:20:24.000Z</time>
      </trkpt>
      <trkpt lat="44.84533" lon="0.55376">
        <ele>32</ele>
        <time>2014-07-21T09:20:25.000Z</time>
      </trkpt>
      <trkpt lat="44.84535" lon="0.55378">
        <ele>32</ele>
        <time>2014-07-21T09:20:26.000Z</time>
      </trkpt>
      <trkpt lat="44.84537" lon="0.55381">
        <ele>32</ele>
        <time>2014-07-21T09:20:27.000Z</time>
      </trkpt>
      <trkpt lat="44.84539" lon="0.55383">
        <ele>32</ele>
        <time>2014-07-21T09:20:28.000Z</time>
      </trkpt>
      <trkpt lat="44.84541" lon="0.55386">
        <ele>32</ele>
        <time>2014-07-21T09:20:29.000Z</time>
      </trkpt>
      <trkpt lat="44.84543" lon="0.55388">
        <ele>32</ele>
        <time>2014-07-21T09:20:30.000Z</time>
      </trkpt>
      <trkpt lat="44.84545" lon="0.55391">
        <ele>32</ele>
        <time>2014-07-21T09:20:31.000Z</time>
      </trkpt>
      <trkpt lat="44.84547" lon="0.55393">
        <ele>32</ele>
        <time>2014-07-21T09:20:32.000Z</time>
      </trkpt>
      <trkpt lat="44.84549" lon="0.55395">
        <ele>32</ele>
        <time>2014-07-21T09:20:33.000Z</time>
      </trkpt>
      <trkpt lat="44.84551" lon="0.55398">
        <ele>32</ele>
        <time>2014-07-21T09:20:34.000Z</time>
      </trkpt>
      <trkpt lat="44.84553" lon="0.554">
        <ele>32</ele>
        <time>2014-07-21T09:20:35.000Z</time>
      </trkpt>
      <trkpt lat="44.84555" lon="0.55403">
        <ele>32</ele>
        <time>2014-07-21T09:20:36.000Z</time>
      </trkpt>
      <trkpt lat="44.84558" lon="0.55405">
        <ele>32</ele>
        <time>2014-07-21T09:20:37.000Z</time>
      </trkpt>
      <trkpt lat="44.8456" lon="0.55408">
        <ele>32</ele>
        <time>2014-07-21T09:20:38.000Z</time>
      </trkpt>
      <trkpt lat="44.84562" lon="0.5541">
        <ele>32</ele>
        <time>2014-07-21T09:20:39.000Z</time>
      </trkpt>
      <trkpt lat="44.84564" lon="0.55413">
        <ele>32</ele>
        <time>2014-07-21T09:20:40.000Z</time>
      </trkpt>
      <trkpt lat="44.84566" lon="0.55415">
        <ele>32</ele>
        <time>2014-07-21T09:20:41.000Z</time>
      </trkpt>
      <trkpt lat="44.84568" lon="0.55418">
        <ele>33</ele>
        <time>2014-07-21T09:20:42.000Z</time>
      </trkpt>
      <trkpt lat="44.8457" lon="0.5542">
        <ele>33</ele>
        <time>2014-07-21T09:20:43.000Z</time>
      </trkpt>
      <trkpt lat="44.84572" lon="0.55423">
        <ele>33</ele>
        <time>2014-07-21T09:20:44.000Z</time>
      </trkpt>
      <trkpt lat="44.84574" lon="0.55425">
        <ele>33</ele>
        <time>2014-07-21T09:20:45.000Z</time>
      </trkpt>
      <trkpt lat="44.84576" lon="0.55427">
        <ele>33</ele>
        <time>2014-07-21T09:20:46.000Z</time>
      </trkpt>
      <trkpt lat="44.84578" lon="0.5543">
        <ele>33</ele>
        <time>2014-07-21T09:20:47.000Z</time>
      </trkpt>
      <trkpt lat="44.84581" lon="0.55432">
        <ele>33</ele>
        <time>2014-07-21T09:20:48.000Z</time>
      </trkpt>
      <trkpt lat="44.84583" lon="0.55435">
        <ele>33</ele>
        <time>2014-07-21T09:20:49.000Z</time>
      </trkpt>
      <trkpt lat="44.84585" lon="0.55437">
        <ele>33</ele>
        <time>2014-07-21T09:20:50.000Z</time>
      </trkpt>
      <trkpt lat="44.84587" lon="0.5544">
        <ele>33</ele>
        <time>2014-07-21T09:20:51.000Z</time>
      </trkpt>
      <trkpt lat="44.84589" lon="0.55442">
        <ele>33</ele>
        <time>2014-07-21T09:20:52.000Z</time>
      </trkpt>
      <trkpt lat="44.84591" lon="0.55444">
        <ele>33</ele>
        <time>2014-07-21T09:20:53.000Z</time>
      </trkpt>
      <trkpt lat="44.84593" lon="0.55447">
        <ele>33</ele>
        <time>2014-07-21T09:20:54.000Z</time>
      </trkpt>
      <trkpt lat="44.84595" lon="0.55449">
        <ele>33</ele>
        <time>2014-07-21T09:20:55.000Z</time>
      </trkpt>
      <trkpt lat="44.84597" lon="0.55452">
        <ele>33</ele>
        <time>2014-07-21T09:20:56.000Z</time>
      </trkpt>
      <trkpt lat="44.846" lon="0.55454">
        <ele>33</ele>
        <time>2014-07-21T09:20:57.000Z</time>
      </trkpt>
      <trkpt lat="44.84602" lon="0.55456">
        <ele>33</ele>
        <time>2014-07-21T09:20:58.000Z</time>
      </trkpt>
      <trkpt lat="44.84604" lon="0.55459">
        <ele>33</ele>
        <time>2014-07-21T09:20:59.000Z</time>
      </trkpt>
      <trkpt lat="44.84606" lon="0.55461">
        <ele>33</ele>
        <time>2014-07-21T09:21:00.000Z</time>
      </trkpt>
      <trkpt lat="44.84608" lon="0.55463">
        <ele>33</ele>
        <time>2014-07-21T09:21:01.000Z</time>
      </trkpt>
      <trkpt lat="44.8461" lon="0.55465">
        <ele>33</ele>
        <time>2014-07-21T09:21:02.000Z</time>
      </trkpt>
      <trkpt lat="44.84612" lon="0.55468">
        <ele>33</ele>
        <time>2014-07-21T09:21:03.000Z</time>
      </trkpt>
      <trkpt lat="44.84614" lon="0.5547">
        <ele>33</ele>
        <time>2014-07-21T09:21:04.000Z</time>
      </trkpt>
      <trkpt lat="44.84617" lon="0.55472">
        <ele>33</ele>
        <time>2014-07-21T09:21:05.000Z</time>
      </trkpt>
      <trkpt lat="44.84619" lon="0.55474">
        <ele>33</ele>
        <time>2014-07-21T09:21:06.000Z</time>
      </trkpt>
      <trkpt lat="44.84621" lon="0.55477">
        <ele>33</ele>
        <time>2014-07-21T09:21:07.000Z</time>
      </trkpt>
      <trkpt lat="44.84623" lon="0.55479">
        <ele>33</ele>
        <time>2014-07-21T09:21:08.000Z</time>
      </trkpt>
      <trkpt lat="44.84625" lon="0.55481">
        <ele>33</ele>
        <time>2014-07-21T09:21:09.000Z</time>
      </trkpt>
      <trkpt lat="44.84627" lon="0.55483">
        <ele>33</ele>
        <time>2014-07-21T09:21:10.000Z</time>
      </trkpt>
      <trkpt lat="44.84629" lon="0.55485">
        <ele>33</ele>
        <time>2014-07-21T09:21:11.000Z</time>
      </trkpt>
      <trkpt lat="44.84632" lon="0.55488">
        <ele>33</ele>
        <time>2014-07-21T09:21:12.000Z</time>
      </trkpt>
      <trkpt lat="44.84634" lon="0.5549">
        <ele>33</ele>
        <time>2014-07-21T09:21:13.000Z</time>
      </trkpt>
      <trkpt lat="44.84636" lon="0.55492">
        <ele>33</ele>
        <time>2014-07-21T09:21:14.000Z</time>
      </trkpt>
      <trkpt lat="44.84638" lon="0.55494">
        <ele>33</ele>
        <time>2014-07-21T09:21:15.000Z</time>
      </trkpt>
      <trkpt lat="44.8464" lon="0.55496">
        <ele>33</ele>
        <time>2014-07-21T09:21:16.000Z</time>
      </trkpt>
      <trkpt lat="44.84642" lon="0.55498">
        <ele>33</ele>
        <time>2014-07-21T09:21:17.000Z</time>
      </trkpt>
      <trkpt lat="44.84645" lon="0.555">
        <ele>33</ele>
        <time>2014-07-21T09:21:18.000Z</time>
      </trkpt>
      <trkpt lat="44.84647" lon="0.55503">
        <ele>33</ele>
        <time>2014-07-21T09:21:19.000Z</time>
      </trkpt>
      <trkpt lat="44.84649" lon="0.55505">
        <ele>33</ele>
        <time>2014-07-21T09:21:20.000Z</time>
      </trkpt>
      <trkpt lat="44.84651" lon="0.55507">
        <ele>33</ele>
        <time>2014-07-21T09:21:21.000Z</time>
      </trkpt>
      <trkpt lat="44.84654" lon="0.55509">
        <ele>33</ele>
        <time>2014-07-21T09:21:22.000Z</time>
      </trkpt>
      <trkpt lat="44.84656" lon="0.55511">
        <ele>33</ele>
        <time>2014-07-21T09:21:23.000Z</time>
      </trkpt>
      <trkpt lat="44.84658" lon="0.55513">
        <ele>33</ele>
        <time>2014-07-21T09:21:24.000Z</time>
      </trkpt>
      <trkpt lat="44.8466" lon="0.55515">
        <ele>33</ele>
        <time>2014-07-21T09:21:25.000Z</time>
      </trkpt>
      <trkpt lat="44.84663" lon="0.55517">
        <ele>33</ele>
        <time>2014-07-21T09:21:26.000Z</time>
      </trkpt>
      <trkpt lat="44.84665" lon="0.55519">
        <ele>33</ele>
        <time>2014-07-21T09:21:27.000Z</time>
      </trkpt>
      <trkpt lat="44.84667" lon="0.55521">
        <ele>33</ele>
        <time>2014-07-21T09:21:28.000Z</time>
      </trkpt>
      <trkpt lat="44.8467" lon="0.55524">
        <ele>33</ele>
        <time>2014-07-21T09:21:29.000Z</time>
      </trkpt>
      <trkpt lat="44.84672" lon="0.55526">
        <ele>33</ele>
        <time>2014-07-21T09:21:30.000Z</time>
      </trkpt>
      <trkpt lat="44.84674" lon="0.55528">
        <ele>33</ele>
        <time>2014-07-21T09:21:31.000Z</time>
      </trkpt>
      <trkpt lat="44.84676" lon="0.5553">
        <ele>33</ele>
        <time>2014-07-21T09:21:32.000Z</time>
      </trkpt>
      <trkpt lat="44.84679" lon="0.55532">
        <ele>33</ele>
        <time>2014-07-21T09:21:33.000Z</time>
      </trkpt>
      <trkpt lat="44.84681" lon="0.55535">
        <ele>33</ele>
        <time>2014-07-21T09:21:34.000Z</time>
      </trkpt>
      <trkpt lat="44.84683" lon="0.55537">
        <ele>33</ele>
        <time>2014-07-21T09:21:35.000Z</time>
      </trkpt>
      <trkpt lat="44.84685" lon="0.55539">
        <ele>33</ele>
        <time>2014-07-21T09:21:36.000Z</time>
      </trkpt>
      <trkpt lat="44.84688" lon="0.55542">
        <ele>33</ele>
        <time>2014-07-21T09:21:37.000Z</time>
      </trkpt>
      <trkpt lat="44.8469" lon="0.55544">
        <ele>33</ele>
        <time>2014-07-21T09:21:38.000Z</time>
      </trkpt>
      <trkpt lat="44.84692" lon="0.55546">
        <ele>33</ele>
        <time>2014-07-21T09:21:39.000Z</time>
      </trkpt>
      <trkpt lat="44.84694" lon="0.55549">
        <ele>33</ele>
        <time>2014-07-21T09:21:40.000Z</time>
      </trkpt>
      <trkpt lat="44.84696" lon="0.55551">
        <ele>33</ele>
        <time>2014-07-21T09:21:41.000Z</time>
      </trkpt>
      <trkpt lat="44.84698" lon="0.55554">
        <ele>33</ele>
        <time>2014-07-21T09:21:42.000Z</time>
      </trkpt>
      <trkpt lat="44.847" lon="0.55557">
        <ele>33</ele>
        <time>2014-07-21T09:21:43.000Z</time>
      </trkpt>
      <trkpt lat="44.84702" lon="0.55559">
        <ele>34</ele>
        <time>2014-07-21T09:21:44.000Z</time>
      </trkpt>
      <trkpt lat="44.84704" lon="0.55562">
        <ele>34</ele>
        <time>2014-07-21T09:21:45.000Z</time>
      </trkpt>
      <trkpt lat="44.84706" lon="0.55565">
        <ele>34</ele>
        <time>2014-07-21T09:21:46.000Z</time>
      </trkpt>
      <trkpt lat="44.84708" lon="0.55568">
        <ele>34</ele>
        <time>2014-07-21T09:21:47.000Z</time>
      </trkpt>
      <trkpt lat="44.84709" lon="0.55571">
        <ele>34</ele>
        <time>2014-07-21T09:21:48.000Z</time>
      </trkpt>
      <trkpt lat="44.84711" lon="0.55574">
        <ele>34</ele>
        <time>2014-07-21T09:21:49.000Z</time>
      </trkpt>
      <trkpt lat="44.84713" lon="0.55577">
        <ele>34</ele>
        <time>2014-07-21T09:21:50.000Z</time>
      </trkpt>
      <trkpt lat="44.84715" lon="0.5558">
        <ele>34</ele>
        <time>2014-07-21T09:21:51.000Z</time>
      </trkpt>
      <trkpt lat="44.84716" lon="0.55583">
        <ele>34</ele>
        <time>2014-07-21T09:21:52.000Z</time>
      </trkpt>
      <trkpt lat="44.84718" lon="0.55586">
        <ele>34</ele>
        <time>2014-07-21T09:21:53.000Z</time>
      </trkpt>
      <trkpt lat="44.8472" lon="0.55589">
        <ele>34</ele>
        <time>2014-07-21T09:21:54.000Z</time>
      </trkpt>
      <trkpt lat="44.84722" lon="0.55592">
        <ele>34</ele>
        <time>2014-07-21T09:21:55.000Z</time>
      </trkpt>
      <trkpt lat="44.84723" lon="0.55595">
        <ele>34</ele>
        <time>2014-07-21T09:21:56.000Z</time>
      </trkpt>
      <trkpt lat="44.84725" lon="0.55598">
        <ele>34</ele>
        <time>2014-07-21T09:21:57.000Z</time>
      </trkpt>
      <trkpt lat="44.84726" lon="0.55601">
        <ele>34</ele>
        <time>2014-07-21T09:21:58.000Z</time>
      </trkpt>
      <trkpt lat="44.84728" lon="0.55605">
        <ele>34</ele>
        <time>2014-07-21T09:21:59.000Z</time>
      </trkpt>
      <trkpt lat="44.8473" lon="0.55608">
        <ele>34</ele>
        <time>2014-07-21T09:22:00.000Z</time>
      </trkpt>
      <trkpt lat="44.84731" lon="0.55611">
        <ele>34</ele>
        <time>2014-07-21T09:22:01.000Z</time>
      </trkpt>
      <trkpt lat="44.84733" lon="0.55614">
        <ele>34</ele>
        <time>2014-07-21T09:22:02.000Z</time>
      </trkpt>
      <trkpt lat="44.84734" lon="0.55618">
        <ele>34</ele>
        <time>2014-07-21T09:22:03.000Z</time>
      </trkpt>
      <trkpt lat="44.84736" lon="0.55621">
        <ele>34</ele>
        <time>2014-07-21T09:22:04.000Z</time>
      </trkpt>
      <trkpt lat="44.84737" lon="0.55624">
        <ele>34</ele>
        <time>2014-07-21T09:22:05.000Z</time>
      </trkpt>
      <trkpt lat="44.84739" lon="0.55628">
        <ele>34</ele>
        <time>2014-07-21T09:22:06.000Z</time>
      </trkpt>
      <trkpt lat="44.84741" lon="0.55631">
        <ele>34</ele>
        <time>2014-07-21T09:22:07.000Z</time>
      </trkpt>
      <trkpt lat="44.84742" lon="0.55634">
        <ele>34</ele>
        <time>2014-07-21T09:22:08.000Z</time>
      </trkpt>
      <trkpt lat="44.84744" lon="0.55637">
        <ele>34</ele>
        <time>2014-07-21T09:22:09.000Z</time>
      </trkpt>
      <trkpt lat="44.84745" lon="0.55641">
        <ele>34</ele>
        <time>2014-07-21T09:22:10.000Z</time>
      </trkpt>
      <trkpt lat="44.84747" lon="0.55644">
        <ele>34</ele>
        <time>2014-07-21T09:22:11.000Z</time>
      </trkpt>
      <trkpt lat="44.84748" lon="0.55647">
        <ele>34</ele>
        <time>2014-07-21T09:22:12.000Z</time>
      </trkpt>
      <trkpt lat="44.8475" lon="0.5565">
        <ele>34</ele>
        <time>2014-07-21T09:22:13.000Z</time>
      </trkpt>
      <trkpt lat="44.84752" lon="0.55654">
        <ele>34</ele>
        <time>2014-07-21T09:22:14.000Z</time>
      </trkpt>
      <trkpt lat="44.84753" lon="0.55657">
        <ele>34</ele>
        <time>2014-07-21T09:22:15.000Z</time>
      </trkpt>
      <trkpt lat="44.84755" lon="0.5566">
        <ele>34</ele>
        <time>2014-07-21T09:22:16.000Z</time>
      </trkpt>
      <trkpt lat="44.84756" lon="0.55663">
        <ele>34</ele>
        <time>2014-07-21T09:22:17.000Z</time>
      </trkpt>
      <trkpt lat="44.84758" lon="0.55666">
        <ele>34</ele>
        <time>2014-07-21T09:22:18.000Z</time>
      </trkpt>
      <trkpt lat="44.84759" lon="0.5567">
        <ele>33</ele>
        <time>2014-07-21T09:22:19.000Z</time>
      </trkpt>
      <trkpt lat="44.84761" lon="0.55673">
        <ele>33</ele>
        <time>2014-07-21T09:22:20.000Z</time>
      </trkpt>
      <trkpt lat="44.84763" lon="0.55676">
        <ele>33</ele>
        <time>2014-07-21T09:22:21.000Z</time>
      </trkpt>
      <trkpt lat="44.84764" lon="0.55679">
        <ele>33</ele>
        <time>2014-07-21T09:22:22.000Z</time>
      </trkpt>
      <trkpt lat="44.84766" lon="0.55682">
        <ele>33</ele>
        <time>2014-07-21T09:22:23.000Z</time>
      </trkpt>
      <trkpt lat="44.84767" lon="0.55685">
        <ele>33</ele>
        <time>2014-07-21T09:22:24.000Z</time>
      </trkpt>
      <trkpt lat="44.84769" lon="0.55689">
        <ele>33</ele>
        <time>2014-07-21T09:22:25.000Z</time>
      </trkpt>
      <trkpt lat="44.84771" lon="0.55692">
        <ele>33</ele>
        <time>2014-07-21T09:22:26.000Z</time>
      </trkpt>
      <trkpt lat="44.84772" lon="0.55695">
        <ele>33</ele>
        <time>2014-07-21T09:22:27.000Z</time>
      </trkpt>
      <trkpt lat="44.84774" lon="0.55698">
        <ele>33</ele>
        <time>2014-07-21T09:22:28.000Z</time>
      </trkpt>
      <trkpt lat="44.84775" lon="0.55701">
        <ele>33</ele>
        <time>2014-07-21T09:22:29.000Z</time>
      </trkpt>
      <trkpt lat="44.84777" lon="0.55704">
        <ele>33</ele>
        <time>2014-07-21T09:22:30.000Z</time>
      </trkpt>
      <trkpt lat="44.84778" lon="0.55707">
        <ele>33</ele>
        <time>2014-07-21T09:22:31.000Z</time>
      </trkpt>
      <trkpt lat="44.8478" lon="0.55711">
        <ele>33</ele>
        <time>2014-07-21T09:22:32.000Z</time>
      </trkpt>
      <trkpt lat="44.84782" lon="0.55714">
        <ele>33</ele>
        <time>2014-07-21T09:22:33.000Z</time>
      </trkpt>
      <trkpt lat="44.84783" lon="0.55717">
        <ele>33</ele>
        <time>2014-07-21T09:22:34.000Z</time>
      </trkpt>
      <trkpt lat="44.84785" lon="0.5572">
        <ele>33</ele>
        <time>2014-07-21T09:22:35.000Z</time>
      </trkpt>
      <trkpt lat="44.84786" lon="0.55723">
        <ele>33</ele>
        <time>2014-07-21T09:22:36.000Z</time>
      </trkpt>
      <trkpt lat="44.84788" lon="0.55726">
        <ele>33</ele>
        <time>2014-07-21T09:22:37.000Z</time>
      </trkpt>
      <trkpt lat="44.84789" lon="0.5573">
        <ele>33</ele>
        <time>2014-07-21T09:22:38.000Z</time>
      </trkpt>
      <trkpt lat="44.84791" lon="0.55733">
        <ele>33</ele>
        <time>2014-07-21T09:22:39.000Z</time>
      </trkpt>
      <trkpt lat="44.84792" lon="0.55736">
        <ele>33</ele>
        <time>2014-07-21T09:22:40.000Z</time>
      </trkpt>
      <trkpt lat="44.84794" lon="0.55739">
        <ele>33</ele>
        <time>2014-07-21T09:22:41.000Z</time>
      </trkpt>
      <trkpt lat="44.84796" lon="0.55742">
        <ele>33</ele>
        <time>2014-07-21T09:22:42.000Z</time>
      </trkpt>
      <trkpt lat="44.84797" lon="0.55745">
        <ele>33</ele>
        <time>2014-07-21T09:22:43.000Z</time>
      </trkpt>
      <trkpt lat="44.84799" lon="0.55749">
        <ele>33</ele>
        <time>2014-07-21T09:22:44.000Z</time>
      </trkpt>
      <trkpt lat="44.848" lon="0.55752">
        <ele>33</ele>
        <time>2014-07-21T09:22:45.000Z</time>
      </trkpt>
      <trkpt lat="44.84802" lon="0.55755">
        <ele>33</ele>
        <time>2014-07-21T09:22:46.000Z</time>
      </trkpt>
      <trkpt lat="44.84803" lon="0.55758">
        <ele>33</ele>
        <time>2014-07-21T09:22:47.000Z</time>
      </trkpt>
      <trkpt lat="44.84805" lon="0.55761">
        <ele>33</ele>
        <time>2014-07-21T09:22:48.000Z</time>
      </trkpt>
      <trkpt lat="44.84806" lon="0.55765">
        <ele>33</ele>
        <time>2014-07-21T09:22:49.000Z</time>
      </trkpt>
      <trkpt lat="44.84808" lon="0.55768">
        <ele>33</ele>
        <time>2014-07-21T09:22:50.000Z</time>
      </trkpt>
      <trkpt lat="44.84809" lon="0.55771">
        <ele>33</ele>
        <time>2014-07-21T09:22:51.000Z</time>
      </trkpt>
      <trkpt lat="44.84811" lon="0.55774">
        <ele>33</ele>
        <time>2014-07-21T09:22:52.000Z</time>
      </trkpt>
      <trkpt lat="44.84812" lon="0.55777">
        <ele>33</ele>
        <time>2014-07-21T09:22:53.000Z</time>
      </trkpt>
      <trkpt lat="44.84814" lon="0.55781">
        <ele>33</ele>
        <time>2014-07-21T09:22:54.000Z</time>
      </trkpt>
      <trkpt lat="44.84815" lon="0.55784">
        <ele>33</ele>
        <time>2014-07-21T09:22:55.000Z</time>
      </trkpt>
      <trkpt lat="44.84817" lon="0.55787">
        <ele>33</ele>
        <time>2014-07-21T09:22:56.000Z</time>
      </trkpt>
      <trkpt lat="44.84818" lon="0.5579">
        <ele>33</ele>
        <time>2014-07-21T09:22:57.000Z</time>
      </trkpt>
      <trkpt lat="44.8482" lon="0.55794">
        <ele>33</ele>
        <time>2014-07-21T09:22:58.000Z</time>
      </trkpt>
      <trkpt lat="44.84822" lon="0.55797">
        <ele>33</ele>
        <time>2014-07-21T09:22:59.000Z</time>
      </trkpt>
      <trkpt lat="44.84823" lon="0.558">
        <ele>33</ele>
        <time>2014-07-21T09:23:00.000Z</time>
      </trkpt>
      <trkpt lat="44.84825" lon="0.55803">
        <ele>33</ele>
        <time>2014-07-21T09:23:01.000Z</time>
      </trkpt>
      <trkpt lat="44.84826" lon="0.55807">
        <ele>33</ele>
        <time>2014-07-21T09:23:02.000Z</time>
      </trkpt>
      <trkpt lat="44.84828" lon="0.5581">
        <ele>33</ele>
        <time>2014-07-21T09:23:03.000Z</time>
      </trkpt>
      <trkpt lat="44.84829" lon="0.55813">
        <ele>33</ele>
        <time>2014-07-21T09:23:04.000Z</time>
      </trkpt>
      <trkpt lat="44.84831" lon="0.55816">
        <ele>33</ele>
        <time>2014-07-21T09:23:05.000Z</time>
      </trkpt>
      <trkpt lat="44.84832" lon="0.5582">
        <ele>33</ele>
        <time>2014-07-21T09:23:06.000Z</time>
      </trkpt>
      <trkpt lat="44.84834" lon="0.55823">
        <ele>33</ele>
        <time>2014-07-21T09:23:07.000Z</time>
      </trkpt>
      <trkpt lat="44.84835" lon="0.55826">
        <ele>33</ele>
        <time>2014-07-21T09:23:08.000Z</time>
      </trkpt>
      <trkpt lat="44.84836" lon="0.5583">
        <ele>33</ele>
        <time>2014-07-21T09:23:09.000Z</time>
      </trkpt>
      <trkpt lat="44.84838" lon="0.55833">
        <ele>33</ele>
        <time>2014-07-21T09:23:10.000Z</time>
      </trkpt>
      <trkpt lat="44.84839" lon="0.55836">
        <ele>33</ele>
        <time>2014-07-21T09:23:11.000Z</time>
      </trkpt>
      <trkpt lat="44.84841" lon="0.5584">
        <ele>33</ele>
        <time>2014-07-21T09:23:12.000Z</time>
      </trkpt>
      <trkpt lat="44.84842" lon="0.55843">
        <ele>33</ele>
        <time>2014-07-21T09:23:13.000Z</time>
      </trkpt>
      <trkpt lat="44.84844" lon="0.55846">
        <ele>33</ele>
        <time>2014-07-21T09:23:14.000Z</time>
      </trkpt>
      <trkpt lat="44.84845" lon="0.55849">
        <ele>33</ele>
        <time>2014-07-21T09:23:15.000Z</time>
      </trkpt>
      <trkpt lat="44.84847" lon="0.55853">
        <ele>33</ele>
        <time>2014-07-21T09:23:16.000Z</time>
      </trkpt>
      <trkpt lat="44.84848" lon="0.55856">
        <ele>33</ele>
        <time>2014-07-21T09:23:17.000Z</time>
      </trkpt>
      <trkpt lat="44.8485" lon="0.55859">
        <ele>33</ele>
        <time>2014-07-21T09:23:18.000Z</time>
      </trkpt>
      <trkpt lat="44.84851" lon="0.55863">
        <ele>33</ele>
        <time>2014-07-21T09:23:19.000Z</time>
      </trkpt>
      <trkpt lat="44.84852" lon="0.55866">
        <ele>33</ele>
        <time>2014-07-21T09:23:20.000Z</time>
      </trkpt>
      <trkpt lat="44.84854" lon="0.55869">
        <ele>33</ele>
        <time>2014-07-21T09:23:21.000Z</time>
      </trkpt>
      <trkpt lat="44.84855" lon="0.55873">
        <ele>33</ele>
        <time>2014-07-21T09:23:22.000Z</time>
      </trkpt>
      <trkpt lat="44.84857" lon="0.55876">
        <ele>33</ele>
        <time>2014-07-21T09:23:23.000Z</time>
      </trkpt>
      <trkpt lat="44.84858" lon="0.55879">
        <ele>33</ele>
        <time>2014-07-21T09:23:24.000Z</time>
      </trkpt>
      <trkpt lat="44.8486" lon="0.55883">
        <ele>33</ele>
        <time>2014-07-21T09:23:25.000Z</time>
      </trkpt>
      <trkpt lat="44.84861" lon="0.55886">
        <ele>33</ele>
        <time>2014-07-21T09:23:26.000Z</time>
      </trkpt>
      <trkpt lat="44.84862" lon="0.55889">
        <ele>33</ele>
        <time>2014-07-21T09:23:27.000Z</time>
      </trkpt>
      <trkpt lat="44.84864" lon="0.55893">
        <ele>33</ele>
        <time>2014-07-21T09:23:28.000Z</time>
      </trkpt>
      <trkpt lat="44.84865" lon="0.55896">
        <ele>34</ele>
        <time>2014-07-21T09:23:29.000Z</time>
      </trkpt>
      <trkpt lat="44.84867" lon="0.55899">
        <ele>34</ele>
        <time>2014-07-21T09:23:30.000Z</time>
      </trkpt>
      <trkpt lat="44.84868" lon="0.55903">
        <ele>34</ele>
        <time>2014-07-21T09:23:31.000Z</time>
      </trkpt>
      <trkpt lat="44.84869" lon="0.55906">
        <ele>34</ele>
        <time>2014-07-21T09:23:32.000Z</time>
      </trkpt>
      <trkpt lat="44.84871" lon="0.55909">
        <ele>34</ele>
        <time>2014-07-21T09:23:33.000Z</time>
      </trkpt>
      <trkpt lat="44.84872" lon="0.55913">
        <ele>34</ele>
        <time>2014-07-21T09:23:34.000Z</time>
      </trkpt>
      <trkpt lat="44.84874" lon="0.55916">
        <ele>34</ele>
        <time>2014-07-21T09:23:35.000Z</time>
      </trkpt>
      <trkpt lat="44.84875" lon="0.55919">
        <ele>34</ele>
        <time>2014-07-21T09:23:36.000Z</time>
      </trkpt>
      <trkpt lat="44.84876" lon="0.55923">
        <ele>34</ele>
        <time>2014-07-21T09:23:37.000Z</time>
      </trkpt>
      <trkpt lat="44.84878" lon="0.55926">
        <ele>34</ele>
        <time>2014-07-21T09:23:38.000Z</time>
      </trkpt>
      <trkpt lat="44.84879" lon="0.5593">
        <ele>34</ele>
        <time>2014-07-21T09:23:39.000Z</time>
      </trkpt>
      <trkpt lat="44.84881" lon="0.55933">
        <ele>34</ele>
        <time>2014-07-21T09:23:40.000Z</time>
      </trkpt>
      <trkpt lat="44.84882" lon="0.55936">
        <ele>34</ele>
        <time>2014-07-21T09:23:41.000Z</time>
      </trkpt>
      <trkpt lat="44.84883" lon="0.5594">
        <ele>34</ele>
        <time>2014-07-21T09:23:42.000Z</time>
      </trkpt>
      <trkpt lat="44.84885" lon="0.55943">
        <ele>34</ele>
        <time>2014-07-21T09:23:43.000Z</time>
      </trkpt>
      <trkpt lat="44.84886" lon="0.55946">
        <ele>34</ele>
        <time>2014-07-21T09:23:44.000Z</time>
      </trkpt>
      <trkpt lat="44.84888" lon="0.5595">
        <ele>34</ele>
        <time>2014-07-21T09:23:45.000Z</time>
      </trkpt>
      <trkpt lat="44.84889" lon="0.55953">
        <ele>34</ele>
        <time>2014-07-21T09:23:46.000Z</time>
      </trkpt>
      <trkpt lat="44.8489" lon="0.55956">
        <ele>34</ele>
        <time>2014-07-21T09:23:47.000Z</time>
      </trkpt>
      <trkpt lat="44.84892" lon="0.5596">
        <ele>34</ele>
        <time>2014-07-21T09:23:48.000Z</time>
      </trkpt>
      <trkpt lat="44.84893" lon="0.55963">
        <ele>34</ele>
        <time>2014-07-21T09:23:49.000Z</time>
      </trkpt>
      <trkpt lat="44.84895" lon="0.55966">
        <ele>34</ele>
        <time>2014-07-21T09:23:50.000Z</time>
      </trkpt>
      <trkpt lat="44.84896" lon="0.5597">
        <ele>34</ele>
        <time>2014-07-21T09:23:51.000Z</time>
      </trkpt>
      <trkpt lat="44.84897" lon="0.55973">
        <ele>34</ele>
        <time>2014-07-21T09:23:52.000Z</time>
      </trkpt>
      <trkpt lat="44.84899" lon="0.55976">
        <ele>34</ele>
        <time>2014-07-21T09:23:53.000Z</time>
      </trkpt>
      <trkpt lat="44.849" lon="0.5598">
        <ele>34</ele>
        <time>2014-07-21T09:23:54.000Z</time>
      </trkpt>
      <trkpt lat="44.84902" lon="0.55983">
        <ele>34</ele>
        <time>2014-07-21T09:23:55.000Z</time>
      </trkpt>
      <trkpt lat="44.84903" lon="0.55986">
        <ele>34</ele>
        <time>2014-07-21T09:23:56.000Z</time>
      </trkpt>
      <trkpt lat="44.84904" lon="0.5599">
        <ele>34</ele>
        <time>2014-07-21T09:23:57.000Z</time>
      </trkpt>
      <trkpt lat="44.84906" lon="0.55993">
        <ele>34</ele>
        <time>2014-07-21T09:23:58.000Z</time>
      </trkpt>
      <trkpt lat="44.84907" lon="0.55996">
        <ele>34</ele>
        <time>2014-07-21T09:23:59.000Z</time>
      </trkpt>
      <trkpt lat="44.84908" lon="0.56">
        <ele>34</ele>
        <time>2014-07-21T09:24:00.000Z</time>
      </trkpt>
      <trkpt lat="44.8491" lon="0.56003">
        <ele>34</ele>
        <time>2014-07-21T09:24:01.000Z</time>
      </trkpt>
      <trkpt lat="44.84911" lon="0.56007">
        <ele>34</ele>
        <time>2014-07-21T09:24:02.000Z</time>
      </trkpt>
      <trkpt lat="44.84912" lon="0.5601">
        <ele>34</ele>
        <time>2014-07-21T09:24:03.000Z</time>
      </trkpt>
      <trkpt lat="44.84914" lon="0.56014">
        <ele>34</ele>
        <time>2014-07-21T09:24:04.000Z</time>
      </trkpt>
      <trkpt lat="44.84915" lon="0.56017">
        <ele>34</ele>
        <time>2014-07-21T09:24:05.000Z</time>
      </trkpt>
      <trkpt lat="44.84916" lon="0.56021">
        <ele>34</ele>
        <time>2014-07-21T09:24:06.000Z</time>
      </trkpt>
      <trkpt lat="44.84917" lon="0.56024">
        <ele>35</ele>
        <time>2014-07-21T09:24:07.000Z</time>
      </trkpt>
      <trkpt lat="44.84918" lon="0.56028">
        <ele>35</ele>
        <time>2014-07-21T09:24:08.000Z</time>
      </trkpt>
      <trkpt lat="44.84919" lon="0.56032">
        <ele>35</ele>
        <time>2014-07-21T09:24:09.000Z</time>
      </trkpt>
      <trkpt lat="44.84921" lon="0.56035">
        <ele>35</ele>
        <time>2014-07-21T09:24:10.000Z</time>
      </trkpt>
      <trkpt lat="44.84922" lon="0.56039">
        <ele>35</ele>
        <time>2014-07-21T09:24:11.000Z</time>
      </trkpt>
      <trkpt lat="44.84923" lon="0.56042">
        <ele>35</ele>
        <time>2014-07-21T09:24:12.000Z</time>
      </trkpt>
      <trkpt lat="44.84924" lon="0.56046">
        <ele>35</ele>
        <time>2014-07-21T09:24:13.000Z</time>
      </trkpt>
      <trkpt lat="44.84925" lon="0.5605">
        <ele>35</ele>
        <time>2014-07-21T09:24:14.000Z</time>
      </trkpt>
      <trkpt lat="44.84926" lon="0.56053">
        <ele>35</ele>
        <time>2014-07-21T09:24:15.000Z</time>
      </trkpt>
      <trkpt lat="44.84927" lon="0.56057">
        <ele>35</ele>
        <time>2014-07-21T09:24:16.000Z</time>
      </trkpt>
      <trkpt lat="44.84928" lon="0.5606">
        <ele>35</ele>
        <time>2014-07-21T09:24:17.000Z</time>
      </trkpt>
      <trkpt lat="44.84929" lon="0.56064">
        <ele>35</ele>
        <time>2014-07-21T09:24:18.000Z</time>
      </trkpt>
      <trkpt lat="44.8493" lon="0.56067">
        <ele>35</ele>
        <time>2014-07-21T09:24:19.000Z</time>
      </trkpt>
      <trkpt lat="44.84931" lon="0.56071">
        <ele>35</ele>
        <time>2014-07-21T09:24:20.000Z</time>
      </trkpt>
      <trkpt lat="44.84931" lon="0.56075">
        <ele>35</ele>
        <time>2014-07-21T09:24:21.000Z</time>
      </trkpt>
      <trkpt lat="44.84932" lon="0.56078">
        <ele>35</ele>
        <time>2014-07-21T09:24:22.000Z</time>
      </trkpt>
      <trkpt lat="44.84933" lon="0.56082">
        <ele>35</ele>
        <time>2014-07-21T09:24:23.000Z</time>
      </trkpt>
      <trkpt lat="44.84934" lon="0.56085">
        <ele>35</ele>
        <time>2014-07-21T09:24:24.000Z</time>
      </trkpt>
      <trkpt lat="44.84935" lon="0.56089">
        <ele>35</ele>
        <time>2014-07-21T09:24:25.000Z</time>
      </trkpt>
      <trkpt lat="44.84936" lon="0.56092">
        <ele>35</ele>
        <time>2014-07-21T09:24:26.000Z</time>
      </trkpt>
      <trkpt lat="44.84937" lon="0.56096">
        <ele>35</ele>
        <time>2014-07-21T09:24:27.000Z</time>
      </trkpt>
      <trkpt lat="44.84938" lon="0.561">
        <ele>35</ele>
        <time>2014-07-21T09:24:28.000Z</time>
      </trkpt>
      <trkpt lat="44.84939" lon="0.56103">
        <ele>35</ele>
        <time>2014-07-21T09:24:29.000Z</time>
      </trkpt>
      <trkpt lat="44.8494" lon="0.56107">
        <ele>35</ele>
        <time>2014-07-21T09:24:30.000Z</time>
      </trkpt>
      <trkpt lat="44.84941" lon="0.5611">
        <ele>35</ele>
        <time>2014-07-21T09:24:31.000Z</time>
      </trkpt>
      <trkpt lat="44.84942" lon="0.56114">
        <ele>35</ele>
        <time>2014-07-21T09:24:32.000Z</time>
      </trkpt>
      <trkpt lat="44.84943" lon="0.56117">
        <ele>35</ele>
        <time>2014-07-21T09:24:33.000Z</time>
      </trkpt>
      <trkpt lat="44.84944" lon="0.56121">
        <ele>35</ele>
        <time>2014-07-21T09:24:34.000Z</time>
      </trkpt>
      <trkpt lat="44.84945" lon="0.56124">
        <ele>35</ele>
        <time>2014-07-21T09:24:35.000Z</time>
      </trkpt>
      <trkpt lat="44.84946" lon="0.56128">
        <ele>35</ele>
        <time>2014-07-21T09:24:36.000Z</time>
      </trkpt>
      <trkpt lat="44.84947" lon="0.56131">
        <ele>35</ele>
        <time>2014-07-21T09:24:37.000Z</time>
      </trkpt>
      <trkpt lat="44.84948" lon="0.56135">
        <ele>35</ele>
        <time>2014-07-21T09:24:38.000Z</time>
      </trkpt>
      <trkpt lat="44.84949" lon="0.56138">
        <ele>35</ele>
        <time>2014-07-21T09:24:39.000Z</time>
      </trkpt>
      <trkpt lat="44.8495" lon="0.56142">
        <ele>35</ele>
        <time>2014-07-21T09:24:40.000Z</time>
      </trkpt>
      <trkpt lat="44.84951" lon="0.56145">
        <ele>35</ele>
        <time>2014-07-21T09:24:41.000Z</time>
      </trkpt>
      <trkpt lat="44.84952" lon="0.56149">
        <ele>35</ele>
        <time>2014-07-21T09:24:42.000Z</time>
      </trkpt>
      <trkpt lat="44.84953" lon="0.56152">
        <ele>35</ele>
        <time>2014-07-21T09:24:43.000Z</time>
      </trkpt>
      <trkpt lat="44.84954" lon="0.56156">
        <ele>35</ele>
        <time>2014-07-21T09:24:44.000Z</time>
      </trkpt>
      <trkpt lat="44.84955" lon="0.56159">
        <ele>35</ele>
        <time>2014-07-21T09:24:45.000Z</time>
      </trkpt>
      <trkpt lat="44.84956" lon="0.56163">
        <ele>35</ele>
        <time>2014-07-21T09:24:46.000Z</time>
      </trkpt>
      <trkpt lat="44.84957" lon="0.56166">
        <ele>35</ele>
        <time>2014-07-21T09:24:47.000Z</time>
      </trkpt>
      <trkpt lat="44.84958" lon="0.5617">
        <ele>35</ele>
        <time>2014-07-21T09:24:48.000Z</time>
      </trkpt>
      <trkpt lat="44.84959" lon="0.56173">
        <ele>35</ele>
        <time>2014-07-21T09:24:49.000Z</time>
      </trkpt>
      <trkpt lat="44.84961" lon="0.56176">
        <ele>35</ele>
        <time>2014-07-21T09:24:50.000Z</time>
      </trkpt>
      <trkpt lat="44.84962" lon="0.5618">
        <ele>35</ele>
        <time>2014-07-21T09:24:51.000Z</time>
      </trkpt>
      <trkpt lat="44.84963" lon="0.56183">
        <ele>35</ele>
        <time>2014-07-21T09:24:52.000Z</time>
      </trkpt>
      <trkpt lat="44.84964" lon="0.56187">
        <ele>35</ele>
        <time>2014-07-21T09:24:53.000Z</time>
      </trkpt>
      <trkpt lat="44.84965" lon="0.5619">
        <ele>36</ele>
        <time>2014-07-21T09:24:54.000Z</time>
      </trkpt>
      <trkpt lat="44.84966" lon="0.56194">
        <ele>36</ele>
        <time>2014-07-21T09:24:55.000Z</time>
      </trkpt>
      <trkpt lat="44.84968" lon="0.56197">
        <ele>36</ele>
        <time>2014-07-21T09:24:56.000Z</time>
      </trkpt>
      <trkpt lat="44.84969" lon="0.56201">
        <ele>36</ele>
        <time>2014-07-21T09:24:57.000Z</time>
      </trkpt>
      <trkpt lat="44.8497" lon="0.56204">
        <ele>36</ele>
        <time>2014-07-21T09:24:58.000Z</time>
      </trkpt>
      <trkpt lat="44.84971" lon="0.56208">
        <ele>36</ele>
        <time>2014-07-21T09:24:59.000Z</time>
      </trkpt>
      <trkpt lat="44.84973" lon="0.56211">
        <ele>36</ele>
        <time>2014-07-21T09:25:00.000Z</time>
      </trkpt>
      <trkpt lat="44.84974" lon="0.56214">
        <ele>36</ele>
        <time>2014-07-21T09:25:01.000Z</time>
      </trkpt>
      <trkpt lat="44.84975" lon="0.56218">
        <ele>36</ele>
        <time>2014-07-21T09:25:02.000Z</time>
      </trkpt>
      <trkpt lat="44.84976" lon="0.56221">
        <ele>36</ele>
        <time>2014-07-21T09:25:03.000Z</time>
      </trkpt>
      <trkpt lat="44.84978" lon="0.56225">
        <ele>36</ele>
        <time>2014-07-21T09:25:04.000Z</time>
      </trkpt>
      <trkpt lat="44.84979" lon="0.56228">
        <ele>37</ele>
        <time>2014-07-21T09:25:05.000Z</time>
      </trkpt>
      <trkpt lat="44.8498" lon="0.56232">
        <ele>37</ele>
        <time>2014-07-21T09:25:06.000Z</time>
      </trkpt>
      <trkpt lat="44.84981" lon="0.56235">
        <ele>37</ele>
        <time>2014-07-21T09:25:07.000Z</time>
      </trkpt>
      <trkpt lat="44.84983" lon="0.56238">
        <ele>37</ele>
        <time>2014-07-21T09:25:08.000Z</time>
      </trkpt>
      <trkpt lat="44.84984" lon="0.56242">
        <ele>37</ele>
        <time>2014-07-21T09:25:09.000Z</time>
      </trkpt>
      <trkpt lat="44.84985" lon="0.56245">
        <ele>37</ele>
        <time>2014-07-21T09:25:10.000Z</time>
      </trkpt>
      <trkpt lat="44.84987" lon="0.56249">
        <ele>37</ele>
        <time>2014-07-21T09:25:11.000Z</time>
      </trkpt>
      <trkpt lat="44.84988" lon="0.56252">
        <ele>37</ele>
        <time>2014-07-21T09:25:12.000Z</time>
      </trkpt>
      <trkpt lat="44.84989" lon="0.56255">
        <ele>37</ele>
        <time>2014-07-21T09:25:13.000Z</time>
      </trkpt>
      <trkpt lat="44.84991" lon="0.56259">
        <ele>37</ele>
        <time>2014-07-21T09:25:14.000Z</time>
      </trkpt>
      <trkpt lat="44.84992" lon="0.56262">
        <ele>37</ele>
        <time>2014-07-21T09:25:15.000Z</time>
      </trkpt>
      <trkpt lat="44.84993" lon="0.56266">
        <ele>37</ele>
        <time>2014-07-21T09:25:16.000Z</time>
      </trkpt>
      <trkpt lat="44.84994" lon="0.56269">
        <ele>37</ele>
        <time>2014-07-21T09:25:17.000Z</time>
      </trkpt>
      <trkpt lat="44.84996" lon="0.56272">
        <ele>37</ele>
        <time>2014-07-21T09:25:18.000Z</time>
      </trkpt>
      <trkpt lat="44.84997" lon="0.56276">
        <ele>37</ele>
        <time>2014-07-21T09:25:19.000Z</time>
      </trkpt>
      <trkpt lat="44.84998" lon="0.56279">
        <ele>37</ele>
        <time>2014-07-21T09:25:20.000Z</time>
      </trkpt>
      <trkpt lat="44.85" lon="0.56283">
        <ele>37</ele>
        <time>2014-07-21T09:25:21.000Z</time>
      </trkpt>
      <trkpt lat="44.85001" lon="0.56286">
        <ele>37</ele>
        <time>2014-07-21T09:25:22.000Z</time>
      </trkpt>
      <trkpt lat="44.85002" lon="0.56289">
        <ele>37</ele>
        <time>2014-07-21T09:25:23.000Z</time>
      </trkpt>
      <trkpt lat="44.85004" lon="0.56293">
        <ele>37</ele>
        <time>2014-07-21T09:25:24.000Z</time>
      </trkpt>
      <trkpt lat="44.85005" lon="0.56296">
        <ele>37</ele>
        <time>2014-07-21T09:25:25.000Z</time>
      </trkpt>
      <trkpt lat="44.85006" lon="0.563">
        <ele>37</ele>
        <time>2014-07-21T09:25:26.000Z</time>
      </trkpt>
      <trkpt lat="44.85008" lon="0.56303">
        <ele>37</ele>
        <time>2014-07-21T09:25:27.000Z</time>
      </trkpt>
      <trkpt lat="44.85009" lon="0.56306">
        <ele>37</ele>
        <time>2014-07-21T09:25:28.000Z</time>
      </trkpt>
      <trkpt lat="44.8501" lon="0.5631">
        <ele>37</ele>
        <time>2014-07-21T09:25:29.000Z</time>
      </trkpt>
      <trkpt lat="44.85012" lon="0.56313">
        <ele>37</ele>
        <time>2014-07-21T09:25:30.000Z</time>
      </trkpt>
      <trkpt lat="44.85013" lon="0.56317">
        <ele>37</ele>
        <time>2014-07-21T09:25:31.000Z</time>
      </trkpt>
      <trkpt lat="44.85014" lon="0.5632">
        <ele>36</ele>
        <time>2014-07-21T09:25:32.000Z</time>
      </trkpt>
      <trkpt lat="44.85015" lon="0.56323">
        <ele>36</ele>
        <time>2014-07-21T09:25:33.000Z</time>
      </trkpt>
      <trkpt lat="44.85017" lon="0.56327">
        <ele>36</ele>
        <time>2014-07-21T09:25:34.000Z</time>
      </trkpt>
      <trkpt lat="44.85018" lon="0.5633">
        <ele>36</ele>
        <time>2014-07-21T09:25:35.000Z</time>
      </trkpt>
      <trkpt lat="44.85019" lon="0.56333">
        <ele>36</ele>
        <time>2014-07-21T09:25:36.000Z</time>
      </trkpt>
      <trkpt lat="44.85021" lon="0.56337">
        <ele>36</ele>
        <time>2014-07-21T09:25:37.000Z</time>
      </trkpt>
      <trkpt lat="44.85022" lon="0.5634">
        <ele>36</ele>
        <time>2014-07-21T09:25:38.000Z</time>
      </trkpt>
      <trkpt lat="44.85023" lon="0.56343">
        <ele>36</ele>
        <time>2014-07-21T09:25:39.000Z</time>
      </trkpt>
      <trkpt lat="44.85025" lon="0.56347">
        <ele>36</ele>
        <time>2014-07-21T09:25:40.000Z</time>
      </trkpt>
      <trkpt lat="44.85026" lon="0.5635">
        <ele>36</ele>
        <time>2014-07-21T09:25:41.000Z</time>
      </trkpt>
      <trkpt lat="44.85027" lon="0.56354">
        <ele>36</ele>
        <time>2014-07-21T09:25:42.000Z</time>
      </trkpt>
      <trkpt lat="44.85028" lon="0.56357">
        <ele>36</ele>
        <time>2014-07-21T09:25:43.000Z</time>
      </trkpt>
      <trkpt lat="44.8503" lon="0.5636">
        <ele>36</ele>
        <time>2014-07-21T09:25:44.000Z</time>
      </trkpt>
      <trkpt lat="44.85031" lon="0.56364">
        <ele>36</ele>
        <time>2014-07-21T09:25:45.000Z</time>
      </trkpt>
      <trkpt lat="44.85032" lon="0.56367">
        <ele>36</ele>
        <time>2014-07-21T09:25:46.000Z</time>
      </trkpt>
      <trkpt lat="44.85034" lon="0.56371">
        <ele>36</ele>
        <time>2014-07-21T09:25:47.000Z</time>
      </trkpt>
      <trkpt lat="44.85035" lon="0.56374">
        <ele>36</ele>
        <time>2014-07-21T09:25:48.000Z</time>
      </trkpt>
      <trkpt lat="44.85036" lon="0.56377">
        <ele>36</ele>
        <time>2014-07-21T09:25:49.000Z</time>
      </trkpt>
      <trkpt lat="44.85038" lon="0.56381">
        <ele>36</ele>
        <time>2014-07-21T09:25:50.000Z</time>
      </trkpt>
      <trkpt lat="44.85039" lon="0.56384">
        <ele>36</ele>
        <time>2014-07-21T09:25:51.000Z</time>
      </trkpt>
      <trkpt lat="44.8504" lon="0.56387">
        <ele>36</ele>
        <time>2014-07-21T09:25:52.000Z</time>
      </trkpt>
      <trkpt lat="44.85042" lon="0.56391">
        <ele>36</ele>
        <time>2014-07-21T09:25:53.000Z</time>
      </trkpt>
      <trkpt lat="44.85043" lon="0.56394">
        <ele>36</ele>
        <time>2014-07-21T09:25:54.000Z</time>
      </trkpt>
      <trkpt lat="44.85044" lon="0.56398">
        <ele>36</ele>
        <time>2014-07-21T09:25:55.000Z</time>
      </trkpt>
      <trkpt lat="44.85046" lon="0.56401">
        <ele>36</ele>
        <time>2014-07-21T09:25:56.000Z</time>
      </trkpt>
      <trkpt lat="44.85047" lon="0.56404">
        <ele>36</ele>
        <time>2014-07-21T09:25:57.000Z</time>
      </trkpt>
      <trkpt lat="44.85048" lon="0.56408">
        <ele>36</ele>
        <time>2014-07-21T09:25:58.000Z</time>
      </trkpt>
      <trkpt lat="44.85049" lon="0.56411">
        <ele>36</ele>
        <time>2014-07-21T09:25:59.000Z</time>
      </trkpt>
      <trkpt lat="44.85051" lon="0.56415">
        <ele>36</ele>
        <time>2014-07-21T09:26:00.000Z</time>
      </trkpt>
      <trkpt lat="44.85052" lon="0.56418">
        <ele>36</ele>
        <time>2014-07-21T09:26:01.000Z</time>
      </trkpt>
      <trkpt lat="44.85053" lon="0.56421">
        <ele>36</ele>
        <time>2014-07-21T09:26:02.000Z</time>
      </trkpt>
      <trkpt lat="44.85055" lon="0.56425">
        <ele>36</ele>
        <time>2014-07-21T09:26:03.000Z</time>
      </trkpt>
      <trkpt lat="44.85056" lon="0.56428">
        <ele>36</ele>
        <time>2014-07-21T09:26:04.000Z</time>
      </trkpt>
      <trkpt lat="44.85057" lon="0.56432">
        <ele>36</ele>
        <time>2014-07-21T09:26:05.000Z</time>
      </trkpt>
      <trkpt lat="44.85059" lon="0.56435">
        <ele>36</ele>
        <time>2014-07-21T09:26:06.000Z</time>
      </trkpt>
      <trkpt lat="44.8506" lon="0.56438">
        <ele>35</ele>
        <time>2014-07-21T09:26:07.000Z</time>
      </trkpt>
      <trkpt lat="44.85061" lon="0.56442">
        <ele>35</ele>
        <time>2014-07-21T09:26:08.000Z</time>
      </trkpt>
      <trkpt lat="44.85063" lon="0.56445">
        <ele>35</ele>
        <time>2014-07-21T09:26:09.000Z</time>
      </trkpt>
      <trkpt lat="44.85064" lon="0.56448">
        <ele>35</ele>
        <time>2014-07-21T09:26:10.000Z</time>
      </trkpt>
      <trkpt lat="44.85065" lon="0.56452">
        <ele>35</ele>
        <time>2014-07-21T09:26:11.000Z</time>
      </trkpt>
      <trkpt lat="44.85067" lon="0.56455">
        <ele>35</ele>
        <time>2014-07-21T09:26:12.000Z</time>
      </trkpt>
      <trkpt lat="44.85068" lon="0.56459">
        <ele>35</ele>
        <time>2014-07-21T09:26:13.000Z</time>
      </trkpt>
      <trkpt lat="44.85069" lon="0.56462">
        <ele>35</ele>
        <time>2014-07-21T09:26:14.000Z</time>
      </trkpt>
      <trkpt lat="44.8507" lon="0.56465">
        <ele>35</ele>
        <time>2014-07-21T09:26:15.000Z</time>
      </trkpt>
      <trkpt lat="44.85072" lon="0.56469">
        <ele>35</ele>
        <time>2014-07-21T09:26:16.000Z</time>
      </trkpt>
      <trkpt lat="44.85073" lon="0.56472">
        <ele>35</ele>
        <time>2014-07-21T09:26:17.000Z</time>
      </trkpt>
      <trkpt lat="44.85074" lon="0.56475">
        <ele>35</ele>
        <time>2014-07-21T09:26:18.000Z</time>
      </trkpt>
      <trkpt lat="44.85076" lon="0.56479">
        <ele>35</ele>
        <time>2014-07-21T09:26:19.000Z</time>
      </trkpt>
      <trkpt lat="44.85077" lon="0.56482">
        <ele>35</ele>
        <time>2014-07-21T09:26:20.000Z</time>
      </trkpt>
      <trkpt lat="44.85078" lon="0.56485">
        <ele>35</ele>
        <time>2014-07-21T09:26:21.000Z</time>
      </trkpt>
      <trkpt lat="44.85079" lon="0.56489">
        <ele>35</ele>
        <time>2014-07-21T09:26:22.000Z</time>
      </trkpt>
      <trkpt lat="44.85081" lon="0.56492">
        <ele>35</ele>
        <time>2014-07-21T09:26:23.000Z</time>
      </trkpt>
      <trkpt lat="44.85082" lon="0.56496">
        <ele>35</ele>
        <time>2014-07-21T09:26:24.000Z</time>
      </trkpt>
      <trkpt lat="44.85083" lon="0.56499">
        <ele>35</ele>
        <time>2014-07-21T09:26:25.000Z</time>
      </trkpt>
      <trkpt lat="44.85085" lon="0.56502">
        <ele>35</ele>
        <time>2014-07-21T09:26:26.000Z</time>
      </trkpt>
      <trkpt lat="44.85086" lon="0.56506">
        <ele>35</ele>
        <time>2014-07-21T09:26:27.000Z</time>
      </trkpt>
      <trkpt lat="44.85087" lon="0.56509">
        <ele>35</ele>
        <time>2014-07-21T09:26:28.000Z</time>
      </trkpt>
      <trkpt lat="44.85088" lon="0.56512">
        <ele>35</ele>
        <time>2014-07-21T09:26:29.000Z</time>
      </trkpt>
      <trkpt lat="44.8509" lon="0.56516">
        <ele>35</ele>
        <time>2014-07-21T09:26:30.000Z</time>
      </trkpt>
      <trkpt lat="44.85091" lon="0.56519">
        <ele>35</ele>
        <time>2014-07-21T09:26:31.000Z</time>
      </trkpt>
      <trkpt lat="44.85092" lon="0.56523">
        <ele>35</ele>
        <time>2014-07-21T09:26:32.000Z</time>
      </trkpt>
      <trkpt lat="44.85094" lon="0.56526">
        <ele>35</ele>
        <time>2014-07-21T09:26:33.000Z</time>
      </trkpt>
      <trkpt lat="44.85095" lon="0.56529">
        <ele>35</ele>
        <time>2014-07-21T09:26:34.000Z</time>
      </trkpt>
      <trkpt lat="44.85096" lon="0.56533">
        <ele>35</ele>
        <time>2014-07-21T09:26:35.000Z</time>
      </trkpt>
      <trkpt lat="44.85098" lon="0.56536">
        <ele>35</ele>
        <time>2014-07-21T09:26:36.000Z</time>
      </trkpt>
      <trkpt lat="44.85099" lon="0.5654">
        <ele>35</ele>
        <time>2014-07-21T09:26:37.000Z</time>
      </trkpt>
      <trkpt lat="44.851" lon="0.56543">
        <ele>35</ele>
        <time>2014-07-21T09:26:38.000Z</time>
      </trkpt>
      <trkpt lat="44.85101" lon="0.56547">
        <ele>35</ele>
        <time>2014-07-21T09:26:39.000Z</time>
      </trkpt>
      <trkpt lat="44.85103" lon="0.5655">
        <ele>35</ele>
        <time>2014-07-21T09:26:40.000Z</time>
      </trkpt>
      <trkpt lat="44.85104" lon="0.56553">
        <ele>35</ele>
        <time>2014-07-21T09:26:41.000Z</time>
      </trkpt>
      <trkpt lat="44.85105" lon="0.56557">
        <ele>35</ele>
        <time>2014-07-21T09:26:42.000Z</time>
      </trkpt>
      <trkpt lat="44.85107" lon="0.5656">
        <ele>36</ele>
        <time>2014-07-21T09:26:43.000Z</time>
      </trkpt>
      <trkpt lat="44.85108" lon="0.56564">
        <ele>36</ele>
        <time>2014-07-21T09:26:44.000Z</time>
      </trkpt>
      <trkpt lat="44.85109" lon="0.56567">
        <ele>36</ele>
        <time>2014-07-21T09:26:45.000Z</time>
      </trkpt>
      <trkpt lat="44.8511" lon="0.56571">
        <ele>36</ele>
        <time>2014-07-21T09:26:46.000Z</time>
      </trkpt>
      <trkpt lat="44.85112" lon="0.56574">
        <ele>36</ele>
        <time>2014-07-21T09:26:47.000Z</time>
      </trkpt>
      <trkpt lat="44.85113" lon="0.56577">
        <ele>36</ele>
        <time>2014-07-21T09:26:48.000Z</time>
      </trkpt>
      <trkpt lat="44.85114" lon="0.56581">
        <ele>36</ele>
        <time>2014-07-21T09:26:49.000Z</time>
      </trkpt>
      <trkpt lat="44.85115" lon="0.56584">
        <ele>36</ele>
        <time>2014-07-21T09:26:50.000Z</time>
      </trkpt>
      <trkpt lat="44.85116" lon="0.56588">
        <ele>36</ele>
        <time>2014-07-21T09:26:51.000Z</time>
      </trkpt>
      <trkpt lat="44.85117" lon="0.56591">
        <ele>36</ele>
        <time>2014-07-21T09:26:52.000Z</time>
      </trkpt>
      <trkpt lat="44.85119" lon="0.56594">
        <ele>36</ele>
        <time>2014-07-21T09:26:53.000Z</time>
      </trkpt>
      <trkpt lat="44.8512" lon="0.56598">
        <ele>36</ele>
        <time>2014-07-21T09:26:54.000Z</time>
      </trkpt>
      <trkpt lat="44.85121" lon="0.56601">
        <ele>36</ele>
        <time>2014-07-21T09:26:55.000Z</time>
      </trkpt>
      <trkpt lat="44.85122" lon="0.56605">
        <ele>36</ele>
        <time>2014-07-21T09:26:56.000Z</time>
      </trkpt>
      <trkpt lat="44.85123" lon="0.56608">
        <ele>36</ele>
        <time>2014-07-21T09:26:57.000Z</time>
      </trkpt>
      <trkpt lat="44.85124" lon="0.56611">
        <ele>35</ele>
        <time>2014-07-21T09:26:58.000Z</time>
      </trkpt>
      <trkpt lat="44.85125" lon="0.56615">
        <ele>35</ele>
        <time>2014-07-21T09:26:59.000Z</time>
      </trkpt>
      <trkpt lat="44.85126" lon="0.56618">
        <ele>35</ele>
        <time>2014-07-21T09:27:00.000Z</time>
      </trkpt>
      <trkpt lat="44.85127" lon="0.56621">
        <ele>35</ele>
        <time>2014-07-21T09:27:01.000Z</time>
      </trkpt>
      <trkpt lat="44.85128" lon="0.56625">
        <ele>35</ele>
        <time>2014-07-21T09:27:02.000Z</time>
      </trkpt>
      <trkpt lat="44.85128" lon="0.56628">
        <ele>35</ele>
        <time>2014-07-21T09:27:03.000Z</time>
      </trkpt>
      <trkpt lat="44.85129" lon="0.56632">
        <ele>35</ele>
        <time>2014-07-21T09:27:04.000Z</time>
      </trkpt>
      <trkpt lat="44.8513" lon="0.56635">
        <ele>35</ele>
        <time>2014-07-21T09:27:05.000Z</time>
      </trkpt>
      <trkpt lat="44.85131" lon="0.56639">
        <ele>35</ele>
        <time>2014-07-21T09:27:06.000Z</time>
      </trkpt>
      <trkpt lat="44.85132" lon="0.56642">
        <ele>35</ele>
        <time>2014-07-21T09:27:07.000Z</time>
      </trkpt>
      <trkpt lat="44.85133" lon="0.56646">
        <ele>35</ele>
        <time>2014-07-21T09:27:08.000Z</time>
      </trkpt>
      <trkpt lat="44.85134" lon="0.56649">
        <ele>35</ele>
        <time>2014-07-21T09:27:09.000Z</time>
      </trkpt>
      <trkpt lat="44.85135" lon="0.56653">
        <ele>35</ele>
        <time>2014-07-21T09:27:10.000Z</time>
      </trkpt>
      <trkpt lat="44.85136" lon="0.56656">
        <ele>35</ele>
        <time>2014-07-21T09:27:11.000Z</time>
      </trkpt>
      <trkpt lat="44.85137" lon="0.5666">
        <ele>35</ele>
        <time>2014-07-21T09:27:12.000Z</time>
      </trkpt>
      <trkpt lat="44.85137" lon="0.56664">
        <ele>35</ele>
        <time>2014-07-21T09:27:13.000Z</time>
      </trkpt>
      <trkpt lat="44.85138" lon="0.56668">
        <ele>35</ele>
        <time>2014-07-21T09:27:14.000Z</time>
      </trkpt>
      <trkpt lat="44.85139" lon="0.56671">
        <ele>35</ele>
        <time>2014-07-21T09:27:15.000Z</time>
      </trkpt>
      <trkpt lat="44.8514" lon="0.56675">
        <ele>35</ele>
        <time>2014-07-21T09:27:16.000Z</time>
      </trkpt>
      <trkpt lat="44.85141" lon="0.56679">
        <ele>35</ele>
        <time>2014-07-21T09:27:17.000Z</time>
      </trkpt>
      <trkpt lat="44.85142" lon="0.56683">
        <ele>35</ele>
        <time>2014-07-21T09:27:18.000Z</time>
      </trkpt>
      <trkpt lat="44.85143" lon="0.56687">
        <ele>35</ele>
        <time>2014-07-21T09:27:19.000Z</time>
      </trkpt>
      <trkpt lat="44.85144" lon="0.56691">
        <ele>35</ele>
        <time>2014-07-21T09:27:20.000Z</time>
      </trkpt>
      <trkpt lat="44.85145" lon="0.56695">
        <ele>35</ele>
        <time>2014-07-21T09:27:21.000Z</time>
      </trkpt>
      <trkpt lat="44.85146" lon="0.56699">
        <ele>35</ele>
        <time>2014-07-21T09:27:22.000Z</time>
      </trkpt>
      <trkpt lat="44.85147" lon="0.56703">
        <ele>35</ele>
        <time>2014-07-21T09:27:23.000Z</time>
      </trkpt>
      <trkpt lat="44.85147" lon="0.56707">
        <ele>35</ele>
        <time>2014-07-21T09:27:24.000Z</time>
      </trkpt>
      <trkpt lat="44.85148" lon="0.56711">
        <ele>35</ele>
        <time>2014-07-21T09:27:25.000Z</time>
      </trkpt>
      <trkpt lat="44.85149" lon="0.56714">
        <ele>35</ele>
        <time>2014-07-21T09:27:26.000Z</time>
      </trkpt>
      <trkpt lat="44.85149" lon="0.56718">
        <ele>35</ele>
        <time>2014-07-21T09:27:27.000Z</time>
      </trkpt>
      <trkpt lat="44.8515" lon="0.56722">
        <ele>35</ele>
        <time>2014-07-21T09:27:28.000Z</time>
      </trkpt>
      <trkpt lat="44.85151" lon="0.56726">
        <ele>35</ele>
        <time>2014-07-21T09:27:29.000Z</time>
      </trkpt>
      <trkpt lat="44.85151" lon="0.5673">
        <ele>35</ele>
        <time>2014-07-21T09:27:30.000Z</time>
      </trkpt>
      <trkpt lat="44.85152" lon="0.56734">
        <ele>35</ele>
        <time>2014-07-21T09:27:31.000Z</time>
      </trkpt>
      <trkpt lat="44.85153" lon="0.56738">
        <ele>35</ele>
        <time>2014-07-21T09:27:32.000Z</time>
      </trkpt>
      <trkpt lat="44.85154" lon="0.56741">
        <ele>35</ele>
        <time>2014-07-21T09:27:33.000Z</time>
      </trkpt>
      <trkpt lat="44.85155" lon="0.56745">
        <ele>35</ele>
        <time>2014-07-21T09:27:34.000Z</time>
      </trkpt>
      <trkpt lat="44.85156" lon="0.56749">
        <ele>35</ele>
        <time>2014-07-21T09:27:35.000Z</time>
      </trkpt>
      <trkpt lat="44.85157" lon="0.56752">
        <ele>35</ele>
        <time>2014-07-21T09:27:36.000Z</time>
      </trkpt>
      <trkpt lat="44.85158" lon="0.56756">
        <ele>35</ele>
        <time>2014-07-21T09:27:37.000Z</time>
      </trkpt>
      <trkpt lat="44.85159" lon="0.5676">
        <ele>35</ele>
        <time>2014-07-21T09:27:38.000Z</time>
      </trkpt>
      <trkpt lat="44.8516" lon="0.56763">
        <ele>35</ele>
        <time>2014-07-21T09:27:39.000Z</time>
      </trkpt>
      <trkpt lat="44.85161" lon="0.56767">
        <ele>35</ele>
        <time>2014-07-21T09:27:40.000Z</time>
      </trkpt>
      <trkpt lat="44.85162" lon="0.56771">
        <ele>35</ele>
        <time>2014-07-21T09:27:41.000Z</time>
      </trkpt>
      <trkpt lat="44.85163" lon="0.56774">
        <ele>35</ele>
        <time>2014-07-21T09:27:42.000Z</time>
      </trkpt>
      <trkpt lat="44.85164" lon="0.56778">
        <ele>35</ele>
        <time>2014-07-21T09:27:43.000Z</time>
      </trkpt>
      <trkpt lat="44.85165" lon="0.56782">
        <ele>35</ele>
        <time>2014-07-21T09:27:44.000Z</time>
      </trkpt>
      <trkpt lat="44.85166" lon="0.56786">
        <ele>35</ele>
        <time>2014-07-21T09:27:45.000Z</time>
      </trkpt>
      <trkpt lat="44.85167" lon="0.56789">
        <ele>35</ele>
        <time>2014-07-21T09:27:46.000Z</time>
      </trkpt>
      <trkpt lat="44.85168" lon="0.56793">
        <ele>35</ele>
        <time>2014-07-21T09:27:47.000Z</time>
      </trkpt>
      <trkpt lat="44.85169" lon="0.56797">
        <ele>35</ele>
        <time>2014-07-21T09:27:48.000Z</time>
      </trkpt>
      <trkpt lat="44.8517" lon="0.568">
        <ele>35</ele>
        <time>2014-07-21T09:27:49.000Z</time>
      </trkpt>
      <trkpt lat="44.85171" lon="0.56804">
        <ele>35</ele>
        <time>2014-07-21T09:27:50.000Z</time>
      </trkpt>
      <trkpt lat="44.85172" lon="0.56808">
        <ele>35</ele>
        <time>2014-07-21T09:27:51.000Z</time>
      </trkpt>
      <trkpt lat="44.85173" lon="0.56811">
        <ele>35</ele>
        <time>2014-07-21T09:27:52.000Z</time>
      </trkpt>
      <trkpt lat="44.85174" lon="0.56815">
        <ele>35</ele>
        <time>2014-07-21T09:27:53.000Z</time>
      </trkpt>
      <trkpt lat="44.85175" lon="0.56819">
        <ele>35</ele>
        <time>2014-07-21T09:27:54.000Z</time>
      </trkpt>
      <trkpt lat="44.85176" lon="0.56822">
        <ele>35</ele>
        <time>2014-07-21T09:27:55.000Z</time>
      </trkpt>
      <trkpt lat="44.85177" lon="0.56826">
        <ele>35</ele>
        <time>2014-07-21T09:27:56.000Z</time>
      </trkpt>
      <trkpt lat="44.85177" lon="0.5683">
        <ele>35</ele>
        <time>2014-07-21T09:27:57.000Z</time>
      </trkpt>
      <trkpt lat="44.85178" lon="0.56834">
        <ele>35</ele>
        <time>2014-07-21T09:27:58.000Z</time>
      </trkpt>
      <trkpt lat="44.85179" lon="0.56837">
        <ele>35</ele>
        <time>2014-07-21T09:27:59.000Z</time>
      </trkpt>
      <trkpt lat="44.8518" lon="0.56841">
        <ele>35</ele>
        <time>2014-07-21T09:28:00.000Z</time>
      </trkpt>
      <trkpt lat="44.85181" lon="0.56845">
        <ele>35</ele>
        <time>2014-07-21T09:28:01.000Z</time>
      </trkpt>
      <trkpt lat="44.85182" lon="0.56849">
        <ele>35</ele>
        <time>2014-07-21T09:28:02.000Z</time>
      </trkpt>
      <trkpt lat="44.85183" lon="0.56852">
        <ele>35</ele>
        <time>2014-07-21T09:28:03.000Z</time>
      </trkpt>
      <trkpt lat="44.85184" lon="0.56856">
        <ele>35</ele>
        <time>2014-07-21T09:28:04.000Z</time>
      </trkpt>
      <trkpt lat="44.85184" lon="0.5686">
        <ele>35</ele>
        <time>2014-07-21T09:28:05.000Z</time>
      </trkpt>
      <trkpt lat="44.85185" lon="0.56864">
        <ele>35</ele>
        <time>2014-07-21T09:28:06.000Z</time>
      </trkpt>
      <trkpt lat="44.85186" lon="0.56868">
        <ele>35</ele>
        <time>2014-07-21T09:28:07.000Z</time>
      </trkpt>
      <trkpt lat="44.85187" lon="0.56871">
        <ele>35</ele>
        <time>2014-07-21T09:28:08.000Z</time>
      </trkpt>
      <trkpt lat="44.85188" lon="0.56875">
        <ele>35</ele>
        <time>2014-07-21T09:28:09.000Z</time>
      </trkpt>
      <trkpt lat="44.85188" lon="0.56879">
        <ele>35</ele>
        <time>2014-07-21T09:28:10.000Z</time>
      </trkpt>
      <trkpt lat="44.85189" lon="0.56883">
        <ele>35</ele>
        <time>2014-07-21T09:28:11.000Z</time>
      </trkpt>
      <trkpt lat="44.8519" lon="0.56887">
        <ele>35</ele>
        <time>2014-07-21T09:28:12.000Z</time>
      </trkpt>
      <trkpt lat="44.85191" lon="0.5689">
        <ele>35</ele>
        <time>2014-07-21T09:28:13.000Z</time>
      </trkpt>
      <trkpt lat="44.85191" lon="0.56894">
        <ele>35</ele>
        <time>2014-07-21T09:28:14.000Z</time>
      </trkpt>
      <trkpt lat="44.85192" lon="0.56898">
        <ele>35</ele>
        <time>2014-07-21T09:28:15.000Z</time>
      </trkpt>
      <trkpt lat="44.85192" lon="0.56902">
        <ele>35</ele>
        <time>2014-07-21T09:28:16.000Z</time>
      </trkpt>
      <trkpt lat="44.85193" lon="0.56906">
        <ele>35</ele>
        <time>2014-07-21T09:28:17.000Z</time>
      </trkpt>
      <trkpt lat="44.85194" lon="0.56909">
        <ele>35</ele>
        <time>2014-07-21T09:28:18.000Z</time>
      </trkpt>
      <trkpt lat="44.85194" lon="0.56913">
        <ele>35</ele>
        <time>2014-07-21T09:28:19.000Z</time>
      </trkpt>
      <trkpt lat="44.85195" lon="0.56917">
        <ele>36</ele>
        <time>2014-07-21T09:28:20.000Z</time>
      </trkpt>
      <trkpt lat="44.85195" lon="0.56921">
        <ele>36</ele>
        <time>2014-07-21T09:28:21.000Z</time>
      </trkpt>
      <trkpt lat="44.85196" lon="0.56925">
        <ele>36</ele>
        <time>2014-07-21T09:28:22.000Z</time>
      </trkpt>
      <trkpt lat="44.85196" lon="0.56928">
        <ele>36</ele>
        <time>2014-07-21T09:28:23.000Z</time>
      </trkpt>
      <trkpt lat="44.85197" lon="0.56932">
        <ele>36</ele>
        <time>2014-07-21T09:28:24.000Z</time>
      </trkpt>
      <trkpt lat="44.85197" lon="0.56936">
        <ele>36</ele>
        <time>2014-07-21T09:28:25.000Z</time>
      </trkpt>
      <trkpt lat="44.85197" lon="0.56939">
        <ele>35</ele>
        <time>2014-07-21T09:28:26.000Z</time>
      </trkpt>
      <trkpt lat="44.85198" lon="0.56943">
        <ele>35</ele>
        <time>2014-07-21T09:28:27.000Z</time>
      </trkpt>
      <trkpt lat="44.85198" lon="0.56947">
        <ele>35</ele>
        <time>2014-07-21T09:28:28.000Z</time>
      </trkpt>
      <trkpt lat="44.85198" lon="0.5695">
        <ele>35</ele>
        <time>2014-07-21T09:28:29.000Z</time>
      </trkpt>
      <trkpt lat="44.85198" lon="0.56954">
        <ele>35</ele>
        <time>2014-07-21T09:28:30.000Z</time>
      </trkpt>
      <trkpt lat="44.85198" lon="0.56958">
        <ele>35</ele>
        <time>2014-07-21T09:28:31.000Z</time>
      </trkpt>
      <trkpt lat="44.85199" lon="0.56961">
        <ele>35</ele>
        <time>2014-07-21T09:28:32.000Z</time>
      </trkpt>
      <trkpt lat="44.85199" lon="0.56965">
        <ele>35</ele>
        <time>2014-07-21T09:28:33.000Z</time>
      </trkpt>
      <trkpt lat="44.85199" lon="0.56969">
        <ele>35</ele>
        <time>2014-07-21T09:28:34.000Z</time>
      </trkpt>
      <trkpt lat="44.85199" lon="0.56972">
        <ele>35</ele>
        <time>2014-07-21T09:28:35.000Z</time>
      </trkpt>
      <trkpt lat="44.85199" lon="0.56976">
        <ele>35</ele>
        <time>2014-07-21T09:28:36.000Z</time>
      </trkpt>
      <trkpt lat="44.85199" lon="0.5698">
        <ele>35</ele>
        <time>2014-07-21T09:28:37.000Z</time>
      </trkpt>
      <trkpt lat="44.85198" lon="0.56983">
        <ele>35</ele>
        <time>2014-07-21T09:28:38.000Z</time>
      </trkpt>
      <trkpt lat="44.85198" lon="0.56987">
        <ele>35</ele>
        <time>2014-07-21T09:28:39.000Z</time>
      </trkpt>
      <trkpt lat="44.85198" lon="0.56991">
        <ele>35</ele>
        <time>2014-07-21T09:28:40.000Z</time>
      </trkpt>
      <trkpt lat="44.85198" lon="0.56994">
        <ele>35</ele>
        <time>2014-07-21T09:28:41.000Z</time>
      </trkpt>
      <trkpt lat="44.85198" lon="0.56998">
        <ele>35</ele>
        <time>2014-07-21T09:28:42.000Z</time>
      </trkpt>
      <trkpt lat="44.85198" lon="0.57002">
        <ele>35</ele>
        <time>2014-07-21T09:28:43.000Z</time>
      </trkpt>
      <trkpt lat="44.85197" lon="0.57005">
        <ele>35</ele>
        <time>2014-07-21T09:28:44.000Z</time>
      </trkpt>
      <trkpt lat="44.85197" lon="0.57009">
        <ele>35</ele>
        <time>2014-07-21T09:28:45.000Z</time>
      </trkpt>
      <trkpt lat="44.85197" lon="0.57013">
        <ele>35</ele>
        <time>2014-07-21T09:28:46.000Z</time>
      </trkpt>
      <trkpt lat="44.85197" lon="0.57017">
        <ele>35</ele>
        <time>2014-07-21T09:28:47.000Z</time>
      </trkpt>
      <trkpt lat="44.85197" lon="0.57021">
        <ele>35</ele>
        <time>2014-07-21T09:28:48.000Z</time>
      </trkpt>
      <trkpt lat="44.85196" lon="0.57024">
        <ele>35</ele>
        <time>2014-07-21T09:28:49.000Z</time>
      </trkpt>
      <trkpt lat="44.85196" lon="0.57028">
        <ele>35</ele>
        <time>2014-07-21T09:28:50.000Z</time>
      </trkpt>
      <trkpt lat="44.85196" lon="0.57032">
        <ele>35</ele>
        <time>2014-07-21T09:28:51.000Z</time>
      </trkpt>
      <trkpt lat="44.85196" lon="0.57036">
        <ele>35</ele>
        <time>2014-07-21T09:28:52.000Z</time>
      </trkpt>
      <trkpt lat="44.85196" lon="0.5704">
        <ele>36</ele>
        <time>2014-07-21T09:28:53.000Z</time>
      </trkpt>
      <trkpt lat="44.85196" lon="0.57044">
        <ele>36</ele>
        <time>2014-07-21T09:28:54.000Z</time>
      </trkpt>
      <trkpt lat="44.85196" lon="0.57048">
        <ele>36</ele>
        <time>2014-07-21T09:28:55.000Z</time>
      </trkpt>
      <trkpt lat="44.85195" lon="0.57052">
        <ele>36</ele>
        <time>2014-07-21T09:28:56.000Z</time>
      </trkpt>
      <trkpt lat="44.85195" lon="0.57056">
        <ele>36</ele>
        <time>2014-07-21T09:28:57.000Z</time>
      </trkpt>
      <trkpt lat="44.85195" lon="0.5706">
        <ele>36</ele>
        <time>2014-07-21T09:28:58.000Z</time>
      </trkpt>
      <trkpt lat="44.85195" lon="0.57063">
        <ele>36</ele>
        <time>2014-07-21T09:28:59.000Z</time>
      </trkpt>
      <trkpt lat="44.85195" lon="0.57067">
        <ele>36</ele>
        <time>2014-07-21T09:29:00.000Z</time>
      </trkpt>
      <trkpt lat="44.85195" lon="0.57071">
        <ele>36</ele>
        <time>2014-07-21T09:29:01.000Z</time>
      </trkpt>
      <trkpt lat="44.85195" lon="0.57075">
        <ele>36</ele>
        <time>2014-07-21T09:29:02.000Z</time>
      </trkpt>
      <trkpt lat="44.85195" lon="0.57079">
        <ele>36</ele>
        <time>2014-07-21T09:29:03.000Z</time>
      </trkpt>
      <trkpt lat="44.85195" lon="0.57083">
        <ele>36</ele>
        <time>2014-07-21T09:29:04.000Z</time>
      </trkpt>
      <trkpt lat="44.85195" lon="0.57087">
        <ele>36</ele>
        <time>2014-07-21T09:29:05.000Z</time>
      </trkpt>
      <trkpt lat="44.85194" lon="0.57091">
        <ele>36</ele>
        <time>2014-07-21T09:29:06.000Z</time>
      </trkpt>
      <trkpt lat="44.85194" lon="0.57095">
        <ele>36</ele>
        <time>2014-07-21T09:29:07.000Z</time>
      </trkpt>
      <trkpt lat="44.85194" lon="0.57099">
        <ele>36</ele>
        <time>2014-07-21T09:29:08.000Z</time>
      </trkpt>
      <trkpt lat="44.85194" lon="0.57103">
        <ele>36</ele>
        <time>2014-07-21T09:29:09.000Z</time>
      </trkpt>
      <trkpt lat="44.85194" lon="0.57107">
        <ele>36</ele>
        <time>2014-07-21T09:29:10.000Z</time>
      </trkpt>
      <trkpt lat="44.85194" lon="0.57111">
        <ele>36</ele>
        <time>2014-07-21T09:29:11.000Z</time>
      </trkpt>
      <trkpt lat="44.85194" lon="0.57114">
        <ele>36</ele>
        <time>2014-07-21T09:29:12.000Z</time>
      </trkpt>
      <trkpt lat="44.85194" lon="0.57118">
        <ele>36</ele>
        <time>2014-07-21T09:29:13.000Z</time>
      </trkpt>
      <trkpt lat="44.85194" lon="0.57122">
        <ele>36</ele>
        <time>2014-07-21T09:29:14.000Z</time>
      </trkpt>
      <trkpt lat="44.85194" lon="0.57126">
        <ele>36</ele>
        <time>2014-07-21T09:29:15.000Z</time>
      </trkpt>
      <trkpt lat="44.85194" lon="0.5713">
        <ele>36</ele>
        <time>2014-07-21T09:29:16.000Z</time>
      </trkpt>
      <trkpt lat="44.85194" lon="0.57134">
        <ele>36</ele>
        <time>2014-07-21T09:29:17.000Z</time>
      </trkpt>
      <trkpt lat="44.85194" lon="0.57138">
        <ele>36</ele>
        <time>2014-07-21T09:29:18.000Z</time>
      </trkpt>
      <trkpt lat="44.85194" lon="0.57142">
        <ele>36</ele>
        <time>2014-07-21T09:29:19.000Z</time>
      </trkpt>
      <trkpt lat="44.85194" lon="0.57145">
        <ele>36</ele>
        <time>2014-07-21T09:29:20.000Z</time>
      </trkpt>
      <trkpt lat="44.85194" lon="0.57149">
        <ele>36</ele>
        <time>2014-07-21T09:29:21.000Z</time>
      </trkpt>
      <trkpt lat="44.85194" lon="0.57153">
        <ele>36</ele>
        <time>2014-07-21T09:29:22.000Z</time>
      </trkpt>
      <trkpt lat="44.85194" lon="0.57157">
        <ele>36</ele>
        <time>2014-07-21T09:29:23.000Z</time>
      </trkpt>
      <trkpt lat="44.85194" lon="0.57161">
        <ele>36</ele>
        <time>2014-07-21T09:29:24.000Z</time>
      </trkpt>
      <trkpt lat="44.85193" lon="0.57164">
        <ele>36</ele>
        <time>2014-07-21T09:29:25.000Z</time>
      </trkpt>
      <trkpt lat="44.85193" lon="0.57168">
        <ele>36</ele>
        <time>2014-07-21T09:29:26.000Z</time>
      </trkpt>
      <trkpt lat="44.85193" lon="0.57172">
        <ele>36</ele>
        <time>2014-07-21T09:29:27.000Z</time>
      </trkpt>
      <trkpt lat="44.85193" lon="0.57176">
        <ele>36</ele>
        <time>2014-07-21T09:29:28.000Z</time>
      </trkpt>
      <trkpt lat="44.85193" lon="0.5718">
        <ele>36</ele>
        <time>2014-07-21T09:29:29.000Z</time>
      </trkpt>
      <trkpt lat="44.85193" lon="0.57183">
        <ele>36</ele>
        <time>2014-07-21T09:29:30.000Z</time>
      </trkpt>
      <trkpt lat="44.85193" lon="0.57187">
        <ele>36</ele>
        <time>2014-07-21T09:29:31.000Z</time>
      </trkpt>
      <trkpt lat="44.85193" lon="0.57191">
        <ele>36</ele>
        <time>2014-07-21T09:29:32.000Z</time>
      </trkpt>
      <trkpt lat="44.85193" lon="0.57195">
        <ele>36</ele>
        <time>2014-07-21T09:29:33.000Z</time>
      </trkpt>
      <trkpt lat="44.85193" lon="0.57199">
        <ele>36</ele>
        <time>2014-07-21T09:29:34.000Z</time>
      </trkpt>
      <trkpt lat="44.85193" lon="0.57202">
        <ele>36</ele>
        <time>2014-07-21T09:29:35.000Z</time>
      </trkpt>
      <trkpt lat="44.85193" lon="0.57206">
        <ele>36</ele>
        <time>2014-07-21T09:29:36.000Z</time>
      </trkpt>
      <trkpt lat="44.85193" lon="0.5721">
        <ele>36</ele>
        <time>2014-07-21T09:29:37.000Z</time>
      </trkpt>
      <trkpt lat="44.85193" lon="0.57214">
        <ele>36</ele>
        <time>2014-07-21T09:29:38.000Z</time>
      </trkpt>
      <trkpt lat="44.85193" lon="0.57217">
        <ele>36</ele>
        <time>2014-07-21T09:29:39.000Z</time>
      </trkpt>
      <trkpt lat="44.85193" lon="0.57221">
        <ele>36</ele>
        <time>2014-07-21T09:29:40.000Z</time>
      </trkpt>
      <trkpt lat="44.85193" lon="0.57225">
        <ele>36</ele>
        <time>2014-07-21T09:29:41.000Z</time>
      </trkpt>
      <trkpt lat="44.85192" lon="0.57229">
        <ele>36</ele>
        <time>2014-07-21T09:29:42.000Z</time>
      </trkpt>
      <trkpt lat="44.85192" lon="0.57232">
        <ele>36</ele>
        <time>2014-07-21T09:29:43.000Z</time>
      </trkpt>
      <trkpt lat="44.85192" lon="0.57236">
        <ele>36</ele>
        <time>2014-07-21T09:29:44.000Z</time>
      </trkpt>
      <trkpt lat="44.85192" lon="0.5724">
        <ele>36</ele>
        <time>2014-07-21T09:29:45.000Z</time>
      </trkpt>
      <trkpt lat="44.85192" lon="0.57243">
        <ele>36</ele>
        <time>2014-07-21T09:29:46.000Z</time>
      </trkpt>
      <trkpt lat="44.85192" lon="0.57247">
        <ele>36</ele>
        <time>2014-07-21T09:29:47.000Z</time>
      </trkpt>
      <trkpt lat="44.85192" lon="0.57251">
        <ele>35</ele>
        <time>2014-07-21T09:29:48.000Z</time>
      </trkpt>
      <trkpt lat="44.85192" lon="0.57255">
        <ele>35</ele>
        <time>2014-07-21T09:29:49.000Z</time>
      </trkpt>
      <trkpt lat="44.85192" lon="0.57258">
        <ele>35</ele>
        <time>2014-07-21T09:29:50.000Z</time>
      </trkpt>
      <trkpt lat="44.85192" lon="0.57262">
        <ele>35</ele>
        <time>2014-07-21T09:29:51.000Z</time>
      </trkpt>
      <trkpt lat="44.85192" lon="0.57266">
        <ele>35</ele>
        <time>2014-07-21T09:29:52.000Z</time>
      </trkpt>
      <trkpt lat="44.85192" lon="0.5727">
        <ele>35</ele>
        <time>2014-07-21T09:29:53.000Z</time>
      </trkpt>
      <trkpt lat="44.85191" lon="0.57273">
        <ele>35</ele>
        <time>2014-07-21T09:29:54.000Z</time>
      </trkpt>
      <trkpt lat="44.85191" lon="0.57277">
        <ele>35</ele>
        <time>2014-07-21T09:29:55.000Z</time>
      </trkpt>
      <trkpt lat="44.85191" lon="0.57281">
        <ele>35</ele>
        <time>2014-07-21T09:29:56.000Z</time>
      </trkpt>
      <trkpt lat="44.85191" lon="0.57285">
        <ele>35</ele>
        <time>2014-07-21T09:29:57.000Z</time>
      </trkpt>
      <trkpt lat="44.85191" lon="0.57288">
        <ele>35</ele>
        <time>2014-07-21T09:29:58.000Z</time>
      </trkpt>
      <trkpt lat="44.85191" lon="0.57292">
        <ele>35</ele>
        <time>2014-07-21T09:29:59.000Z</time>
      </trkpt>
      <trkpt lat="44.85191" lon="0.57296">
        <ele>35</ele>
        <time>2014-07-21T09:30:00.000Z</time>
      </trkpt>
      <trkpt lat="44.85191" lon="0.573">
        <ele>35</ele>
        <time>2014-07-21T09:30:01.000Z</time>
      </trkpt>
      <trkpt lat="44.85191" lon="0.57303">
        <ele>35</ele>
        <time>2014-07-21T09:30:02.000Z</time>
      </trkpt>
      <trkpt lat="44.85191" lon="0.57307">
        <ele>35</ele>
        <time>2014-07-21T09:30:03.000Z</time>
      </trkpt>
      <trkpt lat="44.85191" lon="0.57311">
        <ele>35</ele>
        <time>2014-07-21T09:30:04.000Z</time>
      </trkpt>
      <trkpt lat="44.8519" lon="0.57315">
        <ele>35</ele>
        <time>2014-07-21T09:30:05.000Z</time>
      </trkpt>
      <trkpt lat="44.8519" lon="0.57319">
        <ele>35</ele>
        <time>2014-07-21T09:30:06.000Z</time>
      </trkpt>
      <trkpt lat="44.8519" lon="0.57322">
        <ele>35</ele>
        <time>2014-07-21T09:30:07.000Z</time>
      </trkpt>
      <trkpt lat="44.8519" lon="0.57326">
        <ele>35</ele>
        <time>2014-07-21T09:30:08.000Z</time>
      </trkpt>
      <trkpt lat="44.8519" lon="0.5733">
        <ele>35</ele>
        <time>2014-07-21T09:30:09.000Z</time>
      </trkpt>
      <trkpt lat="44.8519" lon="0.57334">
        <ele>35</ele>
        <time>2014-07-21T09:30:10.000Z</time>
      </trkpt>
      <trkpt lat="44.8519" lon="0.57338">
        <ele>35</ele>
        <time>2014-07-21T09:30:11.000Z</time>
      </trkpt>
      <trkpt lat="44.8519" lon="0.57341">
        <ele>35</ele>
        <time>2014-07-21T09:30:12.000Z</time>
      </trkpt>
      <trkpt lat="44.8519" lon="0.57345">
        <ele>35</ele>
        <time>2014-07-21T09:30:13.000Z</time>
      </trkpt>
      <trkpt lat="44.8519" lon="0.57349">
        <ele>35</ele>
        <time>2014-07-21T09:30:14.000Z</time>
      </trkpt>
      <trkpt lat="44.8519" lon="0.57353">
        <ele>35</ele>
        <time>2014-07-21T09:30:15.000Z</time>
      </trkpt>
      <trkpt lat="44.8519" lon="0.57357">
        <ele>35</ele>
        <time>2014-07-21T09:30:16.000Z</time>
      </trkpt>
      <trkpt lat="44.8519" lon="0.57361">
        <ele>35</ele>
        <time>2014-07-21T09:30:17.000Z</time>
      </trkpt>
      <trkpt lat="44.8519" lon="0.57364">
        <ele>35</ele>
        <time>2014-07-21T09:30:18.000Z</time>
      </trkpt>
      <trkpt lat="44.85189" lon="0.57368">
        <ele>35</ele>
        <time>2014-07-21T09:30:19.000Z</time>
      </trkpt>
      <trkpt lat="44.85189" lon="0.57372">
        <ele>35</ele>
        <time>2014-07-21T09:30:20.000Z</time>
      </trkpt>
      <trkpt lat="44.85189" lon="0.57376">
        <ele>35</ele>
        <time>2014-07-21T09:30:21.000Z</time>
      </trkpt>
      <trkpt lat="44.85189" lon="0.57379">
        <ele>35</ele>
        <time>2014-07-21T09:30:22.000Z</time>
      </trkpt>
      <trkpt lat="44.85189" lon="0.57383">
        <ele>35</ele>
        <time>2014-07-21T09:30:23.000Z</time>
      </trkpt>
      <trkpt lat="44.85189" lon="0.57386">
        <ele>35</ele>
        <time>2014-07-21T09:30:24.000Z</time>
      </trkpt>
      <trkpt lat="44.85189" lon="0.5739">
        <ele>35</ele>
        <time>2014-07-21T09:30:25.000Z</time>
      </trkpt>
      <trkpt lat="44.85189" lon="0.57393">
        <ele>35</ele>
        <time>2014-07-21T09:30:26.000Z</time>
      </trkpt>
      <trkpt lat="44.85189" lon="0.57397">
        <ele>35</ele>
        <time>2014-07-21T09:30:27.000Z</time>
      </trkpt>
      <trkpt lat="44.85189" lon="0.574">
        <ele>35</ele>
        <time>2014-07-21T09:30:28.000Z</time>
      </trkpt>
      <trkpt lat="44.85188" lon="0.57403">
        <ele>35</ele>
        <time>2014-07-21T09:30:29.000Z</time>
      </trkpt>
      <trkpt lat="44.85188" lon="0.57407">
        <ele>35</ele>
        <time>2014-07-21T09:30:30.000Z</time>
      </trkpt>
      <trkpt lat="44.85188" lon="0.5741">
        <ele>35</ele>
        <time>2014-07-21T09:30:31.000Z</time>
      </trkpt>
      <trkpt lat="44.85188" lon="0.57414">
        <ele>35</ele>
        <time>2014-07-21T09:30:32.000Z</time>
      </trkpt>
      <trkpt lat="44.85188" lon="0.57417">
        <ele>35</ele>
        <time>2014-07-21T09:30:33.000Z</time>
      </trkpt>
      <trkpt lat="44.85188" lon="0.57421">
        <ele>35</ele>
        <time>2014-07-21T09:30:34.000Z</time>
      </trkpt>
      <trkpt lat="44.85188" lon="0.57424">
        <ele>35</ele>
        <time>2014-07-21T09:30:35.000Z</time>
      </trkpt>
      <trkpt lat="44.85187" lon="0.57428">
        <ele>35</ele>
        <time>2014-07-21T09:30:36.000Z</time>
      </trkpt>
      <trkpt lat="44.85187" lon="0.57431">
        <ele>35</ele>
        <time>2014-07-21T09:30:37.000Z</time>
      </trkpt>
      <trkpt lat="44.85187" lon="0.57435">
        <ele>35</ele>
        <time>2014-07-21T09:30:38.000Z</time>
      </trkpt>
      <trkpt lat="44.85187" lon="0.57439">
        <ele>35</ele>
        <time>2014-07-21T09:30:39.000Z</time>
      </trkpt>
      <trkpt lat="44.85187" lon="0.57443">
        <ele>35</ele>
        <time>2014-07-21T09:30:40.000Z</time>
      </trkpt>
      <trkpt lat="44.85187" lon="0.57447">
        <ele>35</ele>
        <time>2014-07-21T09:30:41.000Z</time>
      </trkpt>
      <trkpt lat="44.85187" lon="0.57451">
        <ele>35</ele>
        <time>2014-07-21T09:30:42.000Z</time>
      </trkpt>
      <trkpt lat="44.85187" lon="0.57455">
        <ele>35</ele>
        <time>2014-07-21T09:30:43.000Z</time>
      </trkpt>
      <trkpt lat="44.85187" lon="0.57459">
        <ele>36</ele>
        <time>2014-07-21T09:30:44.000Z</time>
      </trkpt>
      <trkpt lat="44.85186" lon="0.57463">
        <ele>36</ele>
        <time>2014-07-21T09:30:45.000Z</time>
      </trkpt>
      <trkpt lat="44.85186" lon="0.57467">
        <ele>36</ele>
        <time>2014-07-21T09:30:46.000Z</time>
      </trkpt>
      <trkpt lat="44.85186" lon="0.57471">
        <ele>36</ele>
        <time>2014-07-21T09:30:47.000Z</time>
      </trkpt>
      <trkpt lat="44.85186" lon="0.57475">
        <ele>36</ele>
        <time>2014-07-21T09:30:48.000Z</time>
      </trkpt>
      <trkpt lat="44.85186" lon="0.57479">
        <ele>36</ele>
        <time>2014-07-21T09:30:49.000Z</time>
      </trkpt>
      <trkpt lat="44.85186" lon="0.57483">
        <ele>36</ele>
        <time>2014-07-21T09:30:50.000Z</time>
      </trkpt>
      <trkpt lat="44.85186" lon="0.57487">
        <ele>36</ele>
        <time>2014-07-21T09:30:51.000Z</time>
      </trkpt>
      <trkpt lat="44.85186" lon="0.57491">
        <ele>36</ele>
        <time>2014-07-21T09:30:52.000Z</time>
      </trkpt>
      <trkpt lat="44.85186" lon="0.57495">
        <ele>36</ele>
        <time>2014-07-21T09:30:53.000Z</time>
      </trkpt>
      <trkpt lat="44.85185" lon="0.57499">
        <ele>36</ele>
        <time>2014-07-21T09:30:54.000Z</time>
      </trkpt>
      <trkpt lat="44.85185" lon="0.57503">
        <ele>37</ele>
        <time>2014-07-21T09:30:55.000Z</time>
      </trkpt>
      <trkpt lat="44.85185" lon="0.57507">
        <ele>37</ele>
        <time>2014-07-21T09:30:56.000Z</time>
      </trkpt>
      <trkpt lat="44.85185" lon="0.57511">
        <ele>37</ele>
        <time>2014-07-21T09:30:57.000Z</time>
      </trkpt>
      <trkpt lat="44.85185" lon="0.57515">
        <ele>37</ele>
        <time>2014-07-21T09:30:58.000Z</time>
      </trkpt>
      <trkpt lat="44.85185" lon="0.57519">
        <ele>37</ele>
        <time>2014-07-21T09:30:59.000Z</time>
      </trkpt>
      <trkpt lat="44.85185" lon="0.57523">
        <ele>37</ele>
        <time>2014-07-21T09:31:00.000Z</time>
      </trkpt>
      <trkpt lat="44.85185" lon="0.57527">
        <ele>37</ele>
        <time>2014-07-21T09:31:01.000Z</time>
      </trkpt>
      <trkpt lat="44.85185" lon="0.57531">
        <ele>37</ele>
        <time>2014-07-21T09:31:02.000Z</time>
      </trkpt>
      <trkpt lat="44.85185" lon="0.57535">
        <ele>37</ele>
        <time>2014-07-21T09:31:03.000Z</time>
      </trkpt>
      <trkpt lat="44.85185" lon="0.57539">
        <ele>37</ele>
        <time>2014-07-21T09:31:04.000Z</time>
      </trkpt>
      <trkpt lat="44.85185" lon="0.57543">
        <ele>37</ele>
        <time>2014-07-21T09:31:05.000Z</time>
      </trkpt>
      <trkpt lat="44.85185" lon="0.57547">
        <ele>37</ele>
        <time>2014-07-21T09:31:06.000Z</time>
      </trkpt>
      <trkpt lat="44.85185" lon="0.57551">
        <ele>37</ele>
        <time>2014-07-21T09:31:07.000Z</time>
      </trkpt>
      <trkpt lat="44.85185" lon="0.57554">
        <ele>37</ele>
        <time>2014-07-21T09:31:08.000Z</time>
      </trkpt>
      <trkpt lat="44.85185" lon="0.57558">
        <ele>37</ele>
        <time>2014-07-21T09:31:09.000Z</time>
      </trkpt>
      <trkpt lat="44.85184" lon="0.57562">
        <ele>37</ele>
        <time>2014-07-21T09:31:10.000Z</time>
      </trkpt>
      <trkpt lat="44.85184" lon="0.57566">
        <ele>37</ele>
        <time>2014-07-21T09:31:11.000Z</time>
      </trkpt>
      <trkpt lat="44.85184" lon="0.5757">
        <ele>37</ele>
        <time>2014-07-21T09:31:12.000Z</time>
      </trkpt>
      <trkpt lat="44.85184" lon="0.57574">
        <ele>37</ele>
        <time>2014-07-21T09:31:13.000Z</time>
      </trkpt>
      <trkpt lat="44.85184" lon="0.57577">
        <ele>37</ele>
        <time>2014-07-21T09:31:14.000Z</time>
      </trkpt>
      <trkpt lat="44.85184" lon="0.57581">
        <ele>37</ele>
        <time>2014-07-21T09:31:15.000Z</time>
      </trkpt>
      <trkpt lat="44.85184" lon="0.57585">
        <ele>37</ele>
        <time>2014-07-21T09:31:16.000Z</time>
      </trkpt>
      <trkpt lat="44.85184" lon="0.57589">
        <ele>37</ele>
        <time>2014-07-21T09:31:17.000Z</time>
      </trkpt>
      <trkpt lat="44.85184" lon="0.57593">
        <ele>37</ele>
        <time>2014-07-21T09:31:18.000Z</time>
      </trkpt>
      <trkpt lat="44.85184" lon="0.57597">
        <ele>37</ele>
        <time>2014-07-21T09:31:19.000Z</time>
      </trkpt>
      <trkpt lat="44.85184" lon="0.576">
        <ele>37</ele>
        <time>2014-07-21T09:31:20.000Z</time>
      </trkpt>
      <trkpt lat="44.85184" lon="0.57604">
        <ele>37</ele>
        <time>2014-07-21T09:31:21.000Z</time>
      </trkpt>
      <trkpt lat="44.85184" lon="0.57608">
        <ele>37</ele>
        <time>2014-07-21T09:31:22.000Z</time>
      </trkpt>
      <trkpt lat="44.85184" lon="0.57612">
        <ele>37</ele>
        <time>2014-07-21T09:31:23.000Z</time>
      </trkpt>
      <trkpt lat="44.85184" lon="0.57616">
        <ele>37</ele>
        <time>2014-07-21T09:31:24.000Z</time>
      </trkpt>
      <trkpt lat="44.85184" lon="0.5762">
        <ele>36</ele>
        <time>2014-07-21T09:31:25.000Z</time>
      </trkpt>
      <trkpt lat="44.85183" lon="0.57623">
        <ele>36</ele>
        <time>2014-07-21T09:31:26.000Z</time>
      </trkpt>
      <trkpt lat="44.85183" lon="0.57627">
        <ele>36</ele>
        <time>2014-07-21T09:31:27.000Z</time>
      </trkpt>
      <trkpt lat="44.85183" lon="0.57631">
        <ele>36</ele>
        <time>2014-07-21T09:31:28.000Z</time>
      </trkpt>
      <trkpt lat="44.85183" lon="0.57635">
        <ele>36</ele>
        <time>2014-07-21T09:31:29.000Z</time>
      </trkpt>
      <trkpt lat="44.85183" lon="0.57638">
        <ele>36</ele>
        <time>2014-07-21T09:31:30.000Z</time>
      </trkpt>
      <trkpt lat="44.85183" lon="0.57642">
        <ele>36</ele>
        <time>2014-07-21T09:31:31.000Z</time>
      </trkpt>
      <trkpt lat="44.85183" lon="0.57646">
        <ele>36</ele>
        <time>2014-07-21T09:31:32.000Z</time>
      </trkpt>
      <trkpt lat="44.85183" lon="0.57649">
        <ele>36</ele>
        <time>2014-07-21T09:31:33.000Z</time>
      </trkpt>
      <trkpt lat="44.85182" lon="0.57653">
        <ele>36</ele>
        <time>2014-07-21T09:31:34.000Z</time>
      </trkpt>
      <trkpt lat="44.85182" lon="0.57656">
        <ele>36</ele>
        <time>2014-07-21T09:31:35.000Z</time>
      </trkpt>
      <trkpt lat="44.85182" lon="0.5766">
        <ele>36</ele>
        <time>2014-07-21T09:31:36.000Z</time>
      </trkpt>
      <trkpt lat="44.85182" lon="0.57663">
        <ele>36</ele>
        <time>2014-07-21T09:31:37.000Z</time>
      </trkpt>
      <trkpt lat="44.85182" lon="0.57667">
        <ele>36</ele>
        <time>2014-07-21T09:31:38.000Z</time>
      </trkpt>
      <trkpt lat="44.85182" lon="0.57671">
        <ele>36</ele>
        <time>2014-07-21T09:31:39.000Z</time>
      </trkpt>
      <trkpt lat="44.85181" lon="0.57674">
        <ele>36</ele>
        <time>2014-07-21T09:31:40.000Z</time>
      </trkpt>
      <trkpt lat="44.85181" lon="0.57678">
        <ele>36</ele>
        <time>2014-07-21T09:31:41.000Z</time>
      </trkpt>
      <trkpt lat="44.85181" lon="0.57681">
        <ele>36</ele>
        <time>2014-07-21T09:31:42.000Z</time>
      </trkpt>
      <trkpt lat="44.85181" lon="0.57685">
        <ele>36</ele>
        <time>2014-07-21T09:31:43.000Z</time>
      </trkpt>
      <trkpt lat="44.8518" lon="0.57689">
        <ele>36</ele>
        <time>2014-07-21T09:31:44.000Z</time>
      </trkpt>
      <trkpt lat="44.8518" lon="0.57692">
        <ele>36</ele>
        <time>2014-07-21T09:31:45.000Z</time>
      </trkpt>
      <trkpt lat="44.8518" lon="0.57696">
        <ele>36</ele>
        <time>2014-07-21T09:31:46.000Z</time>
      </trkpt>
      <trkpt lat="44.8518" lon="0.577">
        <ele>37</ele>
        <time>2014-07-21T09:31:47.000Z</time>
      </trkpt>
      <trkpt lat="44.8518" lon="0.57703">
        <ele>37</ele>
        <time>2014-07-21T09:31:48.000Z</time>
      </trkpt>
      <trkpt lat="44.85179" lon="0.57707">
        <ele>37</ele>
        <time>2014-07-21T09:31:49.000Z</time>
      </trkpt>
      <trkpt lat="44.85179" lon="0.57711">
        <ele>37</ele>
        <time>2014-07-21T09:31:50.000Z</time>
      </trkpt>
      <trkpt lat="44.85179" lon="0.57715">
        <ele>37</ele>
        <time>2014-07-21T09:31:51.000Z</time>
      </trkpt>
      <trkpt lat="44.85179" lon="0.57718">
        <ele>37</ele>
        <time>2014-07-21T09:31:52.000Z</time>
      </trkpt>
      <trkpt lat="44.85179" lon="0.57722">
        <ele>37</ele>
        <time>2014-07-21T09:31:53.000Z</time>
      </trkpt>
      <trkpt lat="44.85179" lon="0.57726">
        <ele>37</ele>
        <time>2014-07-21T09:31:54.000Z</time>
      </trkpt>
      <trkpt lat="44.85179" lon="0.5773">
        <ele>37</ele>
        <time>2014-07-21T09:31:55.000Z</time>
      </trkpt>
      <trkpt lat="44.85178" lon="0.57734">
        <ele>37</ele>
        <time>2014-07-21T09:31:56.000Z</time>
      </trkpt>
      <trkpt lat="44.85178" lon="0.57738">
        <ele>37</ele>
        <time>2014-07-21T09:31:57.000Z</time>
      </trkpt>
      <trkpt lat="44.85178" lon="0.57741">
        <ele>37</ele>
        <time>2014-07-21T09:31:58.000Z</time>
      </trkpt>
      <trkpt lat="44.85178" lon="0.57745">
        <ele>38</ele>
        <time>2014-07-21T09:31:59.000Z</time>
      </trkpt>
      <trkpt lat="44.85178" lon="0.57749">
        <ele>38</ele>
        <time>2014-07-21T09:32:00.000Z</time>
      </trkpt>
      <trkpt lat="44.85178" lon="0.57753">
        <ele>38</ele>
        <time>2014-07-21T09:32:01.000Z</time>
      </trkpt>
      <trkpt lat="44.85178" lon="0.57757">
        <ele>38</ele>
        <time>2014-07-21T09:32:02.000Z</time>
      </trkpt>
      <trkpt lat="44.85178" lon="0.57761">
        <ele>38</ele>
        <time>2014-07-21T09:32:03.000Z</time>
      </trkpt>
      <trkpt lat="44.85178" lon="0.57764">
        <ele>38</ele>
        <time>2014-07-21T09:32:04.000Z</time>
      </trkpt>
      <trkpt lat="44.85178" lon="0.57768">
        <ele>38</ele>
        <time>2014-07-21T09:32:05.000Z</time>
      </trkpt>
      <trkpt lat="44.85178" lon="0.57772">
        <ele>38</ele>
        <time>2014-07-21T09:32:06.000Z</time>
      </trkpt>
      <trkpt lat="44.85178" lon="0.57776">
        <ele>38</ele>
        <time>2014-07-21T09:32:07.000Z</time>
      </trkpt>
      <trkpt lat="44.85178" lon="0.5778">
        <ele>38</ele>
        <time>2014-07-21T09:32:08.000Z</time>
      </trkpt>
      <trkpt lat="44.85178" lon="0.57783">
        <ele>38</ele>
        <time>2014-07-21T09:32:09.000Z</time>
      </trkpt>
      <trkpt lat="44.85178" lon="0.57787">
        <ele>38</ele>
        <time>2014-07-21T09:32:10.000Z</time>
      </trkpt>
      <trkpt lat="44.85178" lon="0.57791">
        <ele>38</ele>
        <time>2014-07-21T09:32:11.000Z</time>
      </trkpt>
      <trkpt lat="44.85178" lon="0.57795">
        <ele>38</ele>
        <time>2014-07-21T09:32:12.000Z</time>
      </trkpt>
      <trkpt lat="44.85178" lon="0.57798">
        <ele>38</ele>
        <time>2014-07-21T09:32:13.000Z</time>
      </trkpt>
      <trkpt lat="44.85178" lon="0.57802">
        <ele>38</ele>
        <time>2014-07-21T09:32:14.000Z</time>
      </trkpt>
      <trkpt lat="44.85178" lon="0.57806">
        <ele>38</ele>
        <time>2014-07-21T09:32:15.000Z</time>
      </trkpt>
      <trkpt lat="44.85178" lon="0.5781">
        <ele>38</ele>
        <time>2014-07-21T09:32:16.000Z</time>
      </trkpt>
      <trkpt lat="44.85178" lon="0.57813">
        <ele>38</ele>
        <time>2014-07-21T09:32:17.000Z</time>
      </trkpt>
      <trkpt lat="44.85179" lon="0.57817">
        <ele>38</ele>
        <time>2014-07-21T09:32:18.000Z</time>
      </trkpt>
      <trkpt lat="44.85179" lon="0.57821">
        <ele>38</ele>
        <time>2014-07-21T09:32:19.000Z</time>
      </trkpt>
      <trkpt lat="44.85179" lon="0.57825">
        <ele>38</ele>
        <time>2014-07-21T09:32:20.000Z</time>
      </trkpt>
      <trkpt lat="44.85179" lon="0.57828">
        <ele>38</ele>
        <time>2014-07-21T09:32:21.000Z</time>
      </trkpt>
      <trkpt lat="44.8518" lon="0.57832">
        <ele>38</ele>
        <time>2014-07-21T09:32:22.000Z</time>
      </trkpt>
      <trkpt lat="44.8518" lon="0.57836">
        <ele>38</ele>
        <time>2014-07-21T09:32:23.000Z</time>
      </trkpt>
      <trkpt lat="44.8518" lon="0.5784">
        <ele>38</ele>
        <time>2014-07-21T09:32:24.000Z</time>
      </trkpt>
      <trkpt lat="44.85181" lon="0.57843">
        <ele>38</ele>
        <time>2014-07-21T09:32:25.000Z</time>
      </trkpt>
      <trkpt lat="44.85181" lon="0.57847">
        <ele>38</ele>
        <time>2014-07-21T09:32:26.000Z</time>
      </trkpt>
      <trkpt lat="44.85182" lon="0.57851">
        <ele>38</ele>
        <time>2014-07-21T09:32:27.000Z</time>
      </trkpt>
      <trkpt lat="44.85183" lon="0.57854">
        <ele>38</ele>
        <time>2014-07-21T09:32:28.000Z</time>
      </trkpt>
      <trkpt lat="44.85183" lon="0.57858">
        <ele>38</ele>
        <time>2014-07-21T09:32:29.000Z</time>
      </trkpt>
      <trkpt lat="44.85184" lon="0.57862">
        <ele>38</ele>
        <time>2014-07-21T09:32:30.000Z</time>
      </trkpt>
      <trkpt lat="44.85185" lon="0.57866">
        <ele>38</ele>
        <time>2014-07-21T09:32:31.000Z</time>
      </trkpt>
      <trkpt lat="44.85185" lon="0.5787">
        <ele>38</ele>
        <time>2014-07-21T09:32:32.000Z</time>
      </trkpt>
      <trkpt lat="44.85186" lon="0.57873">
        <ele>38</ele>
        <time>2014-07-21T09:32:33.000Z</time>
      </trkpt>
      <trkpt lat="44.85187" lon="0.57877">
        <ele>38</ele>
        <time>2014-07-21T09:32:34.000Z</time>
      </trkpt>
      <trkpt lat="44.85188" lon="0.57881">
        <ele>38</ele>
        <time>2014-07-21T09:32:35.000Z</time>
      </trkpt>
      <trkpt lat="44.85188" lon="0.57885">
        <ele>38</ele>
        <time>2014-07-21T09:32:36.000Z</time>
      </trkpt>
      <trkpt lat="44.85189" lon="0.57889">
        <ele>38</ele>
        <time>2014-07-21T09:32:37.000Z</time>
      </trkpt>
      <trkpt lat="44.8519" lon="0.57893">
        <ele>38</ele>
        <time>2014-07-21T09:32:38.000Z</time>
      </trkpt>
      <trkpt lat="44.8519" lon="0.57896">
        <ele>38</ele>
        <time>2014-07-21T09:32:39.000Z</time>
      </trkpt>
      <trkpt lat="44.85191" lon="0.579">
        <ele>38</ele>
        <time>2014-07-21T09:32:40.000Z</time>
      </trkpt>
      <trkpt lat="44.85192" lon="0.57904">
        <ele>38</ele>
        <time>2014-07-21T09:32:41.000Z</time>
      </trkpt>
      <trkpt lat="44.85193" lon="0.57908">
        <ele>38</ele>
        <time>2014-07-21T09:32:42.000Z</time>
      </trkpt>
      <trkpt lat="44.85193" lon="0.57912">
        <ele>38</ele>
        <time>2014-07-21T09:32:43.000Z</time>
      </trkpt>
      <trkpt lat="44.85194" lon="0.57916">
        <ele>38</ele>
        <time>2014-07-21T09:32:44.000Z</time>
      </trkpt>
      <trkpt lat="44.85194" lon="0.5792">
        <ele>38</ele>
        <time>2014-07-21T09:32:45.000Z</time>
      </trkpt>
      <trkpt lat="44.85195" lon="0.57924">
        <ele>38</ele>
        <time>2014-07-21T09:32:46.000Z</time>
      </trkpt>
      <trkpt lat="44.85196" lon="0.57928">
        <ele>38</ele>
        <time>2014-07-21T09:32:47.000Z</time>
      </trkpt>
      <trkpt lat="44.85196" lon="0.57932">
        <ele>38</ele>
        <time>2014-07-21T09:32:48.000Z</time>
      </trkpt>
      <trkpt lat="44.85197" lon="0.57936">
        <ele>38</ele>
        <time>2014-07-21T09:32:49.000Z</time>
      </trkpt>
      <trkpt lat="44.85198" lon="0.57939">
        <ele>38</ele>
        <time>2014-07-21T09:32:50.000Z</time>
      </trkpt>
      <trkpt lat="44.85198" lon="0.57943">
        <ele>38</ele>
        <time>2014-07-21T09:32:51.000Z</time>
      </trkpt>
      <trkpt lat="44.85199" lon="0.57947">
        <ele>38</ele>
        <time>2014-07-21T09:32:52.000Z</time>
      </trkpt>
      <trkpt lat="44.85199" lon="0.57951">
        <ele>38</ele>
        <time>2014-07-21T09:32:53.000Z</time>
      </trkpt>
      <trkpt lat="44.852" lon="0.57955">
        <ele>38</ele>
        <time>2014-07-21T09:32:54.000Z</time>
      </trkpt>
      <trkpt lat="44.852" lon="0.57958">
        <ele>37</ele>
        <time>2014-07-21T09:32:55.000Z</time>
      </trkpt>
      <trkpt lat="44.85201" lon="0.57962">
        <ele>37</ele>
        <time>2014-07-21T09:32:56.000Z</time>
      </trkpt>
      <trkpt lat="44.85201" lon="0.57966">
        <ele>37</ele>
        <time>2014-07-21T09:32:57.000Z</time>
      </trkpt>
      <trkpt lat="44.85202" lon="0.5797">
        <ele>37</ele>
        <time>2014-07-21T09:32:58.000Z</time>
      </trkpt>
      <trkpt lat="44.85202" lon="0.57973">
        <ele>37</ele>
        <time>2014-07-21T09:32:59.000Z</time>
      </trkpt>
      <trkpt lat="44.85203" lon="0.57977">
        <ele>37</ele>
        <time>2014-07-21T09:33:00.000Z</time>
      </trkpt>
      <trkpt lat="44.85204" lon="0.57981">
        <ele>37</ele>
        <time>2014-07-21T09:33:01.000Z</time>
      </trkpt>
      <trkpt lat="44.85204" lon="0.57985">
        <ele>37</ele>
        <time>2014-07-21T09:33:02.000Z</time>
      </trkpt>
      <trkpt lat="44.85205" lon="0.57988">
        <ele>37</ele>
        <time>2014-07-21T09:33:03.000Z</time>
      </trkpt>
      <trkpt lat="44.85205" lon="0.57992">
        <ele>37</ele>
        <time>2014-07-21T09:33:04.000Z</time>
      </trkpt>
      <trkpt lat="44.85206" lon="0.57996">
        <ele>37</ele>
        <time>2014-07-21T09:33:05.000Z</time>
      </trkpt>
      <trkpt lat="44.85206" lon="0.57999">
        <ele>37</ele>
        <time>2014-07-21T09:33:06.000Z</time>
      </trkpt>
      <trkpt lat="44.85207" lon="0.58003">
        <ele>37</ele>
        <time>2014-07-21T09:33:07.000Z</time>
      </trkpt>
      <trkpt lat="44.85207" lon="0.58007">
        <ele>37</ele>
        <time>2014-07-21T09:33:08.000Z</time>
      </trkpt>
      <trkpt lat="44.85208" lon="0.58011">
        <ele>37</ele>
        <time>2014-07-21T09:33:09.000Z</time>
      </trkpt>
      <trkpt lat="44.85208" lon="0.58014">
        <ele>37</ele>
        <time>2014-07-21T09:33:10.000Z</time>
      </trkpt>
      <trkpt lat="44.85209" lon="0.58018">
        <ele>37</ele>
        <time>2014-07-21T09:33:11.000Z</time>
      </trkpt>
      <trkpt lat="44.8521" lon="0.58022">
        <ele>37</ele>
        <time>2014-07-21T09:33:12.000Z</time>
      </trkpt>
      <trkpt lat="44.8521" lon="0.58025">
        <ele>37</ele>
        <time>2014-07-21T09:33:13.000Z</time>
      </trkpt>
      <trkpt lat="44.85211" lon="0.58029">
        <ele>37</ele>
        <time>2014-07-21T09:33:14.000Z</time>
      </trkpt>
      <trkpt lat="44.85211" lon="0.58033">
        <ele>37</ele>
        <time>2014-07-21T09:33:15.000Z</time>
      </trkpt>
      <trkpt lat="44.85212" lon="0.58037">
        <ele>38</ele>
        <time>2014-07-21T09:33:16.000Z</time>
      </trkpt>
      <trkpt lat="44.85213" lon="0.5804">
        <ele>38</ele>
        <time>2014-07-21T09:33:17.000Z</time>
      </trkpt>
      <trkpt lat="44.85213" lon="0.58044">
        <ele>38</ele>
        <time>2014-07-21T09:33:18.000Z</time>
      </trkpt>
      <trkpt lat="44.85214" lon="0.58048">
        <ele>38</ele>
        <time>2014-07-21T09:33:19.000Z</time>
      </trkpt>
      <trkpt lat="44.85215" lon="0.58051">
        <ele>38</ele>
        <time>2014-07-21T09:33:20.000Z</time>
      </trkpt>
      <trkpt lat="44.85215" lon="0.58055">
        <ele>38</ele>
        <time>2014-07-21T09:33:21.000Z</time>
      </trkpt>
      <trkpt lat="44.85216" lon="0.58059">
        <ele>38</ele>
        <time>2014-07-21T09:33:22.000Z</time>
      </trkpt>
      <trkpt lat="44.85217" lon="0.58063">
        <ele>38</ele>
        <time>2014-07-21T09:33:23.000Z</time>
      </trkpt>
      <trkpt lat="44.85217" lon="0.58067">
        <ele>38</ele>
        <time>2014-07-21T09:33:24.000Z</time>
      </trkpt>
      <trkpt lat="44.85218" lon="0.5807">
        <ele>38</ele>
        <time>2014-07-21T09:33:25.000Z</time>
      </trkpt>
      <trkpt lat="44.85219" lon="0.58074">
        <ele>38</ele>
        <time>2014-07-21T09:33:26.000Z</time>
      </trkpt>
      <trkpt lat="44.85219" lon="0.58078">
        <ele>39</ele>
        <time>2014-07-21T09:33:27.000Z</time>
      </trkpt>
      <trkpt lat="44.8522" lon="0.58082">
        <ele>39</ele>
        <time>2014-07-21T09:33:28.000Z</time>
      </trkpt>
      <trkpt lat="44.85221" lon="0.58086">
        <ele>39</ele>
        <time>2014-07-21T09:33:29.000Z</time>
      </trkpt>
      <trkpt lat="44.85221" lon="0.58089">
        <ele>39</ele>
        <time>2014-07-21T09:33:30.000Z</time>
      </trkpt>
      <trkpt lat="44.85222" lon="0.58093">
        <ele>39</ele>
        <time>2014-07-21T09:33:31.000Z</time>
      </trkpt>
      <trkpt lat="44.85223" lon="0.58097">
        <ele>39</ele>
        <time>2014-07-21T09:33:32.000Z</time>
      </trkpt>
      <trkpt lat="44.85223" lon="0.581">
        <ele>39</ele>
        <time>2014-07-21T09:33:33.000Z</time>
      </trkpt>
      <trkpt lat="44.85224" lon="0.58104">
        <ele>39</ele>
        <time>2014-07-21T09:33:34.000Z</time>
      </trkpt>
      <trkpt lat="44.85225" lon="0.58108">
        <ele>39</ele>
        <time>2014-07-21T09:33:35.000Z</time>
      </trkpt>
      <trkpt lat="44.85225" lon="0.58112">
        <ele>39</ele>
        <time>2014-07-21T09:33:36.000Z</time>
      </trkpt>
      <trkpt lat="44.85226" lon="0.58115">
        <ele>39</ele>
        <time>2014-07-21T09:33:37.000Z</time>
      </trkpt>
      <trkpt lat="44.85226" lon="0.58119">
        <ele>40</ele>
        <time>2014-07-21T09:33:38.000Z</time>
      </trkpt>
      <trkpt lat="44.85227" lon="0.58123">
        <ele>40</ele>
        <time>2014-07-21T09:33:39.000Z</time>
      </trkpt>
      <trkpt lat="44.85228" lon="0.58126">
        <ele>40</ele>
        <time>2014-07-21T09:33:40.000Z</time>
      </trkpt>
      <trkpt lat="44.85228" lon="0.5813">
        <ele>40</ele>
        <time>2014-07-21T09:33:41.000Z</time>
      </trkpt>
      <trkpt lat="44.85229" lon="0.58133">
        <ele>40</ele>
        <time>2014-07-21T09:33:42.000Z</time>
      </trkpt>
      <trkpt lat="44.85229" lon="0.58137">
        <ele>40</ele>
        <time>2014-07-21T09:33:43.000Z</time>
      </trkpt>
      <trkpt lat="44.8523" lon="0.58141">
        <ele>40</ele>
        <time>2014-07-21T09:33:44.000Z</time>
      </trkpt>
      <trkpt lat="44.8523" lon="0.58144">
        <ele>40</ele>
        <time>2014-07-21T09:33:45.000Z</time>
      </trkpt>
      <trkpt lat="44.85231" lon="0.58148">
        <ele>40</ele>
        <time>2014-07-21T09:33:46.000Z</time>
      </trkpt>
      <trkpt lat="44.85231" lon="0.58152">
        <ele>40</ele>
        <time>2014-07-21T09:33:47.000Z</time>
      </trkpt>
      <trkpt lat="44.85232" lon="0.58155">
        <ele>40</ele>
        <time>2014-07-21T09:33:48.000Z</time>
      </trkpt>
      <trkpt lat="44.85232" lon="0.58159">
        <ele>40</ele>
        <time>2014-07-21T09:33:49.000Z</time>
      </trkpt>
      <trkpt lat="44.85233" lon="0.58163">
        <ele>40</ele>
        <time>2014-07-21T09:33:50.000Z</time>
      </trkpt>
      <trkpt lat="44.85233" lon="0.58166">
        <ele>40</ele>
        <time>2014-07-21T09:33:51.000Z</time>
      </trkpt>
      <trkpt lat="44.85233" lon="0.5817">
        <ele>40</ele>
        <time>2014-07-21T09:33:52.000Z</time>
      </trkpt>
      <trkpt lat="44.85234" lon="0.58174">
        <ele>40</ele>
        <time>2014-07-21T09:33:53.000Z</time>
      </trkpt>
      <trkpt lat="44.85234" lon="0.58177">
        <ele>40</ele>
        <time>2014-07-21T09:33:54.000Z</time>
      </trkpt>
      <trkpt lat="44.85234" lon="0.58181">
        <ele>40</ele>
        <time>2014-07-21T09:33:55.000Z</time>
      </trkpt>
      <trkpt lat="44.85235" lon="0.58185">
        <ele>40</ele>
        <time>2014-07-21T09:33:56.000Z</time>
      </trkpt>
      <trkpt lat="44.85235" lon="0.58188">
        <ele>40</ele>
        <time>2014-07-21T09:33:57.000Z</time>
      </trkpt>
      <trkpt lat="44.85235" lon="0.58192">
        <ele>40</ele>
        <time>2014-07-21T09:33:58.000Z</time>
      </trkpt>
      <trkpt lat="44.85235" lon="0.58196">
        <ele>40</ele>
        <time>2014-07-21T09:33:59.000Z</time>
      </trkpt>
      <trkpt lat="44.85235" lon="0.582">
        <ele>40</ele>
        <time>2014-07-21T09:34:00.000Z</time>
      </trkpt>
      <trkpt lat="44.85236" lon="0.58203">
        <ele>40</ele>
        <time>2014-07-21T09:34:01.000Z</time>
      </trkpt>
      <trkpt lat="44.85236" lon="0.58207">
        <ele>40</ele>
        <time>2014-07-21T09:34:02.000Z</time>
      </trkpt>
      <trkpt lat="44.85236" lon="0.58211">
        <ele>40</ele>
        <time>2014-07-21T09:34:03.000Z</time>
      </trkpt>
      <trkpt lat="44.85236" lon="0.58215">
        <ele>40</ele>
        <time>2014-07-21T09:34:04.000Z</time>
      </trkpt>
      <trkpt lat="44.85236" lon="0.58218">
        <ele>40</ele>
        <time>2014-07-21T09:34:05.000Z</time>
      </trkpt>
      <trkpt lat="44.85236" lon="0.58222">
        <ele>40</ele>
        <time>2014-07-21T09:34:06.000Z</time>
      </trkpt>
      <trkpt lat="44.85236" lon="0.58226">
        <ele>40</ele>
        <time>2014-07-21T09:34:07.000Z</time>
      </trkpt>
      <trkpt lat="44.85236" lon="0.5823">
        <ele>40</ele>
        <time>2014-07-21T09:34:08.000Z</time>
      </trkpt>
      <trkpt lat="44.85236" lon="0.58233">
        <ele>40</ele>
        <time>2014-07-21T09:34:09.000Z</time>
      </trkpt>
      <trkpt lat="44.85236" lon="0.58237">
        <ele>40</ele>
        <time>2014-07-21T09:34:10.000Z</time>
      </trkpt>
      <trkpt lat="44.85235" lon="0.58241">
        <ele>40</ele>
        <time>2014-07-21T09:34:11.000Z</time>
      </trkpt>
      <trkpt lat="44.85235" lon="0.58245">
        <ele>40</ele>
        <time>2014-07-21T09:34:12.000Z</time>
      </trkpt>
      <trkpt lat="44.85235" lon="0.58248">
        <ele>40</ele>
        <time>2014-07-21T09:34:13.000Z</time>
      </trkpt>
      <trkpt lat="44.85235" lon="0.58252">
        <ele>40</ele>
        <time>2014-07-21T09:34:14.000Z</time>
      </trkpt>
      <trkpt lat="44.85234" lon="0.58256">
        <ele>40</ele>
        <time>2014-07-21T09:34:15.000Z</time>
      </trkpt>
      <trkpt lat="44.85234" lon="0.5826">
        <ele>39</ele>
        <time>2014-07-21T09:34:16.000Z</time>
      </trkpt>
      <trkpt lat="44.85234" lon="0.58263">
        <ele>39</ele>
        <time>2014-07-21T09:34:17.000Z</time>
      </trkpt>
      <trkpt lat="44.85233" lon="0.58267">
        <ele>39</ele>
        <time>2014-07-21T09:34:18.000Z</time>
      </trkpt>
      <trkpt lat="44.85233" lon="0.58271">
        <ele>39</ele>
        <time>2014-07-21T09:34:19.000Z</time>
      </trkpt>
      <trkpt lat="44.85232" lon="0.58275">
        <ele>39</ele>
        <time>2014-07-21T09:34:20.000Z</time>
      </trkpt>
      <trkpt lat="44.85232" lon="0.58278">
        <ele>39</ele>
        <time>2014-07-21T09:34:21.000Z</time>
      </trkpt>
      <trkpt lat="44.85231" lon="0.58282">
        <ele>39</ele>
        <time>2014-07-21T09:34:22.000Z</time>
      </trkpt>
      <trkpt lat="44.85231" lon="0.58286">
        <ele>39</ele>
        <time>2014-07-21T09:34:23.000Z</time>
      </trkpt>
      <trkpt lat="44.85231" lon="0.5829">
        <ele>39</ele>
        <time>2014-07-21T09:34:24.000Z</time>
      </trkpt>
      <trkpt lat="44.8523" lon="0.58293">
        <ele>39</ele>
        <time>2014-07-21T09:34:25.000Z</time>
      </trkpt>
      <trkpt lat="44.8523" lon="0.58297">
        <ele>39</ele>
        <time>2014-07-21T09:34:26.000Z</time>
      </trkpt>
      <trkpt lat="44.8523" lon="0.58301">
        <ele>39</ele>
        <time>2014-07-21T09:34:27.000Z</time>
      </trkpt>
      <trkpt lat="44.85229" lon="0.58305">
        <ele>39</ele>
        <time>2014-07-21T09:34:28.000Z</time>
      </trkpt>
      <trkpt lat="44.85229" lon="0.58308">
        <ele>39</ele>
        <time>2014-07-21T09:34:29.000Z</time>
      </trkpt>
      <trkpt lat="44.85229" lon="0.58312">
        <ele>39</ele>
        <time>2014-07-21T09:34:30.000Z</time>
      </trkpt>
      <trkpt lat="44.85229" lon="0.58316">
        <ele>39</ele>
        <time>2014-07-21T09:34:31.000Z</time>
      </trkpt>
      <trkpt lat="44.85229" lon="0.58319">
        <ele>39</ele>
        <time>2014-07-21T09:34:32.000Z</time>
      </trkpt>
      <trkpt lat="44.85228" lon="0.58323">
        <ele>39</ele>
        <time>2014-07-21T09:34:33.000Z</time>
      </trkpt>
      <trkpt lat="44.85228" lon="0.58327">
        <ele>39</ele>
        <time>2014-07-21T09:34:34.000Z</time>
      </trkpt>
      <trkpt lat="44.85228" lon="0.5833">
        <ele>38</ele>
        <time>2014-07-21T09:34:35.000Z</time>
      </trkpt>
      <trkpt lat="44.85227" lon="0.58334">
        <ele>38</ele>
        <time>2014-07-21T09:34:36.000Z</time>
      </trkpt>
      <trkpt lat="44.85227" lon="0.58338">
        <ele>38</ele>
        <time>2014-07-21T09:34:37.000Z</time>
      </trkpt>
      <trkpt lat="44.85227" lon="0.58341">
        <ele>38</ele>
        <time>2014-07-21T09:34:38.000Z</time>
      </trkpt>
      <trkpt lat="44.85226" lon="0.58345">
        <ele>38</ele>
        <time>2014-07-21T09:34:39.000Z</time>
      </trkpt>
      <trkpt lat="44.85226" lon="0.58349">
        <ele>38</ele>
        <time>2014-07-21T09:34:40.000Z</time>
      </trkpt>
      <trkpt lat="44.85225" lon="0.58352">
        <ele>38</ele>
        <time>2014-07-21T09:34:41.000Z</time>
      </trkpt>
      <trkpt lat="44.85225" lon="0.58356">
        <ele>38</ele>
        <time>2014-07-21T09:34:42.000Z</time>
      </trkpt>
      <trkpt lat="44.85224" lon="0.58359">
        <ele>38</ele>
        <time>2014-07-21T09:34:43.000Z</time>
      </trkpt>
      <trkpt lat="44.85223" lon="0.58363">
        <ele>38</ele>
        <time>2014-07-21T09:34:44.000Z</time>
      </trkpt>
      <trkpt lat="44.85223" lon="0.58366">
        <ele>38</ele>
        <time>2014-07-21T09:34:45.000Z</time>
      </trkpt>
      <trkpt lat="44.85222" lon="0.5837">
        <ele>38</ele>
        <time>2014-07-21T09:34:46.000Z</time>
      </trkpt>
      <trkpt lat="44.85221" lon="0.58373">
        <ele>38</ele>
        <time>2014-07-21T09:34:47.000Z</time>
      </trkpt>
      <trkpt lat="44.8522" lon="0.58376">
        <ele>38</ele>
        <time>2014-07-21T09:34:48.000Z</time>
      </trkpt>
      <trkpt lat="44.85219" lon="0.5838">
        <ele>38</ele>
        <time>2014-07-21T09:34:49.000Z</time>
      </trkpt>
      <trkpt lat="44.85219" lon="0.58383">
        <ele>38</ele>
        <time>2014-07-21T09:34:50.000Z</time>
      </trkpt>
      <trkpt lat="44.85218" lon="0.58386">
        <ele>38</ele>
        <time>2014-07-21T09:34:51.000Z</time>
      </trkpt>
      <trkpt lat="44.85217" lon="0.5839">
        <ele>38</ele>
        <time>2014-07-21T09:34:52.000Z</time>
      </trkpt>
      <trkpt lat="44.85216" lon="0.58393">
        <ele>38</ele>
        <time>2014-07-21T09:34:53.000Z</time>
      </trkpt>
      <trkpt lat="44.85216" lon="0.58397">
        <ele>38</ele>
        <time>2014-07-21T09:34:54.000Z</time>
      </trkpt>
      <trkpt lat="44.85215" lon="0.58401">
        <ele>38</ele>
        <time>2014-07-21T09:34:55.000Z</time>
      </trkpt>
      <trkpt lat="44.85215" lon="0.58405">
        <ele>38</ele>
        <time>2014-07-21T09:34:56.000Z</time>
      </trkpt>
      <trkpt lat="44.85215" lon="0.58409">
        <ele>38</ele>
        <time>2014-07-21T09:34:57.000Z</time>
      </trkpt>
      <trkpt lat="44.85215" lon="0.58413">
        <ele>38</ele>
        <time>2014-07-21T09:34:58.000Z</time>
      </trkpt>
      <trkpt lat="44.85215" lon="0.58417">
        <ele>38</ele>
        <time>2014-07-21T09:34:59.000Z</time>
      </trkpt>
      <trkpt lat="44.85214" lon="0.58421">
        <ele>38</ele>
        <time>2014-07-21T09:35:00.000Z</time>
      </trkpt>
      <trkpt lat="44.85214" lon="0.58425">
        <ele>38</ele>
        <time>2014-07-21T09:35:01.000Z</time>
      </trkpt>
      <trkpt lat="44.85214" lon="0.58429">
        <ele>38</ele>
        <time>2014-07-21T09:35:02.000Z</time>
      </trkpt>
      <trkpt lat="44.85214" lon="0.58434">
        <ele>38</ele>
        <time>2014-07-21T09:35:03.000Z</time>
      </trkpt>
      <trkpt lat="44.85214" lon="0.58438">
        <ele>38</ele>
        <time>2014-07-21T09:35:04.000Z</time>
      </trkpt>
      <trkpt lat="44.85213" lon="0.58442">
        <ele>38</ele>
        <time>2014-07-21T09:35:05.000Z</time>
      </trkpt>
      <trkpt lat="44.85213" lon="0.58446">
        <ele>38</ele>
        <time>2014-07-21T09:35:06.000Z</time>
      </trkpt>
      <trkpt lat="44.85213" lon="0.5845">
        <ele>38</ele>
        <time>2014-07-21T09:35:07.000Z</time>
      </trkpt>
      <trkpt lat="44.85213" lon="0.58454">
        <ele>38</ele>
        <time>2014-07-21T09:35:08.000Z</time>
      </trkpt>
      <trkpt lat="44.85212" lon="0.58458">
        <ele>38</ele>
        <time>2014-07-21T09:35:09.000Z</time>
      </trkpt>
      <trkpt lat="44.85212" lon="0.58461">
        <ele>38</ele>
        <time>2014-07-21T09:35:10.000Z</time>
      </trkpt>
      <trkpt lat="44.85212" lon="0.58465">
        <ele>38</ele>
        <time>2014-07-21T09:35:11.000Z</time>
      </trkpt>
      <trkpt lat="44.85212" lon="0.58469">
        <ele>38</ele>
        <time>2014-07-21T09:35:12.000Z</time>
      </trkpt>
      <trkpt lat="44.85211" lon="0.58473">
        <ele>38</ele>
        <time>2014-07-21T09:35:13.000Z</time>
      </trkpt>
      <trkpt lat="44.85211" lon="0.58477">
        <ele>38</ele>
        <time>2014-07-21T09:35:14.000Z</time>
      </trkpt>
      <trkpt lat="44.85211" lon="0.58481">
        <ele>38</ele>
        <time>2014-07-21T09:35:15.000Z</time>
      </trkpt>
      <trkpt lat="44.85211" lon="0.58484">
        <ele>38</ele>
        <time>2014-07-21T09:35:16.000Z</time>
      </trkpt>
      <trkpt lat="44.85211" lon="0.58488">
        <ele>38</ele>
        <time>2014-07-21T09:35:17.000Z</time>
      </trkpt>
      <trkpt lat="44.8521" lon="0.58492">
        <ele>38</ele>
        <time>2014-07-21T09:35:18.000Z</time>
      </trkpt>
      <trkpt lat="44.8521" lon="0.58496">
        <ele>38</ele>
        <time>2014-07-21T09:35:19.000Z</time>
      </trkpt>
      <trkpt lat="44.8521" lon="0.58499">
        <ele>38</ele>
        <time>2014-07-21T09:35:20.000Z</time>
      </trkpt>
      <trkpt lat="44.8521" lon="0.58503">
        <ele>38</ele>
        <time>2014-07-21T09:35:21.000Z</time>
      </trkpt>
      <trkpt lat="44.85209" lon="0.58507">
        <ele>38</ele>
        <time>2014-07-21T09:35:22.000Z</time>
      </trkpt>
      <trkpt lat="44.85209" lon="0.58511">
        <ele>38</ele>
        <time>2014-07-21T09:35:23.000Z</time>
      </trkpt>
      <trkpt lat="44.85209" lon="0.58515">
        <ele>38</ele>
        <time>2014-07-21T09:35:24.000Z</time>
      </trkpt>
      <trkpt lat="44.85209" lon="0.58518">
        <ele>38</ele>
        <time>2014-07-21T09:35:25.000Z</time>
      </trkpt>
      <trkpt lat="44.85208" lon="0.58522">
        <ele>38</ele>
        <time>2014-07-21T09:35:26.000Z</time>
      </trkpt>
      <trkpt lat="44.85208" lon="0.58526">
        <ele>38</ele>
        <time>2014-07-21T09:35:27.000Z</time>
      </trkpt>
      <trkpt lat="44.85208" lon="0.5853">
        <ele>38</ele>
        <time>2014-07-21T09:35:28.000Z</time>
      </trkpt>
      <trkpt lat="44.85207" lon="0.58534">
        <ele>38</ele>
        <time>2014-07-21T09:35:29.000Z</time>
      </trkpt>
      <trkpt lat="44.85207" lon="0.58537">
        <ele>38</ele>
        <time>2014-07-21T09:35:30.000Z</time>
      </trkpt>
      <trkpt lat="44.85206" lon="0.58541">
        <ele>38</ele>
        <time>2014-07-21T09:35:31.000Z</time>
      </trkpt>
      <trkpt lat="44.85206" lon="0.58545">
        <ele>38</ele>
        <time>2014-07-21T09:35:32.000Z</time>
      </trkpt>
      <trkpt lat="44.85206" lon="0.58549">
        <ele>38</ele>
        <time>2014-07-21T09:35:33.000Z</time>
      </trkpt>
      <trkpt lat="44.85205" lon="0.58553">
        <ele>38</ele>
        <time>2014-07-21T09:35:34.000Z</time>
      </trkpt>
      <trkpt lat="44.85205" lon="0.58557">
        <ele>38</ele>
        <time>2014-07-21T09:35:35.000Z</time>
      </trkpt>
      <trkpt lat="44.85204" lon="0.58561">
        <ele>38</ele>
        <time>2014-07-21T09:35:36.000Z</time>
      </trkpt>
      <trkpt lat="44.85204" lon="0.58564">
        <ele>38</ele>
        <time>2014-07-21T09:35:37.000Z</time>
      </trkpt>
      <trkpt lat="44.85204" lon="0.58568">
        <ele>38</ele>
        <time>2014-07-21T09:35:38.000Z</time>
      </trkpt>
      <trkpt lat="44.85203" lon="0.58572">
        <ele>38</ele>
        <time>2014-07-21T09:35:39.000Z</time>
      </trkpt>
      <trkpt lat="44.85203" lon="0.58576">
        <ele>38</ele>
        <time>2014-07-21T09:35:40.000Z</time>
      </trkpt>
      <trkpt lat="44.85202" lon="0.5858">
        <ele>38</ele>
        <time>2014-07-21T09:35:41.000Z</time>
      </trkpt>
      <trkpt lat="44.85202" lon="0.58584">
        <ele>38</ele>
        <time>2014-07-21T09:35:42.000Z</time>
      </trkpt>
      <trkpt lat="44.85202" lon="0.58587">
        <ele>38</ele>
        <time>2014-07-21T09:35:43.000Z</time>
      </trkpt>
      <trkpt lat="44.85201" lon="0.58591">
        <ele>38</ele>
        <time>2014-07-21T09:35:44.000Z</time>
      </trkpt>
      <trkpt lat="44.85201" lon="0.58595">
        <ele>38</ele>
        <time>2014-07-21T09:35:45.000Z</time>
      </trkpt>
      <trkpt lat="44.85201" lon="0.58599">
        <ele>38</ele>
        <time>2014-07-21T09:35:46.000Z</time>
      </trkpt>
      <trkpt lat="44.852" lon="0.58603">
        <ele>38</ele>
        <time>2014-07-21T09:35:47.000Z</time>
      </trkpt>
      <trkpt lat="44.852" lon="0.58606">
        <ele>38</ele>
        <time>2014-07-21T09:35:48.000Z</time>
      </trkpt>
      <trkpt lat="44.85199" lon="0.5861">
        <ele>38</ele>
        <time>2014-07-21T09:35:49.000Z</time>
      </trkpt>
      <trkpt lat="44.85199" lon="0.58614">
        <ele>38</ele>
        <time>2014-07-21T09:35:50.000Z</time>
      </trkpt>
      <trkpt lat="44.85199" lon="0.58618">
        <ele>38</ele>
        <time>2014-07-21T09:35:51.000Z</time>
      </trkpt>
      <trkpt lat="44.85198" lon="0.58621">
        <ele>38</ele>
        <time>2014-07-21T09:35:52.000Z</time>
      </trkpt>
      <trkpt lat="44.85198" lon="0.58625">
        <ele>38</ele>
        <time>2014-07-21T09:35:53.000Z</time>
      </trkpt>
      <trkpt lat="44.85198" lon="0.58629">
        <ele>38</ele>
        <time>2014-07-21T09:35:54.000Z</time>
      </trkpt>
      <trkpt lat="44.85197" lon="0.58633">
        <ele>38</ele>
        <time>2014-07-21T09:35:55.000Z</time>
      </trkpt>
      <trkpt lat="44.85197" lon="0.58636">
        <ele>38</ele>
        <time>2014-07-21T09:35:56.000Z</time>
      </trkpt>
      <trkpt lat="44.85197" lon="0.5864">
        <ele>38</ele>
        <time>2014-07-21T09:35:57.000Z</time>
      </trkpt>
      <trkpt lat="44.85196" lon="0.58644">
        <ele>38</ele>
        <time>2014-07-21T09:35:58.000Z</time>
      </trkpt>
      <trkpt lat="44.85196" lon="0.58648">
        <ele>38</ele>
        <time>2014-07-21T09:35:59.000Z</time>
      </trkpt>
      <trkpt lat="44.85196" lon="0.58651">
        <ele>38</ele>
        <time>2014-07-21T09:36:00.000Z</time>
      </trkpt>
      <trkpt lat="44.85195" lon="0.58655">
        <ele>38</ele>
        <time>2014-07-21T09:36:01.000Z</time>
      </trkpt>
      <trkpt lat="44.85195" lon="0.58659">
        <ele>38</ele>
        <time>2014-07-21T09:36:02.000Z</time>
      </trkpt>
      <trkpt lat="44.85194" lon="0.58662">
        <ele>38</ele>
        <time>2014-07-21T09:36:03.000Z</time>
      </trkpt>
      <trkpt lat="44.85194" lon="0.58666">
        <ele>38</ele>
        <time>2014-07-21T09:36:04.000Z</time>
      </trkpt>
      <trkpt lat="44.85194" lon="0.5867">
        <ele>38</ele>
        <time>2014-07-21T09:36:05.000Z</time>
      </trkpt>
      <trkpt lat="44.85193" lon="0.58674">
        <ele>38</ele>
        <time>2014-07-21T09:36:06.000Z</time>
      </trkpt>
      <trkpt lat="44.85193" lon="0.58677">
        <ele>38</ele>
        <time>2014-07-21T09:36:07.000Z</time>
      </trkpt>
      <trkpt lat="44.85193" lon="0.58681">
        <ele>38</ele>
        <time>2014-07-21T09:36:08.000Z</time>
      </trkpt>
      <trkpt lat="44.85192" lon="0.58685">
        <ele>38</ele>
        <time>2014-07-21T09:36:09.000Z</time>
      </trkpt>
      <trkpt lat="44.85192" lon="0.58688">
        <ele>38</ele>
        <time>2014-07-21T09:36:10.000Z</time>
      </trkpt>
      <trkpt lat="44.85192" lon="0.58692">
        <ele>38</ele>
        <time>2014-07-21T09:36:11.000Z</time>
      </trkpt>
      <trkpt lat="44.85191" lon="0.58696">
        <ele>38</ele>
        <time>2014-07-21T09:36:12.000Z</time>
      </trkpt>
      <trkpt lat="44.85191" lon="0.58699">
        <ele>38</ele>
        <time>2014-07-21T09:36:13.000Z</time>
      </trkpt>
      <trkpt lat="44.8519" lon="0.58703">
        <ele>38</ele>
        <time>2014-07-21T09:36:14.000Z</time>
      </trkpt>
      <trkpt lat="44.8519" lon="0.58707">
        <ele>38</ele>
        <time>2014-07-21T09:36:15.000Z</time>
      </trkpt>
      <trkpt lat="44.8519" lon="0.58711">
        <ele>38</ele>
        <time>2014-07-21T09:36:16.000Z</time>
      </trkpt>
      <trkpt lat="44.85189" lon="0.58714">
        <ele>38</ele>
        <time>2014-07-21T09:36:17.000Z</time>
      </trkpt>
      <trkpt lat="44.85189" lon="0.58718">
        <ele>38</ele>
        <time>2014-07-21T09:36:18.000Z</time>
      </trkpt>
      <trkpt lat="44.85188" lon="0.58722">
        <ele>38</ele>
        <time>2014-07-21T09:36:19.000Z</time>
      </trkpt>
      <trkpt lat="44.85188" lon="0.58725">
        <ele>37</ele>
        <time>2014-07-21T09:36:20.000Z</time>
      </trkpt>
      <trkpt lat="44.85188" lon="0.58729">
        <ele>37</ele>
        <time>2014-07-21T09:36:21.000Z</time>
      </trkpt>
      <trkpt lat="44.85187" lon="0.58733">
        <ele>37</ele>
        <time>2014-07-21T09:36:22.000Z</time>
      </trkpt>
      <trkpt lat="44.85187" lon="0.58737">
        <ele>37</ele>
        <time>2014-07-21T09:36:23.000Z</time>
      </trkpt>
      <trkpt lat="44.85186" lon="0.5874">
        <ele>37</ele>
        <time>2014-07-21T09:36:24.000Z</time>
      </trkpt>
      <trkpt lat="44.85186" lon="0.58744">
        <ele>37</ele>
        <time>2014-07-21T09:36:25.000Z</time>
      </trkpt>
      <trkpt lat="44.85185" lon="0.58748">
        <ele>37</ele>
        <time>2014-07-21T09:36:26.000Z</time>
      </trkpt>
      <trkpt lat="44.85185" lon="0.58751">
        <ele>37</ele>
        <time>2014-07-21T09:36:27.000Z</time>
      </trkpt>
      <trkpt lat="44.85185" lon="0.58755">
        <ele>37</ele>
        <time>2014-07-21T09:36:28.000Z</time>
      </trkpt>
      <trkpt lat="44.85184" lon="0.58759">
        <ele>37</ele>
        <time>2014-07-21T09:36:29.000Z</time>
      </trkpt>
      <trkpt lat="44.85184" lon="0.58763">
        <ele>37</ele>
        <time>2014-07-21T09:36:30.000Z</time>
      </trkpt>
      <trkpt lat="44.85183" lon="0.58767">
        <ele>37</ele>
        <time>2014-07-21T09:36:31.000Z</time>
      </trkpt>
      <trkpt lat="44.85183" lon="0.5877">
        <ele>37</ele>
        <time>2014-07-21T09:36:32.000Z</time>
      </trkpt>
      <trkpt lat="44.85182" lon="0.58774">
        <ele>37</ele>
        <time>2014-07-21T09:36:33.000Z</time>
      </trkpt>
      <trkpt lat="44.85182" lon="0.58778">
        <ele>37</ele>
        <time>2014-07-21T09:36:34.000Z</time>
      </trkpt>
      <trkpt lat="44.85182" lon="0.58782">
        <ele>37</ele>
        <time>2014-07-21T09:36:35.000Z</time>
      </trkpt>
      <trkpt lat="44.85181" lon="0.58785">
        <ele>37</ele>
        <time>2014-07-21T09:36:36.000Z</time>
      </trkpt>
      <trkpt lat="44.85181" lon="0.58789">
        <ele>37</ele>
        <time>2014-07-21T09:36:37.000Z</time>
      </trkpt>
      <trkpt lat="44.8518" lon="0.58793">
        <ele>37</ele>
        <time>2014-07-21T09:36:38.000Z</time>
      </trkpt>
      <trkpt lat="44.8518" lon="0.58797">
        <ele>37</ele>
        <time>2014-07-21T09:36:39.000Z</time>
      </trkpt>
      <trkpt lat="44.8518" lon="0.58801">
        <ele>37</ele>
        <time>2014-07-21T09:36:40.000Z</time>
      </trkpt>
      <trkpt lat="44.8518" lon="0.58804">
        <ele>37</ele>
        <time>2014-07-21T09:36:41.000Z</time>
      </trkpt>
      <trkpt lat="44.85179" lon="0.58808">
        <ele>37</ele>
        <time>2014-07-21T09:36:42.000Z</time>
      </trkpt>
      <trkpt lat="44.85179" lon="0.58812">
        <ele>37</ele>
        <time>2014-07-21T09:36:43.000Z</time>
      </trkpt>
      <trkpt lat="44.85179" lon="0.58816">
        <ele>37</ele>
        <time>2014-07-21T09:36:44.000Z</time>
      </trkpt>
      <trkpt lat="44.85179" lon="0.5882">
        <ele>37</ele>
        <time>2014-07-21T09:36:45.000Z</time>
      </trkpt>
      <trkpt lat="44.85179" lon="0.58823">
        <ele>37</ele>
        <time>2014-07-21T09:36:46.000Z</time>
      </trkpt>
      <trkpt lat="44.85179" lon="0.58827">
        <ele>37</ele>
        <time>2014-07-21T09:36:47.000Z</time>
      </trkpt>
      <trkpt lat="44.85179" lon="0.58831">
        <ele>37</ele>
        <time>2014-07-21T09:36:48.000Z</time>
      </trkpt>
      <trkpt lat="44.85179" lon="0.58835">
        <ele>37</ele>
        <time>2014-07-21T09:36:49.000Z</time>
      </trkpt>
      <trkpt lat="44.85179" lon="0.58838">
        <ele>37</ele>
        <time>2014-07-21T09:36:50.000Z</time>
      </trkpt>
      <trkpt lat="44.85179" lon="0.58842">
        <ele>37</ele>
        <time>2014-07-21T09:36:51.000Z</time>
      </trkpt>
      <trkpt lat="44.85179" lon="0.58846">
        <ele>37</ele>
        <time>2014-07-21T09:36:52.000Z</time>
      </trkpt>
      <trkpt lat="44.8518" lon="0.5885">
        <ele>37</ele>
        <time>2014-07-21T09:36:53.000Z</time>
      </trkpt>
      <trkpt lat="44.8518" lon="0.58854">
        <ele>37</ele>
        <time>2014-07-21T09:36:54.000Z</time>
      </trkpt>
      <trkpt lat="44.8518" lon="0.58857">
        <ele>37</ele>
        <time>2014-07-21T09:36:55.000Z</time>
      </trkpt>
      <trkpt lat="44.85181" lon="0.58861">
        <ele>37</ele>
        <time>2014-07-21T09:36:56.000Z</time>
      </trkpt>
      <trkpt lat="44.85181" lon="0.58865">
        <ele>37</ele>
        <time>2014-07-21T09:36:57.000Z</time>
      </trkpt>
      <trkpt lat="44.85182" lon="0.58869">
        <ele>37</ele>
        <time>2014-07-21T09:36:58.000Z</time>
      </trkpt>
      <trkpt lat="44.85183" lon="0.58873">
        <ele>37</ele>
        <time>2014-07-21T09:36:59.000Z</time>
      </trkpt>
      <trkpt lat="44.85183" lon="0.58876">
        <ele>37</ele>
        <time>2014-07-21T09:37:00.000Z</time>
      </trkpt>
      <trkpt lat="44.85184" lon="0.5888">
        <ele>37</ele>
        <time>2014-07-21T09:37:01.000Z</time>
      </trkpt>
      <trkpt lat="44.85185" lon="0.58884">
        <ele>37</ele>
        <time>2014-07-21T09:37:02.000Z</time>
      </trkpt>
      <trkpt lat="44.85186" lon="0.58887">
        <ele>37</ele>
        <time>2014-07-21T09:37:03.000Z</time>
      </trkpt>
      <trkpt lat="44.85187" lon="0.58891">
        <ele>37</ele>
        <time>2014-07-21T09:37:04.000Z</time>
      </trkpt>
      <trkpt lat="44.85187" lon="0.58895">
        <ele>37</ele>
        <time>2014-07-21T09:37:05.000Z</time>
      </trkpt>
      <trkpt lat="44.85188" lon="0.58898">
        <ele>37</ele>
        <time>2014-07-21T09:37:06.000Z</time>
      </trkpt>
      <trkpt lat="44.85189" lon="0.58902">
        <ele>37</ele>
        <time>2014-07-21T09:37:07.000Z</time>
      </trkpt>
      <trkpt lat="44.8519" lon="0.58905">
        <ele>37</ele>
        <time>2014-07-21T09:37:08.000Z</time>
      </trkpt>
      <trkpt lat="44.8519" lon="0.58908">
        <ele>37</ele>
        <time>2014-07-21T09:37:09.000Z</time>
      </trkpt>
      <trkpt lat="44.8519" lon="0.58912">
        <ele>37</ele>
        <time>2014-07-21T09:37:10.000Z</time>
      </trkpt>
      <trkpt lat="44.85191" lon="0.58916">
        <ele>37</ele>
        <time>2014-07-21T09:37:11.000Z</time>
      </trkpt>
      <trkpt lat="44.85191" lon="0.58919">
        <ele>37</ele>
        <time>2014-07-21T09:37:12.000Z</time>
      </trkpt>
      <trkpt lat="44.85191" lon="0.58923">
        <ele>37</ele>
        <time>2014-07-21T09:37:13.000Z</time>
      </trkpt>
      <trkpt lat="44.85191" lon="0.58927">
        <ele>37</ele>
        <time>2014-07-21T09:37:14.000Z</time>
      </trkpt>
      <trkpt lat="44.85192" lon="0.5893">
        <ele>37</ele>
        <time>2014-07-21T09:37:15.000Z</time>
      </trkpt>
      <trkpt lat="44.85194" lon="0.58932">
        <ele>37</ele>
        <time>2014-07-21T09:37:16.000Z</time>
      </trkpt>
      <trkpt lat="44.85195" lon="0.58935">
        <ele>37</ele>
        <time>2014-07-21T09:37:17.000Z</time>
      </trkpt>
      <trkpt lat="44.85197" lon="0.58937">
        <ele>37</ele>
        <time>2014-07-21T09:37:18.000Z</time>
      </trkpt>
      <trkpt lat="44.85199" lon="0.5894">
        <ele>37</ele>
        <time>2014-07-21T09:37:19.000Z</time>
      </trkpt>
      <trkpt lat="44.852" lon="0.58943">
        <ele>37</ele>
        <time>2014-07-21T09:37:20.000Z</time>
      </trkpt>
      <trkpt lat="44.85202" lon="0.58946">
        <ele>36</ele>
        <time>2014-07-21T09:37:21.000Z</time>
      </trkpt>
      <trkpt lat="44.85203" lon="0.5895">
        <ele>36</ele>
        <time>2014-07-21T09:37:22.000Z</time>
      </trkpt>
      <trkpt lat="44.85203" lon="0.58953">
        <ele>36</ele>
        <time>2014-07-21T09:37:23.000Z</time>
      </trkpt>
      <trkpt lat="44.85204" lon="0.58957">
        <ele>36</ele>
        <time>2014-07-21T09:37:24.000Z</time>
      </trkpt>
      <trkpt lat="44.85205" lon="0.58961">
        <ele>36</ele>
        <time>2014-07-21T09:37:25.000Z</time>
      </trkpt>
      <trkpt lat="44.85205" lon="0.58964">
        <ele>36</ele>
        <time>2014-07-21T09:37:26.000Z</time>
      </trkpt>
      <trkpt lat="44.85205" lon="0.58968">
        <ele>36</ele>
        <time>2014-07-21T09:37:27.000Z</time>
      </trkpt>
      <trkpt lat="44.85205" lon="0.58972">
        <ele>36</ele>
        <time>2014-07-21T09:37:28.000Z</time>
      </trkpt>
      <trkpt lat="44.85205" lon="0.58976">
        <ele>36</ele>
        <time>2014-07-21T09:37:29.000Z</time>
      </trkpt>
      <trkpt lat="44.85205" lon="0.58979">
        <ele>36</ele>
        <time>2014-07-21T09:37:30.000Z</time>
      </trkpt>
      <trkpt lat="44.85205" lon="0.58983">
        <ele>36</ele>
        <time>2014-07-21T09:37:31.000Z</time>
      </trkpt>
      <trkpt lat="44.85205" lon="0.58987">
        <ele>35</ele>
        <time>2014-07-21T09:37:32.000Z</time>
      </trkpt>
      <trkpt lat="44.85205" lon="0.58991">
        <ele>35</ele>
        <time>2014-07-21T09:37:33.000Z</time>
      </trkpt>
      <trkpt lat="44.85205" lon="0.58995">
        <ele>35</ele>
        <time>2014-07-21T09:37:34.000Z</time>
      </trkpt>
      <trkpt lat="44.85205" lon="0.58999">
        <ele>35</ele>
        <time>2014-07-21T09:37:35.000Z</time>
      </trkpt>
      <trkpt lat="44.85206" lon="0.59003">
        <ele>35</ele>
        <time>2014-07-21T09:37:36.000Z</time>
      </trkpt>
      <trkpt lat="44.85206" lon="0.59007">
        <ele>35</ele>
        <time>2014-07-21T09:37:37.000Z</time>
      </trkpt>
      <trkpt lat="44.85206" lon="0.59011">
        <ele>35</ele>
        <time>2014-07-21T09:37:38.000Z</time>
      </trkpt>
      <trkpt lat="44.85206" lon="0.59015">
        <ele>35</ele>
        <time>2014-07-21T09:37:39.000Z</time>
      </trkpt>
      <trkpt lat="44.85207" lon="0.59019">
        <ele>35</ele>
        <time>2014-07-21T09:37:40.000Z</time>
      </trkpt>
      <trkpt lat="44.85207" lon="0.59023">
        <ele>35</ele>
        <time>2014-07-21T09:37:41.000Z</time>
      </trkpt>
      <trkpt lat="44.85207" lon="0.59027">
        <ele>35</ele>
        <time>2014-07-21T09:37:42.000Z</time>
      </trkpt>
      <trkpt lat="44.85207" lon="0.5903">
        <ele>35</ele>
        <time>2014-07-21T09:37:43.000Z</time>
      </trkpt>
      <trkpt lat="44.85208" lon="0.59034">
        <ele>35</ele>
        <time>2014-07-21T09:37:44.000Z</time>
      </trkpt>
      <trkpt lat="44.85208" lon="0.59038">
        <ele>35</ele>
        <time>2014-07-21T09:37:45.000Z</time>
      </trkpt>
      <trkpt lat="44.85208" lon="0.59042">
        <ele>35</ele>
        <time>2014-07-21T09:37:46.000Z</time>
      </trkpt>
      <trkpt lat="44.85208" lon="0.59046">
        <ele>35</ele>
        <time>2014-07-21T09:37:47.000Z</time>
      </trkpt>
      <trkpt lat="44.85209" lon="0.59049">
        <ele>35</ele>
        <time>2014-07-21T09:37:48.000Z</time>
      </trkpt>
      <trkpt lat="44.85209" lon="0.59053">
        <ele>35</ele>
        <time>2014-07-21T09:37:49.000Z</time>
      </trkpt>
      <trkpt lat="44.85209" lon="0.59057">
        <ele>35</ele>
        <time>2014-07-21T09:37:50.000Z</time>
      </trkpt>
      <trkpt lat="44.8521" lon="0.5906">
        <ele>35</ele>
        <time>2014-07-21T09:37:51.000Z</time>
      </trkpt>
      <trkpt lat="44.8521" lon="0.59064">
        <ele>35</ele>
        <time>2014-07-21T09:37:52.000Z</time>
      </trkpt>
      <trkpt lat="44.8521" lon="0.59068">
        <ele>35</ele>
        <time>2014-07-21T09:37:53.000Z</time>
      </trkpt>
      <trkpt lat="44.85211" lon="0.59072">
        <ele>35</ele>
        <time>2014-07-21T09:37:54.000Z</time>
      </trkpt>
      <trkpt lat="44.85211" lon="0.59075">
        <ele>34</ele>
        <time>2014-07-21T09:37:55.000Z</time>
      </trkpt>
      <trkpt lat="44.85212" lon="0.59079">
        <ele>34</ele>
        <time>2014-07-21T09:37:56.000Z</time>
      </trkpt>
      <trkpt lat="44.85212" lon="0.59083">
        <ele>34</ele>
        <time>2014-07-21T09:37:57.000Z</time>
      </trkpt>
      <trkpt lat="44.85213" lon="0.59087">
        <ele>34</ele>
        <time>2014-07-21T09:37:58.000Z</time>
      </trkpt>
      <trkpt lat="44.85213" lon="0.59091">
        <ele>34</ele>
        <time>2014-07-21T09:37:59.000Z</time>
      </trkpt>
      <trkpt lat="44.85213" lon="0.59095">
        <ele>34</ele>
        <time>2014-07-21T09:38:00.000Z</time>
      </trkpt>
      <trkpt lat="44.85213" lon="0.59099">
        <ele>34</ele>
        <time>2014-07-21T09:38:01.000Z</time>
      </trkpt>
      <trkpt lat="44.85213" lon="0.59102">
        <ele>34</ele>
        <time>2014-07-21T09:38:02.000Z</time>
      </trkpt>
      <trkpt lat="44.85213" lon="0.59106">
        <ele>34</ele>
        <time>2014-07-21T09:38:03.000Z</time>
      </trkpt>
      <trkpt lat="44.85212" lon="0.5911">
        <ele>34</ele>
        <time>2014-07-21T09:38:04.000Z</time>
      </trkpt>
      <trkpt lat="44.85211" lon="0.59113">
        <ele>34</ele>
        <time>2014-07-21T09:38:05.000Z</time>
      </trkpt>
      <trkpt lat="44.85211" lon="0.59117">
        <ele>34</ele>
        <time>2014-07-21T09:38:06.000Z</time>
      </trkpt>
      <trkpt lat="44.8521" lon="0.59121">
        <ele>34</ele>
        <time>2014-07-21T09:38:07.000Z</time>
      </trkpt>
      <trkpt lat="44.8521" lon="0.59124">
        <ele>34</ele>
        <time>2014-07-21T09:38:08.000Z</time>
      </trkpt>
      <trkpt lat="44.8521" lon="0.59128">
        <ele>34</ele>
        <time>2014-07-21T09:38:09.000Z</time>
      </trkpt>
      <trkpt lat="44.8521" lon="0.59132">
        <ele>34</ele>
        <time>2014-07-21T09:38:10.000Z</time>
      </trkpt>
      <trkpt lat="44.8521" lon="0.59136">
        <ele>34</ele>
        <time>2014-07-21T09:38:11.000Z</time>
      </trkpt>
      <trkpt lat="44.8521" lon="0.5914">
        <ele>34</ele>
        <time>2014-07-21T09:38:12.000Z</time>
      </trkpt>
      <trkpt lat="44.8521" lon="0.59144">
        <ele>34</ele>
        <time>2014-07-21T09:38:13.000Z</time>
      </trkpt>
      <trkpt lat="44.8521" lon="0.59147">
        <ele>34</ele>
        <time>2014-07-21T09:38:14.000Z</time>
      </trkpt>
      <trkpt lat="44.8521" lon="0.59151">
        <ele>34</ele>
        <time>2014-07-21T09:38:15.000Z</time>
      </trkpt>
      <trkpt lat="44.8521" lon="0.59155">
        <ele>34</ele>
        <time>2014-07-21T09:38:16.000Z</time>
      </trkpt>
      <trkpt lat="44.8521" lon="0.59159">
        <ele>34</ele>
        <time>2014-07-21T09:38:17.000Z</time>
      </trkpt>
      <trkpt lat="44.85209" lon="0.59163">
        <ele>34</ele>
        <time>2014-07-21T09:38:18.000Z</time>
      </trkpt>
      <trkpt lat="44.85209" lon="0.59167">
        <ele>34</ele>
        <time>2014-07-21T09:38:19.000Z</time>
      </trkpt>
      <trkpt lat="44.85208" lon="0.59171">
        <ele>34</ele>
        <time>2014-07-21T09:38:20.000Z</time>
      </trkpt>
      <trkpt lat="44.85207" lon="0.59175">
        <ele>34</ele>
        <time>2014-07-21T09:38:21.000Z</time>
      </trkpt>
      <trkpt lat="44.85206" lon="0.59178">
        <ele>34</ele>
        <time>2014-07-21T09:38:22.000Z</time>
      </trkpt>
      <trkpt lat="44.85205" lon="0.59181">
        <ele>34</ele>
        <time>2014-07-21T09:38:23.000Z</time>
      </trkpt>
      <trkpt lat="44.85203" lon="0.59185">
        <ele>34</ele>
        <time>2014-07-21T09:38:24.000Z</time>
      </trkpt>
      <trkpt lat="44.85202" lon="0.59188">
        <ele>34</ele>
        <time>2014-07-21T09:38:25.000Z</time>
      </trkpt>
      <trkpt lat="44.852" lon="0.5919">
        <ele>34</ele>
        <time>2014-07-21T09:38:26.000Z</time>
      </trkpt>
      <trkpt lat="44.85198" lon="0.59193">
        <ele>34</ele>
        <time>2014-07-21T09:38:27.000Z</time>
      </trkpt>
      <trkpt lat="44.85196" lon="0.59196">
        <ele>34</ele>
        <time>2014-07-21T09:38:28.000Z</time>
      </trkpt>
      <trkpt lat="44.85195" lon="0.59198">
        <ele>34</ele>
        <time>2014-07-21T09:38:29.000Z</time>
      </trkpt>
      <trkpt lat="44.85193" lon="0.59201">
        <ele>34</ele>
        <time>2014-07-21T09:38:30.000Z</time>
      </trkpt>
      <trkpt lat="44.85191" lon="0.59203">
        <ele>34</ele>
        <time>2014-07-21T09:38:31.000Z</time>
      </trkpt>
      <trkpt lat="44.85189" lon="0.59206">
        <ele>34</ele>
        <time>2014-07-21T09:38:32.000Z</time>
      </trkpt>
      <trkpt lat="44.85187" lon="0.59208">
        <ele>34</ele>
        <time>2014-07-21T09:38:33.000Z</time>
      </trkpt>
      <trkpt lat="44.85185" lon="0.59211">
        <ele>34</ele>
        <time>2014-07-21T09:38:34.000Z</time>
      </trkpt>
      <trkpt lat="44.85183" lon="0.59213">
        <ele>34</ele>
        <time>2014-07-21T09:38:35.000Z</time>
      </trkpt>
      <trkpt lat="44.85181" lon="0.59215">
        <ele>34</ele>
        <time>2014-07-21T09:38:36.000Z</time>
      </trkpt>
      <trkpt lat="44.85179" lon="0.59218">
        <ele>34</ele>
        <time>2014-07-21T09:38:37.000Z</time>
      </trkpt>
      <trkpt lat="44.85177" lon="0.5922">
        <ele>34</ele>
        <time>2014-07-21T09:38:38.000Z</time>
      </trkpt>
      <trkpt lat="44.85175" lon="0.59222">
        <ele>34</ele>
        <time>2014-07-21T09:38:39.000Z</time>
      </trkpt>
      <trkpt lat="44.85173" lon="0.59225">
        <ele>34</ele>
        <time>2014-07-21T09:38:40.000Z</time>
      </trkpt>
      <trkpt lat="44.85171" lon="0.59227">
        <ele>34</ele>
        <time>2014-07-21T09:38:41.000Z</time>
      </trkpt>
      <trkpt lat="44.85169" lon="0.59229">
        <ele>34</ele>
        <time>2014-07-21T09:38:42.000Z</time>
      </trkpt>
      <trkpt lat="44.85167" lon="0.59231">
        <ele>34</ele>
        <time>2014-07-21T09:38:43.000Z</time>
      </trkpt>
      <trkpt lat="44.85165" lon="0.59234">
        <ele>34</ele>
        <time>2014-07-21T09:38:44.000Z</time>
      </trkpt>
      <trkpt lat="44.85163" lon="0.59236">
        <ele>34</ele>
        <time>2014-07-21T09:38:45.000Z</time>
      </trkpt>
      <trkpt lat="44.85161" lon="0.59238">
        <ele>34</ele>
        <time>2014-07-21T09:38:46.000Z</time>
      </trkpt>
      <trkpt lat="44.85159" lon="0.59241">
        <ele>34</ele>
        <time>2014-07-21T09:38:47.000Z</time>
      </trkpt>
      <trkpt lat="44.85158" lon="0.59243">
        <ele>34</ele>
        <time>2014-07-21T09:38:48.000Z</time>
      </trkpt>
      <trkpt lat="44.85156" lon="0.59246">
        <ele>34</ele>
        <time>2014-07-21T09:38:49.000Z</time>
      </trkpt>
      <trkpt lat="44.85154" lon="0.59249">
        <ele>34</ele>
        <time>2014-07-21T09:38:50.000Z</time>
      </trkpt>
      <trkpt lat="44.85152" lon="0.59252">
        <ele>34</ele>
        <time>2014-07-21T09:38:51.000Z</time>
      </trkpt>
      <trkpt lat="44.85151" lon="0.59255">
        <ele>34</ele>
        <time>2014-07-21T09:38:52.000Z</time>
      </trkpt>
      <trkpt lat="44.85149" lon="0.59258">
        <ele>34</ele>
        <time>2014-07-21T09:38:53.000Z</time>
      </trkpt>
      <trkpt lat="44.85148" lon="0.59261">
        <ele>34</ele>
        <time>2014-07-21T09:38:54.000Z</time>
      </trkpt>
      <trkpt lat="44.85146" lon="0.59264">
        <ele>34</ele>
        <time>2014-07-21T09:38:55.000Z</time>
      </trkpt>
      <trkpt lat="44.85145" lon="0.59268">
        <ele>34</ele>
        <time>2014-07-21T09:38:56.000Z</time>
      </trkpt>
      <trkpt lat="44.85144" lon="0.59271">
        <ele>34</ele>
        <time>2014-07-21T09:38:57.000Z</time>
      </trkpt>
      <trkpt lat="44.85143" lon="0.59274">
        <ele>34</ele>
        <time>2014-07-21T09:38:58.000Z</time>
      </trkpt>
      <trkpt lat="44.85141" lon="0.59278">
        <ele>34</ele>
        <time>2014-07-21T09:38:59.000Z</time>
      </trkpt>
      <trkpt lat="44.8514" lon="0.59281">
        <ele>34</ele>
        <time>2014-07-21T09:39:00.000Z</time>
      </trkpt>
      <trkpt lat="44.85139" lon="0.59285">
        <ele>34</ele>
        <time>2014-07-21T09:39:01.000Z</time>
      </trkpt>
      <trkpt lat="44.85138" lon="0.59288">
        <ele>34</ele>
        <time>2014-07-21T09:39:02.000Z</time>
      </trkpt>
      <trkpt lat="44.85137" lon="0.59291">
        <ele>34</ele>
        <time>2014-07-21T09:39:03.000Z</time>
      </trkpt>
      <trkpt lat="44.85136" lon="0.59294">
        <ele>34</ele>
        <time>2014-07-21T09:39:04.000Z</time>
      </trkpt>
      <trkpt lat="44.85135" lon="0.59298">
        <ele>34</ele>
        <time>2014-07-21T09:39:05.000Z</time>
      </trkpt>
      <trkpt lat="44.85135" lon="0.59301">
        <ele>34</ele>
        <time>2014-07-21T09:39:06.000Z</time>
      </trkpt>
      <trkpt lat="44.85134" lon="0.59305">
        <ele>34</ele>
        <time>2014-07-21T09:39:07.000Z</time>
      </trkpt>
      <trkpt lat="44.85133" lon="0.59308">
        <ele>34</ele>
        <time>2014-07-21T09:39:08.000Z</time>
      </trkpt>
      <trkpt lat="44.85132" lon="0.59312">
        <ele>34</ele>
        <time>2014-07-21T09:39:09.000Z</time>
      </trkpt>
      <trkpt lat="44.85131" lon="0.59315">
        <ele>34</ele>
        <time>2014-07-21T09:39:10.000Z</time>
      </trkpt>
      <trkpt lat="44.8513" lon="0.59319">
        <ele>34</ele>
        <time>2014-07-21T09:39:11.000Z</time>
      </trkpt>
      <trkpt lat="44.85129" lon="0.59322">
        <ele>34</ele>
        <time>2014-07-21T09:39:12.000Z</time>
      </trkpt>
      <trkpt lat="44.85128" lon="0.59325">
        <ele>34</ele>
        <time>2014-07-21T09:39:13.000Z</time>
      </trkpt>
      <trkpt lat="44.85126" lon="0.59328">
        <ele>34</ele>
        <time>2014-07-21T09:39:14.000Z</time>
      </trkpt>
      <trkpt lat="44.85125" lon="0.5933">
        <ele>35</ele>
        <time>2014-07-21T09:39:15.000Z</time>
      </trkpt>
      <trkpt lat="44.85123" lon="0.59332">
        <ele>35</ele>
        <time>2014-07-21T09:39:16.000Z</time>
      </trkpt>
      <trkpt lat="44.85121" lon="0.59333">
        <ele>34</ele>
        <time>2014-07-21T09:39:17.000Z</time>
      </trkpt>
      <trkpt lat="44.85119" lon="0.59334">
        <ele>34</ele>
        <time>2014-07-21T09:39:18.000Z</time>
      </trkpt>
      <trkpt lat="44.85116" lon="0.59334">
        <ele>34</ele>
        <time>2014-07-21T09:39:19.000Z</time>
      </trkpt>
      <trkpt lat="44.85113" lon="0.59334">
        <ele>34</ele>
        <time>2014-07-21T09:39:20.000Z</time>
      </trkpt>
      <trkpt lat="44.85111" lon="0.59333">
        <ele>35</ele>
        <time>2014-07-21T09:39:21.000Z</time>
      </trkpt>
      <trkpt lat="44.85108" lon="0.59332">
        <ele>35</ele>
        <time>2014-07-21T09:39:22.000Z</time>
      </trkpt>
      <trkpt lat="44.85105" lon="0.5933">
        <ele>35</ele>
        <time>2014-07-21T09:39:23.000Z</time>
      </trkpt>
      <trkpt lat="44.85103" lon="0.59328">
        <ele>35</ele>
        <time>2014-07-21T09:39:24.000Z</time>
      </trkpt>
      <trkpt lat="44.851" lon="0.59327">
        <ele>35</ele>
        <time>2014-07-21T09:39:25.000Z</time>
      </trkpt>
      <trkpt lat="44.85098" lon="0.59325">
        <ele>35</ele>
        <time>2014-07-21T09:39:26.000Z</time>
      </trkpt>
      <trkpt lat="44.85095" lon="0.59323">
        <ele>35</ele>
        <time>2014-07-21T09:39:27.000Z</time>
      </trkpt>
      <trkpt lat="44.85093" lon="0.59321">
        <ele>35</ele>
        <time>2014-07-21T09:39:28.000Z</time>
      </trkpt>
      <trkpt lat="44.85091" lon="0.5932">
        <ele>35</ele>
        <time>2014-07-21T09:39:29.000Z</time>
      </trkpt>
      <trkpt lat="44.85088" lon="0.59318">
        <ele>35</ele>
        <time>2014-07-21T09:39:30.000Z</time>
      </trkpt>
      <trkpt lat="44.85086" lon="0.59316">
        <ele>35</ele>
        <time>2014-07-21T09:39:31.000Z</time>
      </trkpt>
      <trkpt lat="44.85083" lon="0.59315">
        <ele>35</ele>
        <time>2014-07-21T09:39:32.000Z</time>
      </trkpt>
      <trkpt lat="44.85081" lon="0.59313">
        <ele>35</ele>
        <time>2014-07-21T09:39:33.000Z</time>
      </trkpt>
      <trkpt lat="44.85079" lon="0.59312">
        <ele>35</ele>
        <time>2014-07-21T09:39:34.000Z</time>
      </trkpt>
      <trkpt lat="44.85076" lon="0.5931">
        <ele>35</ele>
        <time>2014-07-21T09:39:35.000Z</time>
      </trkpt>
      <trkpt lat="44.85074" lon="0.59308">
        <ele>35</ele>
        <time>2014-07-21T09:39:36.000Z</time>
      </trkpt>
      <trkpt lat="44.85072" lon="0.59307">
        <ele>35</ele>
        <time>2014-07-21T09:39:37.000Z</time>
      </trkpt>
      <trkpt lat="44.85069" lon="0.59305">
        <ele>35</ele>
        <time>2014-07-21T09:39:38.000Z</time>
      </trkpt>
      <trkpt lat="44.85067" lon="0.59303">
        <ele>35</ele>
        <time>2014-07-21T09:39:39.000Z</time>
      </trkpt>
      <trkpt lat="44.85065" lon="0.59301">
        <ele>35</ele>
        <time>2014-07-21T09:39:40.000Z</time>
      </trkpt>
      <trkpt lat="44.85062" lon="0.593">
        <ele>35</ele>
        <time>2014-07-21T09:39:41.000Z</time>
      </trkpt>
      <trkpt lat="44.8506" lon="0.59298">
        <ele>35</ele>
        <time>2014-07-21T09:39:42.000Z</time>
      </trkpt>
      <trkpt lat="44.85058" lon="0.59296">
        <ele>35</ele>
        <time>2014-07-21T09:39:43.000Z</time>
      </trkpt>
      <trkpt lat="44.85055" lon="0.59295">
        <ele>35</ele>
        <time>2014-07-21T09:39:44.000Z</time>
      </trkpt>
      <trkpt lat="44.85053" lon="0.59294">
        <ele>35</ele>
        <time>2014-07-21T09:39:45.000Z</time>
      </trkpt>
      <trkpt lat="44.8505" lon="0.59292">
        <ele>35</ele>
        <time>2014-07-21T09:39:46.000Z</time>
      </trkpt>
      <trkpt lat="44.85048" lon="0.59291">
        <ele>35</ele>
        <time>2014-07-21T09:39:47.000Z</time>
      </trkpt>
      <trkpt lat="44.85045" lon="0.5929">
        <ele>35</ele>
        <time>2014-07-21T09:39:48.000Z</time>
      </trkpt>
      <trkpt lat="44.85043" lon="0.59289">
        <ele>35</ele>
        <time>2014-07-21T09:39:49.000Z</time>
      </trkpt>
      <trkpt lat="44.8504" lon="0.59288">
        <ele>35</ele>
        <time>2014-07-21T09:39:50.000Z</time>
      </trkpt>
      <trkpt lat="44.85038" lon="0.59287">
        <ele>35</ele>
        <time>2014-07-21T09:39:51.000Z</time>
      </trkpt>
      <trkpt lat="44.85035" lon="0.59287">
        <ele>35</ele>
        <time>2014-07-21T09:39:52.000Z</time>
      </trkpt>
      <trkpt lat="44.85032" lon="0.59286">
        <ele>35</ele>
        <time>2014-07-21T09:39:53.000Z</time>
      </trkpt>
      <trkpt lat="44.8503" lon="0.59285">
        <ele>35</ele>
        <time>2014-07-21T09:39:54.000Z</time>
      </trkpt>
      <trkpt lat="44.85027" lon="0.59285">
        <ele>35</ele>
        <time>2014-07-21T09:39:55.000Z</time>
      </trkpt>
      <trkpt lat="44.85024" lon="0.59284">
        <ele>35</ele>
        <time>2014-07-21T09:39:56.000Z</time>
      </trkpt>
      <trkpt lat="44.85022" lon="0.59284">
        <ele>35</ele>
        <time>2014-07-21T09:39:57.000Z</time>
      </trkpt>
      <trkpt lat="44.85019" lon="0.59284">
        <ele>35</ele>
        <time>2014-07-21T09:39:58.000Z</time>
      </trkpt>
      <trkpt lat="44.85016" lon="0.59283">
        <ele>35</ele>
        <time>2014-07-21T09:39:59.000Z</time>
      </trkpt>
      <trkpt lat="44.85014" lon="0.59283">
        <ele>35</ele>
        <time>2014-07-21T09:40:00.000Z</time>
      </trkpt>
      <trkpt lat="44.85011" lon="0.59283">
        <ele>35</ele>
        <time>2014-07-21T09:40:01.000Z</time>
      </trkpt>
      <trkpt lat="44.85009" lon="0.59283">
        <ele>35</ele>
        <time>2014-07-21T09:40:02.000Z</time>
      </trkpt>
      <trkpt lat="44.85006" lon="0.59283">
        <ele>35</ele>
        <time>2014-07-21T09:40:03.000Z</time>
      </trkpt>
      <trkpt lat="44.85003" lon="0.59282">
        <ele>35</ele>
        <time>2014-07-21T09:40:04.000Z</time>
      </trkpt>
      <trkpt lat="44.85001" lon="0.59282">
        <ele>35</ele>
        <time>2014-07-21T09:40:05.000Z</time>
      </trkpt>
      <trkpt lat="44.84998" lon="0.59282">
        <ele>36</ele>
        <time>2014-07-21T09:40:06.000Z</time>
      </trkpt>
      <trkpt lat="44.84996" lon="0.59282">
        <ele>36</ele>
        <time>2014-07-21T09:40:07.000Z</time>
      </trkpt>
      <trkpt lat="44.84993" lon="0.59282">
        <ele>36</ele>
        <time>2014-07-21T09:40:08.000Z</time>
      </trkpt>
      <trkpt lat="44.8499" lon="0.59282">
        <ele>36</ele>
        <time>2014-07-21T09:40:09.000Z</time>
      </trkpt>
      <trkpt lat="44.84988" lon="0.59282">
        <ele>36</ele>
        <time>2014-07-21T09:40:10.000Z</time>
      </trkpt>
      <trkpt lat="44.84985" lon="0.59282">
        <ele>36</ele>
        <time>2014-07-21T09:40:11.000Z</time>
      </trkpt>
      <trkpt lat="44.84983" lon="0.59282">
        <ele>36</ele>
        <time>2014-07-21T09:40:12.000Z</time>
      </trkpt>
      <trkpt lat="44.8498" lon="0.59282">
        <ele>36</ele>
        <time>2014-07-21T09:40:13.000Z</time>
      </trkpt>
      <trkpt lat="44.84978" lon="0.59282">
        <ele>36</ele>
        <time>2014-07-21T09:40:14.000Z</time>
      </trkpt>
      <trkpt lat="44.84975" lon="0.59282">
        <ele>36</ele>
        <time>2014-07-21T09:40:15.000Z</time>
      </trkpt>
      <trkpt lat="44.84972" lon="0.59283">
        <ele>36</ele>
        <time>2014-07-21T09:40:16.000Z</time>
      </trkpt>
      <trkpt lat="44.8497" lon="0.59283">
        <ele>36</ele>
        <time>2014-07-21T09:40:17.000Z</time>
      </trkpt>
      <trkpt lat="44.84967" lon="0.59283">
        <ele>35</ele>
        <time>2014-07-21T09:40:18.000Z</time>
      </trkpt>
      <trkpt lat="44.84965" lon="0.59283">
        <ele>36</ele>
        <time>2014-07-21T09:40:19.000Z</time>
      </trkpt>
      <trkpt lat="44.84962" lon="0.59283">
        <ele>36</ele>
        <time>2014-07-21T09:40:20.000Z</time>
      </trkpt>
      <trkpt lat="44.8496" lon="0.59283">
        <ele>36</ele>
        <time>2014-07-21T09:40:21.000Z</time>
      </trkpt>
      <trkpt lat="44.84957" lon="0.59283">
        <ele>36</ele>
        <time>2014-07-21T09:40:22.000Z</time>
      </trkpt>
      <trkpt lat="44.84954" lon="0.59283">
        <ele>36</ele>
        <time>2014-07-21T09:40:23.000Z</time>
      </trkpt>
      <trkpt lat="44.84952" lon="0.59283">
        <ele>35</ele>
        <time>2014-07-21T09:40:24.000Z</time>
      </trkpt>
      <trkpt lat="44.84949" lon="0.59283">
        <ele>36</ele>
        <time>2014-07-21T09:40:25.000Z</time>
      </trkpt>
      <trkpt lat="44.84947" lon="0.59283">
        <ele>36</ele>
        <time>2014-07-21T09:40:26.000Z</time>
      </trkpt>
      <trkpt lat="44.84944" lon="0.59284">
        <ele>35</ele>
        <time>2014-07-21T09:40:27.000Z</time>
      </trkpt>
      <trkpt lat="44.84942" lon="0.59284">
        <ele>36</ele>
        <time>2014-07-21T09:40:28.000Z</time>
      </trkpt>
      <trkpt lat="44.84939" lon="0.59284">
        <ele>36</ele>
        <time>2014-07-21T09:40:29.000Z</time>
      </trkpt>
      <trkpt lat="44.84936" lon="0.59284">
        <ele>36</ele>
        <time>2014-07-21T09:40:30.000Z</time>
      </trkpt>
      <trkpt lat="44.84934" lon="0.59284">
        <ele>36</ele>
        <time>2014-07-21T09:40:31.000Z</time>
      </trkpt>
      <trkpt lat="44.84931" lon="0.59284">
        <ele>36</ele>
        <time>2014-07-21T09:40:32.000Z</time>
      </trkpt>
      <trkpt lat="44.84929" lon="0.59284">
        <ele>36</ele>
        <time>2014-07-21T09:40:33.000Z</time>
      </trkpt>
      <trkpt lat="44.84926" lon="0.59284">
        <ele>36</ele>
        <time>2014-07-21T09:40:34.000Z</time>
      </trkpt>
      <trkpt lat="44.84923" lon="0.59284">
        <ele>36</ele>
        <time>2014-07-21T09:40:35.000Z</time>
      </trkpt>
      <trkpt lat="44.84921" lon="0.59284">
        <ele>36</ele>
        <time>2014-07-21T09:40:36.000Z</time>
      </trkpt>
      <trkpt lat="44.84918" lon="0.59284">
        <ele>36</ele>
        <time>2014-07-21T09:40:37.000Z</time>
      </trkpt>
      <trkpt lat="44.84915" lon="0.59284">
        <ele>36</ele>
        <time>2014-07-21T09:40:38.000Z</time>
      </trkpt>
      <trkpt lat="44.84913" lon="0.59284">
        <ele>36</ele>
        <time>2014-07-21T09:40:39.000Z</time>
      </trkpt>
      <trkpt lat="44.8491" lon="0.59284">
        <ele>36</ele>
        <time>2014-07-21T09:40:40.000Z</time>
      </trkpt>
      <trkpt lat="44.84908" lon="0.59284">
        <ele>36</ele>
        <time>2014-07-21T09:40:41.000Z</time>
      </trkpt>
      <trkpt lat="44.84905" lon="0.59284">
        <ele>36</ele>
        <time>2014-07-21T09:40:42.000Z</time>
      </trkpt>
      <trkpt lat="44.84902" lon="0.59284">
        <ele>36</ele>
        <time>2014-07-21T09:40:43.000Z</time>
      </trkpt>
      <trkpt lat="44.849" lon="0.59284">
        <ele>36</ele>
        <time>2014-07-21T09:40:44.000Z</time>
      </trkpt>
      <trkpt lat="44.84897" lon="0.59284">
        <ele>36</ele>
        <time>2014-07-21T09:40:45.000Z</time>
      </trkpt>
      <trkpt lat="44.84894" lon="0.59284">
        <ele>36</ele>
        <time>2014-07-21T09:40:46.000Z</time>
      </trkpt>
      <trkpt lat="44.84892" lon="0.59284">
        <ele>36</ele>
        <time>2014-07-21T09:40:47.000Z</time>
      </trkpt>
      <trkpt lat="44.84889" lon="0.59284">
        <ele>36</ele>
        <time>2014-07-21T09:40:48.000Z</time>
      </trkpt>
      <trkpt lat="44.84887" lon="0.59284">
        <ele>36</ele>
        <time>2014-07-21T09:40:49.000Z</time>
      </trkpt>
      <trkpt lat="44.84884" lon="0.59284">
        <ele>36</ele>
        <time>2014-07-21T09:40:50.000Z</time>
      </trkpt>
      <trkpt lat="44.84881" lon="0.59284">
        <ele>36</ele>
        <time>2014-07-21T09:40:51.000Z</time>
      </trkpt>
      <trkpt lat="44.84879" lon="0.59284">
        <ele>36</ele>
        <time>2014-07-21T09:40:52.000Z</time>
      </trkpt>
      <trkpt lat="44.84876" lon="0.59284">
        <ele>36</ele>
        <time>2014-07-21T09:40:53.000Z</time>
      </trkpt>
      <trkpt lat="44.84873" lon="0.59284">
        <ele>36</ele>
        <time>2014-07-21T09:40:54.000Z</time>
      </trkpt>
      <trkpt lat="44.84871" lon="0.59284">
        <ele>36</ele>
        <time>2014-07-21T09:40:55.000Z</time>
      </trkpt>
      <trkpt lat="44.84868" lon="0.59284">
        <ele>36</ele>
        <time>2014-07-21T09:40:56.000Z</time>
      </trkpt>
      <trkpt lat="44.84866" lon="0.59284">
        <ele>36</ele>
        <time>2014-07-21T09:40:57.000Z</time>
      </trkpt>
      <trkpt lat="44.84863" lon="0.59284">
        <ele>36</ele>
        <time>2014-07-21T09:40:58.000Z</time>
      </trkpt>
      <trkpt lat="44.8486" lon="0.59285">
        <ele>36</ele>
        <time>2014-07-21T09:40:59.000Z</time>
      </trkpt>
      <trkpt lat="44.84858" lon="0.59285">
        <ele>36</ele>
        <time>2014-07-21T09:41:00.000Z</time>
      </trkpt>
      <trkpt lat="44.84855" lon="0.59285">
        <ele>36</ele>
        <time>2014-07-21T09:41:01.000Z</time>
      </trkpt>
      <trkpt lat="44.84853" lon="0.59285">
        <ele>36</ele>
        <time>2014-07-21T09:41:02.000Z</time>
      </trkpt>
      <trkpt lat="44.8485" lon="0.59285">
        <ele>36</ele>
        <time>2014-07-21T09:41:03.000Z</time>
      </trkpt>
      <trkpt lat="44.84848" lon="0.59285">
        <ele>36</ele>
        <time>2014-07-21T09:41:04.000Z</time>
      </trkpt>
      <trkpt lat="44.84845" lon="0.59285">
        <ele>36</ele>
        <time>2014-07-21T09:41:05.000Z</time>
      </trkpt>
      <trkpt lat="44.84842" lon="0.59285">
        <ele>36</ele>
        <time>2014-07-21T09:41:06.000Z</time>
      </trkpt>
      <trkpt lat="44.8484" lon="0.59284">
        <ele>36</ele>
        <time>2014-07-21T09:41:07.000Z</time>
      </trkpt>
      <trkpt lat="44.84837" lon="0.59284">
        <ele>36</ele>
        <time>2014-07-21T09:41:08.000Z</time>
      </trkpt>
      <trkpt lat="44.84835" lon="0.59284">
        <ele>36</ele>
        <time>2014-07-21T09:41:09.000Z</time>
      </trkpt>
      <trkpt lat="44.84832" lon="0.59284">
        <ele>36</ele>
        <time>2014-07-21T09:41:10.000Z</time>
      </trkpt>
      <trkpt lat="44.8483" lon="0.59284">
        <ele>36</ele>
        <time>2014-07-21T09:41:11.000Z</time>
      </trkpt>
      <trkpt lat="44.84827" lon="0.59284">
        <ele>36</ele>
        <time>2014-07-21T09:41:12.000Z</time>
      </trkpt>
      <trkpt lat="44.84825" lon="0.59284">
        <ele>36</ele>
        <time>2014-07-21T09:41:13.000Z</time>
      </trkpt>
      <trkpt lat="44.84822" lon="0.59284">
        <ele>36</ele>
        <time>2014-07-21T09:41:14.000Z</time>
      </trkpt>
      <trkpt lat="44.84819" lon="0.59284">
        <ele>36</ele>
        <time>2014-07-21T09:41:15.000Z</time>
      </trkpt>
      <trkpt lat="44.84817" lon="0.59285">
        <ele>36</ele>
        <time>2014-07-21T09:41:16.000Z</time>
      </trkpt>
      <trkpt lat="44.84814" lon="0.59285">
        <ele>36</ele>
        <time>2014-07-21T09:41:17.000Z</time>
      </trkpt>
      <trkpt lat="44.84811" lon="0.59285">
        <ele>36</ele>
        <time>2014-07-21T09:41:18.000Z</time>
      </trkpt>
      <trkpt lat="44.84809" lon="0.59285">
        <ele>36</ele>
        <time>2014-07-21T09:41:19.000Z</time>
      </trkpt>
      <trkpt lat="44.84806" lon="0.59285">
        <ele>36</ele>
        <time>2014-07-21T09:41:20.000Z</time>
      </trkpt>
      <trkpt lat="44.84803" lon="0.59285">
        <ele>36</ele>
        <time>2014-07-21T09:41:21.000Z</time>
      </trkpt>
      <trkpt lat="44.84801" lon="0.59285">
        <ele>36</ele>
        <time>2014-07-21T09:41:22.000Z</time>
      </trkpt>
      <trkpt lat="44.84798" lon="0.59285">
        <ele>36</ele>
        <time>2014-07-21T09:41:23.000Z</time>
      </trkpt>
      <trkpt lat="44.84795" lon="0.59286">
        <ele>36</ele>
        <time>2014-07-21T09:41:24.000Z</time>
      </trkpt>
      <trkpt lat="44.84793" lon="0.59286">
        <ele>36</ele>
        <time>2014-07-21T09:41:25.000Z</time>
      </trkpt>
      <trkpt lat="44.8479" lon="0.59286">
        <ele>36</ele>
        <time>2014-07-21T09:41:26.000Z</time>
      </trkpt>
      <trkpt lat="44.84787" lon="0.59286">
        <ele>36</ele>
        <time>2014-07-21T09:41:27.000Z</time>
      </trkpt>
      <trkpt lat="44.84785" lon="0.59286">
        <ele>36</ele>
        <time>2014-07-21T09:41:28.000Z</time>
      </trkpt>
      <trkpt lat="44.84782" lon="0.59286">
        <ele>36</ele>
        <time>2014-07-21T09:41:29.000Z</time>
      </trkpt>
      <trkpt lat="44.84779" lon="0.59286">
        <ele>36</ele>
        <time>2014-07-21T09:41:30.000Z</time>
      </trkpt>
      <trkpt lat="44.84777" lon="0.59286">
        <ele>36</ele>
        <time>2014-07-21T09:41:31.000Z</time>
      </trkpt>
      <trkpt lat="44.84774" lon="0.59286">
        <ele>36</ele>
        <time>2014-07-21T09:41:32.000Z</time>
      </trkpt>
      <trkpt lat="44.84771" lon="0.59286">
        <ele>36</ele>
        <time>2014-07-21T09:41:33.000Z</time>
      </trkpt>
      <trkpt lat="44.84769" lon="0.59286">
        <ele>36</ele>
        <time>2014-07-21T09:41:34.000Z</time>
      </trkpt>
      <trkpt lat="44.84766" lon="0.59286">
        <ele>36</ele>
        <time>2014-07-21T09:41:35.000Z</time>
      </trkpt>
      <trkpt lat="44.84763" lon="0.59286">
        <ele>36</ele>
        <time>2014-07-21T09:41:36.000Z</time>
      </trkpt>
      <trkpt lat="44.84761" lon="0.59286">
        <ele>36</ele>
        <time>2014-07-21T09:41:37.000Z</time>
      </trkpt>
      <trkpt lat="44.84758" lon="0.59286">
        <ele>36</ele>
        <time>2014-07-21T09:41:38.000Z</time>
      </trkpt>
      <trkpt lat="44.84755" lon="0.59287">
        <ele>36</ele>
        <time>2014-07-21T09:41:39.000Z</time>
      </trkpt>
      <trkpt lat="44.84753" lon="0.59287">
        <ele>36</ele>
        <time>2014-07-21T09:41:40.000Z</time>
      </trkpt>
      <trkpt lat="44.8475" lon="0.59287">
        <ele>36</ele>
        <time>2014-07-21T09:41:41.000Z</time>
      </trkpt>
      <trkpt lat="44.84747" lon="0.59287">
        <ele>36</ele>
        <time>2014-07-21T09:41:42.000Z</time>
      </trkpt>
      <trkpt lat="44.84744" lon="0.59287">
        <ele>36</ele>
        <time>2014-07-21T09:41:43.000Z</time>
      </trkpt>
      <trkpt lat="44.84742" lon="0.59287">
        <ele>36</ele>
        <time>2014-07-21T09:41:44.000Z</time>
      </trkpt>
      <trkpt lat="44.84739" lon="0.59287">
        <ele>36</ele>
        <time>2014-07-21T09:41:45.000Z</time>
      </trkpt>
      <trkpt lat="44.84737" lon="0.59287">
        <ele>36</ele>
        <time>2014-07-21T09:41:46.000Z</time>
      </trkpt>
      <trkpt lat="44.84734" lon="0.59287">
        <ele>36</ele>
        <time>2014-07-21T09:41:47.000Z</time>
      </trkpt>
      <trkpt lat="44.84731" lon="0.59287">
        <ele>37</ele>
        <time>2014-07-21T09:41:48.000Z</time>
      </trkpt>
      <trkpt lat="44.84729" lon="0.59287">
        <ele>37</ele>
        <time>2014-07-21T09:41:49.000Z</time>
      </trkpt>
      <trkpt lat="44.84726" lon="0.59287">
        <ele>37</ele>
        <time>2014-07-21T09:41:50.000Z</time>
      </trkpt>
      <trkpt lat="44.84723" lon="0.59287">
        <ele>37</ele>
        <time>2014-07-21T09:41:51.000Z</time>
      </trkpt>
      <trkpt lat="44.84721" lon="0.59287">
        <ele>37</ele>
        <time>2014-07-21T09:41:52.000Z</time>
      </trkpt>
      <trkpt lat="44.84718" lon="0.59287">
        <ele>37</ele>
        <time>2014-07-21T09:41:53.000Z</time>
      </trkpt>
      <trkpt lat="44.84716" lon="0.59287">
        <ele>37</ele>
        <time>2014-07-21T09:41:54.000Z</time>
      </trkpt>
      <trkpt lat="44.84713" lon="0.59287">
        <ele>37</ele>
        <time>2014-07-21T09:41:55.000Z</time>
      </trkpt>
      <trkpt lat="44.84711" lon="0.59286">
        <ele>37</ele>
        <time>2014-07-21T09:41:56.000Z</time>
      </trkpt>
      <trkpt lat="44.84708" lon="0.59286">
        <ele>37</ele>
        <time>2014-07-21T09:41:57.000Z</time>
      </trkpt>
      <trkpt lat="44.84706" lon="0.59286">
        <ele>37</ele>
        <time>2014-07-21T09:41:58.000Z</time>
      </trkpt>
      <trkpt lat="44.84703" lon="0.59286">
        <ele>37</ele>
        <time>2014-07-21T09:41:59.000Z</time>
      </trkpt>
      <trkpt lat="44.84701" lon="0.59286">
        <ele>37</ele>
        <time>2014-07-21T09:42:00.000Z</time>
      </trkpt>
      <trkpt lat="44.84698" lon="0.59286">
        <ele>37</ele>
        <time>2014-07-21T09:42:01.000Z</time>
      </trkpt>
      <trkpt lat="44.84696" lon="0.59286">
        <ele>37</ele>
        <time>2014-07-21T09:42:02.000Z</time>
      </trkpt>
      <trkpt lat="44.84693" lon="0.59286">
        <ele>37</ele>
        <time>2014-07-21T09:42:03.000Z</time>
      </trkpt>
      <trkpt lat="44.84691" lon="0.59286">
        <ele>37</ele>
        <time>2014-07-21T09:42:04.000Z</time>
      </trkpt>
      <trkpt lat="44.84688" lon="0.59286">
        <ele>37</ele>
        <time>2014-07-21T09:42:05.000Z</time>
      </trkpt>
      <trkpt lat="44.84686" lon="0.59286">
        <ele>37</ele>
        <time>2014-07-21T09:42:06.000Z</time>
      </trkpt>
      <trkpt lat="44.84683" lon="0.59286">
        <ele>37</ele>
        <time>2014-07-21T09:42:07.000Z</time>
      </trkpt>
      <trkpt lat="44.84681" lon="0.59286">
        <ele>37</ele>
        <time>2014-07-21T09:42:08.000Z</time>
      </trkpt>
      <trkpt lat="44.84678" lon="0.59286">
        <ele>37</ele>
        <time>2014-07-21T09:42:09.000Z</time>
      </trkpt>
      <trkpt lat="44.84675" lon="0.59286">
        <ele>37</ele>
        <time>2014-07-21T09:42:10.000Z</time>
      </trkpt>
      <trkpt lat="44.84673" lon="0.59286">
        <ele>37</ele>
        <time>2014-07-21T09:42:11.000Z</time>
      </trkpt>
      <trkpt lat="44.8467" lon="0.59286">
        <ele>37</ele>
        <time>2014-07-21T09:42:12.000Z</time>
      </trkpt>
      <trkpt lat="44.84667" lon="0.59287">
        <ele>37</ele>
        <time>2014-07-21T09:42:13.000Z</time>
      </trkpt>
      <trkpt lat="44.84664" lon="0.59287">
        <ele>37</ele>
        <time>2014-07-21T09:42:14.000Z</time>
      </trkpt>
      <trkpt lat="44.84662" lon="0.59287">
        <ele>37</ele>
        <time>2014-07-21T09:42:15.000Z</time>
      </trkpt>
      <trkpt lat="44.84659" lon="0.59287">
        <ele>37</ele>
        <time>2014-07-21T09:42:16.000Z</time>
      </trkpt>
      <trkpt lat="44.84656" lon="0.59287">
        <ele>37</ele>
        <time>2014-07-21T09:42:17.000Z</time>
      </trkpt>
      <trkpt lat="44.84654" lon="0.59287">
        <ele>37</ele>
        <time>2014-07-21T09:42:18.000Z</time>
      </trkpt>
      <trkpt lat="44.84651" lon="0.59287">
        <ele>37</ele>
        <time>2014-07-21T09:42:19.000Z</time>
      </trkpt>
      <trkpt lat="44.84648" lon="0.59288">
        <ele>38</ele>
        <time>2014-07-21T09:42:20.000Z</time>
      </trkpt>
      <trkpt lat="44.84645" lon="0.59288">
        <ele>38</ele>
        <time>2014-07-21T09:42:21.000Z</time>
      </trkpt>
      <trkpt lat="44.84643" lon="0.59288">
        <ele>38</ele>
        <time>2014-07-21T09:42:22.000Z</time>
      </trkpt>
      <trkpt lat="44.8464" lon="0.59288">
        <ele>38</ele>
        <time>2014-07-21T09:42:23.000Z</time>
      </trkpt>
      <trkpt lat="44.84637" lon="0.59288">
        <ele>38</ele>
        <time>2014-07-21T09:42:24.000Z</time>
      </trkpt>
      <trkpt lat="44.84635" lon="0.59288">
        <ele>38</ele>
        <time>2014-07-21T09:42:25.000Z</time>
      </trkpt>
      <trkpt lat="44.84632" lon="0.59288">
        <ele>38</ele>
        <time>2014-07-21T09:42:26.000Z</time>
      </trkpt>
      <trkpt lat="44.8463" lon="0.59288">
        <ele>38</ele>
        <time>2014-07-21T09:42:27.000Z</time>
      </trkpt>
      <trkpt lat="44.84627" lon="0.59288">
        <ele>38</ele>
        <time>2014-07-21T09:42:28.000Z</time>
      </trkpt>
      <trkpt lat="44.84624" lon="0.59288">
        <ele>38</ele>
        <time>2014-07-21T09:42:29.000Z</time>
      </trkpt>
      <trkpt lat="44.84622" lon="0.59288">
        <ele>38</ele>
        <time>2014-07-21T09:42:30.000Z</time>
      </trkpt>
      <trkpt lat="44.84619" lon="0.59288">
        <ele>38</ele>
        <time>2014-07-21T09:42:31.000Z</time>
      </trkpt>
      <trkpt lat="44.84616" lon="0.59288">
        <ele>38</ele>
        <time>2014-07-21T09:42:32.000Z</time>
      </trkpt>
      <trkpt lat="44.84614" lon="0.59288">
        <ele>39</ele>
        <time>2014-07-21T09:42:33.000Z</time>
      </trkpt>
      <trkpt lat="44.84611" lon="0.59288">
        <ele>39</ele>
        <time>2014-07-21T09:42:34.000Z</time>
      </trkpt>
      <trkpt lat="44.84609" lon="0.59288">
        <ele>39</ele>
        <time>2014-07-21T09:42:35.000Z</time>
      </trkpt>
      <trkpt lat="44.84606" lon="0.59288">
        <ele>39</ele>
        <time>2014-07-21T09:42:36.000Z</time>
      </trkpt>
      <trkpt lat="44.84604" lon="0.59288">
        <ele>39</ele>
        <time>2014-07-21T09:42:37.000Z</time>
      </trkpt>
      <trkpt lat="44.84601" lon="0.59288">
        <ele>39</ele>
        <time>2014-07-21T09:42:38.000Z</time>
      </trkpt>
      <trkpt lat="44.84598" lon="0.59288">
        <ele>39</ele>
        <time>2014-07-21T09:42:39.000Z</time>
      </trkpt>
      <trkpt lat="44.84596" lon="0.59288">
        <ele>39</ele>
        <time>2014-07-21T09:42:40.000Z</time>
      </trkpt>
      <trkpt lat="44.84593" lon="0.59288">
        <ele>39</ele>
        <time>2014-07-21T09:42:41.000Z</time>
      </trkpt>
      <trkpt lat="44.84591" lon="0.59288">
        <ele>39</ele>
        <time>2014-07-21T09:42:42.000Z</time>
      </trkpt>
      <trkpt lat="44.84588" lon="0.59288">
        <ele>39</ele>
        <time>2014-07-21T09:42:43.000Z</time>
      </trkpt>
      <trkpt lat="44.84586" lon="0.59288">
        <ele>39</ele>
        <time>2014-07-21T09:42:44.000Z</time>
      </trkpt>
      <trkpt lat="44.84583" lon="0.59288">
        <ele>40</ele>
        <time>2014-07-21T09:42:45.000Z</time>
      </trkpt>
      <trkpt lat="44.84581" lon="0.59288">
        <ele>40</ele>
        <time>2014-07-21T09:42:46.000Z</time>
      </trkpt>
      <trkpt lat="44.84578" lon="0.59289">
        <ele>40</ele>
        <time>2014-07-21T09:42:47.000Z</time>
      </trkpt>
      <trkpt lat="44.84576" lon="0.59289">
        <ele>40</ele>
        <time>2014-07-21T09:42:48.000Z</time>
      </trkpt>
      <trkpt lat="44.84574" lon="0.5929">
        <ele>40</ele>
        <time>2014-07-21T09:42:49.000Z</time>
      </trkpt>
      <trkpt lat="44.84571" lon="0.5929">
        <ele>40</ele>
        <time>2014-07-21T09:42:50.000Z</time>
      </trkpt>
      <trkpt lat="44.84569" lon="0.59291">
        <ele>41</ele>
        <time>2014-07-21T09:42:51.000Z</time>
      </trkpt>
      <trkpt lat="44.84567" lon="0.59293">
        <ele>41</ele>
        <time>2014-07-21T09:42:52.000Z</time>
      </trkpt>
      <trkpt lat="44.84566" lon="0.59294">
        <ele>41</ele>
        <time>2014-07-21T09:42:53.000Z</time>
      </trkpt>
      <trkpt lat="44.84564" lon="0.59296">
        <ele>41</ele>
        <time>2014-07-21T09:42:54.000Z</time>
      </trkpt>
      <trkpt lat="44.84562" lon="0.59298">
        <ele>41</ele>
        <time>2014-07-21T09:42:55.000Z</time>
      </trkpt>
      <trkpt lat="44.84561" lon="0.593">
        <ele>41</ele>
        <time>2014-07-21T09:42:56.000Z</time>
      </trkpt>
      <trkpt lat="44.84559" lon="0.59302">
        <ele>41</ele>
        <time>2014-07-21T09:42:57.000Z</time>
      </trkpt>
      <trkpt lat="44.84558" lon="0.59305">
        <ele>42</ele>
        <time>2014-07-21T09:42:58.000Z</time>
      </trkpt>
      <trkpt lat="44.84557" lon="0.59307">
        <ele>42</ele>
        <time>2014-07-21T09:42:59.000Z</time>
      </trkpt>
      <trkpt lat="44.84555" lon="0.5931">
        <ele>42</ele>
        <time>2014-07-21T09:43:00.000Z</time>
      </trkpt>
      <trkpt lat="44.84554" lon="0.59312">
        <ele>42</ele>
        <time>2014-07-21T09:43:01.000Z</time>
      </trkpt>
      <trkpt lat="44.84553" lon="0.59315">
        <ele>42</ele>
        <time>2014-07-21T09:43:02.000Z</time>
      </trkpt>
      <trkpt lat="44.84552" lon="0.59318">
        <ele>42</ele>
        <time>2014-07-21T09:43:03.000Z</time>
      </trkpt>
      <trkpt lat="44.84551" lon="0.59321">
        <ele>42</ele>
        <time>2014-07-21T09:43:04.000Z</time>
      </trkpt>
      <trkpt lat="44.8455" lon="0.59324">
        <ele>42</ele>
        <time>2014-07-21T09:43:05.000Z</time>
      </trkpt>
      <trkpt lat="44.84548" lon="0.59326">
        <ele>42</ele>
        <time>2014-07-21T09:43:06.000Z</time>
      </trkpt>
      <trkpt lat="44.84547" lon="0.59329">
        <ele>43</ele>
        <time>2014-07-21T09:43:07.000Z</time>
      </trkpt>
      <trkpt lat="44.84546" lon="0.59332">
        <ele>43</ele>
        <time>2014-07-21T09:43:08.000Z</time>
      </trkpt>
      <trkpt lat="44.84545" lon="0.59335">
        <ele>43</ele>
        <time>2014-07-21T09:43:09.000Z</time>
      </trkpt>
      <trkpt lat="44.84544" lon="0.59338">
        <ele>43</ele>
        <time>2014-07-21T09:43:10.000Z</time>
      </trkpt>
      <trkpt lat="44.84543" lon="0.59341">
        <ele>43</ele>
        <time>2014-07-21T09:43:11.000Z</time>
      </trkpt>
      <trkpt lat="44.84542" lon="0.59344">
        <ele>43</ele>
        <time>2014-07-21T09:43:12.000Z</time>
      </trkpt>
      <trkpt lat="44.84541" lon="0.59347">
        <ele>43</ele>
        <time>2014-07-21T09:43:13.000Z</time>
      </trkpt>
      <trkpt lat="44.84541" lon="0.5935">
        <ele>43</ele>
        <time>2014-07-21T09:43:14.000Z</time>
      </trkpt>
      <trkpt lat="44.8454" lon="0.59354">
        <ele>43</ele>
        <time>2014-07-21T09:43:15.000Z</time>
      </trkpt>
      <trkpt lat="44.84539" lon="0.59357">
        <ele>43</ele>
        <time>2014-07-21T09:43:16.000Z</time>
      </trkpt>
      <trkpt lat="44.84538" lon="0.5936">
        <ele>43</ele>
        <time>2014-07-21T09:43:17.000Z</time>
      </trkpt>
      <trkpt lat="44.84537" lon="0.59363">
        <ele>43</ele>
        <time>2014-07-21T09:43:18.000Z</time>
      </trkpt>
      <trkpt lat="44.84536" lon="0.59366">
        <ele>43</ele>
        <time>2014-07-21T09:43:19.000Z</time>
      </trkpt>
      <trkpt lat="44.84535" lon="0.59369">
        <ele>44</ele>
        <time>2014-07-21T09:43:20.000Z</time>
      </trkpt>
      <trkpt lat="44.84534" lon="0.59372">
        <ele>44</ele>
        <time>2014-07-21T09:43:21.000Z</time>
      </trkpt>
      <trkpt lat="44.84533" lon="0.59375">
        <ele>44</ele>
        <time>2014-07-21T09:43:22.000Z</time>
      </trkpt>
      <trkpt lat="44.84531" lon="0.59377">
        <ele>44</ele>
        <time>2014-07-21T09:43:23.000Z</time>
      </trkpt>
      <trkpt lat="44.8453" lon="0.59379">
        <ele>44</ele>
        <time>2014-07-21T09:43:24.000Z</time>
      </trkpt>
      <trkpt lat="44.84528" lon="0.59381">
        <ele>44</ele>
        <time>2014-07-21T09:43:25.000Z</time>
      </trkpt>
      <trkpt lat="44.84526" lon="0.59383">
        <ele>44</ele>
        <time>2014-07-21T09:43:26.000Z</time>
      </trkpt>
      <trkpt lat="44.84524" lon="0.59384">
        <ele>44</ele>
        <time>2014-07-21T09:43:27.000Z</time>
      </trkpt>
      <trkpt lat="44.84522" lon="0.59385">
        <ele>45</ele>
        <time>2014-07-21T09:43:28.000Z</time>
      </trkpt>
      <trkpt lat="44.84519" lon="0.59386">
        <ele>45</ele>
        <time>2014-07-21T09:43:29.000Z</time>
      </trkpt>
      <trkpt lat="44.84517" lon="0.59386">
        <ele>45</ele>
        <time>2014-07-21T09:43:30.000Z</time>
      </trkpt>
      <trkpt lat="44.84514" lon="0.59386">
        <ele>45</ele>
        <time>2014-07-21T09:43:31.000Z</time>
      </trkpt>
      <trkpt lat="44.84511" lon="0.59386">
        <ele>46</ele>
        <time>2014-07-21T09:43:32.000Z</time>
      </trkpt>
      <trkpt lat="44.84509" lon="0.59386">
        <ele>46</ele>
        <time>2014-07-21T09:43:33.000Z</time>
      </trkpt>
      <trkpt lat="44.84506" lon="0.59386">
        <ele>46</ele>
        <time>2014-07-21T09:43:34.000Z</time>
      </trkpt>
      <trkpt lat="44.84503" lon="0.59385">
        <ele>46</ele>
        <time>2014-07-21T09:43:35.000Z</time>
      </trkpt>
      <trkpt lat="44.84501" lon="0.59385">
        <ele>46</ele>
        <time>2014-07-21T09:43:36.000Z</time>
      </trkpt>
      <trkpt lat="44.84498" lon="0.59384">
        <ele>46</ele>
        <time>2014-07-21T09:43:37.000Z</time>
      </trkpt>
      <trkpt lat="44.84495" lon="0.59383">
        <ele>46</ele>
        <time>2014-07-21T09:43:38.000Z</time>
      </trkpt>
      <trkpt lat="44.84493" lon="0.59382">
        <ele>46</ele>
        <time>2014-07-21T09:43:39.000Z</time>
      </trkpt>
      <trkpt lat="44.8449" lon="0.59381">
        <ele>46</ele>
        <time>2014-07-21T09:43:40.000Z</time>
      </trkpt>
      <trkpt lat="44.84488" lon="0.59381">
        <ele>46</ele>
        <time>2014-07-21T09:43:41.000Z</time>
      </trkpt>
      <trkpt lat="44.84485" lon="0.5938">
        <ele>46</ele>
        <time>2014-07-21T09:43:42.000Z</time>
      </trkpt>
      <trkpt lat="44.84483" lon="0.59379">
        <ele>46</ele>
        <time>2014-07-21T09:43:43.000Z</time>
      </trkpt>
      <trkpt lat="44.8448" lon="0.59378">
        <ele>46</ele>
        <time>2014-07-21T09:43:44.000Z</time>
      </trkpt>
      <trkpt lat="44.84478" lon="0.59377">
        <ele>46</ele>
        <time>2014-07-21T09:43:45.000Z</time>
      </trkpt>
      <trkpt lat="44.84475" lon="0.59375">
        <ele>46</ele>
        <time>2014-07-21T09:43:46.000Z</time>
      </trkpt>
      <trkpt lat="44.84474" lon="0.59372">
        <ele>46</ele>
        <time>2014-07-21T09:43:47.000Z</time>
      </trkpt>
      <trkpt lat="44.84473" lon="0.59369">
        <ele>46</ele>
        <time>2014-07-21T09:43:48.000Z</time>
      </trkpt>
      <trkpt lat="44.84473" lon="0.59366">
        <ele>46</ele>
        <time>2014-07-21T09:43:49.000Z</time>
      </trkpt>
      <trkpt lat="44.84473" lon="0.59362">
        <ele>46</ele>
        <time>2014-07-21T09:43:50.000Z</time>
      </trkpt>
      <trkpt lat="44.84473" lon="0.59359">
        <ele>46</ele>
        <time>2014-07-21T09:43:51.000Z</time>
      </trkpt>
      <trkpt lat="44.84473" lon="0.59355">
        <ele>46</ele>
        <time>2014-07-21T09:43:52.000Z</time>
      </trkpt>
      <trkpt lat="44.84473" lon="0.59352">
        <ele>46</ele>
        <time>2014-07-21T09:43:53.000Z</time>
      </trkpt>
      <trkpt lat="44.84473" lon="0.59348">
        <ele>46</ele>
        <time>2014-07-21T09:43:54.000Z</time>
      </trkpt>
      <trkpt lat="44.84473" lon="0.59344">
        <ele>46</ele>
        <time>2014-07-21T09:43:55.000Z</time>
      </trkpt>
      <trkpt lat="44.84474" lon="0.59341">
        <ele>46</ele>
        <time>2014-07-21T09:43:56.000Z</time>
      </trkpt>
      <trkpt lat="44.84474" lon="0.59337">
        <ele>46</ele>
        <time>2014-07-21T09:43:57.000Z</time>
      </trkpt>
      <trkpt lat="44.84475" lon="0.59334">
        <ele>46</ele>
        <time>2014-07-21T09:43:58.000Z</time>
      </trkpt>
      <trkpt lat="44.84476" lon="0.5933">
        <ele>46</ele>
        <time>2014-07-21T09:43:59.000Z</time>
      </trkpt>
      <trkpt lat="44.84477" lon="0.59327">
        <ele>46</ele>
        <time>2014-07-21T09:44:00.000Z</time>
      </trkpt>
      <trkpt lat="44.84477" lon="0.59323">
        <ele>46</ele>
        <time>2014-07-21T09:44:01.000Z</time>
      </trkpt>
      <trkpt lat="44.84478" lon="0.5932">
        <ele>46</ele>
        <time>2014-07-21T09:44:02.000Z</time>
      </trkpt>
      <trkpt lat="44.84479" lon="0.59317">
        <ele>46</ele>
        <time>2014-07-21T09:44:03.000Z</time>
      </trkpt>
      <trkpt lat="44.8448" lon="0.59313">
        <ele>46</ele>
        <time>2014-07-21T09:44:04.000Z</time>
      </trkpt>
      <trkpt lat="44.8448" lon="0.5931">
        <ele>46</ele>
        <time>2014-07-21T09:44:05.000Z</time>
      </trkpt>
      <trkpt lat="44.84481" lon="0.59306">
        <ele>46</ele>
        <time>2014-07-21T09:44:06.000Z</time>
      </trkpt>
      <trkpt lat="44.84482" lon="0.59303">
        <ele>46</ele>
        <time>2014-07-21T09:44:07.000Z</time>
      </trkpt>
      <trkpt lat="44.84483" lon="0.59299">
        <ele>46</ele>
        <time>2014-07-21T09:44:08.000Z</time>
      </trkpt>
      <trkpt lat="44.84483" lon="0.59295">
        <ele>46</ele>
        <time>2014-07-21T09:44:09.000Z</time>
      </trkpt>
      <trkpt lat="44.84484" lon="0.59292">
        <ele>46</ele>
        <time>2014-07-21T09:44:10.000Z</time>
      </trkpt>
      <trkpt lat="44.84485" lon="0.59288">
        <ele>46</ele>
        <time>2014-07-21T09:44:11.000Z</time>
      </trkpt>
      <trkpt lat="44.84485" lon="0.59284">
        <ele>46</ele>
        <time>2014-07-21T09:44:12.000Z</time>
      </trkpt>
      <trkpt lat="44.84486" lon="0.5928">
        <ele>46</ele>
        <time>2014-07-21T09:44:13.000Z</time>
      </trkpt>
      <trkpt lat="44.84486" lon="0.59277">
        <ele>46</ele>
        <time>2014-07-21T09:44:14.000Z</time>
      </trkpt>
      <trkpt lat="44.84487" lon="0.59273">
        <ele>46</ele>
        <time>2014-07-21T09:44:15.000Z</time>
      </trkpt>
      <trkpt lat="44.84487" lon="0.59269">
        <ele>46</ele>
        <time>2014-07-21T09:44:16.000Z</time>
      </trkpt>
      <trkpt lat="44.84488" lon="0.59265">
        <ele>46</ele>
        <time>2014-07-21T09:44:17.000Z</time>
      </trkpt>
      <trkpt lat="44.84488" lon="0.59261">
        <ele>45</ele>
        <time>2014-07-21T09:44:18.000Z</time>
      </trkpt>
      <trkpt lat="44.84489" lon="0.59258">
        <ele>45</ele>
        <time>2014-07-21T09:44:19.000Z</time>
      </trkpt>
      <trkpt lat="44.8449" lon="0.59254">
        <ele>45</ele>
        <time>2014-07-21T09:44:20.000Z</time>
      </trkpt>
      <trkpt lat="44.8449" lon="0.5925">
        <ele>45</ele>
        <time>2014-07-21T09:44:21.000Z</time>
      </trkpt>
      <trkpt lat="44.84491" lon="0.59246">
        <ele>45</ele>
        <time>2014-07-21T09:44:22.000Z</time>
      </trkpt>
      <trkpt lat="44.84492" lon="0.59243">
        <ele>45</ele>
        <time>2014-07-21T09:44:23.000Z</time>
      </trkpt>
      <trkpt lat="44.84492" lon="0.59239">
        <ele>45</ele>
        <time>2014-07-21T09:44:24.000Z</time>
      </trkpt>
      <trkpt lat="44.84493" lon="0.59235">
        <ele>45</ele>
        <time>2014-07-21T09:44:25.000Z</time>
      </trkpt>
      <trkpt lat="44.84494" lon="0.59232">
        <ele>45</ele>
        <time>2014-07-21T09:44:26.000Z</time>
      </trkpt>
      <trkpt lat="44.84494" lon="0.59228">
        <ele>45</ele>
        <time>2014-07-21T09:44:27.000Z</time>
      </trkpt>
      <trkpt lat="44.84495" lon="0.59224">
        <ele>45</ele>
        <time>2014-07-21T09:44:28.000Z</time>
      </trkpt>
      <trkpt lat="44.84496" lon="0.5922">
        <ele>45</ele>
        <time>2014-07-21T09:44:29.000Z</time>
      </trkpt>
      <trkpt lat="44.84497" lon="0.59216">
        <ele>45</ele>
        <time>2014-07-21T09:44:30.000Z</time>
      </trkpt>
      <trkpt lat="44.84497" lon="0.59213">
        <ele>45</ele>
        <time>2014-07-21T09:44:31.000Z</time>
      </trkpt>
      <trkpt lat="44.84498" lon="0.59209">
        <ele>44</ele>
        <time>2014-07-21T09:44:32.000Z</time>
      </trkpt>
      <trkpt lat="44.84498" lon="0.59205">
        <ele>44</ele>
        <time>2014-07-21T09:44:33.000Z</time>
      </trkpt>
      <trkpt lat="44.84499" lon="0.59201">
        <ele>44</ele>
        <time>2014-07-21T09:44:34.000Z</time>
      </trkpt>
      <trkpt lat="44.84499" lon="0.59197">
        <ele>44</ele>
        <time>2014-07-21T09:44:35.000Z</time>
      </trkpt>
      <trkpt lat="44.845" lon="0.59193">
        <ele>44</ele>
        <time>2014-07-21T09:44:36.000Z</time>
      </trkpt>
      <trkpt lat="44.845" lon="0.59189">
        <ele>44</ele>
        <time>2014-07-21T09:44:37.000Z</time>
      </trkpt>
      <trkpt lat="44.84501" lon="0.59185">
        <ele>44</ele>
        <time>2014-07-21T09:44:38.000Z</time>
      </trkpt>
      <trkpt lat="44.84501" lon="0.59181">
        <ele>44</ele>
        <time>2014-07-21T09:44:39.000Z</time>
      </trkpt>
      <trkpt lat="44.84502" lon="0.59177">
        <ele>44</ele>
        <time>2014-07-21T09:44:40.000Z</time>
      </trkpt>
      <trkpt lat="44.84502" lon="0.59173">
        <ele>44</ele>
        <time>2014-07-21T09:44:41.000Z</time>
      </trkpt>
      <trkpt lat="44.84502" lon="0.59169">
        <ele>43</ele>
        <time>2014-07-21T09:44:42.000Z</time>
      </trkpt>
      <trkpt lat="44.84503" lon="0.59165">
        <ele>43</ele>
        <time>2014-07-21T09:44:43.000Z</time>
      </trkpt>
      <trkpt lat="44.84503" lon="0.59161">
        <ele>43</ele>
        <time>2014-07-21T09:44:44.000Z</time>
      </trkpt>
      <trkpt lat="44.84504" lon="0.59157">
        <ele>43</ele>
        <time>2014-07-21T09:44:45.000Z</time>
      </trkpt>
      <trkpt lat="44.84504" lon="0.59153">
        <ele>43</ele>
        <time>2014-07-21T09:44:46.000Z</time>
      </trkpt>
      <trkpt lat="44.84504" lon="0.59149">
        <ele>43</ele>
        <time>2014-07-21T09:44:47.000Z</time>
      </trkpt>
      <trkpt lat="44.84505" lon="0.59145">
        <ele>43</ele>
        <time>2014-07-21T09:44:48.000Z</time>
      </trkpt>
      <trkpt lat="44.84505" lon="0.59141">
        <ele>42</ele>
        <time>2014-07-21T09:44:49.000Z</time>
      </trkpt>
      <trkpt lat="44.84505" lon="0.59137">
        <ele>42</ele>
        <time>2014-07-21T09:44:50.000Z</time>
      </trkpt>
      <trkpt lat="44.84506" lon="0.59133">
        <ele>42</ele>
        <time>2014-07-21T09:44:51.000Z</time>
      </trkpt>
      <trkpt lat="44.84506" lon="0.59129">
        <ele>42</ele>
        <time>2014-07-21T09:44:52.000Z</time>
      </trkpt>
      <trkpt lat="44.84506" lon="0.59125">
        <ele>42</ele>
        <time>2014-07-21T09:44:53.000Z</time>
      </trkpt>
      <trkpt lat="44.84506" lon="0.59121">
        <ele>42</ele>
        <time>2014-07-21T09:44:54.000Z</time>
      </trkpt>
      <trkpt lat="44.84506" lon="0.59117">
        <ele>42</ele>
        <time>2014-07-21T09:44:55.000Z</time>
      </trkpt>
      <trkpt lat="44.84505" lon="0.59112">
        <ele>41</ele>
        <time>2014-07-21T09:44:56.000Z</time>
      </trkpt>
      <trkpt lat="44.84505" lon="0.59108">
        <ele>41</ele>
        <time>2014-07-21T09:44:57.000Z</time>
      </trkpt>
      <trkpt lat="44.84505" lon="0.59104">
        <ele>41</ele>
        <time>2014-07-21T09:44:58.000Z</time>
      </trkpt>
      <trkpt lat="44.84504" lon="0.591">
        <ele>41</ele>
        <time>2014-07-21T09:44:59.000Z</time>
      </trkpt>
      <trkpt lat="44.84504" lon="0.59096">
        <ele>41</ele>
        <time>2014-07-21T09:45:00.000Z</time>
      </trkpt>
      <trkpt lat="44.84503" lon="0.59093">
        <ele>41</ele>
        <time>2014-07-21T09:45:01.000Z</time>
      </trkpt>
      <trkpt lat="44.84503" lon="0.59089">
        <ele>41</ele>
        <time>2014-07-21T09:45:02.000Z</time>
      </trkpt>
      <trkpt lat="44.84502" lon="0.59085">
        <ele>41</ele>
        <time>2014-07-21T09:45:03.000Z</time>
      </trkpt>
      <trkpt lat="44.84502" lon="0.59081">
        <ele>40</ele>
        <time>2014-07-21T09:45:04.000Z</time>
      </trkpt>
      <trkpt lat="44.84501" lon="0.59077">
        <ele>40</ele>
        <time>2014-07-21T09:45:05.000Z</time>
      </trkpt>
      <trkpt lat="44.84501" lon="0.59073">
        <ele>40</ele>
        <time>2014-07-21T09:45:06.000Z</time>
      </trkpt>
      <trkpt lat="44.84501" lon="0.5907">
        <ele>40</ele>
        <time>2014-07-21T09:45:07.000Z</time>
      </trkpt>
      <trkpt lat="44.845" lon="0.59066">
        <ele>40</ele>
        <time>2014-07-21T09:45:08.000Z</time>
      </trkpt>
      <trkpt lat="44.845" lon="0.59062">
        <ele>40</ele>
        <time>2014-07-21T09:45:09.000Z</time>
      </trkpt>
      <trkpt lat="44.84499" lon="0.59059">
        <ele>40</ele>
        <time>2014-07-21T09:45:10.000Z</time>
      </trkpt>
      <trkpt lat="44.84499" lon="0.59055">
        <ele>40</ele>
        <time>2014-07-21T09:45:11.000Z</time>
      </trkpt>
      <trkpt lat="44.84498" lon="0.59052">
        <ele>40</ele>
        <time>2014-07-21T09:45:12.000Z</time>
      </trkpt>
      <trkpt lat="44.84498" lon="0.59049">
        <ele>40</ele>
        <time>2014-07-21T09:45:13.000Z</time>
      </trkpt>
      <trkpt lat="44.84497" lon="0.59045">
        <ele>40</ele>
        <time>2014-07-21T09:45:14.000Z</time>
      </trkpt>
      <trkpt lat="44.84496" lon="0.59042">
        <ele>40</ele>
        <time>2014-07-21T09:45:15.000Z</time>
      </trkpt>
      <trkpt lat="44.84496" lon="0.59038">
        <ele>40</ele>
        <time>2014-07-21T09:45:16.000Z</time>
      </trkpt>
      <trkpt lat="44.84495" lon="0.59034">
        <ele>40</ele>
        <time>2014-07-21T09:45:17.000Z</time>
      </trkpt>
      <trkpt lat="44.84494" lon="0.59031">
        <ele>40</ele>
        <time>2014-07-21T09:45:18.000Z</time>
      </trkpt>
      <trkpt lat="44.84493" lon="0.59027">
        <ele>40</ele>
        <time>2014-07-21T09:45:19.000Z</time>
      </trkpt>
      <trkpt lat="44.84492" lon="0.59024">
        <ele>40</ele>
        <time>2014-07-21T09:45:20.000Z</time>
      </trkpt>
      <trkpt lat="44.84492" lon="0.5902">
        <ele>40</ele>
        <time>2014-07-21T09:45:21.000Z</time>
      </trkpt>
      <trkpt lat="44.84491" lon="0.59016">
        <ele>40</ele>
        <time>2014-07-21T09:45:22.000Z</time>
      </trkpt>
      <trkpt lat="44.8449" lon="0.59012">
        <ele>40</ele>
        <time>2014-07-21T09:45:23.000Z</time>
      </trkpt>
      <trkpt lat="44.84489" lon="0.59009">
        <ele>40</ele>
        <time>2014-07-21T09:45:24.000Z</time>
      </trkpt>
      <trkpt lat="44.84489" lon="0.59005">
        <ele>40</ele>
        <time>2014-07-21T09:45:25.000Z</time>
      </trkpt>
      <trkpt lat="44.84488" lon="0.59001">
        <ele>40</ele>
        <time>2014-07-21T09:45:26.000Z</time>
      </trkpt>
      <trkpt lat="44.84487" lon="0.58998">
        <ele>40</ele>
        <time>2014-07-21T09:45:27.000Z</time>
      </trkpt>
      <trkpt lat="44.84486" lon="0.58994">
        <ele>40</ele>
        <time>2014-07-21T09:45:28.000Z</time>
      </trkpt>
      <trkpt lat="44.84486" lon="0.5899">
        <ele>40</ele>
        <time>2014-07-21T09:45:29.000Z</time>
      </trkpt>
      <trkpt lat="44.84485" lon="0.58987">
        <ele>40</ele>
        <time>2014-07-21T09:45:30.000Z</time>
      </trkpt>
      <trkpt lat="44.84484" lon="0.58983">
        <ele>40</ele>
        <time>2014-07-21T09:45:31.000Z</time>
      </trkpt>
      <trkpt lat="44.84484" lon="0.5898">
        <ele>40</ele>
        <time>2014-07-21T09:45:32.000Z</time>
      </trkpt>
      <trkpt lat="44.84483" lon="0.58976">
        <ele>40</ele>
        <time>2014-07-21T09:45:33.000Z</time>
      </trkpt>
      <trkpt lat="44.84482" lon="0.58973">
        <ele>40</ele>
        <time>2014-07-21T09:45:34.000Z</time>
      </trkpt>
      <trkpt lat="44.84482" lon="0.58969">
        <ele>40</ele>
        <time>2014-07-21T09:45:35.000Z</time>
      </trkpt>
      <trkpt lat="44.84481" lon="0.58966">
        <ele>40</ele>
        <time>2014-07-21T09:45:36.000Z</time>
      </trkpt>
      <trkpt lat="44.84481" lon="0.58962">
        <ele>40</ele>
        <time>2014-07-21T09:45:37.000Z</time>
      </trkpt>
      <trkpt lat="44.8448" lon="0.58959">
        <ele>40</ele>
        <time>2014-07-21T09:45:38.000Z</time>
      </trkpt>
      <trkpt lat="44.8448" lon="0.58956">
        <ele>40</ele>
        <time>2014-07-21T09:45:39.000Z</time>
      </trkpt>
      <trkpt lat="44.84479" lon="0.58953">
        <ele>40</ele>
        <time>2014-07-21T09:45:40.000Z</time>
      </trkpt>
      <trkpt lat="44.84479" lon="0.5895">
        <ele>40</ele>
        <time>2014-07-21T09:45:41.000Z</time>
      </trkpt>
      <trkpt lat="44.84478" lon="0.58946">
        <ele>40</ele>
        <time>2014-07-21T09:45:42.000Z</time>
      </trkpt>
      <trkpt lat="44.84477" lon="0.58943">
        <ele>40</ele>
        <time>2014-07-21T09:45:43.000Z</time>
      </trkpt>
      <trkpt lat="44.84477" lon="0.5894">
        <ele>40</ele>
        <time>2014-07-21T09:45:44.000Z</time>
      </trkpt>
      <trkpt lat="44.84476" lon="0.58936">
        <ele>40</ele>
        <time>2014-07-21T09:45:45.000Z</time>
      </trkpt>
      <trkpt lat="44.84476" lon="0.58933">
        <ele>41</ele>
        <time>2014-07-21T09:45:46.000Z</time>
      </trkpt>
      <trkpt lat="44.84475" lon="0.58929">
        <ele>41</ele>
        <time>2014-07-21T09:45:47.000Z</time>
      </trkpt>
      <trkpt lat="44.84474" lon="0.58926">
        <ele>41</ele>
        <time>2014-07-21T09:45:48.000Z</time>
      </trkpt>
      <trkpt lat="44.84474" lon="0.58922">
        <ele>41</ele>
        <time>2014-07-21T09:45:49.000Z</time>
      </trkpt>
      <trkpt lat="44.84473" lon="0.58918">
        <ele>41</ele>
        <time>2014-07-21T09:45:50.000Z</time>
      </trkpt>
      <trkpt lat="44.84472" lon="0.58915">
        <ele>41</ele>
        <time>2014-07-21T09:45:51.000Z</time>
      </trkpt>
      <trkpt lat="44.84471" lon="0.58911">
        <ele>41</ele>
        <time>2014-07-21T09:45:52.000Z</time>
      </trkpt>
      <trkpt lat="44.84471" lon="0.58908">
        <ele>41</ele>
        <time>2014-07-21T09:45:53.000Z</time>
      </trkpt>
      <trkpt lat="44.8447" lon="0.58906">
        <ele>41</ele>
        <time>2014-07-21T09:45:54.000Z</time>
      </trkpt>
      <trkpt lat="44.8447" lon="0.58904">
        <ele>41</ele>
        <time>2014-07-21T09:45:55.000Z</time>
      </trkpt>
      <trkpt lat="44.84469" lon="0.58902">
        <ele>41</ele>
        <time>2014-07-21T09:45:56.000Z</time>
      </trkpt>
      <trkpt lat="44.84469" lon="0.58901">
        <ele>41</ele>
        <time>2014-07-21T09:45:57.000Z</time>
      </trkpt>
      <trkpt lat="44.84469" lon="0.58901">
        <ele>41</ele>
        <time>2014-07-21T09:45:58.000Z</time>
      </trkpt>
      <trkpt lat="44.84469" lon="0.589">
        <ele>41</ele>
        <time>2014-07-21T09:45:59.000Z</time>
      </trkpt>
      <trkpt lat="44.84469" lon="0.58899">
        <ele>41</ele>
        <time>2014-07-21T09:46:00.000Z</time>
      </trkpt>
      <trkpt lat="44.84469" lon="0.58898">
        <ele>41</ele>
        <time>2014-07-21T09:46:01.000Z</time>
      </trkpt>
      <trkpt lat="44.84469" lon="0.58898">
        <ele>41</ele>
        <time>2014-07-21T09:46:02.000Z</time>
      </trkpt>
      <trkpt lat="44.84469" lon="0.58897">
        <ele>41</ele>
        <time>2014-07-21T09:46:03.000Z</time>
      </trkpt>
      <trkpt lat="44.84469" lon="0.58896">
        <ele>41</ele>
        <time>2014-07-21T09:46:04.000Z</time>
      </trkpt>
      <trkpt lat="44.84469" lon="0.58895">
        <ele>41</ele>
        <time>2014-07-21T09:46:05.000Z</time>
      </trkpt>
      <trkpt lat="44.84468" lon="0.58894">
        <ele>41</ele>
        <time>2014-07-21T09:46:06.000Z</time>
      </trkpt>
      <trkpt lat="44.84468" lon="0.58893">
        <ele>41</ele>
        <time>2014-07-21T09:46:07.000Z</time>
      </trkpt>
      <trkpt lat="44.84468" lon="0.58892">
        <ele>41</ele>
        <time>2014-07-21T09:46:08.000Z</time>
      </trkpt>
      <trkpt lat="44.84467" lon="0.58891">
        <ele>41</ele>
        <time>2014-07-21T09:46:09.000Z</time>
      </trkpt>
      <trkpt lat="44.84467" lon="0.5889">
        <ele>41</ele>
        <time>2014-07-21T09:46:10.000Z</time>
      </trkpt>
      <trkpt lat="44.84467" lon="0.58889">
        <ele>41</ele>
        <time>2014-07-21T09:46:11.000Z</time>
      </trkpt>
      <trkpt lat="44.84466" lon="0.58888">
        <ele>41</ele>
        <time>2014-07-21T09:46:12.000Z</time>
      </trkpt>
      <trkpt lat="44.84466" lon="0.58887">
        <ele>41</ele>
        <time>2014-07-21T09:46:13.000Z</time>
      </trkpt>
      <trkpt lat="44.84466" lon="0.58885">
        <ele>41</ele>
        <time>2014-07-21T09:46:14.000Z</time>
      </trkpt>
      <trkpt lat="44.84466" lon="0.58884">
        <ele>41</ele>
        <time>2014-07-21T09:46:15.000Z</time>
      </trkpt>
      <trkpt lat="44.84465" lon="0.58883">
        <ele>41</ele>
        <time>2014-07-21T09:46:16.000Z</time>
      </trkpt>
      <trkpt lat="44.84465" lon="0.58882">
        <ele>42</ele>
        <time>2014-07-21T09:46:17.000Z</time>
      </trkpt>
      <trkpt lat="44.84465" lon="0.58881">
        <ele>42</ele>
        <time>2014-07-21T09:46:18.000Z</time>
      </trkpt>
      <trkpt lat="44.84465" lon="0.5888">
        <ele>42</ele>
        <time>2014-07-21T09:46:19.000Z</time>
      </trkpt>
      <trkpt lat="44.84465" lon="0.58879">
        <ele>42</ele>
        <time>2014-07-21T09:46:20.000Z</time>
      </trkpt>
      <trkpt lat="44.84465" lon="0.58878">
        <ele>42</ele>
        <time>2014-07-21T09:46:21.000Z</time>
      </trkpt>
      <trkpt lat="44.84464" lon="0.58877">
        <ele>42</ele>
        <time>2014-07-21T09:46:22.000Z</time>
      </trkpt>
      <trkpt lat="44.84464" lon="0.58876">
        <ele>42</ele>
        <time>2014-07-21T09:46:23.000Z</time>
      </trkpt>
      <trkpt lat="44.84464" lon="0.58876">
        <ele>42</ele>
        <time>2014-07-21T09:46:24.000Z</time>
      </trkpt>
      <trkpt lat="44.84464" lon="0.58875">
        <ele>42</ele>
        <time>2014-07-21T09:46:25.000Z</time>
      </trkpt>
      <trkpt lat="44.84464" lon="0.58874">
        <ele>42</ele>
        <time>2014-07-21T09:46:26.000Z</time>
      </trkpt>
      <trkpt lat="44.84464" lon="0.58874">
        <ele>42</ele>
        <time>2014-07-21T09:46:27.000Z</time>
      </trkpt>
      <trkpt lat="44.84464" lon="0.58873">
        <ele>42</ele>
        <time>2014-07-21T09:46:28.000Z</time>
      </trkpt>
      <trkpt lat="44.84464" lon="0.58872">
        <ele>42</ele>
        <time>2014-07-21T09:46:29.000Z</time>
      </trkpt>
      <trkpt lat="44.84464" lon="0.58872">
        <ele>42</ele>
        <time>2014-07-21T09:46:30.000Z</time>
      </trkpt>
      <trkpt lat="44.84463" lon="0.58872">
        <ele>42</ele>
        <time>2014-07-21T09:46:31.000Z</time>
      </trkpt>
      <trkpt lat="44.84463" lon="0.58871">
        <ele>42</ele>
        <time>2014-07-21T09:46:32.000Z</time>
      </trkpt>
      <trkpt lat="44.84463" lon="0.58871">
        <ele>42</ele>
        <time>2014-07-21T09:46:33.000Z</time>
      </trkpt>
      <trkpt lat="44.84463" lon="0.58871">
        <ele>42</ele>
        <time>2014-07-21T09:46:34.000Z</time>
      </trkpt>
      <trkpt lat="44.84463" lon="0.5887">
        <ele>42</ele>
        <time>2014-07-21T09:46:35.000Z</time>
      </trkpt>
      <trkpt lat="44.84463" lon="0.5887">
        <ele>42</ele>
        <time>2014-07-21T09:46:36.000Z</time>
      </trkpt>
      <trkpt lat="44.84463" lon="0.5887">
        <ele>42</ele>
        <time>2014-07-21T09:46:37.000Z</time>
      </trkpt>
      <trkpt lat="44.84463" lon="0.5887">
        <ele>42</ele>
        <time>2014-07-21T09:46:38.000Z</time>
      </trkpt>
      <trkpt lat="44.84463" lon="0.5887">
        <ele>42</ele>
        <time>2014-07-21T09:46:39.000Z</time>
      </trkpt>
      <trkpt lat="44.84463" lon="0.5887">
        <ele>42</ele>
        <time>2014-07-21T09:46:40.000Z</time>
      </trkpt>
      <trkpt lat="44.84463" lon="0.5887">
        <ele>42</ele>
        <time>2014-07-21T09:46:41.000Z</time>
      </trkpt>
      <trkpt lat="44.84463" lon="0.5887">
        <ele>42</ele>
        <time>2014-07-21T09:46:42.000Z</time>
      </trkpt>
      <trkpt lat="44.84463" lon="0.5887">
        <ele>42</ele>
        <time>2014-07-21T09:46:43.000Z</time>
      </trkpt>
      <trkpt lat="44.84463" lon="0.58865">
        <ele>42</ele>
        <time>2014-07-21T09:46:58.000Z</time>
      </trkpt>
      <trkpt lat="44.84463" lon="0.58865">
        <ele>42</ele>
        <time>2014-07-21T09:46:59.000Z</time>
      </trkpt>
      <trkpt lat="44.84463" lon="0.58864">
        <ele>42</ele>
        <time>2014-07-21T09:47:00.000Z</time>
      </trkpt>
      <trkpt lat="44.84462" lon="0.58862">
        <ele>42</ele>
        <time>2014-07-21T09:47:01.000Z</time>
      </trkpt>
      <trkpt lat="44.84462" lon="0.5886">
        <ele>42</ele>
        <time>2014-07-21T09:47:02.000Z</time>
      </trkpt>
      <trkpt lat="44.84461" lon="0.58856">
        <ele>42</ele>
        <time>2014-07-21T09:47:03.000Z</time>
      </trkpt>
      <trkpt lat="44.8446" lon="0.58853">
        <ele>42</ele>
        <time>2014-07-21T09:47:04.000Z</time>
      </trkpt>
      <trkpt lat="44.84459" lon="0.5885">
        <ele>42</ele>
        <time>2014-07-21T09:47:05.000Z</time>
      </trkpt>
      <trkpt lat="44.84459" lon="0.58847">
        <ele>42</ele>
        <time>2014-07-21T09:47:06.000Z</time>
      </trkpt>
      <trkpt lat="44.84458" lon="0.58843">
        <ele>42</ele>
        <time>2014-07-21T09:47:07.000Z</time>
      </trkpt>
      <trkpt lat="44.84457" lon="0.5884">
        <ele>42</ele>
        <time>2014-07-21T09:47:08.000Z</time>
      </trkpt>
      <trkpt lat="44.84457" lon="0.58836">
        <ele>42</ele>
        <time>2014-07-21T09:47:09.000Z</time>
      </trkpt>
      <trkpt lat="44.84456" lon="0.58832">
        <ele>43</ele>
        <time>2014-07-21T09:47:10.000Z</time>
      </trkpt>
      <trkpt lat="44.84455" lon="0.58829">
        <ele>43</ele>
        <time>2014-07-21T09:47:11.000Z</time>
      </trkpt>
      <trkpt lat="44.84454" lon="0.58825">
        <ele>43</ele>
        <time>2014-07-21T09:47:12.000Z</time>
      </trkpt>
      <trkpt lat="44.84453" lon="0.58821">
        <ele>43</ele>
        <time>2014-07-21T09:47:13.000Z</time>
      </trkpt>
      <trkpt lat="44.84452" lon="0.58817">
        <ele>43</ele>
        <time>2014-07-21T09:47:14.000Z</time>
      </trkpt>
      <trkpt lat="44.84452" lon="0.58813">
        <ele>43</ele>
        <time>2014-07-21T09:47:15.000Z</time>
      </trkpt>
      <trkpt lat="44.84451" lon="0.58809">
        <ele>43</ele>
        <time>2014-07-21T09:47:16.000Z</time>
      </trkpt>
      <trkpt lat="44.8445" lon="0.58805">
        <ele>43</ele>
        <time>2014-07-21T09:47:17.000Z</time>
      </trkpt>
      <trkpt lat="44.84449" lon="0.58801">
        <ele>43</ele>
        <time>2014-07-21T09:47:18.000Z</time>
      </trkpt>
      <trkpt lat="44.84447" lon="0.58797">
        <ele>43</ele>
        <time>2014-07-21T09:47:19.000Z</time>
      </trkpt>
      <trkpt lat="44.84446" lon="0.58793">
        <ele>43</ele>
        <time>2014-07-21T09:47:20.000Z</time>
      </trkpt>
      <trkpt lat="44.84446" lon="0.58789">
        <ele>43</ele>
        <time>2014-07-21T09:47:21.000Z</time>
      </trkpt>
      <trkpt lat="44.84445" lon="0.58785">
        <ele>43</ele>
        <time>2014-07-21T09:47:22.000Z</time>
      </trkpt>
      <trkpt lat="44.84444" lon="0.58781">
        <ele>44</ele>
        <time>2014-07-21T09:47:23.000Z</time>
      </trkpt>
      <trkpt lat="44.84443" lon="0.58777">
        <ele>44</ele>
        <time>2014-07-21T09:47:24.000Z</time>
      </trkpt>
      <trkpt lat="44.84442" lon="0.58773">
        <ele>44</ele>
        <time>2014-07-21T09:47:25.000Z</time>
      </trkpt>
      <trkpt lat="44.84441" lon="0.58769">
        <ele>44</ele>
        <time>2014-07-21T09:47:26.000Z</time>
      </trkpt>
      <trkpt lat="44.84441" lon="0.58765">
        <ele>44</ele>
        <time>2014-07-21T09:47:27.000Z</time>
      </trkpt>
      <trkpt lat="44.8444" lon="0.58761">
        <ele>44</ele>
        <time>2014-07-21T09:47:28.000Z</time>
      </trkpt>
      <trkpt lat="44.84439" lon="0.58757">
        <ele>44</ele>
        <time>2014-07-21T09:47:29.000Z</time>
      </trkpt>
      <trkpt lat="44.84439" lon="0.58753">
        <ele>44</ele>
        <time>2014-07-21T09:47:30.000Z</time>
      </trkpt>
      <trkpt lat="44.84438" lon="0.58749">
        <ele>44</ele>
        <time>2014-07-21T09:47:31.000Z</time>
      </trkpt>
      <trkpt lat="44.84437" lon="0.58746">
        <ele>44</ele>
        <time>2014-07-21T09:47:32.000Z</time>
      </trkpt>
      <trkpt lat="44.84436" lon="0.58742">
        <ele>44</ele>
        <time>2014-07-21T09:47:33.000Z</time>
      </trkpt>
      <trkpt lat="44.84435" lon="0.58738">
        <ele>44</ele>
        <time>2014-07-21T09:47:34.000Z</time>
      </trkpt>
      <trkpt lat="44.84434" lon="0.58735">
        <ele>44</ele>
        <time>2014-07-21T09:47:35.000Z</time>
      </trkpt>
      <trkpt lat="44.84433" lon="0.58731">
        <ele>44</ele>
        <time>2014-07-21T09:47:36.000Z</time>
      </trkpt>
      <trkpt lat="44.84431" lon="0.58728">
        <ele>45</ele>
        <time>2014-07-21T09:47:37.000Z</time>
      </trkpt>
      <trkpt lat="44.8443" lon="0.58725">
        <ele>45</ele>
        <time>2014-07-21T09:47:38.000Z</time>
      </trkpt>
      <trkpt lat="44.84428" lon="0.58721">
        <ele>45</ele>
        <time>2014-07-21T09:47:39.000Z</time>
      </trkpt>
      <trkpt lat="44.84426" lon="0.58718">
        <ele>45</ele>
        <time>2014-07-21T09:47:40.000Z</time>
      </trkpt>
      <trkpt lat="44.84424" lon="0.58715">
        <ele>45</ele>
        <time>2014-07-21T09:47:41.000Z</time>
      </trkpt>
      <trkpt lat="44.84422" lon="0.58712">
        <ele>45</ele>
        <time>2014-07-21T09:47:42.000Z</time>
      </trkpt>
      <trkpt lat="44.8442" lon="0.58709">
        <ele>45</ele>
        <time>2014-07-21T09:47:43.000Z</time>
      </trkpt>
      <trkpt lat="44.84418" lon="0.58706">
        <ele>45</ele>
        <time>2014-07-21T09:47:44.000Z</time>
      </trkpt>
      <trkpt lat="44.84416" lon="0.58703">
        <ele>46</ele>
        <time>2014-07-21T09:47:45.000Z</time>
      </trkpt>
      <trkpt lat="44.84413" lon="0.587">
        <ele>46</ele>
        <time>2014-07-21T09:47:46.000Z</time>
      </trkpt>
      <trkpt lat="44.84411" lon="0.58697">
        <ele>46</ele>
        <time>2014-07-21T09:47:47.000Z</time>
      </trkpt>
      <trkpt lat="44.84408" lon="0.58695">
        <ele>46</ele>
        <time>2014-07-21T09:47:48.000Z</time>
      </trkpt>
      <trkpt lat="44.84406" lon="0.58692">
        <ele>46</ele>
        <time>2014-07-21T09:47:49.000Z</time>
      </trkpt>
      <trkpt lat="44.84403" lon="0.5869">
        <ele>46</ele>
        <time>2014-07-21T09:47:50.000Z</time>
      </trkpt>
      <trkpt lat="44.84401" lon="0.58687">
        <ele>46</ele>
        <time>2014-07-21T09:47:51.000Z</time>
      </trkpt>
      <trkpt lat="44.84398" lon="0.58685">
        <ele>46</ele>
        <time>2014-07-21T09:47:52.000Z</time>
      </trkpt>
      <trkpt lat="44.84395" lon="0.58683">
        <ele>46</ele>
        <time>2014-07-21T09:47:53.000Z</time>
      </trkpt>
      <trkpt lat="44.84393" lon="0.5868">
        <ele>46</ele>
        <time>2014-07-21T09:47:54.000Z</time>
      </trkpt>
      <trkpt lat="44.8439" lon="0.58678">
        <ele>46</ele>
        <time>2014-07-21T09:47:55.000Z</time>
      </trkpt>
      <trkpt lat="44.84387" lon="0.58676">
        <ele>46</ele>
        <time>2014-07-21T09:47:56.000Z</time>
      </trkpt>
      <trkpt lat="44.84384" lon="0.58674">
        <ele>46</ele>
        <time>2014-07-21T09:47:57.000Z</time>
      </trkpt>
      <trkpt lat="44.84381" lon="0.58672">
        <ele>46</ele>
        <time>2014-07-21T09:47:58.000Z</time>
      </trkpt>
      <trkpt lat="44.84378" lon="0.5867">
        <ele>46</ele>
        <time>2014-07-21T09:47:59.000Z</time>
      </trkpt>
      <trkpt lat="44.84376" lon="0.58668">
        <ele>46</ele>
        <time>2014-07-21T09:48:00.000Z</time>
      </trkpt>
      <trkpt lat="44.84373" lon="0.58666">
        <ele>46</ele>
        <time>2014-07-21T09:48:01.000Z</time>
      </trkpt>
      <trkpt lat="44.8437" lon="0.58664">
        <ele>46</ele>
        <time>2014-07-21T09:48:02.000Z</time>
      </trkpt>
      <trkpt lat="44.84367" lon="0.58662">
        <ele>46</ele>
        <time>2014-07-21T09:48:03.000Z</time>
      </trkpt>
      <trkpt lat="44.84364" lon="0.5866">
        <ele>46</ele>
        <time>2014-07-21T09:48:04.000Z</time>
      </trkpt>
      <trkpt lat="44.84361" lon="0.58658">
        <ele>46</ele>
        <time>2014-07-21T09:48:05.000Z</time>
      </trkpt>
      <trkpt lat="44.84358" lon="0.58656">
        <ele>46</ele>
        <time>2014-07-21T09:48:06.000Z</time>
      </trkpt>
      <trkpt lat="44.84355" lon="0.58654">
        <ele>46</ele>
        <time>2014-07-21T09:48:07.000Z</time>
      </trkpt>
      <trkpt lat="44.84352" lon="0.58652">
        <ele>46</ele>
        <time>2014-07-21T09:48:08.000Z</time>
      </trkpt>
      <trkpt lat="44.84349" lon="0.5865">
        <ele>46</ele>
        <time>2014-07-21T09:48:09.000Z</time>
      </trkpt>
      <trkpt lat="44.84347" lon="0.58648">
        <ele>46</ele>
        <time>2014-07-21T09:48:10.000Z</time>
      </trkpt>
      <trkpt lat="44.84344" lon="0.58646">
        <ele>46</ele>
        <time>2014-07-21T09:48:11.000Z</time>
      </trkpt>
      <trkpt lat="44.84341" lon="0.58644">
        <ele>46</ele>
        <time>2014-07-21T09:48:12.000Z</time>
      </trkpt>
      <trkpt lat="44.84338" lon="0.58642">
        <ele>46</ele>
        <time>2014-07-21T09:48:13.000Z</time>
      </trkpt>
      <trkpt lat="44.84335" lon="0.5864">
        <ele>46</ele>
        <time>2014-07-21T09:48:14.000Z</time>
      </trkpt>
      <trkpt lat="44.84333" lon="0.58638">
        <ele>45</ele>
        <time>2014-07-21T09:48:15.000Z</time>
      </trkpt>
      <trkpt lat="44.8433" lon="0.58636">
        <ele>45</ele>
        <time>2014-07-21T09:48:16.000Z</time>
      </trkpt>
      <trkpt lat="44.84327" lon="0.58633">
        <ele>45</ele>
        <time>2014-07-21T09:48:17.000Z</time>
      </trkpt>
      <trkpt lat="44.84324" lon="0.58631">
        <ele>45</ele>
        <time>2014-07-21T09:48:18.000Z</time>
      </trkpt>
      <trkpt lat="44.84322" lon="0.58629">
        <ele>45</ele>
        <time>2014-07-21T09:48:19.000Z</time>
      </trkpt>
      <trkpt lat="44.8432" lon="0.58628">
        <ele>45</ele>
        <time>2014-07-21T09:48:20.000Z</time>
      </trkpt>
      <trkpt lat="44.84318" lon="0.58626">
        <ele>45</ele>
        <time>2014-07-21T09:48:21.000Z</time>
      </trkpt>
      <trkpt lat="44.84317" lon="0.58626">
        <ele>45</ele>
        <time>2014-07-21T09:48:22.000Z</time>
      </trkpt>
      <trkpt lat="44.84316" lon="0.58625">
        <ele>45</ele>
        <time>2014-07-21T09:48:23.000Z</time>
      </trkpt>
      <trkpt lat="44.84315" lon="0.58625">
        <ele>45</ele>
        <time>2014-07-21T09:48:24.000Z</time>
      </trkpt>
      <trkpt lat="44.84314" lon="0.58624">
        <ele>45</ele>
        <time>2014-07-21T09:48:25.000Z</time>
      </trkpt>
      <trkpt lat="44.84314" lon="0.58623">
        <ele>45</ele>
        <time>2014-07-21T09:48:26.000Z</time>
      </trkpt>
      <trkpt lat="44.84314" lon="0.58622">
        <ele>45</ele>
        <time>2014-07-21T09:48:27.000Z</time>
      </trkpt>
      <trkpt lat="44.84313" lon="0.58621">
        <ele>45</ele>
        <time>2014-07-21T09:48:28.000Z</time>
      </trkpt>
      <trkpt lat="44.84314" lon="0.58618">
        <ele>45</ele>
        <time>2014-07-21T09:48:30.000Z</time>
      </trkpt>
      <trkpt lat="44.84314" lon="0.58618">
        <ele>45</ele>
        <time>2014-07-21T09:48:31.000Z</time>
      </trkpt>
      <trkpt lat="44.84314" lon="0.58618">
        <ele>45</ele>
        <time>2014-07-21T09:48:32.000Z</time>
      </trkpt>
      <trkpt lat="44.84314" lon="0.58618">
        <ele>45</ele>
        <time>2014-07-21T09:48:33.000Z</time>
      </trkpt>
      <trkpt lat="44.84314" lon="0.58618">
        <ele>45</ele>
        <time>2014-07-21T09:48:34.000Z</time>
      </trkpt>
      <trkpt lat="44.84314" lon="0.58618">
        <ele>45</ele>
        <time>2014-07-21T09:48:35.000Z</time>
      </trkpt>
      <trkpt lat="44.84314" lon="0.58618">
        <ele>45</ele>
        <time>2014-07-21T09:48:36.000Z</time>
      </trkpt>
      <trkpt lat="44.84314" lon="0.58618">
        <ele>45</ele>
        <time>2014-07-21T09:48:37.000Z</time>
      </trkpt>
      <trkpt lat="44.84314" lon="0.58618">
        <ele>45</ele>
        <time>2014-07-21T09:48:38.000Z</time>
      </trkpt>
      <trkpt lat="44.84313" lon="0.58617">
        <ele>45</ele>
        <time>2014-07-21T09:48:39.000Z</time>
      </trkpt>
      <trkpt lat="44.84313" lon="0.58617">
        <ele>45</ele>
        <time>2014-07-21T09:48:40.000Z</time>
      </trkpt>
      <trkpt lat="44.84313" lon="0.58617">
        <ele>45</ele>
        <time>2014-07-21T09:48:41.000Z</time>
      </trkpt>
      <trkpt lat="44.84313" lon="0.58617">
        <ele>45</ele>
        <time>2014-07-21T09:48:42.000Z</time>
      </trkpt>
      <trkpt lat="44.84313" lon="0.58617">
        <ele>45</ele>
        <time>2014-07-21T09:48:43.000Z</time>
      </trkpt>
      <trkpt lat="44.84313" lon="0.58617">
        <ele>45</ele>
        <time>2014-07-21T09:48:44.000Z</time>
      </trkpt>
      <trkpt lat="44.84314" lon="0.58617">
        <ele>45</ele>
        <time>2014-07-21T09:48:45.000Z</time>
      </trkpt>
      <trkpt lat="44.84314" lon="0.58617">
        <ele>45</ele>
        <time>2014-07-21T09:48:46.000Z</time>
      </trkpt>
      <trkpt lat="44.84314" lon="0.58616">
        <ele>45</ele>
        <time>2014-07-21T09:48:47.000Z</time>
      </trkpt>
      <trkpt lat="44.84314" lon="0.58616">
        <ele>45</ele>
        <time>2014-07-21T09:48:48.000Z</time>
      </trkpt>
      <trkpt lat="44.84314" lon="0.58616">
        <ele>45</ele>
        <time>2014-07-21T09:48:49.000Z</time>
      </trkpt>
      <trkpt lat="44.84314" lon="0.58616">
        <ele>45</ele>
        <time>2014-07-21T09:48:50.000Z</time>
      </trkpt>
      <trkpt lat="44.84314" lon="0.58616">
        <ele>45</ele>
        <time>2014-07-21T09:48:51.000Z</time>
      </trkpt>
      <trkpt lat="44.84314" lon="0.58615">
        <ele>45</ele>
        <time>2014-07-21T09:48:52.000Z</time>
      </trkpt>
      <trkpt lat="44.84314" lon="0.58615">
        <ele>45</ele>
        <time>2014-07-21T09:48:53.000Z</time>
      </trkpt>
      <trkpt lat="44.84314" lon="0.58614">
        <ele>45</ele>
        <time>2014-07-21T09:48:54.000Z</time>
      </trkpt>
      <trkpt lat="44.84315" lon="0.58613">
        <ele>45</ele>
        <time>2014-07-21T09:48:55.000Z</time>
      </trkpt>
      <trkpt lat="44.84316" lon="0.58613">
        <ele>45</ele>
        <time>2014-07-21T09:48:56.000Z</time>
      </trkpt>
      <trkpt lat="44.84317" lon="0.58612">
        <ele>45</ele>
        <time>2014-07-21T09:48:57.000Z</time>
      </trkpt>
      <trkpt lat="44.84318" lon="0.58612">
        <ele>45</ele>
        <time>2014-07-21T09:48:58.000Z</time>
      </trkpt>
      <trkpt lat="44.84318" lon="0.58612">
        <ele>45</ele>
        <time>2014-07-21T09:48:59.000Z</time>
      </trkpt>
      <trkpt lat="44.84319" lon="0.58611">
        <ele>45</ele>
        <time>2014-07-21T09:49:00.000Z</time>
      </trkpt>
      <trkpt lat="44.8432" lon="0.58611">
        <ele>45</ele>
        <time>2014-07-21T09:49:01.000Z</time>
      </trkpt>
      <trkpt lat="44.8432" lon="0.58611">
        <ele>45</ele>
        <time>2014-07-21T09:49:02.000Z</time>
      </trkpt>
      <trkpt lat="44.8432" lon="0.58611">
        <ele>45</ele>
        <time>2014-07-21T09:49:03.000Z</time>
      </trkpt>
      <trkpt lat="44.8432" lon="0.58611">
        <ele>45</ele>
        <time>2014-07-21T09:49:04.000Z</time>
      </trkpt>
      <trkpt lat="44.84321" lon="0.58608">
        <ele>45</ele>
        <time>2014-07-21T09:49:06.000Z</time>
      </trkpt>
      <trkpt lat="44.84321" lon="0.58608">
        <ele>45</ele>
        <time>2014-07-21T09:49:07.000Z</time>
      </trkpt>
      <trkpt lat="44.84321" lon="0.58608">
        <ele>45</ele>
        <time>2014-07-21T09:49:08.000Z</time>
      </trkpt>
      <trkpt lat="44.84321" lon="0.58608">
        <ele>45</ele>
        <time>2014-07-21T09:49:09.000Z</time>
      </trkpt>
      <trkpt lat="44.84321" lon="0.58608">
        <ele>45</ele>
        <time>2014-07-21T09:49:10.000Z</time>
      </trkpt>
      <trkpt lat="44.84321" lon="0.58608">
        <ele>45</ele>
        <time>2014-07-21T09:49:11.000Z</time>
      </trkpt>
      <trkpt lat="44.84321" lon="0.58608">
        <ele>45</ele>
        <time>2014-07-21T09:49:12.000Z</time>
      </trkpt>
      <trkpt lat="44.84321" lon="0.58608">
        <ele>45</ele>
        <time>2014-07-21T09:49:13.000Z</time>
      </trkpt>
      <trkpt lat="44.84321" lon="0.58608">
        <ele>45</ele>
        <time>2014-07-21T09:49:14.000Z</time>
      </trkpt>
      <trkpt lat="44.84321" lon="0.58608">
        <ele>45</ele>
        <time>2014-07-21T09:49:15.000Z</time>
      </trkpt>
      <trkpt lat="44.84322" lon="0.58608">
        <ele>45</ele>
        <time>2014-07-21T09:49:16.000Z</time>
      </trkpt>
      <trkpt lat="44.84322" lon="0.58608">
        <ele>45</ele>
        <time>2014-07-21T09:49:17.000Z</time>
      </trkpt>
      <trkpt lat="44.84322" lon="0.58608">
        <ele>45</ele>
        <time>2014-07-21T09:49:18.000Z</time>
      </trkpt>
      <trkpt lat="44.84322" lon="0.58608">
        <ele>45</ele>
        <time>2014-07-21T09:49:19.000Z</time>
      </trkpt>
      <trkpt lat="44.84322" lon="0.58608">
        <ele>45</ele>
        <time>2014-07-21T09:49:20.000Z</time>
      </trkpt>
      <trkpt lat="44.84322" lon="0.58608">
        <ele>45</ele>
        <time>2014-07-21T09:49:21.000Z</time>
      </trkpt>
      <trkpt lat="44.84326" lon="0.58607">
        <ele>45</ele>
        <time>2014-07-21T09:49:25.000Z</time>
      </trkpt>
      <trkpt lat="44.84326" lon="0.58607">
        <ele>45</ele>
        <time>2014-07-21T09:49:26.000Z</time>
      </trkpt>
      <trkpt lat="44.84326" lon="0.58607">
        <ele>45</ele>
        <time>2014-07-21T09:49:27.000Z</time>
      </trkpt>
      <trkpt lat="44.84326" lon="0.58607">
        <ele>45</ele>
        <time>2014-07-21T09:49:28.000Z</time>
      </trkpt>
      <trkpt lat="44.84326" lon="0.58607">
        <ele>45</ele>
        <time>2014-07-21T09:49:29.000Z</time>
      </trkpt>
      <trkpt lat="44.84326" lon="0.58607">
        <ele>45</ele>
        <time>2014-07-21T09:49:30.000Z</time>
      </trkpt>
      <trkpt lat="44.84326" lon="0.58607">
        <ele>45</ele>
        <time>2014-07-21T09:49:31.000Z</time>
      </trkpt>
      <trkpt lat="44.84326" lon="0.58607">
        <ele>45</ele>
        <time>2014-07-21T09:49:32.000Z</time>
      </trkpt>
    </trkseg>
  </trk>
</gpx>